<?xml version='1.0' encoding='UTF-8'?><gpx version="1.1" creator="JPX - https://github.com/jenetics/jpx" xmlns="http://www.topografix.com/GPX/1/1"><trk><trkseg><trkpt lat="43.86057549177221" lon="11.579560202480742"><ele>332.0</ele><time>2026-05-02T06:22:28.703Z</time></trkpt><trkpt lat="43.86064320793561" lon="11.579684245274711"><ele>332.0</ele><time>2026-05-02T06:22:31.703Z</time></trkpt><trkpt lat="43.860729309917346" lon="11.579732897564229"><ele>332.0</ele><time>2026-05-02T06:22:40.703Z</time></trkpt><trkpt lat="43.86081604657587" lon="11.57970553043798"><ele>332.0</ele><time>2026-05-02T06:22:44.702Z</time></trkpt><trkpt lat="43.860892558043204" lon="11.579659052891977"><ele>332.0</ele><time>2026-05-02T06:22:46.702Z</time></trkpt><trkpt lat="43.861078827101416" lon="11.580171317477472"><ele>335.33333333333337</ele><time>2026-05-02T06:22:53.702Z</time></trkpt><trkpt lat="43.86107567262264" lon="11.58031106651517"><ele>338.6666666666667</ele><time>2026-05-02T06:22:54.702Z</time></trkpt><trkpt lat="43.8610633049609" lon="11.580446930914327"><ele>342.0</ele><time>2026-05-02T06:22:55.702Z</time></trkpt><trkpt lat="43.8610309121721" lon="11.579807858866355"><ele>342.0</ele><time>2026-05-02T06:22:56.702Z</time></trkpt><trkpt lat="43.86104013451136" lon="11.57971725621424"><ele>342.0</ele><time>2026-05-02T06:22:57.702Z</time></trkpt><trkpt lat="43.86105635059605" lon="11.57957800615816"><ele>342.0</ele><time>2026-05-02T06:22:58.702Z</time></trkpt><trkpt lat="43.861038249390674" lon="11.57946908492602"><ele>342.0</ele><time>2026-05-02T06:23:01.702Z</time></trkpt><trkpt lat="43.86091897698719" lon="11.579591635905244"><ele>342.0</ele><time>2026-05-02T06:23:02.702Z</time></trkpt><trkpt lat="43.860832137324216" lon="11.579616290760432"><ele>340.3333333333333</ele><time>2026-05-02T06:23:03.702Z</time></trkpt><trkpt lat="43.860774704203614" lon="11.579656981897715"><ele>338.6666666666667</ele><time>2026-05-02T06:23:04.702Z</time></trkpt><trkpt lat="43.86065366578263" lon="11.57973416605101"><ele>337.0</ele><time>2026-05-02T06:23:05.702Z</time></trkpt><trkpt lat="43.86058857957021" lon="11.579704584228635"><ele>335.33333333333337</ele><time>2026-05-02T06:23:16.999Z</time></trkpt><trkpt lat="43.86052560363343" lon="11.579661404780664"><ele>333.6666666666667</ele><time>2026-05-02T06:23:21.999Z</time></trkpt><trkpt lat="43.8604668229315" lon="11.579603208423949"><ele>332.0</ele><time>2026-05-02T06:23:27.999Z</time></trkpt><trkpt lat="43.860411151866316" lon="11.579525247496509"><ele>329.1666666666667</ele><time>2026-05-02T06:23:32.999Z</time></trkpt><trkpt lat="43.86034133249872" lon="11.57945706175448"><ele>326.33333333333337</ele><time>2026-05-02T06:23:35.999Z</time></trkpt><trkpt lat="43.86029105678829" lon="11.579390180089955"><ele>323.5</ele><time>2026-05-02T06:23:39.999Z</time></trkpt><trkpt lat="43.86032693437513" lon="11.579312355967156"><ele>320.6666666666667</ele><time>2026-05-02T06:23:41.999Z</time></trkpt><trkpt lat="43.86037194363414" lon="11.579196652500253"><ele>317.8333333333333</ele><time>2026-05-02T06:23:44.999Z</time></trkpt><trkpt lat="43.86042099183869" lon="11.579099932855"><ele>315.0</ele><time>2026-05-02T06:23:46.999Z</time></trkpt><trkpt lat="43.86046624725287" lon="11.579010933355367"><ele>315.0</ele><time>2026-05-02T06:23:48.999Z</time></trkpt><trkpt lat="43.860516068514315" lon="11.578934110059851"><ele>315.0</ele><time>2026-05-02T06:23:50.999Z</time></trkpt><trkpt lat="43.8605705965552" lon="11.57887290275728"><ele>315.0</ele><time>2026-05-02T06:23:52.999Z</time></trkpt><trkpt lat="43.86064354976262" lon="11.578816744506241"><ele>315.0</ele><time>2026-05-02T06:23:55.999Z</time></trkpt><trkpt lat="43.860709711729534" lon="11.578797884136069"><ele>315.0</ele><time>2026-05-02T06:24:01.999Z</time></trkpt><trkpt lat="43.86076005789588" lon="11.578733089184974"><ele>315.0</ele><time>2026-05-02T06:24:24.001Z</time></trkpt><trkpt lat="43.86082301303359" lon="11.578596371335449"><ele>313.1666666666667</ele><time>2026-05-02T06:24:26.001Z</time></trkpt><trkpt lat="43.86089792653844" lon="11.578512788612585"><ele>311.3333333333333</ele><time>2026-05-02T06:24:28.001Z</time></trkpt><trkpt lat="43.86095414179791" lon="11.578439137518316"><ele>309.5</ele><time>2026-05-02T06:24:30.001Z</time></trkpt><trkpt lat="43.86096962350329" lon="11.578303792025858"><ele>307.66666666666663</ele><time>2026-05-02T06:24:32.001Z</time></trkpt><trkpt lat="43.86100889386343" lon="11.578231626148746"><ele>305.8333333333333</ele><time>2026-05-02T06:24:33.001Z</time></trkpt><trkpt lat="43.86108967063463" lon="11.578180236945387"><ele>304.0</ele><time>2026-05-02T06:24:34.001Z</time></trkpt><trkpt lat="43.86120441688873" lon="11.578167519548053"><ele>304.0</ele><time>2026-05-02T06:24:35.001Z</time></trkpt><trkpt lat="43.8613295014782" lon="11.5781749109128"><ele>304.0</ele><time>2026-05-02T06:24:36.001Z</time></trkpt><trkpt lat="43.86139891883059" lon="11.578161339567584"><ele>304.0</ele><time>2026-05-02T06:24:37Z</time></trkpt><trkpt lat="43.861488635640605" lon="11.57808541657175"><ele>304.0</ele><time>2026-05-02T06:24:39Z</time></trkpt><trkpt lat="43.8615562074812" lon="11.577991219401722"><ele>304.0</ele><time>2026-05-02T06:24:40Z</time></trkpt><trkpt lat="43.8615974909685" lon="11.577894784403588"><ele>300.59999999999997</ele><time>2026-05-02T06:24:41Z</time></trkpt><trkpt lat="43.86164086588588" lon="11.577780674154292"><ele>297.2</ele><time>2026-05-02T06:24:43Z</time></trkpt><trkpt lat="43.86166575823405" lon="11.577686143395999"><ele>293.79999999999995</ele><time>2026-05-02T06:24:45Z</time></trkpt><trkpt lat="43.861760100500035" lon="11.577577123573244"><ele>290.4</ele><time>2026-05-02T06:24:47Z</time></trkpt><trkpt lat="43.86185823933554" lon="11.577540810557867"><ele>287.0</ele><time>2026-05-02T06:24:48Z</time></trkpt><trkpt lat="43.86197756141755" lon="11.577500803710187"><ele>284.8</ele><time>2026-05-02T06:24:49Z</time></trkpt><trkpt lat="43.86209475252409" lon="11.577461257174637"><ele>282.6</ele><time>2026-05-02T06:24:50Z</time></trkpt><trkpt lat="43.86218891706968" lon="11.577431035114845"><ele>280.40000000000003</ele><time>2026-05-02T06:24:51Z</time></trkpt><trkpt lat="43.86226596637822" lon="11.57741315145549"><ele>278.2</ele><time>2026-05-02T06:24:52Z</time></trkpt><trkpt lat="43.862378970126024" lon="11.577374942190906"><ele>276.0</ele><time>2026-05-02T06:24:54Z</time></trkpt><trkpt lat="43.862416536174656" lon="11.577294334117338"><ele>276.0</ele><time>2026-05-02T06:24:57Z</time></trkpt><trkpt lat="43.862365698907006" lon="11.577222304965613"><ele>276.0</ele><time>2026-05-02T06:24:59Z</time></trkpt><trkpt lat="43.8622309461698" lon="11.577200205599063"><ele>276.0</ele><time>2026-05-02T06:25:01Z</time></trkpt><trkpt lat="43.86215559467627" lon="11.577210948614882"><ele>276.0</ele><time>2026-05-02T06:25:02Z</time></trkpt><trkpt lat="43.86206606525763" lon="11.577237247922373"><ele>276.0</ele><time>2026-05-02T06:25:03Z</time></trkpt><trkpt lat="43.86196952438322" lon="11.577239329666941"><ele>276.0</ele><time>2026-05-02T06:25:04Z</time></trkpt><trkpt lat="43.86187943147389" lon="11.57725213404637"><ele>276.0</ele><time>2026-05-02T06:25:05Z</time></trkpt><trkpt lat="43.86178902845973" lon="11.577231635652259"><ele>276.0</ele><time>2026-05-02T06:25:06Z</time></trkpt><trkpt lat="43.8617118936209" lon="11.577224925321786"><ele>276.0</ele><time>2026-05-02T06:25:07Z</time></trkpt><trkpt lat="43.86163760679946" lon="11.577157093754764"><ele>276.0</ele><time>2026-05-02T06:25:08Z</time></trkpt><trkpt lat="43.86157856928747" lon="11.577122706219107"><ele>276.0</ele><time>2026-05-02T06:25:09Z</time></trkpt><trkpt lat="43.86163914921995" lon="11.577149624205212"><ele>277.8333333333333</ele><time>2026-05-02T06:26:04Z</time></trkpt><trkpt lat="43.861571926538495" lon="11.577153561792931"><ele>279.6666666666667</ele><time>2026-05-02T06:26:56Z</time></trkpt><trkpt lat="43.86163568859234" lon="11.577106215787072"><ele>281.5</ele><time>2026-05-02T06:27:26Z</time></trkpt><trkpt lat="43.86172624967668" lon="11.57705534603847"><ele>283.33333333333337</ele><time>2026-05-02T06:29:34Z</time></trkpt><trkpt lat="43.86165875310528" lon="11.577075791818364"><ele>285.1666666666667</ele><time>2026-05-02T06:29:48Z</time></trkpt><trkpt lat="43.86156915649859" lon="11.57712444320504"><ele>287.0</ele><time>2026-05-02T06:31:24Z</time></trkpt><trkpt lat="43.86161581828287" lon="11.577060566358172"><ele>283.85714285714283</ele><time>2026-05-02T06:31:56Z</time></trkpt><trkpt lat="43.86161372900463" lon="11.57695831579445"><ele>280.7142857142857</ele><time>2026-05-02T06:33:03Z</time></trkpt><trkpt lat="43.86154640190171" lon="11.576939611906246"><ele>277.57142857142856</ele><time>2026-05-02T06:33:10Z</time></trkpt><trkpt lat="43.86148117357128" lon="11.576955493435335"><ele>274.42857142857144</ele><time>2026-05-02T06:33:17Z</time></trkpt><trkpt lat="43.86143014922313" lon="11.577016648686834"><ele>271.2857142857143</ele><time>2026-05-02T06:33:45Z</time></trkpt><trkpt lat="43.86150686374582" lon="11.577007622363222"><ele>268.1428571428571</ele><time>2026-05-02T06:36:36.999Z</time></trkpt><trkpt lat="43.8615432402452" lon="11.57693540396986"><ele>265.0</ele><time>2026-05-02T06:36:59Z</time></trkpt><trkpt lat="43.86160084053639" lon="11.576986775736172"><ele>266.8333333333333</ele><time>2026-05-02T06:37:20Z</time></trkpt><trkpt lat="43.86161854441006" lon="11.57707056387256"><ele>268.66666666666663</ele><time>2026-05-02T06:37:29Z</time></trkpt><trkpt lat="43.86166398854057" lon="11.577136808838228"><ele>270.5</ele><time>2026-05-02T06:38:07Z</time></trkpt><trkpt lat="43.861724103838846" lon="11.57718289939127"><ele>272.3333333333333</ele><time>2026-05-02T06:38:54.999Z</time></trkpt><trkpt lat="43.8617841125916" lon="11.57724208827704"><ele>274.1666666666667</ele><time>2026-05-02T06:38:58.999Z</time></trkpt><trkpt lat="43.861911641810984" lon="11.577249269201308"><ele>276.0</ele><time>2026-05-02T06:39:01Z</time></trkpt><trkpt lat="43.86199693762648" lon="11.577224678962768"><ele>276.0</ele><time>2026-05-02T06:39:02Z</time></trkpt><trkpt lat="43.86210858731367" lon="11.577252519359828"><ele>276.0</ele><time>2026-05-02T06:39:04Z</time></trkpt><trkpt lat="43.86217299104441" lon="11.57722253863775"><ele>276.0</ele><time>2026-05-02T06:39:05Z</time></trkpt><trkpt lat="43.86228584225115" lon="11.577209073677112"><ele>276.0</ele><time>2026-05-02T06:39:07Z</time></trkpt><trkpt lat="43.86236538011303" lon="11.57724212308145"><ele>276.0</ele><time>2026-05-02T06:39:09Z</time></trkpt><trkpt lat="43.86239988558988" lon="11.577318241804997"><ele>276.0</ele><time>2026-05-02T06:39:11Z</time></trkpt><trkpt lat="43.86234831135736" lon="11.57737535249441"><ele>276.0</ele><time>2026-05-02T06:39:14Z</time></trkpt><trkpt lat="43.862255958467095" lon="11.577397731778747"><ele>276.0</ele><time>2026-05-02T06:39:17Z</time></trkpt><trkpt lat="43.86213342326896" lon="11.577431952208348"><ele>276.0</ele><time>2026-05-02T06:39:19Z</time></trkpt><trkpt lat="43.8620580304931" lon="11.577456313277207"><ele>276.0</ele><time>2026-05-02T06:39:20Z</time></trkpt><trkpt lat="43.86198745661751" lon="11.577472844418095"><ele>276.0</ele><time>2026-05-02T06:39:21Z</time></trkpt><trkpt lat="43.86191075194357" lon="11.577500172088584"><ele>276.0</ele><time>2026-05-02T06:39:22Z</time></trkpt><trkpt lat="43.861833621325275" lon="11.577521325804037"><ele>277.8333333333333</ele><time>2026-05-02T06:39:23Z</time></trkpt><trkpt lat="43.861767281201935" lon="11.57754645905797"><ele>279.6666666666667</ele><time>2026-05-02T06:39:24Z</time></trkpt><trkpt lat="43.86170728241794" lon="11.577580800874967"><ele>281.5</ele><time>2026-05-02T06:39:25Z</time></trkpt><trkpt lat="43.86164613371989" lon="11.577658743789693"><ele>283.33333333333337</ele><time>2026-05-02T06:39:27Z</time></trkpt><trkpt lat="43.861666408953994" lon="11.577772062984966"><ele>285.1666666666667</ele><time>2026-05-02T06:39:45Z</time></trkpt><trkpt lat="43.8617741401928" lon="11.577762877073008"><ele>287.0</ele><time>2026-05-02T06:39:47Z</time></trkpt><trkpt lat="43.86173063630765" lon="11.577691818979494"><ele>287.0</ele><time>2026-05-02T06:39:52Z</time></trkpt><trkpt lat="43.861674720843354" lon="11.57774142272573"><ele>287.0</ele><time>2026-05-02T06:50:55.999Z</time></trkpt><trkpt lat="43.86162161458296" lon="11.577801094813582"><ele>287.0</ele><time>2026-05-02T06:50:58.999Z</time></trkpt><trkpt lat="43.86155443888467" lon="11.577960526814483"><ele>287.0</ele><time>2026-05-02T06:51:30.999Z</time></trkpt><trkpt lat="43.8615066846509" lon="11.578075225965101"><ele>287.0</ele><time>2026-05-02T06:51:31.999Z</time></trkpt><trkpt lat="43.86143113232174" lon="11.578182069534247"><ele>289.83333333333337</ele><time>2026-05-02T06:51:32.999Z</time></trkpt><trkpt lat="43.86137750321542" lon="11.578230614441507"><ele>292.6666666666667</ele><time>2026-05-02T06:51:34.999Z</time></trkpt><trkpt lat="43.86128488712413" lon="11.578223362059022"><ele>295.5</ele><time>2026-05-02T06:51:35.999Z</time></trkpt><trkpt lat="43.86119025100719" lon="11.578214605290723"><ele>298.3333333333333</ele><time>2026-05-02T06:51:36.999Z</time></trkpt><trkpt lat="43.861102393514805" lon="11.578225379952942"><ele>301.16666666666663</ele><time>2026-05-02T06:51:37.999Z</time></trkpt><trkpt lat="43.86102276733871" lon="11.578231491314439"><ele>304.0</ele><time>2026-05-02T06:51:38.999Z</time></trkpt><trkpt lat="43.860970390269905" lon="11.578327453702455"><ele>304.0</ele><time>2026-05-02T06:51:40.999Z</time></trkpt><trkpt lat="43.86094411083268" lon="11.57849434967037"><ele>304.0</ele><time>2026-05-02T06:51:42.999Z</time></trkpt><trkpt lat="43.86096142976573" lon="11.578589572225889"><ele>304.0</ele><time>2026-05-02T06:51:43.999Z</time></trkpt><trkpt lat="43.86100602998533" lon="11.578661323043873"><ele>304.0</ele><time>2026-05-02T06:51:44.999Z</time></trkpt><trkpt lat="43.86109983585377" lon="11.57874774144254"><ele>304.0</ele><time>2026-05-02T06:51:46.999Z</time></trkpt><trkpt lat="43.86114237232268" lon="11.578880622048114"><ele>305.8333333333333</ele><time>2026-05-02T06:51:48.999Z</time></trkpt><trkpt lat="43.86111638746843" lon="11.578971280771274"><ele>307.66666666666663</ele><time>2026-05-02T06:51:49.999Z</time></trkpt><trkpt lat="43.861077260891456" lon="11.579064607475967"><ele>309.5</ele><time>2026-05-02T06:51:50.999Z</time></trkpt><trkpt lat="43.861030570998295" lon="11.579179592840935"><ele>311.3333333333333</ele><time>2026-05-02T06:51:51.999Z</time></trkpt><trkpt lat="43.86100123271591" lon="11.579259987539986"><ele>313.1666666666667</ele><time>2026-05-02T06:51:52.999Z</time></trkpt><trkpt lat="43.86096912965941" lon="11.579357448250247"><ele>315.0</ele><time>2026-05-02T06:51:53.999Z</time></trkpt><trkpt lat="43.86092478599955" lon="11.57947079347353"><ele>316.1666666666667</ele><time>2026-05-02T06:51:54.999Z</time></trkpt><trkpt lat="43.860943202345965" lon="11.579590090745478"><ele>317.3333333333333</ele><time>2026-05-02T06:51:57.999Z</time></trkpt><trkpt lat="43.861006760129136" lon="11.579593977513548"><ele>318.5</ele><time>2026-05-02T06:51:58.999Z</time></trkpt><trkpt lat="43.86107707984287" lon="11.57954867597193"><ele>319.66666666666663</ele><time>2026-05-02T06:51:59.999Z</time></trkpt><trkpt lat="43.86115294867835" lon="11.579481690877985"><ele>320.8333333333333</ele><time>2026-05-02T06:52:00.999Z</time></trkpt><trkpt lat="43.86121762725388" lon="11.579444053301737"><ele>322.0</ele><time>2026-05-02T06:52:01.999Z</time></trkpt><trkpt lat="43.86127394017684" lon="11.579400914038638"><ele>322.0</ele><time>2026-05-02T06:52:02.999Z</time></trkpt><trkpt lat="43.86133622907223" lon="11.579359790580934"><ele>322.0</ele><time>2026-05-02T06:52:03.999Z</time></trkpt><trkpt lat="43.86140511481892" lon="11.579319154541096"><ele>322.0</ele><time>2026-05-02T06:52:04.999Z</time></trkpt><trkpt lat="43.86146502230523" lon="11.579282435133678"><ele>322.0</ele><time>2026-05-02T06:52:05.999Z</time></trkpt><trkpt lat="43.86152640914887" lon="11.579245563713501"><ele>322.0</ele><time>2026-05-02T06:52:06.999Z</time></trkpt><trkpt lat="43.861611017922925" lon="11.579208366232422"><ele>322.0</ele><time>2026-05-02T06:52:08.999Z</time></trkpt><trkpt lat="43.861719903747904" lon="11.579179788161486"><ele>322.0</ele><time>2026-05-02T06:52:10.999Z</time></trkpt><trkpt lat="43.861758767007686" lon="11.579277048901597"><ele>322.0</ele><time>2026-05-02T06:52:12.999Z</time></trkpt><trkpt lat="43.861705221843856" lon="11.57945724143874"><ele>322.0</ele><time>2026-05-02T06:52:14.999Z</time></trkpt><trkpt lat="43.86165508882439" lon="11.579562920179104"><ele>322.0</ele><time>2026-05-02T06:52:15.999Z</time></trkpt><trkpt lat="43.86162015804425" lon="11.57965350997924"><ele>322.0</ele><time>2026-05-02T06:52:16.999Z</time></trkpt><trkpt lat="43.861557317776665" lon="11.57982052045029"><ele>325.3333333333333</ele><time>2026-05-02T06:52:18.999Z</time></trkpt><trkpt lat="43.86151086329688" lon="11.579911853804253"><ele>328.66666666666663</ele><time>2026-05-02T06:52:19.999Z</time></trkpt><trkpt lat="43.861472596950215" lon="11.579981534339526"><ele>332.0</ele><time>2026-05-02T06:52:20.999Z</time></trkpt><trkpt lat="43.86140049948874" lon="11.580104829493418"><ele>335.3333333333333</ele><time>2026-05-02T06:52:22.999Z</time></trkpt><trkpt lat="43.86138941700112" lon="11.580256841927662"><ele>338.6666666666667</ele><time>2026-05-02T06:52:24.999Z</time></trkpt><trkpt lat="43.861436012416725" lon="11.580339653636885"><ele>342.0</ele><time>2026-05-02T06:52:25.999Z</time></trkpt><trkpt lat="43.861502297907606" lon="11.580439986998792"><ele>345.5</ele><time>2026-05-02T06:52:26.999Z</time></trkpt><trkpt lat="43.86154202403681" lon="11.580507771376533"><ele>349.0</ele><time>2026-05-02T06:52:27.999Z</time></trkpt><trkpt lat="43.86166139005716" lon="11.580555440366961"><ele>352.5</ele><time>2026-05-02T06:52:29.999Z</time></trkpt><trkpt lat="43.86174741087541" lon="11.58054745991993"><ele>356.0</ele><time>2026-05-02T06:52:31.999Z</time></trkpt><trkpt lat="43.86180168594842" lon="11.580668522983991"><ele>359.5</ele><time>2026-05-02T06:52:34.999Z</time></trkpt><trkpt lat="43.861805405392644" lon="11.580763948081954"><ele>363.0</ele><time>2026-05-02T06:52:35.999Z</time></trkpt><trkpt lat="43.861769834263626" lon="11.580839479403538"><ele>363.0</ele><time>2026-05-02T06:52:36.999Z</time></trkpt><trkpt lat="43.86171550309043" lon="11.580902858548354"><ele>363.0</ele><time>2026-05-02T06:52:37.999Z</time></trkpt><trkpt lat="43.86166799942295" lon="11.58096267416872"><ele>363.0</ele><time>2026-05-02T06:52:38.999Z</time></trkpt><trkpt lat="43.86157026864673" lon="11.581053128671478"><ele>363.0</ele><time>2026-05-02T06:52:39.999Z</time></trkpt><trkpt lat="43.86148689315209" lon="11.581148937825928"><ele>363.0</ele><time>2026-05-02T06:52:40.999Z</time></trkpt><trkpt lat="43.861428690456215" lon="11.581186088517503"><ele>363.0</ele><time>2026-05-02T06:52:41.999Z</time></trkpt><trkpt lat="43.861311117818914" lon="11.581267321268976"><ele>365.5</ele><time>2026-05-02T06:52:43.999Z</time></trkpt><trkpt lat="43.861248512032304" lon="11.581315547655716"><ele>368.0</ele><time>2026-05-02T06:52:44.999Z</time></trkpt><trkpt lat="43.86118891312624" lon="11.581364167796213"><ele>370.5</ele><time>2026-05-02T06:52:45.999Z</time></trkpt><trkpt lat="43.86113476712978" lon="11.581409470911264"><ele>373.0</ele><time>2026-05-02T06:52:47.999Z</time></trkpt><trkpt lat="43.86108317196849" lon="11.581465600711823"><ele>375.5</ele><time>2026-05-02T06:52:50.999Z</time></trkpt><trkpt lat="43.86112155443982" lon="11.581584189440841"><ele>378.0</ele><time>2026-05-02T06:52:53.999Z</time></trkpt><trkpt lat="43.86118365073029" lon="11.581684694633328"><ele>378.0</ele><time>2026-05-02T06:52:56.999Z</time></trkpt><trkpt lat="43.86124379916305" lon="11.581762080135203"><ele>378.0</ele><time>2026-05-02T06:52:58.999Z</time></trkpt><trkpt lat="43.86131809121419" lon="11.581769445682976"><ele>378.0</ele><time>2026-05-02T06:53:00.999Z</time></trkpt><trkpt lat="43.861418402256405" lon="11.5818019696615"><ele>378.0</ele><time>2026-05-02T06:53:02.999Z</time></trkpt><trkpt lat="43.861470821351226" lon="11.581858787430491"><ele>378.0</ele><time>2026-05-02T06:53:03.999Z</time></trkpt><trkpt lat="43.861555314067296" lon="11.581901323186422"><ele>378.0</ele><time>2026-05-02T06:53:04.999Z</time></trkpt><trkpt lat="43.86162739509469" lon="11.581932443825647"><ele>378.0</ele><time>2026-05-02T06:53:05.999Z</time></trkpt><trkpt lat="43.86174331283746" lon="11.581961193001302"><ele>378.0</ele><time>2026-05-02T06:53:07.999Z</time></trkpt><trkpt lat="43.86181282513505" lon="11.581965898465228"><ele>378.0</ele><time>2026-05-02T06:53:08.999Z</time></trkpt><trkpt lat="43.861885210953695" lon="11.581949512866897"><ele>378.0</ele><time>2026-05-02T06:53:09.999Z</time></trkpt><trkpt lat="43.86194674616331" lon="11.581925379407272"><ele>378.0</ele><time>2026-05-02T06:53:10.999Z</time></trkpt><trkpt lat="43.86201529999398" lon="11.58190360801472"><ele>378.0</ele><time>2026-05-02T06:53:12.999Z</time></trkpt><trkpt lat="43.862102531888155" lon="11.58188028806086"><ele>380.6666666666667</ele><time>2026-05-02T06:53:14.999Z</time></trkpt><trkpt lat="43.86216479936068" lon="11.581894097298933"><ele>383.33333333333337</ele><time>2026-05-02T06:53:16.999Z</time></trkpt><trkpt lat="43.86216896477136" lon="11.581989737461283"><ele>386.0</ele><time>2026-05-02T06:53:18.999Z</time></trkpt><trkpt lat="43.86210857032196" lon="11.582161610088402"><ele>388.6666666666667</ele><time>2026-05-02T06:53:20.999Z</time></trkpt><trkpt lat="43.86206398896031" lon="11.582241276537518"><ele>391.33333333333337</ele><time>2026-05-02T06:53:21.999Z</time></trkpt><trkpt lat="43.86204075449565" lon="11.582356224760373"><ele>394.0</ele><time>2026-05-02T06:53:23.999Z</time></trkpt><trkpt lat="43.86202076769373" lon="11.582467804534748"><ele>396.2</ele><time>2026-05-02T06:53:25.999Z</time></trkpt><trkpt lat="43.86211648477887" lon="11.582495054575965"><ele>398.4</ele><time>2026-05-02T06:53:27.999Z</time></trkpt><trkpt lat="43.86220235107513" lon="11.58246341598023"><ele>400.6</ele><time>2026-05-02T06:53:28.999Z</time></trkpt><trkpt lat="43.86230295714593" lon="11.582445835808333"><ele>402.8</ele><time>2026-05-02T06:53:29.999Z</time></trkpt><trkpt lat="43.86236712613266" lon="11.58245190750661"><ele>405.0</ele><time>2026-05-02T06:53:31.999Z</time></trkpt><trkpt lat="43.86238811602223" lon="11.582589396165085"><ele>405.0</ele><time>2026-05-02T06:53:34.999Z</time></trkpt><trkpt lat="43.862358677555584" lon="11.58267756161999"><ele>405.0</ele><time>2026-05-02T06:53:35.999Z</time></trkpt><trkpt lat="43.862350678443136" lon="11.582857755606845"><ele>405.0</ele><time>2026-05-02T06:53:37.999Z</time></trkpt><trkpt lat="43.86229950864839" lon="11.582938913815516"><ele>405.0</ele><time>2026-05-02T06:53:38.999Z</time></trkpt><trkpt lat="43.862251926050085" lon="11.582999111851574"><ele>405.0</ele><time>2026-05-02T06:53:39.999Z</time></trkpt><trkpt lat="43.862212048281854" lon="11.583111380240522"><ele>405.0</ele><time>2026-05-02T06:53:41.999Z</time></trkpt><trkpt lat="43.86220340074455" lon="11.583212335368737"><ele>406.1666666666667</ele><time>2026-05-02T06:53:42.999Z</time></trkpt><trkpt lat="43.86217668783768" lon="11.583295627634852"><ele>407.33333333333337</ele><time>2026-05-02T06:53:43.999Z</time></trkpt><trkpt lat="43.862157947589516" lon="11.583386548206592"><ele>408.5</ele><time>2026-05-02T06:53:44.999Z</time></trkpt><trkpt lat="43.86213585276672" lon="11.583488168490796"><ele>409.6666666666667</ele><time>2026-05-02T06:53:45.999Z</time></trkpt><trkpt lat="43.86211609687461" lon="11.583579819863806"><ele>410.83333333333337</ele><time>2026-05-02T06:53:46.999Z</time></trkpt><trkpt lat="43.86210164684333" lon="11.583690864011622"><ele>412.0</ele><time>2026-05-02T06:53:47.999Z</time></trkpt><trkpt lat="43.86207814394018" lon="11.583821089372842"><ele>412.0</ele><time>2026-05-02T06:53:48.999Z</time></trkpt><trkpt lat="43.86204777728587" lon="11.583953678774808"><ele>412.0</ele><time>2026-05-02T06:53:49.999Z</time></trkpt><trkpt lat="43.862028820734075" lon="11.58404775604647"><ele>412.0</ele><time>2026-05-02T06:53:50.999Z</time></trkpt><trkpt lat="43.862012162028236" lon="11.584142778646795"><ele>412.0</ele><time>2026-05-02T06:53:51.999Z</time></trkpt><trkpt lat="43.86197955925259" lon="11.584336260433185"><ele>412.0</ele><time>2026-05-02T06:53:53.999Z</time></trkpt><trkpt lat="43.86196651787383" lon="11.58445507783709"><ele>412.40000000000003</ele><time>2026-05-02T06:53:54.999Z</time></trkpt><trkpt lat="43.86193034592484" lon="11.584601760911397"><ele>412.8</ele><time>2026-05-02T06:53:56Z</time></trkpt><trkpt lat="43.86188879798933" lon="11.584776668813834"><ele>413.2</ele><time>2026-05-02T06:53:57Z</time></trkpt><trkpt lat="43.861874285528245" lon="11.58486541727791"><ele>413.6</ele><time>2026-05-02T06:53:58Z</time></trkpt><trkpt lat="43.86183710395281" lon="11.585035643246885"><ele>414.0</ele><time>2026-05-02T06:54:00Z</time></trkpt><trkpt lat="43.86181459646354" lon="11.585122926720354"><ele>414.0</ele><time>2026-05-02T06:54:01Z</time></trkpt><trkpt lat="43.861789071378126" lon="11.585242580753203"><ele>414.0</ele><time>2026-05-02T06:54:03Z</time></trkpt><trkpt lat="43.861768378808975" lon="11.585374063084668"><ele>414.0</ele><time>2026-05-02T06:54:06Z</time></trkpt><trkpt lat="43.86177051636317" lon="11.585514262573362"><ele>414.0</ele><time>2026-05-02T06:54:08Z</time></trkpt><trkpt lat="43.861769429199164" lon="11.58564449796586"><ele>414.0</ele><time>2026-05-02T06:54:10Z</time></trkpt><trkpt lat="43.86175012614238" lon="11.585790503847209"><ele>422.2</ele><time>2026-05-02T06:54:12Z</time></trkpt><trkpt lat="43.86171589045896" lon="11.585863924606327"><ele>430.4</ele><time>2026-05-02T06:54:13Z</time></trkpt><trkpt lat="43.86165345850125" lon="11.585984647691022"><ele>438.6</ele><time>2026-05-02T06:54:15Z</time></trkpt><trkpt lat="43.86161292876336" lon="11.58617109354559"><ele>446.8</ele><time>2026-05-02T06:54:17Z</time></trkpt><trkpt lat="43.86159344943621" lon="11.58628242314162"><ele>455.0</ele><time>2026-05-02T06:54:18Z</time></trkpt><trkpt lat="43.86156775938757" lon="11.586390777511872"><ele>455.4</ele><time>2026-05-02T06:54:19Z</time></trkpt><trkpt lat="43.86152771918496" lon="11.586540863714111"><ele>455.8</ele><time>2026-05-02T06:54:20Z</time></trkpt><trkpt lat="43.8614806834943" lon="11.586700929799298"><ele>456.20000000000005</ele><time>2026-05-02T06:54:21Z</time></trkpt><trkpt lat="43.86144512761633" lon="11.586822922297069"><ele>456.6</ele><time>2026-05-02T06:54:22Z</time></trkpt><trkpt lat="43.86141493051669" lon="11.586901518162922"><ele>457.0</ele><time>2026-05-02T06:54:23Z</time></trkpt><trkpt lat="43.861324884930745" lon="11.586935915640165"><ele>457.00000000000006</ele><time>2026-05-02T06:54:25Z</time></trkpt><trkpt lat="43.86126298080169" lon="11.58689197204209"><ele>457.0</ele><time>2026-05-02T06:54:26Z</time></trkpt><trkpt lat="43.861198021347604" lon="11.586886625949472"><ele>457.0</ele><time>2026-05-02T06:54:27Z</time></trkpt><trkpt lat="43.86113938212675" lon="11.586946739773675"><ele>457.0</ele><time>2026-05-02T06:54:28Z</time></trkpt><trkpt lat="43.861094331519006" lon="11.587043342034637"><ele>457.00000000000006</ele><time>2026-05-02T06:54:29Z</time></trkpt><trkpt lat="43.8609960392306" lon="11.587184626834379"><ele>457.0</ele><time>2026-05-02T06:54:31Z</time></trkpt><trkpt lat="43.86094719494491" lon="11.587277284319232"><ele>462.0</ele><time>2026-05-02T06:54:32Z</time></trkpt><trkpt lat="43.86089239167443" lon="11.587408960658527"><ele>467.00000000000006</ele><time>2026-05-02T06:54:33Z</time></trkpt><trkpt lat="43.86082094458699" lon="11.587528068317578"><ele>472.00000000000006</ele><time>2026-05-02T06:54:34Z</time></trkpt><trkpt lat="43.86076424439903" lon="11.587616773685358"><ele>477.0</ele><time>2026-05-02T06:54:35Z</time></trkpt><trkpt lat="43.8606715073804" lon="11.587765641372755"><ele>482.0</ele><time>2026-05-02T06:54:37Z</time></trkpt><trkpt lat="43.860583585338674" lon="11.5878452460789"><ele>483.99999999999994</ele><time>2026-05-02T06:54:38Z</time></trkpt><trkpt lat="43.86049350873797" lon="11.58790325127113"><ele>486.0</ele><time>2026-05-02T06:54:39Z</time></trkpt><trkpt lat="43.8604389838835" lon="11.587954222301232"><ele>488.0</ele><time>2026-05-02T06:54:40Z</time></trkpt><trkpt lat="43.86037383084838" lon="11.587960526001668"><ele>490.0</ele><time>2026-05-02T06:54:41Z</time></trkpt><trkpt lat="43.86029668462807" lon="11.587927719871658"><ele>491.99999999999994</ele><time>2026-05-02T06:54:42Z</time></trkpt><trkpt lat="43.86021279950178" lon="11.58791300692126"><ele>494.0</ele><time>2026-05-02T06:54:43Z</time></trkpt><trkpt lat="43.860145728552624" lon="11.587940745793432"><ele>496.99999999999994</ele><time>2026-05-02T06:54:44Z</time></trkpt><trkpt lat="43.860073829111904" lon="11.587987078010181"><ele>500.0</ele><time>2026-05-02T06:54:45Z</time></trkpt><trkpt lat="43.860007105702046" lon="11.588019936987402"><ele>503.0</ele><time>2026-05-02T06:54:46Z</time></trkpt><trkpt lat="43.859907650028184" lon="11.58812030912045"><ele>506.0</ele><time>2026-05-02T06:54:48Z</time></trkpt><trkpt lat="43.859845941579565" lon="11.588150524875704"><ele>508.99999999999994</ele><time>2026-05-02T06:54:49Z</time></trkpt><trkpt lat="43.859766662857034" lon="11.58815435701246"><ele>512.0</ele><time>2026-05-02T06:54:50Z</time></trkpt><trkpt lat="43.85969606683571" lon="11.588164545802869"><ele>511.99999999999994</ele><time>2026-05-02T06:54:51Z</time></trkpt><trkpt lat="43.85963023890773" lon="11.588189529370256"><ele>512.0</ele><time>2026-05-02T06:54:52Z</time></trkpt><trkpt lat="43.85955092884805" lon="11.58822002171128"><ele>512.0</ele><time>2026-05-02T06:54:53Z</time></trkpt><trkpt lat="43.85949185037944" lon="11.588277977088"><ele>512.0</ele><time>2026-05-02T06:54:54Z</time></trkpt><trkpt lat="43.859432002758226" lon="11.58833185800603"><ele>511.99999999999994</ele><time>2026-05-02T06:54:55Z</time></trkpt><trkpt lat="43.859353091690515" lon="11.588380777653914"><ele>512.0</ele><time>2026-05-02T06:54:56Z</time></trkpt><trkpt lat="43.85927007525039" lon="11.588407816602324"><ele>513.5</ele><time>2026-05-02T06:54:57Z</time></trkpt><trkpt lat="43.859197033084065" lon="11.5884166672037"><ele>515.0</ele><time>2026-05-02T06:54:58Z</time></trkpt><trkpt lat="43.85911401879079" lon="11.588437650301737"><ele>516.5</ele><time>2026-05-02T06:54:59Z</time></trkpt><trkpt lat="43.85902570955528" lon="11.58845812138078"><ele>518.0</ele><time>2026-05-02T06:55:00Z</time></trkpt><trkpt lat="43.85894893051257" lon="11.588474888169864"><ele>519.5</ele><time>2026-05-02T06:55:01Z</time></trkpt><trkpt lat="43.858852222145174" lon="11.588521487961403"><ele>521.0</ele><time>2026-05-02T06:55:03Z</time></trkpt><trkpt lat="43.85874170583746" lon="11.588602331834874"><ele>521.0</ele><time>2026-05-02T06:55:05Z</time></trkpt><trkpt lat="43.85868696011289" lon="11.588647063207826"><ele>521.0</ele><time>2026-05-02T06:55:06Z</time></trkpt><trkpt lat="43.85863196648818" lon="11.588768046150257"><ele>521.0</ele><time>2026-05-02T06:55:08Z</time></trkpt><trkpt lat="43.85861057850965" lon="11.588902192817468"><ele>521.0</ele><time>2026-05-02T06:55:10Z</time></trkpt><trkpt lat="43.858631817050245" lon="11.588987335573961"><ele>521.0</ele><time>2026-05-02T06:55:11Z</time></trkpt><trkpt lat="43.85868157649642" lon="11.589060493371592"><ele>521.0</ele><time>2026-05-02T06:55:12Z</time></trkpt><trkpt lat="43.85872237764797" lon="11.589140153321786"><ele>524.0</ele><time>2026-05-02T06:55:13Z</time></trkpt><trkpt lat="43.85873489303254" lon="11.589284187982837"><ele>527.0</ele><time>2026-05-02T06:55:15Z</time></trkpt><trkpt lat="43.85873176178324" lon="11.589384732529474"><ele>530.0</ele><time>2026-05-02T06:55:16Z</time></trkpt><trkpt lat="43.858721038370525" lon="11.589477573638876"><ele>533.0</ele><time>2026-05-02T06:55:17Z</time></trkpt><trkpt lat="43.85870328628248" lon="11.589567437662312"><ele>536.0</ele><time>2026-05-02T06:55:18Z</time></trkpt><trkpt lat="43.8586829171339" lon="11.589654171532485"><ele>539.0</ele><time>2026-05-02T06:55:19Z</time></trkpt><trkpt lat="43.858659659810975" lon="11.58975150941149"><ele>540.3333333333333</ele><time>2026-05-02T06:55:20Z</time></trkpt><trkpt lat="43.85864603485351" lon="11.589847424443509"><ele>541.6666666666666</ele><time>2026-05-02T06:55:21Z</time></trkpt><trkpt lat="43.85862193310016" lon="11.589939353332765"><ele>543.0</ele><time>2026-05-02T06:55:22Z</time></trkpt><trkpt lat="43.858612436702195" lon="11.590109661580906"><ele>544.3333333333334</ele><time>2026-05-02T06:55:24Z</time></trkpt><trkpt lat="43.85855285001362" lon="11.590234458434667"><ele>545.6666666666667</ele><time>2026-05-02T06:55:26Z</time></trkpt><trkpt lat="43.858490543897055" lon="11.590279144228925"><ele>547.0</ele><time>2026-05-02T06:55:27Z</time></trkpt><trkpt lat="43.85843362806269" lon="11.5903568851128"><ele>549.1666666666667</ele><time>2026-05-02T06:55:28Z</time></trkpt><trkpt lat="43.858403663952636" lon="11.590454899897946"><ele>551.3333333333334</ele><time>2026-05-02T06:55:29Z</time></trkpt><trkpt lat="43.858395468545744" lon="11.59055389774349"><ele>553.5</ele><time>2026-05-02T06:55:30Z</time></trkpt><trkpt lat="43.85838125788137" lon="11.590639728555528"><ele>555.6666666666666</ele><time>2026-05-02T06:55:31Z</time></trkpt><trkpt lat="43.85832611793081" lon="11.590818123204091"><ele>557.8333333333333</ele><time>2026-05-02T06:55:33Z</time></trkpt><trkpt lat="43.85833334269959" lon="11.59091202074573"><ele>560.0</ele><time>2026-05-02T06:55:34Z</time></trkpt><trkpt lat="43.85833699380576" lon="11.591023790752192"><ele>560.0</ele><time>2026-05-02T06:55:35Z</time></trkpt><trkpt lat="43.85832604003537" lon="11.59111219525736"><ele>560.0</ele><time>2026-05-02T06:55:37Z</time></trkpt><trkpt lat="43.85836875648189" lon="11.591189172382524"><ele>560.0</ele><time>2026-05-02T06:58:23Z</time></trkpt><trkpt lat="43.85838709883233" lon="11.59129279354754"><ele>560.0</ele><time>2026-05-02T06:58:25Z</time></trkpt><trkpt lat="43.8583567849146" lon="11.591437417879455"><ele>560.0</ele><time>2026-05-02T06:58:28Z</time></trkpt><trkpt lat="43.85832335576961" lon="11.591513928996376"><ele>560.0</ele><time>2026-05-02T06:58:29Z</time></trkpt><trkpt lat="43.858294526590115" lon="11.591635869426641"><ele>562.5</ele><time>2026-05-02T06:58:30Z</time></trkpt><trkpt lat="43.85825693860277" lon="11.591792814861794"><ele>565.0</ele><time>2026-05-02T06:58:31Z</time></trkpt><trkpt lat="43.858228675141234" lon="11.591976410436786"><ele>567.5</ele><time>2026-05-02T06:58:32Z</time></trkpt><trkpt lat="43.858210995726324" lon="11.592184234250366"><ele>570.0</ele><time>2026-05-02T06:58:33Z</time></trkpt><trkpt lat="43.858183332986314" lon="11.592392817876837"><ele>571.5</ele><time>2026-05-02T06:58:34Z</time></trkpt><trkpt lat="43.85816274055162" lon="11.59254546933481"><ele>573.0</ele><time>2026-05-02T06:58:35Z</time></trkpt><trkpt lat="43.85815348527084" lon="11.592664219914266"><ele>574.5</ele><time>2026-05-02T06:58:36Z</time></trkpt><trkpt lat="43.85814081894183" lon="11.59277374210066"><ele>576.0</ele><time>2026-05-02T06:58:37Z</time></trkpt><trkpt lat="43.85812471045054" lon="11.592876300627484"><ele>577.5</ele><time>2026-05-02T06:58:38Z</time></trkpt><trkpt lat="43.8580937045498" lon="11.592988614213372"><ele>579.0</ele><time>2026-05-02T06:58:39Z</time></trkpt><trkpt lat="43.85805791092329" lon="11.593079229851698"><ele>579.4</ele><time>2026-05-02T06:58:40Z</time></trkpt><trkpt lat="43.857975829283426" lon="11.593241426819802"><ele>579.8</ele><time>2026-05-02T06:58:42Z</time></trkpt><trkpt lat="43.85793145541282" lon="11.593355324066033"><ele>580.2</ele><time>2026-05-02T06:58:43Z</time></trkpt><trkpt lat="43.85787102152536" lon="11.593458309261765"><ele>580.6</ele><time>2026-05-02T06:58:44Z</time></trkpt><trkpt lat="43.857835072049596" lon="11.593542385728343"><ele>581.0</ele><time>2026-05-02T06:58:45Z</time></trkpt><trkpt lat="43.857781923121806" lon="11.593600737581658"><ele>581.1666666666666</ele><time>2026-05-02T06:58:46Z</time></trkpt><trkpt lat="43.857747550206845" lon="11.593694686516534"><ele>581.3333333333333</ele><time>2026-05-02T06:58:47Z</time></trkpt><trkpt lat="43.8577558865444" lon="11.593841495071313"><ele>581.5</ele><time>2026-05-02T06:58:49Z</time></trkpt><trkpt lat="43.857805960269594" lon="11.593933476023427"><ele>581.6666666666666</ele><time>2026-05-02T06:58:51Z</time></trkpt><trkpt lat="43.85785525176058" lon="11.594002052771856"><ele>581.8333333333334</ele><time>2026-05-02T07:00:18Z</time></trkpt><trkpt lat="43.857853761006666" lon="11.594128646182064"><ele>582.0</ele><time>2026-05-02T07:00:22Z</time></trkpt><trkpt lat="43.857834827764705" lon="11.594229368554924"><ele>582.0</ele><time>2026-05-02T07:00:23Z</time></trkpt><trkpt lat="43.85777873575444" lon="11.594361608687507"><ele>582.0</ele><time>2026-05-02T07:00:25Z</time></trkpt><trkpt lat="43.857712203529644" lon="11.5944480244912"><ele>582.0</ele><time>2026-05-02T07:00:26Z</time></trkpt><trkpt lat="43.85761970862505" lon="11.594495025663687"><ele>582.0</ele><time>2026-05-02T07:00:27Z</time></trkpt><trkpt lat="43.85751456071803" lon="11.594475304344346"><ele>582.0</ele><time>2026-05-02T07:00:28Z</time></trkpt><trkpt lat="43.85739524562784" lon="11.594422330094556"><ele>585.1666666666666</ele><time>2026-05-02T07:00:29Z</time></trkpt><trkpt lat="43.85727707477257" lon="11.59436910820454"><ele>588.3333333333334</ele><time>2026-05-02T07:00:30Z</time></trkpt><trkpt lat="43.85720844087227" lon="11.594321559858185"><ele>591.5</ele><time>2026-05-02T07:00:31Z</time></trkpt><trkpt lat="43.857139213766" lon="11.594333386104745"><ele>594.6666666666667</ele><time>2026-05-02T07:00:32Z</time></trkpt><trkpt lat="43.85708051489513" lon="11.594405918743563"><ele>597.8333333333334</ele><time>2026-05-02T07:00:33Z</time></trkpt><trkpt lat="43.857037938743574" lon="11.594506274730312"><ele>601.0</ele><time>2026-05-02T07:00:34Z</time></trkpt><trkpt lat="43.857012259906284" lon="11.59459916178951"><ele>603.4</ele><time>2026-05-02T07:00:35Z</time></trkpt><trkpt lat="43.857022502619515" lon="11.59471256039706"><ele>605.8</ele><time>2026-05-02T07:00:36Z</time></trkpt><trkpt lat="43.85703528030169" lon="11.594846207959604"><ele>608.1999999999999</ele><time>2026-05-02T07:00:37Z</time></trkpt><trkpt lat="43.85703466426975" lon="11.594980790861127"><ele>610.6</ele><time>2026-05-02T07:00:38Z</time></trkpt><trkpt lat="43.857027418015036" lon="11.595119842589014"><ele>613.0</ele><time>2026-05-02T07:00:39Z</time></trkpt><trkpt lat="43.85702635528963" lon="11.59525173389511"><ele>614.4</ele><time>2026-05-02T07:00:40Z</time></trkpt><trkpt lat="43.857017961131014" lon="11.595389100750925"><ele>615.8</ele><time>2026-05-02T07:00:41Z</time></trkpt><trkpt lat="43.856994458738356" lon="11.59554950348523"><ele>617.2</ele><time>2026-05-02T07:00:42Z</time></trkpt><trkpt lat="43.856986826266045" lon="11.595685961170815"><ele>618.6</ele><time>2026-05-02T07:00:43Z</time></trkpt><trkpt lat="43.85697248332824" lon="11.595833779954946"><ele>620.0</ele><time>2026-05-02T07:00:44Z</time></trkpt><trkpt lat="43.8569492039068" lon="11.595970419601139"><ele>620.0</ele><time>2026-05-02T07:00:45Z</time></trkpt><trkpt lat="43.85693875815002" lon="11.596110806698963"><ele>620.0</ele><time>2026-05-02T07:00:46Z</time></trkpt><trkpt lat="43.856932141079575" lon="11.596246652292283"><ele>620.0</ele><time>2026-05-02T07:00:47Z</time></trkpt><trkpt lat="43.85690027358017" lon="11.596379175688584"><ele>620.0</ele><time>2026-05-02T07:00:48Z</time></trkpt><trkpt lat="43.85684782876865" lon="11.596490440390786"><ele>620.0</ele><time>2026-05-02T07:00:49Z</time></trkpt><trkpt lat="43.85679281840233" lon="11.596608313789282"><ele>622.0</ele><time>2026-05-02T07:00:50Z</time></trkpt><trkpt lat="43.85674628197677" lon="11.596706573190016"><ele>624.0</ele><time>2026-05-02T07:00:51Z</time></trkpt><trkpt lat="43.856712135716805" lon="11.596837372486378"><ele>626.0</ele><time>2026-05-02T07:00:52Z</time></trkpt><trkpt lat="43.85666652879105" lon="11.596930235074014"><ele>628.0</ele><time>2026-05-02T07:00:53Z</time></trkpt><trkpt lat="43.856628641304894" lon="11.597023989644839"><ele>630.0</ele><time>2026-05-02T07:00:54Z</time></trkpt><trkpt lat="43.85660968853549" lon="11.597123164468622"><ele>632.0</ele><time>2026-05-02T07:00:55Z</time></trkpt><trkpt lat="43.85657031386004" lon="11.597204480818354"><ele>634.4000000000001</ele><time>2026-05-02T07:00:56Z</time></trkpt><trkpt lat="43.85650265453704" lon="11.597254412049086"><ele>636.8000000000001</ele><time>2026-05-02T07:00:57Z</time></trkpt><trkpt lat="43.856424969308655" lon="11.597275017242193"><ele>639.2</ele><time>2026-05-02T07:00:58Z</time></trkpt><trkpt lat="43.856323513257934" lon="11.597272742156315"><ele>641.6</ele><time>2026-05-02T07:00:59Z</time></trkpt><trkpt lat="43.85618671235102" lon="11.597251894424396"><ele>644.0</ele><time>2026-05-02T07:01:00Z</time></trkpt><trkpt lat="43.85604392426509" lon="11.59724278905141"><ele>646.2</ele><time>2026-05-02T07:01:01Z</time></trkpt><trkpt lat="43.855920817854916" lon="11.597227327369115"><ele>648.4000000000001</ele><time>2026-05-02T07:01:02Z</time></trkpt><trkpt lat="43.8558167928469" lon="11.597204575194787"><ele>650.6</ele><time>2026-05-02T07:01:03Z</time></trkpt><trkpt lat="43.85572701306702" lon="11.59719620590288"><ele>652.8</ele><time>2026-05-02T07:01:04Z</time></trkpt><trkpt lat="43.85562828424828" lon="11.597190014147243"><ele>655.0</ele><time>2026-05-02T07:01:05Z</time></trkpt><trkpt lat="43.855519864289754" lon="11.59720420000334"><ele>655.0</ele><time>2026-05-02T07:01:06Z</time></trkpt><trkpt lat="43.85540974716891" lon="11.597204743459134"><ele>655.0</ele><time>2026-05-02T07:01:07Z</time></trkpt><trkpt lat="43.85533427242691" lon="11.597215650526083"><ele>655.0</ele><time>2026-05-02T07:01:08Z</time></trkpt><trkpt lat="43.855275362186674" lon="11.597282391394579"><ele>655.0</ele><time>2026-05-02T07:01:09Z</time></trkpt><trkpt lat="43.855215692792406" lon="11.597394221795522"><ele>655.0</ele><time>2026-05-02T07:01:10Z</time></trkpt><trkpt lat="43.85514286855111" lon="11.59748753981985"><ele>654.5</ele><time>2026-05-02T07:01:11Z</time></trkpt><trkpt lat="43.85509923010704" lon="11.597613532861251"><ele>654.0</ele><time>2026-05-02T07:01:12Z</time></trkpt><trkpt lat="43.85506545261737" lon="11.597727263342627"><ele>653.5</ele><time>2026-05-02T07:01:13Z</time></trkpt><trkpt lat="43.85501944161529" lon="11.597809513565949"><ele>653.0</ele><time>2026-05-02T07:01:14Z</time></trkpt><trkpt lat="43.854962795999505" lon="11.597856227870281"><ele>652.5</ele><time>2026-05-02T07:01:15Z</time></trkpt><trkpt lat="43.85488063112646" lon="11.597909784289909"><ele>652.0</ele><time>2026-05-02T07:01:16Z</time></trkpt><trkpt lat="43.85479187080157" lon="11.597991723245954"><ele>656.8</ele><time>2026-05-02T07:01:17Z</time></trkpt><trkpt lat="43.854697961023525" lon="11.598056942751935"><ele>661.6</ele><time>2026-05-02T07:01:18Z</time></trkpt><trkpt lat="43.854609595175546" lon="11.598096113192764"><ele>666.4</ele><time>2026-05-02T07:01:19Z</time></trkpt><trkpt lat="43.85453219155389" lon="11.598082892925852"><ele>671.1999999999999</ele><time>2026-05-02T07:01:20Z</time></trkpt><trkpt lat="43.85445192037305" lon="11.598036666042423"><ele>676.0</ele><time>2026-05-02T07:01:21Z</time></trkpt><trkpt lat="43.854350682326675" lon="11.597934004782998"><ele>676.8</ele><time>2026-05-02T07:01:22Z</time></trkpt><trkpt lat="43.85424400726388" lon="11.59785909350592"><ele>677.5999999999999</ele><time>2026-05-02T07:01:23Z</time></trkpt><trkpt lat="43.85415368123116" lon="11.597809011385246"><ele>678.4</ele><time>2026-05-02T07:01:24Z</time></trkpt><trkpt lat="43.85408153406695" lon="11.597761366555567"><ele>679.2</ele><time>2026-05-02T07:01:25Z</time></trkpt><trkpt lat="43.854010187288075" lon="11.597767821952564"><ele>680.0</ele><time>2026-05-02T07:01:26Z</time></trkpt><trkpt lat="43.85392678843624" lon="11.597775183256251"><ele>680.0</ele><time>2026-05-02T07:01:27Z</time></trkpt><trkpt lat="43.853857123481305" lon="11.597774939877329"><ele>680.0</ele><time>2026-05-02T07:01:28Z</time></trkpt><trkpt lat="43.853777719675584" lon="11.597801106246617"><ele>680.0</ele><time>2026-05-02T07:01:29Z</time></trkpt><trkpt lat="43.8536902869474" lon="11.597847741438143"><ele>680.0</ele><time>2026-05-02T07:01:30Z</time></trkpt><trkpt lat="43.85362256597" lon="11.597889085833609"><ele>680.0</ele><time>2026-05-02T07:01:31Z</time></trkpt><trkpt lat="43.8535427982875" lon="11.597970180357324"><ele>680.0</ele><time>2026-05-02T07:01:33Z</time></trkpt><trkpt lat="43.853516541407906" lon="11.59805155033727"><ele>680.0</ele><time>2026-05-02T07:01:34Z</time></trkpt><trkpt lat="43.85347757935353" lon="11.598175218857037"><ele>680.0</ele><time>2026-05-02T07:01:35Z</time></trkpt><trkpt lat="43.85338956290716" lon="11.598319517100233"><ele>680.0</ele><time>2026-05-02T07:01:36Z</time></trkpt><trkpt lat="43.85330532574574" lon="11.598484727634439"><ele>680.0</ele><time>2026-05-02T07:01:37Z</time></trkpt><trkpt lat="43.853238009820785" lon="11.598638029324011"><ele>680.3333333333333</ele><time>2026-05-02T07:01:38Z</time></trkpt><trkpt lat="43.85318933376288" lon="11.59877983283098"><ele>680.6666666666666</ele><time>2026-05-02T07:01:39Z</time></trkpt><trkpt lat="43.85315225962966" lon="11.598882611888277"><ele>681.0</ele><time>2026-05-02T07:01:40Z</time></trkpt><trkpt lat="43.853150700457384" lon="11.598972415778857"><ele>681.3333333333334</ele><time>2026-05-02T07:01:41Z</time></trkpt><trkpt lat="43.853173163923174" lon="11.59908878128232"><ele>681.6666666666667</ele><time>2026-05-02T07:01:42Z</time></trkpt><trkpt lat="43.85320883669307" lon="11.599220533480604"><ele>682.0</ele><time>2026-05-02T07:01:43Z</time></trkpt><trkpt lat="43.853198639688564" lon="11.59932187818512"><ele>682.0</ele><time>2026-05-02T07:01:44Z</time></trkpt><trkpt lat="43.8531508260817" lon="11.599407399287623"><ele>682.0</ele><time>2026-05-02T07:01:45Z</time></trkpt><trkpt lat="43.85310169131197" lon="11.599491283588542"><ele>682.0</ele><time>2026-05-02T07:01:46Z</time></trkpt><trkpt lat="43.85303854128358" lon="11.599519835040729"><ele>682.0</ele><time>2026-05-02T07:01:47Z</time></trkpt><trkpt lat="43.852929065486514" lon="11.599542030863486"><ele>682.0</ele><time>2026-05-02T07:01:48Z</time></trkpt><trkpt lat="43.85281266698759" lon="11.599568712089711"><ele>683.0</ele><time>2026-05-02T07:01:49Z</time></trkpt><trkpt lat="43.85271950150995" lon="11.599582507477205"><ele>684.0</ele><time>2026-05-02T07:01:50Z</time></trkpt><trkpt lat="43.85263656348129" lon="11.599606288715744"><ele>685.0</ele><time>2026-05-02T07:01:51Z</time></trkpt><trkpt lat="43.85256242554564" lon="11.59962743217634"><ele>686.0</ele><time>2026-05-02T07:01:52Z</time></trkpt><trkpt lat="43.8524860955458" lon="11.599681523768615"><ele>687.0</ele><time>2026-05-02T07:01:53Z</time></trkpt><trkpt lat="43.852413222350215" lon="11.599755361511127"><ele>688.0</ele><time>2026-05-02T07:01:54Z</time></trkpt><trkpt lat="43.85233485714151" lon="11.599848705062676"><ele>688.0</ele><time>2026-05-02T07:01:55Z</time></trkpt><trkpt lat="43.852247966784965" lon="11.599937635744574"><ele>688.0</ele><time>2026-05-02T07:01:56Z</time></trkpt><trkpt lat="43.85214638755103" lon="11.599997226928407"><ele>688.0</ele><time>2026-05-02T07:01:57Z</time></trkpt><trkpt lat="43.852060349183006" lon="11.600044718481325"><ele>688.0</ele><time>2026-05-02T07:01:58Z</time></trkpt><trkpt lat="43.85199494366711" lon="11.600116787019196"><ele>688.0</ele><time>2026-05-02T07:01:59Z</time></trkpt><trkpt lat="43.85191607839819" lon="11.60019446559764"><ele>688.0</ele><time>2026-05-02T07:02:00Z</time></trkpt><trkpt lat="43.85183545071246" lon="11.600302162232975"><ele>688.0</ele><time>2026-05-02T07:02:01Z</time></trkpt><trkpt lat="43.85176473399485" lon="11.600412704037135"><ele>688.0</ele><time>2026-05-02T07:02:02Z</time></trkpt><trkpt lat="43.85170402575028" lon="11.6004836507344"><ele>688.0</ele><time>2026-05-02T07:02:03Z</time></trkpt><trkpt lat="43.851569357608305" lon="11.600492193799667"><ele>688.0</ele><time>2026-05-02T07:02:05Z</time></trkpt><trkpt lat="43.851495911745324" lon="11.600410575581714"><ele>689.25</ele><time>2026-05-02T07:02:06Z</time></trkpt><trkpt lat="43.85141336387009" lon="11.600290126426156"><ele>690.5</ele><time>2026-05-02T07:02:07Z</time></trkpt><trkpt lat="43.851321237779466" lon="11.600180095736174"><ele>691.75</ele><time>2026-05-02T07:02:08Z</time></trkpt><trkpt lat="43.85123096704884" lon="11.600108150543898"><ele>693.0</ele><time>2026-05-02T07:02:09Z</time></trkpt><trkpt lat="43.851134110808076" lon="11.600049055594845"><ele>693.0</ele><time>2026-05-02T07:02:10Z</time></trkpt><trkpt lat="43.851053057854614" lon="11.600030979955614"><ele>693.0</ele><time>2026-05-02T07:02:11Z</time></trkpt><trkpt lat="43.850982415334194" lon="11.600054956440356"><ele>693.0</ele><time>2026-05-02T07:02:12Z</time></trkpt><trkpt lat="43.85088797693544" lon="11.60016562207415"><ele>693.0</ele><time>2026-05-02T07:02:14Z</time></trkpt><trkpt lat="43.850824730608885" lon="11.600233303106762"><ele>693.0</ele><time>2026-05-02T07:02:15Z</time></trkpt><trkpt lat="43.85074757253605" lon="11.600301130907889"><ele>697.1666666666666</ele><time>2026-05-02T07:02:16Z</time></trkpt><trkpt lat="43.850669897993896" lon="11.600418313124152"><ele>701.3333333333334</ele><time>2026-05-02T07:02:17Z</time></trkpt><trkpt lat="43.85063277379746" lon="11.600499045422989"><ele>705.5</ele><time>2026-05-02T07:02:18Z</time></trkpt><trkpt lat="43.8506027852453" lon="11.600609372356054"><ele>709.6666666666667</ele><time>2026-05-02T07:02:19Z</time></trkpt><trkpt lat="43.85059235798537" lon="11.600728117099402"><ele>713.8333333333334</ele><time>2026-05-02T07:02:20Z</time></trkpt><trkpt lat="43.85059871986691" lon="11.600844895891845"><ele>718.0</ele><time>2026-05-02T07:02:21Z</time></trkpt><trkpt lat="43.8505956184033" lon="11.600997218459892"><ele>718.0</ele><time>2026-05-02T07:02:22Z</time></trkpt><trkpt lat="43.850565625051345" lon="11.601113189100843"><ele>718.0</ele><time>2026-05-02T07:02:23Z</time></trkpt><trkpt lat="43.85049712333928" lon="11.601219489609695"><ele>718.0</ele><time>2026-05-02T07:02:24Z</time></trkpt><trkpt lat="43.85041643652094" lon="11.60131275730202"><ele>718.0</ele><time>2026-05-02T07:02:25Z</time></trkpt><trkpt lat="43.85030755126954" lon="11.601434077868577"><ele>718.0</ele><time>2026-05-02T07:02:26Z</time></trkpt><trkpt lat="43.85020377300821" lon="11.601547406645839"><ele>719.0</ele><time>2026-05-02T07:02:27Z</time></trkpt><trkpt lat="43.850097619516234" lon="11.601627992525845"><ele>720.0</ele><time>2026-05-02T07:02:28Z</time></trkpt><trkpt lat="43.84999888943236" lon="11.601711883909044"><ele>721.0</ele><time>2026-05-02T07:02:29Z</time></trkpt><trkpt lat="43.84992506623627" lon="11.601786019887374"><ele>722.0</ele><time>2026-05-02T07:02:30Z</time></trkpt><trkpt lat="43.84985594515072" lon="11.60190297241371"><ele>723.0</ele><time>2026-05-02T07:02:31Z</time></trkpt><trkpt lat="43.849819928358045" lon="11.602027532638678"><ele>725.4</ele><time>2026-05-02T07:02:32Z</time></trkpt><trkpt lat="43.849765008215684" lon="11.602156457013052"><ele>727.8</ele><time>2026-05-02T07:02:33Z</time></trkpt><trkpt lat="43.84971166913399" lon="11.602302141076521"><ele>730.2</ele><time>2026-05-02T07:02:34Z</time></trkpt><trkpt lat="43.84966348484143" lon="11.602435723842719"><ele>732.6</ele><time>2026-05-02T07:02:35Z</time></trkpt><trkpt lat="43.84961683381305" lon="11.60257832039871"><ele>735.0</ele><time>2026-05-02T07:02:36Z</time></trkpt><trkpt lat="43.84959018117313" lon="11.602660694925449"><ele>735.0</ele><time>2026-05-02T07:02:37Z</time></trkpt><trkpt lat="43.849552809126955" lon="11.602754320723003"><ele>735.0</ele><time>2026-05-02T07:02:39Z</time></trkpt><trkpt lat="43.849487369378586" lon="11.602801671963709"><ele>735.0</ele><time>2026-05-02T07:04:53Z</time></trkpt><trkpt lat="43.84948934221196" lon="11.602946715257966"><ele>735.0</ele><time>2026-05-02T07:05:01Z</time></trkpt><trkpt lat="43.849414885484855" lon="11.603048474881227"><ele>735.0</ele><time>2026-05-02T07:05:02Z</time></trkpt><trkpt lat="43.84935974896088" lon="11.60315232119295"><ele>737.0</ele><time>2026-05-02T07:05:03Z</time></trkpt><trkpt lat="43.84928495249817" lon="11.603243863717086"><ele>739.0</ele><time>2026-05-02T07:05:04Z</time></trkpt><trkpt lat="43.84922603523585" lon="11.603394918219308"><ele>741.0</ele><time>2026-05-02T07:05:06Z</time></trkpt><trkpt lat="43.849186283282954" lon="11.60351373072894"><ele>743.0</ele><time>2026-05-02T07:05:07Z</time></trkpt><trkpt lat="43.84915396632964" lon="11.603649253977704"><ele>745.0</ele><time>2026-05-02T07:05:08Z</time></trkpt><trkpt lat="43.8491213518162" lon="11.603753346663863"><ele>746.3333333333334</ele><time>2026-05-02T07:05:09Z</time></trkpt><trkpt lat="43.849084862707265" lon="11.603829164026934"><ele>747.6666666666667</ele><time>2026-05-02T07:05:10Z</time></trkpt><trkpt lat="43.84905217969555" lon="11.603908768060577"><ele>749.0</ele><time>2026-05-02T07:05:11Z</time></trkpt><trkpt lat="43.849020070805295" lon="11.604038725251247"><ele>750.3333333333334</ele><time>2026-05-02T07:05:12Z</time></trkpt><trkpt lat="43.84899070480349" lon="11.60417599791622"><ele>751.6666666666666</ele><time>2026-05-02T07:05:13Z</time></trkpt><trkpt lat="43.84896915435893" lon="11.604293856551129"><ele>753.0</ele><time>2026-05-02T07:05:14Z</time></trkpt><trkpt lat="43.84893076053588" lon="11.604393193255138"><ele>753.0</ele><time>2026-05-02T07:05:15Z</time></trkpt><trkpt lat="43.84888087056253" lon="11.60449183682304"><ele>753.0</ele><time>2026-05-02T07:05:16Z</time></trkpt><trkpt lat="43.84884329474887" lon="11.604610563337204"><ele>753.0</ele><time>2026-05-02T07:05:17Z</time></trkpt><trkpt lat="43.84880350252353" lon="11.6047349160029"><ele>753.0</ele><time>2026-05-02T07:05:18Z</time></trkpt><trkpt lat="43.84877419629066" lon="11.604841776446241"><ele>753.0</ele><time>2026-05-02T07:05:19Z</time></trkpt><trkpt lat="43.84876602100291" lon="11.604939621877806"><ele>753.0</ele><time>2026-05-02T07:05:20Z</time></trkpt><trkpt lat="43.84874011606638" lon="11.605032141089808"><ele>752.8333333333334</ele><time>2026-05-02T07:05:21Z</time></trkpt><trkpt lat="43.84864624514216" lon="11.605122734778927"><ele>752.6666666666666</ele><time>2026-05-02T07:05:23Z</time></trkpt><trkpt lat="43.84857076772818" lon="11.605103439328198"><ele>752.5</ele><time>2026-05-02T07:05:24Z</time></trkpt><trkpt lat="43.848508366491735" lon="11.605037187592151"><ele>752.3333333333333</ele><time>2026-05-02T07:05:25Z</time></trkpt><trkpt lat="43.84845311616963" lon="11.604980739074328"><ele>752.1666666666666</ele><time>2026-05-02T07:05:26Z</time></trkpt><trkpt lat="43.84840430754945" lon="11.604905308278727"><ele>752.0</ele><time>2026-05-02T07:05:27Z</time></trkpt><trkpt lat="43.84834045700617" lon="11.60484984747076"><ele>757.1666666666666</ele><time>2026-05-02T07:05:28Z</time></trkpt><trkpt lat="43.848270290658306" lon="11.604825654308948"><ele>762.3333333333333</ele><time>2026-05-02T07:05:29Z</time></trkpt><trkpt lat="43.84819112157282" lon="11.60482019632573"><ele>767.5</ele><time>2026-05-02T07:05:30Z</time></trkpt><trkpt lat="43.84810456409364" lon="11.604807693150555"><ele>772.6666666666666</ele><time>2026-05-02T07:05:31Z</time></trkpt><trkpt lat="43.84801516940619" lon="11.60481372489196"><ele>777.8333333333334</ele><time>2026-05-02T07:05:32Z</time></trkpt><trkpt lat="43.84793622443436" lon="11.604851271560166"><ele>783.0</ele><time>2026-05-02T07:05:33Z</time></trkpt><trkpt lat="43.84782476746772" lon="11.604908251394836"><ele>783.0</ele><time>2026-05-02T07:05:35Z</time></trkpt><trkpt lat="43.84773701970026" lon="11.60493791181888"><ele>783.0</ele><time>2026-05-02T07:05:37Z</time></trkpt><trkpt lat="43.847665661452204" lon="11.604943006597711"><ele>783.0</ele><time>2026-05-02T07:05:38Z</time></trkpt><trkpt lat="43.84757780732765" lon="11.604941819726108"><ele>783.0</ele><time>2026-05-02T07:05:39Z</time></trkpt><trkpt lat="43.847490433938724" lon="11.604936367916151"><ele>783.0</ele><time>2026-05-02T07:05:40Z</time></trkpt><trkpt lat="43.84742168583905" lon="11.604940052804047"><ele>783.0</ele><time>2026-05-02T07:05:41Z</time></trkpt><trkpt lat="43.8473308577643" lon="11.604983972821936"><ele>784.1666666666666</ele><time>2026-05-02T07:05:42Z</time></trkpt><trkpt lat="43.84725450196158" lon="11.605013160400562"><ele>785.3333333333333</ele><time>2026-05-02T07:05:43Z</time></trkpt><trkpt lat="43.84718123572574" lon="11.605065550976901"><ele>786.5</ele><time>2026-05-02T07:05:44Z</time></trkpt><trkpt lat="43.847116240367754" lon="11.605132969717012"><ele>787.6666666666666</ele><time>2026-05-02T07:05:45Z</time></trkpt><trkpt lat="43.84705739334169" lon="11.605198384057076"><ele>788.8333333333333</ele><time>2026-05-02T07:05:46Z</time></trkpt><trkpt lat="43.84701170073275" lon="11.605263264959886"><ele>790.0</ele><time>2026-05-02T07:05:47Z</time></trkpt><trkpt lat="43.84694918980337" lon="11.60533881540046"><ele>789.9999999999999</ele><time>2026-05-02T07:05:48Z</time></trkpt><trkpt lat="43.84688817348524" lon="11.605397181890499"><ele>790.0</ele><time>2026-05-02T07:05:49Z</time></trkpt><trkpt lat="43.846819237543706" lon="11.605449426131917"><ele>790.0</ele><time>2026-05-02T07:05:50Z</time></trkpt><trkpt lat="43.84674335267874" lon="11.605527810487853"><ele>790.0</ele><time>2026-05-02T07:05:51Z</time></trkpt><trkpt lat="43.84667394630588" lon="11.605592158012955"><ele>789.9999999999999</ele><time>2026-05-02T07:05:52Z</time></trkpt><trkpt lat="43.84660768645522" lon="11.60567236389706"><ele>790.0</ele><time>2026-05-02T07:05:53Z</time></trkpt><trkpt lat="43.84651539735857" lon="11.605713680005618"><ele>797.0</ele><time>2026-05-02T07:05:55Z</time></trkpt><trkpt lat="43.846426495704414" lon="11.605788862945532"><ele>804.0</ele><time>2026-05-02T07:05:57Z</time></trkpt><trkpt lat="43.84634507025943" lon="11.605906232795942"><ele>811.0</ele><time>2026-05-02T07:05:59Z</time></trkpt><trkpt lat="43.84627213176512" lon="11.605963197739891"><ele>818.0</ele><time>2026-05-02T07:06:00Z</time></trkpt><trkpt lat="43.84624603285657" lon="11.60605790421496"><ele>825.0</ele><time>2026-05-02T07:06:00.999Z</time></trkpt><trkpt lat="43.846226819396065" lon="11.606156360928837"><ele>825.0</ele><time>2026-05-02T07:06:01.999Z</time></trkpt><trkpt lat="43.84625132680819" lon="11.606268640550487"><ele>825.0</ele><time>2026-05-02T07:06:02.999Z</time></trkpt><trkpt lat="43.846303495981644" lon="11.606367805983087"><ele>825.0</ele><time>2026-05-02T07:06:03.999Z</time></trkpt><trkpt lat="43.846221109707884" lon="11.606481903852428"><ele>825.0</ele><time>2026-05-02T07:06:05.999Z</time></trkpt><trkpt lat="43.846166681095134" lon="11.606534107657607"><ele>825.0</ele><time>2026-05-02T07:06:06.999Z</time></trkpt><trkpt lat="43.84610053605395" lon="11.606501864451221"><ele>825.0</ele><time>2026-05-02T07:06:07.999Z</time></trkpt><trkpt lat="43.846030926776116" lon="11.606452596549655"><ele>825.0</ele><time>2026-05-02T07:06:08.999Z</time></trkpt><trkpt lat="43.845966668597846" lon="11.606409762169992"><ele>825.0</ele><time>2026-05-02T07:06:10.999Z</time></trkpt><trkpt lat="43.84593312845463" lon="11.606487845587068"><ele>825.0</ele><time>2026-05-02T07:06:20Z</time></trkpt><trkpt lat="43.84587075957659" lon="11.606621922099453"><ele>825.0</ele><time>2026-05-02T07:11:24Z</time></trkpt><trkpt lat="43.84583066102324" lon="11.606700616111553"><ele>825.0</ele><time>2026-05-02T07:11:26Z</time></trkpt><trkpt lat="43.845737217907875" lon="11.606838235466803"><ele>830.0</ele><time>2026-05-02T07:11:28Z</time></trkpt><trkpt lat="43.845660345024505" lon="11.60690725684106"><ele>835.0</ele><time>2026-05-02T07:11:29Z</time></trkpt><trkpt lat="43.84558721375678" lon="11.606910831567463"><ele>840.0</ele><time>2026-05-02T07:11:30Z</time></trkpt><trkpt lat="43.84551544546656" lon="11.606876958999067"><ele>845.0</ele><time>2026-05-02T07:11:31Z</time></trkpt><trkpt lat="43.8454473054231" lon="11.606865369684108"><ele>850.0</ele><time>2026-05-02T07:11:32Z</time></trkpt><trkpt lat="43.84529077927111" lon="11.606855266339236"><ele>850.0</ele><time>2026-05-02T07:11:33Z</time></trkpt><trkpt lat="43.84517037847733" lon="11.606873410783903"><ele>850.0</ele><time>2026-05-02T07:11:34Z</time></trkpt><trkpt lat="43.84509279937439" lon="11.606903741810285"><ele>850.0</ele><time>2026-05-02T07:11:35Z</time></trkpt><trkpt lat="43.84502159497415" lon="11.606965194065534"><ele>850.0</ele><time>2026-05-02T07:11:36Z</time></trkpt><trkpt lat="43.844968662438916" lon="11.6070274798654"><ele>850.0</ele><time>2026-05-02T07:11:37Z</time></trkpt><trkpt lat="43.84493526496967" lon="11.607183007196497"><ele>853.1666666666666</ele><time>2026-05-02T07:11:38.999Z</time></trkpt><trkpt lat="43.84492959160477" lon="11.607288427582207"><ele>856.3333333333333</ele><time>2026-05-02T07:11:39.999Z</time></trkpt><trkpt lat="43.84492014829549" lon="11.607405976120807"><ele>859.5</ele><time>2026-05-02T07:11:40.999Z</time></trkpt><trkpt lat="43.8449074769167" lon="11.607501048220383"><ele>862.6666666666667</ele><time>2026-05-02T07:11:41.999Z</time></trkpt><trkpt lat="43.8449035576931" lon="11.607604497842244"><ele>865.8333333333334</ele><time>2026-05-02T07:11:42.999Z</time></trkpt><trkpt lat="43.844901142960914" lon="11.607719838554074"><ele>869.0</ele><time>2026-05-02T07:11:43.999Z</time></trkpt><trkpt lat="43.844911213447425" lon="11.6078251810873"><ele>868.5000000000001</ele><time>2026-05-02T07:11:44.999Z</time></trkpt><trkpt lat="43.84490922011204" lon="11.607917784122115"><ele>868.0</ele><time>2026-05-02T07:11:45.999Z</time></trkpt><trkpt lat="43.84489880992193" lon="11.60801624338545"><ele>867.5</ele><time>2026-05-02T07:11:48.999Z</time></trkpt><trkpt lat="43.844828222386134" lon="11.608127660181067"><ele>867.0</ele><time>2026-05-02T07:11:57.999Z</time></trkpt><trkpt lat="43.8447585561223" lon="11.608168596884665"><ele>866.5000000000001</ele><time>2026-05-02T07:11:58.999Z</time></trkpt><trkpt lat="43.84470429408395" lon="11.608216618921485"><ele>866.0</ele><time>2026-05-02T07:11:59.999Z</time></trkpt><trkpt lat="43.8446551907924" lon="11.608301805051411"><ele>866.0</ele><time>2026-05-02T07:12:00.999Z</time></trkpt><trkpt lat="43.84457829710326" lon="11.60840494723967"><ele>866.0</ele><time>2026-05-02T07:12:01.999Z</time></trkpt><trkpt lat="43.844502439068556" lon="11.608483752173663"><ele>866.0</ele><time>2026-05-02T07:12:02.999Z</time></trkpt><trkpt lat="43.844432645725675" lon="11.608562169513021"><ele>866.0</ele><time>2026-05-02T07:12:03.999Z</time></trkpt><trkpt lat="43.84431666360001" lon="11.60877216661377"><ele>871.8</ele><time>2026-05-02T07:12:04.999Z</time></trkpt><trkpt lat="43.844243751169905" lon="11.608892126810451"><ele>877.5999999999999</ele><time>2026-05-02T07:12:05.999Z</time></trkpt><trkpt lat="43.84416608334718" lon="11.608986466134198"><ele>883.4</ele><time>2026-05-02T07:12:06.999Z</time></trkpt><trkpt lat="43.84410192567128" lon="11.609074483728943"><ele>889.2</ele><time>2026-05-02T07:12:07.999Z</time></trkpt><trkpt lat="43.84404899698356" lon="11.609169407453404"><ele>895.0</ele><time>2026-05-02T07:12:08.999Z</time></trkpt><trkpt lat="43.84398520402822" lon="11.609257817321707"><ele>895.0</ele><time>2026-05-02T07:12:09.999Z</time></trkpt><trkpt lat="43.843924737443395" lon="11.609352265352818"><ele>895.0</ele><time>2026-05-02T07:12:10.999Z</time></trkpt><trkpt lat="43.8438706965592" lon="11.609423278748675"><ele>895.0</ele><time>2026-05-02T07:12:11.999Z</time></trkpt><trkpt lat="43.84381205658758" lon="11.609550696463135"><ele>895.0</ele><time>2026-05-02T07:12:13.999Z</time></trkpt><trkpt lat="43.84379851704507" lon="11.609671914294754"><ele>895.0</ele><time>2026-05-02T07:12:15.999Z</time></trkpt><trkpt lat="43.84376332496925" lon="11.609847855589125"><ele>894.8333333333333</ele><time>2026-05-02T07:12:17.999Z</time></trkpt><trkpt lat="43.84376367931515" lon="11.60994932413605"><ele>894.6666666666666</ele><time>2026-05-02T07:12:18.999Z</time></trkpt><trkpt lat="43.84375688324566" lon="11.61004010891894"><ele>894.5</ele><time>2026-05-02T07:12:19.999Z</time></trkpt><trkpt lat="43.8437414181696" lon="11.610138238985853"><ele>894.3333333333333</ele><time>2026-05-02T07:12:20.999Z</time></trkpt><trkpt lat="43.84373469664195" lon="11.61024510147027"><ele>894.1666666666666</ele><time>2026-05-02T07:12:21.999Z</time></trkpt><trkpt lat="43.84372594781598" lon="11.610342594653856"><ele>894.0</ele><time>2026-05-02T07:12:22.999Z</time></trkpt><trkpt lat="43.84366483387248" lon="11.610492572525882"><ele>894.0</ele><time>2026-05-02T07:12:24.999Z</time></trkpt><trkpt lat="43.84362516466649" lon="11.610571105970152"><ele>894.0</ele><time>2026-05-02T07:12:25.999Z</time></trkpt><trkpt lat="43.84358721027865" lon="11.610651161463299"><ele>894.0</ele><time>2026-05-02T07:12:26.999Z</time></trkpt><trkpt lat="43.84355931634004" lon="11.610781416929854"><ele>894.0</ele><time>2026-05-02T07:12:27.999Z</time></trkpt><trkpt lat="43.84354274602173" lon="11.610933893138842"><ele>894.0</ele><time>2026-05-02T07:12:28.999Z</time></trkpt><trkpt lat="43.843550264264714" lon="11.611065160688351"><ele>894.0</ele><time>2026-05-02T07:12:29.999Z</time></trkpt><trkpt lat="43.84356840708147" lon="11.611194639466415"><ele>895.2</ele><time>2026-05-02T07:12:30.999Z</time></trkpt><trkpt lat="43.843582452365055" lon="11.611324632249431"><ele>896.4000000000001</ele><time>2026-05-02T07:12:32Z</time></trkpt><trkpt lat="43.84358385044643" lon="11.611438532264355"><ele>897.6</ele><time>2026-05-02T07:12:34Z</time></trkpt><trkpt lat="43.843566726422175" lon="11.611532704825326"><ele>898.8</ele><time>2026-05-02T07:12:35Z</time></trkpt><trkpt lat="43.84348961534919" lon="11.611710504147513"><ele>900.0</ele><time>2026-05-02T07:12:37Z</time></trkpt><trkpt lat="43.843418765041605" lon="11.611799618638145"><ele>903.75</ele><time>2026-05-02T07:12:38Z</time></trkpt><trkpt lat="43.84337440730534" lon="11.611908053516137"><ele>907.5</ele><time>2026-05-02T07:12:39Z</time></trkpt><trkpt lat="43.843245819279375" lon="11.612025532472734"><ele>911.25</ele><time>2026-05-02T07:12:41Z</time></trkpt><trkpt lat="43.843137050893006" lon="11.61212810018798"><ele>915.0</ele><time>2026-05-02T07:12:42Z</time></trkpt><trkpt lat="43.84298124028958" lon="11.612254297430955"><ele>915.0</ele><time>2026-05-02T07:12:43Z</time></trkpt><trkpt lat="43.84285216693408" lon="11.612335847518919"><ele>915.0</ele><time>2026-05-02T07:12:44Z</time></trkpt><trkpt lat="43.84274360292839" lon="11.612359499031655"><ele>915.0</ele><time>2026-05-02T07:12:45Z</time></trkpt><trkpt lat="43.84261972505293" lon="11.61236754084406"><ele>915.0</ele><time>2026-05-02T07:12:46Z</time></trkpt><trkpt lat="43.84250975024301" lon="11.612373572053997"><ele>920.75</ele><time>2026-05-02T07:12:47Z</time></trkpt><trkpt lat="43.84240228918678" lon="11.612392050189868"><ele>926.5</ele><time>2026-05-02T07:12:48Z</time></trkpt><trkpt lat="43.84223883404133" lon="11.612469024156507"><ele>932.25</ele><time>2026-05-02T07:12:49Z</time></trkpt><trkpt lat="43.842097840187755" lon="11.612529650940756"><ele>938.0</ele><time>2026-05-02T07:12:50Z</time></trkpt><trkpt lat="43.84204560599543" lon="11.612597947133166"><ele>938.0000000000001</ele><time>2026-05-02T07:12:51Z</time></trkpt><trkpt lat="43.84196182885199" lon="11.61263599441908"><ele>938.0</ele><time>2026-05-02T07:12:53Z</time></trkpt><trkpt lat="43.84195415006084" lon="11.612546878587251"><ele>938.0</ele><time>2026-05-02T07:12:57Z</time></trkpt><trkpt lat="43.84192652214981" lon="11.612430274476619"><ele>938.0</ele><time>2026-05-02T07:13:58.999Z</time></trkpt><trkpt lat="43.841924684555195" lon="11.61232085210702"><ele>938.0000000000001</ele><time>2026-05-02T07:13:59.999Z</time></trkpt><trkpt lat="43.84193912330871" lon="11.612203837349483"><ele>938.0</ele><time>2026-05-02T07:14:00.999Z</time></trkpt><trkpt lat="43.841947834085474" lon="11.612094812873563"><ele>938.0</ele><time>2026-05-02T07:14:01.999Z</time></trkpt><trkpt lat="43.84197127976615" lon="11.611995894319683"><ele>938.0</ele><time>2026-05-02T07:14:02.999Z</time></trkpt><trkpt lat="43.84195433852311" lon="11.611830462005841"><ele>938.0</ele><time>2026-05-02T07:14:04.999Z</time></trkpt><trkpt lat="43.84194908822715" lon="11.61170486468155"><ele>938.0</ele><time>2026-05-02T07:14:06.999Z</time></trkpt><trkpt lat="43.84192294107938" lon="11.611536533473227"><ele>938.0</ele><time>2026-05-02T07:14:08.999Z</time></trkpt><trkpt lat="43.841902447537706" lon="11.611449245417123"><ele>940.8</ele><time>2026-05-02T07:14:09.999Z</time></trkpt><trkpt lat="43.84186153556391" lon="11.611280880434105"><ele>943.5999999999999</ele><time>2026-05-02T07:14:11.999Z</time></trkpt><trkpt lat="43.841811565858144" lon="11.611184872597615"><ele>946.4000000000001</ele><time>2026-05-02T07:14:13.999Z</time></trkpt><trkpt lat="43.841760094465656" lon="11.611069582276256"><ele>949.2</ele><time>2026-05-02T07:14:16.999Z</time></trkpt><trkpt lat="43.841678848279585" lon="11.611011162647113"><ele>952.0</ele><time>2026-05-02T07:14:18.999Z</time></trkpt><trkpt lat="43.841599950307646" lon="11.611047796805728"><ele>948.6666666666666</ele><time>2026-05-02T07:14:22.999Z</time></trkpt><trkpt lat="43.84136231404319" lon="11.611189843957652"><ele>945.3333333333333</ele><time>2026-05-02T07:14:25.999Z</time></trkpt><trkpt lat="43.841299808278656" lon="11.611247381051207"><ele>942.0</ele><time>2026-05-02T07:14:26.999Z</time></trkpt><trkpt lat="43.841187744724934" lon="11.61132789956327"><ele>942.0</ele><time>2026-05-02T07:14:28.999Z</time></trkpt><trkpt lat="43.841108804874885" lon="11.611329623391926"><ele>942.0</ele><time>2026-05-02T07:14:29.999Z</time></trkpt><trkpt lat="43.840992411664594" lon="11.611216547881723"><ele>942.0</ele><time>2026-05-02T07:14:31.999Z</time></trkpt><trkpt lat="43.840975470504475" lon="11.611078147937704"><ele>942.0</ele><time>2026-05-02T07:14:32.999Z</time></trkpt><trkpt lat="43.84093256677393" lon="11.61096067941921"><ele>942.0</ele><time>2026-05-02T07:14:33.999Z</time></trkpt><trkpt lat="43.840891766708076" lon="11.610835234905469"><ele>942.0</ele><time>2026-05-02T07:14:34.999Z</time></trkpt><trkpt lat="43.84087082861729" lon="11.610684810819366"><ele>942.0</ele><time>2026-05-02T07:14:35.999Z</time></trkpt><trkpt lat="43.84085252287372" lon="11.610557439687314"><ele>942.0</ele><time>2026-05-02T07:14:36.999Z</time></trkpt><trkpt lat="43.84082314613464" lon="11.610431740595091"><ele>942.0</ele><time>2026-05-02T07:14:38Z</time></trkpt><trkpt lat="43.84079784503535" lon="11.61030371506042"><ele>942.0</ele><time>2026-05-02T07:14:39Z</time></trkpt><trkpt lat="43.84079370745345" lon="11.610167040265342"><ele>942.5</ele><time>2026-05-02T07:14:40Z</time></trkpt><trkpt lat="43.84080796054475" lon="11.610039229423862"><ele>943.0</ele><time>2026-05-02T07:14:41Z</time></trkpt><trkpt lat="43.840830226314026" lon="11.6099185057149"><ele>943.5</ele><time>2026-05-02T07:14:42Z</time></trkpt><trkpt lat="43.840850674390275" lon="11.609793717165472"><ele>944.0</ele><time>2026-05-02T07:14:43Z</time></trkpt><trkpt lat="43.84086644197532" lon="11.609682607415856"><ele>944.5</ele><time>2026-05-02T07:14:44Z</time></trkpt><trkpt lat="43.84085366034302" lon="11.609569823673093"><ele>945.0</ele><time>2026-05-02T07:14:45Z</time></trkpt><trkpt lat="43.84082128905739" lon="11.609460520220562"><ele>945.0</ele><time>2026-05-02T07:14:46Z</time></trkpt><trkpt lat="43.840793785750975" lon="11.609318502287277"><ele>945.0</ele><time>2026-05-02T07:14:47Z</time></trkpt><trkpt lat="43.84079547964334" lon="11.609228319525768"><ele>945.0</ele><time>2026-05-02T07:14:48Z</time></trkpt><trkpt lat="43.84076394819463" lon="11.609138404891361"><ele>945.0</ele><time>2026-05-02T07:14:50Z</time></trkpt><trkpt lat="43.84077275248155" lon="11.60895472711798"><ele>945.0</ele><time>2026-05-02T07:14:52Z</time></trkpt><trkpt lat="43.8407402109693" lon="11.608810551328618"><ele>945.0</ele><time>2026-05-02T07:14:53Z</time></trkpt><trkpt lat="43.84069870124945" lon="11.608671557182868"><ele>945.0</ele><time>2026-05-02T07:14:54Z</time></trkpt><trkpt lat="43.84070141958582" lon="11.608566967158254"><ele>945.0</ele><time>2026-05-02T07:14:55Z</time></trkpt><trkpt lat="43.840699637471" lon="11.6084683910055"><ele>945.0</ele><time>2026-05-02T07:14:56Z</time></trkpt><trkpt lat="43.84071446964069" lon="11.608288224212481"><ele>945.0</ele><time>2026-05-02T07:14:58Z</time></trkpt><trkpt lat="43.840750275244694" lon="11.608165915881438"><ele>943.8</ele><time>2026-05-02T07:14:59Z</time></trkpt><trkpt lat="43.84071849246658" lon="11.608012324591243"><ele>942.6</ele><time>2026-05-02T07:15:01Z</time></trkpt><trkpt lat="43.84063844515024" lon="11.6079387170521"><ele>941.4000000000001</ele><time>2026-05-02T07:15:02Z</time></trkpt><trkpt lat="43.840558463114654" lon="11.607814756572486"><ele>940.2</ele><time>2026-05-02T07:15:03Z</time></trkpt><trkpt lat="43.84050846785908" lon="11.607668797170456"><ele>939.0</ele><time>2026-05-02T07:15:04Z</time></trkpt><trkpt lat="43.84047967084329" lon="11.60754534726374"><ele>938.2</ele><time>2026-05-02T07:15:05Z</time></trkpt><trkpt lat="43.840459898089705" lon="11.607426104891534"><ele>937.4000000000001</ele><time>2026-05-02T07:15:06Z</time></trkpt><trkpt lat="43.84045150561067" lon="11.607328543552493"><ele>936.6</ele><time>2026-05-02T07:15:07Z</time></trkpt><trkpt lat="43.840432188224185" lon="11.607218987648405"><ele>935.8</ele><time>2026-05-02T07:15:08Z</time></trkpt><trkpt lat="43.840396351851446" lon="11.607068069535767"><ele>935.0</ele><time>2026-05-02T07:15:09Z</time></trkpt><trkpt lat="43.84032925393314" lon="11.606916520414762"><ele>933.5</ele><time>2026-05-02T07:15:10Z</time></trkpt><trkpt lat="43.840234291002574" lon="11.606777687470908"><ele>932.0</ele><time>2026-05-02T07:15:11Z</time></trkpt><trkpt lat="43.8401456152241" lon="11.606657976567302"><ele>930.5</ele><time>2026-05-02T07:15:12Z</time></trkpt><trkpt lat="43.84009063958591" lon="11.606533660205297"><ele>929.0</ele><time>2026-05-02T07:15:13Z</time></trkpt><trkpt lat="43.84005088088702" lon="11.60640810352812"><ele>931.8333333333334</ele><time>2026-05-02T07:15:14Z</time></trkpt><trkpt lat="43.84000599446512" lon="11.606270684490676"><ele>934.6666666666667</ele><time>2026-05-02T07:15:15Z</time></trkpt><trkpt lat="43.839990678476255" lon="11.606164024641627"><ele>937.5</ele><time>2026-05-02T07:15:16Z</time></trkpt><trkpt lat="43.840006080642446" lon="11.606044789701695"><ele>940.3333333333333</ele><time>2026-05-02T07:15:17Z</time></trkpt><trkpt lat="43.84000973119458" lon="11.605934849477592"><ele>943.1666666666666</ele><time>2026-05-02T07:15:18Z</time></trkpt><trkpt lat="43.83999463999941" lon="11.605834303738105"><ele>946.0</ele><time>2026-05-02T07:15:19Z</time></trkpt><trkpt lat="43.839979860963325" lon="11.605695801611905"><ele>946.8</ele><time>2026-05-02T07:15:20Z</time></trkpt><trkpt lat="43.839964382974685" lon="11.605560951489416"><ele>947.5999999999999</ele><time>2026-05-02T07:15:21Z</time></trkpt><trkpt lat="43.83997155330719" lon="11.605410591861485"><ele>948.4</ele><time>2026-05-02T07:15:22Z</time></trkpt><trkpt lat="43.83994406422509" lon="11.605282272797451"><ele>949.2</ele><time>2026-05-02T07:15:23Z</time></trkpt><trkpt lat="43.83988371808857" lon="11.605141840283865"><ele>950.0</ele><time>2026-05-02T07:15:24Z</time></trkpt><trkpt lat="43.839828654508594" lon="11.60502126340588"><ele>950.75</ele><time>2026-05-02T07:15:25Z</time></trkpt><trkpt lat="43.83972876823157" lon="11.604900043012039"><ele>951.5</ele><time>2026-05-02T07:15:26Z</time></trkpt><trkpt lat="43.83963532173037" lon="11.604815325034478"><ele>952.25</ele><time>2026-05-02T07:15:27Z</time></trkpt><trkpt lat="43.839537362331995" lon="11.604719766437656"><ele>953.0</ele><time>2026-05-02T07:15:28Z</time></trkpt><trkpt lat="43.83945638164307" lon="11.604618508443801"><ele>953.0</ele><time>2026-05-02T07:15:29Z</time></trkpt><trkpt lat="43.83937012967503" lon="11.604509380056726"><ele>953.0</ele><time>2026-05-02T07:15:30Z</time></trkpt><trkpt lat="43.839283308586886" lon="11.604410768050847"><ele>953.0</ele><time>2026-05-02T07:15:31Z</time></trkpt><trkpt lat="43.83920136648536" lon="11.604344885347201"><ele>953.0</ele><time>2026-05-02T07:15:32Z</time></trkpt><trkpt lat="43.83912322855312" lon="11.60428442265211"><ele>953.0</ele><time>2026-05-02T07:15:33Z</time></trkpt><trkpt lat="43.83903889908317" lon="11.604233074525718"><ele>954.0</ele><time>2026-05-02T07:15:34Z</time></trkpt><trkpt lat="43.83896097664179" lon="11.60416578651776"><ele>955.0</ele><time>2026-05-02T07:15:35Z</time></trkpt><trkpt lat="43.8388806284842" lon="11.60407107556271"><ele>956.0</ele><time>2026-05-02T07:15:36Z</time></trkpt><trkpt lat="43.83880886090454" lon="11.6039529176166"><ele>957.0</ele><time>2026-05-02T07:15:37Z</time></trkpt><trkpt lat="43.83874194100728" lon="11.603858677621188"><ele>958.0</ele><time>2026-05-02T07:15:38Z</time></trkpt><trkpt lat="43.8386772051267" lon="11.60379276444109"><ele>957.9999999999999</ele><time>2026-05-02T07:15:39Z</time></trkpt><trkpt lat="43.83860306525334" lon="11.60376689298258"><ele>958.0</ele><time>2026-05-02T07:15:40Z</time></trkpt><trkpt lat="43.838515126924165" lon="11.603783291740825"><ele>958.0</ele><time>2026-05-02T07:15:41Z</time></trkpt><trkpt lat="43.8384253255231" lon="11.603802462439123"><ele>958.0</ele><time>2026-05-02T07:15:42Z</time></trkpt><trkpt lat="43.838350289242385" lon="11.603841817853036"><ele>957.9999999999999</ele><time>2026-05-02T07:15:43Z</time></trkpt><trkpt lat="43.83827856136059" lon="11.603892444486409"><ele>958.0</ele><time>2026-05-02T07:15:43.999Z</time></trkpt><trkpt lat="43.83820641180897" lon="11.603958085909186"><ele>959.1666666666666</ele><time>2026-05-02T07:15:44.999Z</time></trkpt><trkpt lat="43.838126430030286" lon="11.604027991447474"><ele>960.3333333333333</ele><time>2026-05-02T07:15:45.999Z</time></trkpt><trkpt lat="43.83807352950929" lon="11.604085513774535"><ele>961.5</ele><time>2026-05-02T07:15:46.999Z</time></trkpt><trkpt lat="43.83797487632763" lon="11.604180288487154"><ele>962.6666666666667</ele><time>2026-05-02T07:15:48.999Z</time></trkpt><trkpt lat="43.83793020728922" lon="11.60424252612006"><ele>963.8333333333334</ele><time>2026-05-02T07:15:49.999Z</time></trkpt><trkpt lat="43.837874737621085" lon="11.604299243481675"><ele>965.0</ele><time>2026-05-02T07:15:50.999Z</time></trkpt><trkpt lat="43.83780272233988" lon="11.604353421115443"><ele>965.0000000000001</ele><time>2026-05-02T07:15:51.999Z</time></trkpt><trkpt lat="43.83772273611037" lon="11.604397549601924"><ele>965.0</ele><time>2026-05-02T07:15:52.999Z</time></trkpt><trkpt lat="43.83765057634723" lon="11.604453348706642"><ele>965.0</ele><time>2026-05-02T07:15:53.999Z</time></trkpt><trkpt lat="43.83757855977896" lon="11.604516402691427"><ele>965.0</ele><time>2026-05-02T07:15:54.999Z</time></trkpt><trkpt lat="43.83751003570327" lon="11.604590994122203"><ele>965.0000000000001</ele><time>2026-05-02T07:15:55.999Z</time></trkpt><trkpt lat="43.83744674305725" lon="11.604672212683653"><ele>965.0</ele><time>2026-05-02T07:15:56.999Z</time></trkpt><trkpt lat="43.837390104383296" lon="11.604728941090402"><ele>968.6</ele><time>2026-05-02T07:15:57.999Z</time></trkpt><trkpt lat="43.837256413942455" lon="11.604767901550213"><ele>972.2</ele><time>2026-05-02T07:15:59.999Z</time></trkpt><trkpt lat="43.837172924323795" lon="11.604767035929198"><ele>975.8</ele><time>2026-05-02T07:16:00.999Z</time></trkpt><trkpt lat="43.83709221588795" lon="11.604769127556617"><ele>979.4</ele><time>2026-05-02T07:16:01.999Z</time></trkpt><trkpt lat="43.83702038377968" lon="11.60478430187917"><ele>983.0</ele><time>2026-05-02T07:16:02.999Z</time></trkpt><trkpt lat="43.83693712956499" lon="11.604805442529278"><ele>983.0000000000001</ele><time>2026-05-02T07:16:03.999Z</time></trkpt><trkpt lat="43.836872082834276" lon="11.604822406318908"><ele>983.0</ele><time>2026-05-02T07:16:04.999Z</time></trkpt><trkpt lat="43.83680790335912" lon="11.604850559959257"><ele>983.0</ele><time>2026-05-02T07:16:05.999Z</time></trkpt><trkpt lat="43.83674301553569" lon="11.604899830680333"><ele>983.0</ele><time>2026-05-02T07:16:06.999Z</time></trkpt><trkpt lat="43.83666995661878" lon="11.604972744962938"><ele>983.0000000000001</ele><time>2026-05-02T07:16:07.999Z</time></trkpt><trkpt lat="43.83659851308235" lon="11.60503442729473"><ele>983.0</ele><time>2026-05-02T07:16:08.999Z</time></trkpt><trkpt lat="43.836523388074625" lon="11.605060445122273"><ele>984.6666666666667</ele><time>2026-05-02T07:16:09.999Z</time></trkpt><trkpt lat="43.836448526298" lon="11.605072916395478"><ele>986.3333333333334</ele><time>2026-05-02T07:16:10.999Z</time></trkpt><trkpt lat="43.83637440450876" lon="11.605068913964034"><ele>988.0</ele><time>2026-05-02T07:16:11.999Z</time></trkpt><trkpt lat="43.83630020682487" lon="11.605057300938983"><ele>989.6666666666667</ele><time>2026-05-02T07:16:12.999Z</time></trkpt><trkpt lat="43.83623206111291" lon="11.605056560777172"><ele>991.3333333333334</ele><time>2026-05-02T07:16:13.999Z</time></trkpt><trkpt lat="43.83610000744173" lon="11.60503075483778"><ele>993.0</ele><time>2026-05-02T07:16:15.999Z</time></trkpt><trkpt lat="43.83603411875834" lon="11.605013205858482"><ele>996.4</ele><time>2026-05-02T07:16:16.999Z</time></trkpt><trkpt lat="43.83596560517013" lon="11.604947168554778"><ele>999.8</ele><time>2026-05-02T07:16:18.999Z</time></trkpt><trkpt lat="43.83586321593816" lon="11.604833649796042"><ele>1003.2</ele><time>2026-05-02T07:16:20.999Z</time></trkpt><trkpt lat="43.83580097039159" lon="11.604721800961022"><ele>1006.6</ele><time>2026-05-02T07:16:21.999Z</time></trkpt><trkpt lat="43.835717756822376" lon="11.604603903776043"><ele>1010.0</ele><time>2026-05-02T07:16:23.999Z</time></trkpt><trkpt lat="43.835654958522" lon="11.604539511745438"><ele>1010.0</ele><time>2026-05-02T07:16:24.999Z</time></trkpt><trkpt lat="43.835588591112256" lon="11.604499691218455"><ele>1010.0</ele><time>2026-05-02T07:16:25.999Z</time></trkpt><trkpt lat="43.83549585833097" lon="11.604445342880624"><ele>1010.0</ele><time>2026-05-02T07:16:26.999Z</time></trkpt><trkpt lat="43.83538552251682" lon="11.604367193499048"><ele>1010.0</ele><time>2026-05-02T07:16:27.999Z</time></trkpt><trkpt lat="43.83529198220816" lon="11.604283819546103"><ele>1010.0</ele><time>2026-05-02T07:16:28.999Z</time></trkpt><trkpt lat="43.835191021566416" lon="11.604209305960238"><ele>1009.8</ele><time>2026-05-02T07:16:29.999Z</time></trkpt><trkpt lat="43.83510134431776" lon="11.604157559978136"><ele>1009.6</ele><time>2026-05-02T07:16:30.999Z</time></trkpt><trkpt lat="43.835014384144635" lon="11.604117971463936"><ele>1009.4000000000001</ele><time>2026-05-02T07:16:31.999Z</time></trkpt><trkpt lat="43.83492377937229" lon="11.604102444706987"><ele>1009.2</ele><time>2026-05-02T07:16:32.999Z</time></trkpt><trkpt lat="43.83483126583777" lon="11.60410090736513"><ele>1009.0</ele><time>2026-05-02T07:16:33.999Z</time></trkpt><trkpt lat="43.83475365697182" lon="11.604091252905539"><ele>1008.9999999999999</ele><time>2026-05-02T07:16:34.999Z</time></trkpt><trkpt lat="43.834667683806224" lon="11.604080237971557"><ele>1009.0</ele><time>2026-05-02T07:16:35.999Z</time></trkpt><trkpt lat="43.83457954391725" lon="11.604107375461476"><ele>1009.0</ele><time>2026-05-02T07:16:36.999Z</time></trkpt><trkpt lat="43.83450586970208" lon="11.604135129869059"><ele>1009.0</ele><time>2026-05-02T07:16:37.999Z</time></trkpt><trkpt lat="43.83445087563238" lon="11.604192401546188"><ele>1008.9999999999999</ele><time>2026-05-02T07:16:39.999Z</time></trkpt><trkpt lat="43.83450573995373" lon="11.604239045939796"><ele>1009.0</ele><time>2026-05-02T07:16:48Z</time></trkpt><trkpt lat="43.83451615750952" lon="11.604367889967483"><ele>1008.9999999999999</ele><time>2026-05-02T07:17:00Z</time></trkpt><trkpt lat="43.8345646748605" lon="11.604437682691916"><ele>1009.0</ele><time>2026-05-02T07:17:02Z</time></trkpt><trkpt lat="43.83462860953639" lon="11.604475565807503"><ele>1009.0</ele><time>2026-05-02T07:17:04Z</time></trkpt><trkpt lat="43.83464625957348" lon="11.604374782580066"><ele>1009.0</ele><time>2026-05-02T07:17:19.999Z</time></trkpt><trkpt lat="43.83454564893649" lon="11.604453700044784"><ele>1008.9999999999999</ele><time>2026-05-02T07:17:22.999Z</time></trkpt><trkpt lat="43.83446242997472" lon="11.604466644424305"><ele>1009.0</ele><time>2026-05-02T07:17:23.999Z</time></trkpt><trkpt lat="43.834386235987985" lon="11.604483885483464"><ele>1010.1666666666666</ele><time>2026-05-02T07:17:24.999Z</time></trkpt><trkpt lat="43.8342995141288" lon="11.604493544291897"><ele>1011.3333333333333</ele><time>2026-05-02T07:17:25.999Z</time></trkpt><trkpt lat="43.834202794837374" lon="11.604525255455242"><ele>1012.5</ele><time>2026-05-02T07:17:27.999Z</time></trkpt><trkpt lat="43.83413029562174" lon="11.60456983946683"><ele>1013.6666666666667</ele><time>2026-05-02T07:17:29.999Z</time></trkpt><trkpt lat="43.83406131922415" lon="11.604576744787892"><ele>1014.8333333333334</ele><time>2026-05-02T07:17:31.999Z</time></trkpt><trkpt lat="43.83409505839028" lon="11.604494838448662"><ele>1016.0</ele><time>2026-05-02T07:17:35.999Z</time></trkpt><trkpt lat="43.83416583371702" lon="11.604551870706185"><ele>1017.1666666666667</ele><time>2026-05-02T07:17:37.999Z</time></trkpt><trkpt lat="43.83423185007879" lon="11.604577466400963"><ele>1018.3333333333334</ele><time>2026-05-02T07:17:39.999Z</time></trkpt><trkpt lat="43.83431325361041" lon="11.604556893982911"><ele>1019.5</ele><time>2026-05-02T07:17:42.999Z</time></trkpt><trkpt lat="43.83437419897509" lon="11.604506340737162"><ele>1020.6666666666667</ele><time>2026-05-02T07:17:44.999Z</time></trkpt><trkpt lat="43.83445779824441" lon="11.604457846429955"><ele>1021.8333333333334</ele><time>2026-05-02T07:17:46.999Z</time></trkpt><trkpt lat="43.83455501780259" lon="11.60444233780064"><ele>1023.0</ele><time>2026-05-02T07:17:48.999Z</time></trkpt><trkpt lat="43.834647970160354" lon="11.604437394649507"><ele>1023.0</ele><time>2026-05-02T07:17:50.999Z</time></trkpt><trkpt lat="43.83455437272863" lon="11.604451065869531"><ele>1023.0</ele><time>2026-05-02T07:17:56.999Z</time></trkpt><trkpt lat="43.834259839452756" lon="11.604546098119636"><ele>1023.0</ele><time>2026-05-02T07:17:59.999Z</time></trkpt><trkpt lat="43.83414079179168" lon="11.604581076761846"><ele>1023.0</ele><time>2026-05-02T07:18:01.999Z</time></trkpt><trkpt lat="43.834064928901746" lon="11.604598758731886"><ele>1023.0</ele><time>2026-05-02T07:18:03.999Z</time></trkpt><trkpt lat="43.834084550930186" lon="11.604510996637837"><ele>1023.0</ele><time>2026-05-02T07:18:05.999Z</time></trkpt><trkpt lat="43.83415629211298" lon="11.604545147583245"><ele>1023.0</ele><time>2026-05-02T07:18:08.999Z</time></trkpt><trkpt lat="43.83422425172345" lon="11.604568853143698"><ele>1023.0</ele><time>2026-05-02T07:18:10.999Z</time></trkpt><trkpt lat="43.8343013786385" lon="11.60457866293594"><ele>1023.0</ele><time>2026-05-02T07:18:12.999Z</time></trkpt><trkpt lat="43.83435514714966" lon="11.604512134530278"><ele>1023.0</ele><time>2026-05-02T07:18:15.998Z</time></trkpt><trkpt lat="43.83444225679899" lon="11.60446261795026"><ele>1020.6666666666666</ele><time>2026-05-02T07:18:17.998Z</time></trkpt><trkpt lat="43.834537543768334" lon="11.604444860602822"><ele>1018.3333333333333</ele><time>2026-05-02T07:18:19.998Z</time></trkpt><trkpt lat="43.83453180138266" lon="11.604357619548281"><ele>1016.0</ele><time>2026-05-02T07:18:21.998Z</time></trkpt><trkpt lat="43.834528696854846" lon="11.60426775847691"><ele>1013.6666666666666</ele><time>2026-05-02T07:18:28.998Z</time></trkpt><trkpt lat="43.834472579623444" lon="11.60415033080138"><ele>1011.3333333333333</ele><time>2026-05-02T07:18:43.998Z</time></trkpt><trkpt lat="43.834503546769774" lon="11.604028102525405"><ele>1009.0</ele><time>2026-05-02T07:18:47.998Z</time></trkpt><trkpt lat="43.83450930066123" lon="11.603897152193905"><ele>1008.9999999999999</ele><time>2026-05-02T07:18:48.999Z</time></trkpt><trkpt lat="43.83449460458334" lon="11.603778620424462"><ele>1009.0</ele><time>2026-05-02T07:18:49.999Z</time></trkpt><trkpt lat="43.83446529657727" lon="11.60364229403676"><ele>1009.0</ele><time>2026-05-02T07:18:50.999Z</time></trkpt><trkpt lat="43.8344368097436" lon="11.603542499702964"><ele>1009.0</ele><time>2026-05-02T07:18:51.999Z</time></trkpt><trkpt lat="43.83438865590262" lon="11.60345868390151"><ele>1008.9999999999999</ele><time>2026-05-02T07:18:52.999Z</time></trkpt><trkpt lat="43.834343199733524" lon="11.60336824827474"><ele>1009.0</ele><time>2026-05-02T07:18:53.999Z</time></trkpt><trkpt lat="43.83428858382365" lon="11.603270422149247"><ele>1007.8000000000001</ele><time>2026-05-02T07:18:54.999Z</time></trkpt><trkpt lat="43.83421740150231" lon="11.603193996311605"><ele>1006.6000000000001</ele><time>2026-05-02T07:18:55.999Z</time></trkpt><trkpt lat="43.834135265962" lon="11.603143363997225"><ele>1005.4</ele><time>2026-05-02T07:18:56.999Z</time></trkpt><trkpt lat="43.83404743202539" lon="11.603105439887772"><ele>1004.2</ele><time>2026-05-02T07:18:57.999Z</time></trkpt><trkpt lat="43.83396182337687" lon="11.6030635203673"><ele>1003.0</ele><time>2026-05-02T07:18:58.999Z</time></trkpt><trkpt lat="43.83386273647417" lon="11.603037455241461"><ele>1003.0</ele><time>2026-05-02T07:18:59.999Z</time></trkpt><trkpt lat="43.8337584984439" lon="11.603037448841627"><ele>1003.0</ele><time>2026-05-02T07:19:00.999Z</time></trkpt><trkpt lat="43.8336643528483" lon="11.60305862209061"><ele>1003.0</ele><time>2026-05-02T07:19:01.999Z</time></trkpt><trkpt lat="43.83358166076681" lon="11.60307974481401"><ele>1003.0</ele><time>2026-05-02T07:19:02.999Z</time></trkpt><trkpt lat="43.833507966520415" lon="11.603111040198641"><ele>1003.0</ele><time>2026-05-02T07:19:03.999Z</time></trkpt><trkpt lat="43.83343489800432" lon="11.603188075061665"><ele>1002.4</ele><time>2026-05-02T07:19:04.999Z</time></trkpt><trkpt lat="43.83335516904362" lon="11.603288964586262"><ele>1001.8</ele><time>2026-05-02T07:19:05.999Z</time></trkpt><trkpt lat="43.8332636239644" lon="11.603392862991354"><ele>1001.2</ele><time>2026-05-02T07:19:06.999Z</time></trkpt><trkpt lat="43.83317278870096" lon="11.603462004921214"><ele>1000.6</ele><time>2026-05-02T07:19:07.999Z</time></trkpt><trkpt lat="43.83308163799187" lon="11.603512642224777"><ele>1000.0</ele><time>2026-05-02T07:19:08.999Z</time></trkpt><trkpt lat="43.83299319940324" lon="11.603538730419901"><ele>1000.0</ele><time>2026-05-02T07:19:09.999Z</time></trkpt><trkpt lat="43.832892960691495" lon="11.603560423835924"><ele>1000.0</ele><time>2026-05-02T07:19:11Z</time></trkpt><trkpt lat="43.83279598549938" lon="11.603562105996703"><ele>1000.0</ele><time>2026-05-02T07:19:12Z</time></trkpt><trkpt lat="43.832704098094744" lon="11.60355365514877"><ele>1000.0</ele><time>2026-05-02T07:19:13Z</time></trkpt><trkpt lat="43.83257736585121" lon="11.603483889740534"><ele>1000.0</ele><time>2026-05-02T07:19:15Z</time></trkpt><trkpt lat="43.83249642101909" lon="11.603491970070008"><ele>999.4999999999999</ele><time>2026-05-02T07:19:16Z</time></trkpt><trkpt lat="43.832417545686965" lon="11.603456122960678"><ele>999.0</ele><time>2026-05-02T07:19:17Z</time></trkpt><trkpt lat="43.832352713223806" lon="11.603430241844388"><ele>998.5</ele><time>2026-05-02T07:19:18Z</time></trkpt><trkpt lat="43.832237556300676" lon="11.603411646559968"><ele>998.0</ele><time>2026-05-02T07:19:20Z</time></trkpt><trkpt lat="43.83215282283915" lon="11.603413908311676"><ele>997.4999999999999</ele><time>2026-05-02T07:19:21Z</time></trkpt><trkpt lat="43.83207332646907" lon="11.603431738004495"><ele>997.0</ele><time>2026-05-02T07:19:22Z</time></trkpt><trkpt lat="43.83199344158129" lon="11.60346356141998"><ele>997.0</ele><time>2026-05-02T07:19:23Z</time></trkpt><trkpt lat="43.8318825451409" lon="11.603529304997522"><ele>997.0</ele><time>2026-05-02T07:19:25Z</time></trkpt><trkpt lat="43.8318229489823" lon="11.603562882181562"><ele>997.0</ele><time>2026-05-02T07:19:26Z</time></trkpt><trkpt lat="43.83173951380861" lon="11.603655133018053"><ele>997.0</ele><time>2026-05-02T07:19:26.999Z</time></trkpt><trkpt lat="43.83162442154348" lon="11.603698263343615"><ele>997.0</ele><time>2026-05-02T07:19:27.999Z</time></trkpt><trkpt lat="43.83148845149996" lon="11.603720053572314"><ele>997.0</ele><time>2026-05-02T07:19:28.999Z</time></trkpt><trkpt lat="43.83130327295989" lon="11.603706177862195"><ele>997.0</ele><time>2026-05-02T07:19:29.999Z</time></trkpt><trkpt lat="43.83111462020414" lon="11.603718546566894"><ele>997.0</ele><time>2026-05-02T07:19:30.999Z</time></trkpt><trkpt lat="43.83094667579666" lon="11.603721098625659"><ele>996.1666666666666</ele><time>2026-05-02T07:19:31.999Z</time></trkpt><trkpt lat="43.83082543322016" lon="11.603724204865758"><ele>995.3333333333333</ele><time>2026-05-02T07:19:32.999Z</time></trkpt><trkpt lat="43.83074945650775" lon="11.603726332904817"><ele>994.5</ele><time>2026-05-02T07:19:33.999Z</time></trkpt><trkpt lat="43.83068168876723" lon="11.603761835988891"><ele>993.6666666666667</ele><time>2026-05-02T07:19:35.999Z</time></trkpt><trkpt lat="43.83070317739771" lon="11.603862304231296"><ele>992.8333333333334</ele><time>2026-05-02T07:19:38.999Z</time></trkpt><trkpt lat="43.8307446858716" lon="11.603749724968086"><ele>992.0</ele><time>2026-05-02T07:22:10.999Z</time></trkpt><trkpt lat="43.83073212519823" lon="11.603657416436196"><ele>990.8</ele><time>2026-05-02T07:22:17.999Z</time></trkpt><trkpt lat="43.83067582642103" lon="11.603713213792803"><ele>989.6</ele><time>2026-05-02T07:22:19.999Z</time></trkpt><trkpt lat="43.83062632219371" lon="11.603845483977246"><ele>988.3999999999999</ele><time>2026-05-02T07:22:21.999Z</time></trkpt><trkpt lat="43.83050371823869" lon="11.603846994388418"><ele>987.1999999999999</ele><time>2026-05-02T07:22:23.999Z</time></trkpt><trkpt lat="43.83043895268153" lon="11.60383093973501"><ele>986.0</ele><time>2026-05-02T07:22:24.999Z</time></trkpt><trkpt lat="43.8303271770253" lon="11.603831137432302"><ele>986.0000000000001</ele><time>2026-05-02T07:22:26.999Z</time></trkpt><trkpt lat="43.83025140266461" lon="11.60381043846353"><ele>986.0</ele><time>2026-05-02T07:22:27.999Z</time></trkpt><trkpt lat="43.83016958886234" lon="11.603766179340774"><ele>986.0</ele><time>2026-05-02T07:22:28.999Z</time></trkpt><trkpt lat="43.830083563161935" lon="11.603726205202843"><ele>986.0</ele><time>2026-05-02T07:22:29.999Z</time></trkpt><trkpt lat="43.83000157389207" lon="11.603689310779473"><ele>986.0000000000001</ele><time>2026-05-02T07:22:30.999Z</time></trkpt><trkpt lat="43.82993692071943" lon="11.603682296792536"><ele>986.0</ele><time>2026-05-02T07:22:31.999Z</time></trkpt><trkpt lat="43.829880155847114" lon="11.603742893793479"><ele>986.0000000000001</ele><time>2026-05-02T07:22:32.999Z</time></trkpt><trkpt lat="43.82982511432978" lon="11.603834663106985"><ele>986.0</ele><time>2026-05-02T07:22:33.999Z</time></trkpt><trkpt lat="43.82978101437838" lon="11.603901593922544"><ele>986.0</ele><time>2026-05-02T07:22:34.999Z</time></trkpt><trkpt lat="43.829684517581384" lon="11.603939061030065"><ele>986.0</ele><time>2026-05-02T07:22:36.999Z</time></trkpt><trkpt lat="43.8297069810127" lon="11.604075849625385"><ele>986.0000000000001</ele><time>2026-05-02T07:22:38.999Z</time></trkpt><trkpt lat="43.82975196788538" lon="11.60417757711095"><ele>986.0</ele><time>2026-05-02T07:22:39.999Z</time></trkpt><trkpt lat="43.82979288732778" lon="11.604264235012574"><ele>986.0</ele><time>2026-05-02T07:22:40.999Z</time></trkpt><trkpt lat="43.82982483022284" lon="11.604378934890144"><ele>986.0</ele><time>2026-05-02T07:22:41.999Z</time></trkpt><trkpt lat="43.82987654742073" lon="11.604511108304871"><ele>986.0</ele><time>2026-05-02T07:22:42.999Z</time></trkpt><trkpt lat="43.82979545451866" lon="11.60469589130259"><ele>986.0</ele><time>2026-05-02T07:22:44.999Z</time></trkpt><trkpt lat="43.82971698660158" lon="11.604786125327497"><ele>984.4</ele><time>2026-05-02T07:22:45.999Z</time></trkpt><trkpt lat="43.829609623746705" lon="11.604825551489302"><ele>982.8</ele><time>2026-05-02T07:22:46.999Z</time></trkpt><trkpt lat="43.829513084254174" lon="11.604838059013845"><ele>981.1999999999999</ele><time>2026-05-02T07:22:47.999Z</time></trkpt><trkpt lat="43.829445368976536" lon="11.604868890406697"><ele>979.5999999999999</ele><time>2026-05-02T07:22:48.999Z</time></trkpt><trkpt lat="43.829335427534126" lon="11.60489364596773"><ele>978.0</ele><time>2026-05-02T07:22:50.999Z</time></trkpt><trkpt lat="43.82927578968197" lon="11.604937800655376"><ele>979.8</ele><time>2026-05-02T07:22:51.999Z</time></trkpt><trkpt lat="43.82922664341981" lon="11.605065407350432"><ele>981.5999999999999</ele><time>2026-05-02T07:22:52.999Z</time></trkpt><trkpt lat="43.82919791441056" lon="11.605189598306353"><ele>983.4000000000001</ele><time>2026-05-02T07:22:53.999Z</time></trkpt><trkpt lat="43.82918554201047" lon="11.605286111916323"><ele>985.2</ele><time>2026-05-02T07:22:54.999Z</time></trkpt><trkpt lat="43.82908866768273" lon="11.605416248876407"><ele>987.0</ele><time>2026-05-02T07:22:56.999Z</time></trkpt><trkpt lat="43.82902364134171" lon="11.605479831818862"><ele>987.0</ele><time>2026-05-02T07:22:57.999Z</time></trkpt><trkpt lat="43.82895479381297" lon="11.605540132210445"><ele>987.0</ele><time>2026-05-02T07:22:58.999Z</time></trkpt><trkpt lat="43.8288910320349" lon="11.605630670539638"><ele>987.0</ele><time>2026-05-02T07:22:59.999Z</time></trkpt><trkpt lat="43.82883443035341" lon="11.605719167284883"><ele>987.0</ele><time>2026-05-02T07:23:01Z</time></trkpt><trkpt lat="43.82877726962732" lon="11.605776238706486"><ele>987.0</ele><time>2026-05-02T07:23:02Z</time></trkpt><trkpt lat="43.82871481837591" lon="11.60583778762257"><ele>987.0</ele><time>2026-05-02T07:23:03Z</time></trkpt><trkpt lat="43.82865949713845" lon="11.605904031080252"><ele>987.0</ele><time>2026-05-02T07:23:04Z</time></trkpt><trkpt lat="43.82859460386331" lon="11.605976858038666"><ele>987.0</ele><time>2026-05-02T07:23:05Z</time></trkpt><trkpt lat="43.82853655063778" lon="11.606058230708559"><ele>987.0</ele><time>2026-05-02T07:23:06Z</time></trkpt><trkpt lat="43.82852542481838" lon="11.606185551864414"><ele>987.0</ele><time>2026-05-02T07:23:07Z</time></trkpt><trkpt lat="43.82849949171101" lon="11.606305715843057"><ele>987.0</ele><time>2026-05-02T07:23:08Z</time></trkpt><trkpt lat="43.82844996000751" lon="11.606414604267853"><ele>987.0</ele><time>2026-05-02T07:23:09Z</time></trkpt><trkpt lat="43.82835777066793" lon="11.606469669892606"><ele>989.2</ele><time>2026-05-02T07:23:10Z</time></trkpt><trkpt lat="43.828232155603224" lon="11.606496237864215"><ele>991.4000000000001</ele><time>2026-05-02T07:23:11Z</time></trkpt><trkpt lat="43.828124964742116" lon="11.606510537018911"><ele>993.5999999999999</ele><time>2026-05-02T07:23:12Z</time></trkpt><trkpt lat="43.82802583811312" lon="11.606495062851304"><ele>995.8</ele><time>2026-05-02T07:23:13Z</time></trkpt><trkpt lat="43.8279273769497" lon="11.606478584017367"><ele>998.0</ele><time>2026-05-02T07:23:14Z</time></trkpt><trkpt lat="43.82783418615501" lon="11.606456844078448"><ele>998.0000000000001</ele><time>2026-05-02T07:23:15Z</time></trkpt><trkpt lat="43.82774603948806" lon="11.606469645469062"><ele>998.0</ele><time>2026-05-02T07:23:16Z</time></trkpt><trkpt lat="43.82768266800508" lon="11.606600600123391"><ele>998.0</ele><time>2026-05-02T07:23:18Z</time></trkpt><trkpt lat="43.827675330651886" lon="11.606705524675236"><ele>998.0</ele><time>2026-05-02T07:23:19Z</time></trkpt><trkpt lat="43.82766275383522" lon="11.606816154111293"><ele>998.0000000000001</ele><time>2026-05-02T07:23:20Z</time></trkpt><trkpt lat="43.82766381613311" lon="11.60691195093639"><ele>998.0</ele><time>2026-05-02T07:23:21Z</time></trkpt><trkpt lat="43.82770441172305" lon="11.60698724710231"><ele>995.6666666666667</ele><time>2026-05-02T07:23:22Z</time></trkpt><trkpt lat="43.82776892094857" lon="11.607032100761863"><ele>993.3333333333334</ele><time>2026-05-02T07:23:24Z</time></trkpt><trkpt lat="43.827807613957404" lon="11.607122220488929"><ele>991.0</ele><time>2026-05-02T07:23:25Z</time></trkpt><trkpt lat="43.82783070336326" lon="11.607217852138346"><ele>988.6666666666667</ele><time>2026-05-02T07:23:26Z</time></trkpt><trkpt lat="43.827917801905805" lon="11.607341762745666"><ele>986.3333333333334</ele><time>2026-05-02T07:23:27Z</time></trkpt><trkpt lat="43.827956317655776" lon="11.60747339755958"><ele>984.0</ele><time>2026-05-02T07:23:27.999Z</time></trkpt><trkpt lat="43.82796803293033" lon="11.607602754979984"><ele>984.0</ele><time>2026-05-02T07:23:28.999Z</time></trkpt><trkpt lat="43.827977756567705" lon="11.6077450410774"><ele>984.0000000000001</ele><time>2026-05-02T07:23:29.999Z</time></trkpt><trkpt lat="43.82794915161835" lon="11.607851928693867"><ele>984.0000000000001</ele><time>2026-05-02T07:23:30.999Z</time></trkpt><trkpt lat="43.8278868502752" lon="11.607948866795395"><ele>984.0</ele><time>2026-05-02T07:23:31.999Z</time></trkpt><trkpt lat="43.827774365136655" lon="11.60802892812077"><ele>984.0</ele><time>2026-05-02T07:23:32.999Z</time></trkpt><trkpt lat="43.82770209003793" lon="11.608133198897136"><ele>986.8000000000001</ele><time>2026-05-02T07:23:33.999Z</time></trkpt><trkpt lat="43.82761990044463" lon="11.60820997398714"><ele>989.6000000000001</ele><time>2026-05-02T07:23:34.999Z</time></trkpt><trkpt lat="43.82752987168663" lon="11.608262048171285"><ele>992.4</ele><time>2026-05-02T07:23:35.999Z</time></trkpt><trkpt lat="43.827442572570895" lon="11.608321099002474"><ele>995.2</ele><time>2026-05-02T07:23:36.999Z</time></trkpt><trkpt lat="43.8273630885161" lon="11.608407371817735"><ele>998.0</ele><time>2026-05-02T07:23:37.999Z</time></trkpt><trkpt lat="43.82732212832539" lon="11.608524491344284"><ele>995.0</ele><time>2026-05-02T07:23:38.999Z</time></trkpt><trkpt lat="43.82729408142414" lon="11.608661483491863"><ele>992.0</ele><time>2026-05-02T07:23:39.999Z</time></trkpt><trkpt lat="43.827316581501414" lon="11.608815207792059"><ele>989.0</ele><time>2026-05-02T07:23:40.999Z</time></trkpt><trkpt lat="43.82732426805529" lon="11.608948367380975"><ele>986.0</ele><time>2026-05-02T07:23:41.999Z</time></trkpt><trkpt lat="43.82731910201132" lon="11.609071356193155"><ele>983.0</ele><time>2026-05-02T07:23:42.999Z</time></trkpt><trkpt lat="43.82730078478649" lon="11.609176628173314"><ele>983.0</ele><time>2026-05-02T07:23:43.999Z</time></trkpt><trkpt lat="43.827263884587786" lon="11.6092534355509"><ele>983.0</ele><time>2026-05-02T07:23:44.999Z</time></trkpt><trkpt lat="43.82711944022043" lon="11.609254377667803"><ele>983.0</ele><time>2026-05-02T07:23:46.999Z</time></trkpt><trkpt lat="43.82701654465566" lon="11.609205173808535"><ele>983.0</ele><time>2026-05-02T07:23:47.999Z</time></trkpt><trkpt lat="43.82694049608455" lon="11.60915064121567"><ele>983.0</ele><time>2026-05-02T07:23:48.999Z</time></trkpt><trkpt lat="43.82686843634946" lon="11.609077795620355"><ele>982.0</ele><time>2026-05-02T07:23:49.999Z</time></trkpt><trkpt lat="43.82677123212898" lon="11.609030644600198"><ele>981.0</ele><time>2026-05-02T07:23:50.999Z</time></trkpt><trkpt lat="43.82670583145464" lon="11.608960713431244"><ele>980.0</ele><time>2026-05-02T07:23:51.999Z</time></trkpt><trkpt lat="43.82660596463652" lon="11.608900154911389"><ele>979.0</ele><time>2026-05-02T07:23:52.999Z</time></trkpt><trkpt lat="43.82651950815021" lon="11.608840113184401"><ele>978.0</ele><time>2026-05-02T07:23:53.999Z</time></trkpt><trkpt lat="43.826437404426436" lon="11.60876222489535"><ele>978.0</ele><time>2026-05-02T07:23:54.999Z</time></trkpt><trkpt lat="43.82636476604669" lon="11.608685588281421"><ele>978.0</ele><time>2026-05-02T07:23:55.999Z</time></trkpt><trkpt lat="43.826284022166156" lon="11.608608170846177"><ele>978.0</ele><time>2026-05-02T07:23:56.999Z</time></trkpt><trkpt lat="43.82618474122309" lon="11.608549288780809"><ele>978.0</ele><time>2026-05-02T07:23:57.999Z</time></trkpt><trkpt lat="43.82611901781536" lon="11.608475488499385"><ele>978.0</ele><time>2026-05-02T07:23:58.999Z</time></trkpt><trkpt lat="43.826049939339576" lon="11.608403221590624"><ele>976.5999999999999</ele><time>2026-05-02T07:23:59.999Z</time></trkpt><trkpt lat="43.82597758599647" lon="11.608330570943968"><ele>975.1999999999999</ele><time>2026-05-02T07:24:00.999Z</time></trkpt><trkpt lat="43.825915240877315" lon="11.608238072560905"><ele>973.8</ele><time>2026-05-02T07:24:01.999Z</time></trkpt><trkpt lat="43.82586083867453" lon="11.6081214503259"><ele>972.4</ele><time>2026-05-02T07:24:02.999Z</time></trkpt><trkpt lat="43.82580195010301" lon="11.60800399613929"><ele>971.0</ele><time>2026-05-02T07:24:03.999Z</time></trkpt><trkpt lat="43.82572502080631" lon="11.607939048503583"><ele>971.0000000000001</ele><time>2026-05-02T07:24:04.999Z</time></trkpt><trkpt lat="43.8256639481087" lon="11.607890278660498"><ele>971.0</ele><time>2026-05-02T07:24:05.999Z</time></trkpt><trkpt lat="43.82561167968083" lon="11.60782692900316"><ele>971.0</ele><time>2026-05-02T07:24:06.999Z</time></trkpt><trkpt lat="43.82556815807303" lon="11.607719069028228"><ele>971.0</ele><time>2026-05-02T07:24:07.999Z</time></trkpt><trkpt lat="43.82551323790149" lon="11.607615092101291"><ele>971.0000000000001</ele><time>2026-05-02T07:24:08.999Z</time></trkpt><trkpt lat="43.82543320164859" lon="11.607535361096405"><ele>971.0</ele><time>2026-05-02T07:24:09.999Z</time></trkpt><trkpt lat="43.82536661037026" lon="11.607451428622198"><ele>968.4</ele><time>2026-05-02T07:24:10.999Z</time></trkpt><trkpt lat="43.82530719363281" lon="11.607378637938377"><ele>965.8</ele><time>2026-05-02T07:24:11.999Z</time></trkpt><trkpt lat="43.825203007124244" lon="11.607268886135559"><ele>963.1999999999999</ele><time>2026-05-02T07:24:13.999Z</time></trkpt><trkpt lat="43.82513461251528" lon="11.607224784836937"><ele>960.5999999999999</ele><time>2026-05-02T07:24:14.999Z</time></trkpt><trkpt lat="43.82506174973772" lon="11.607123185954363"><ele>958.0</ele><time>2026-05-02T07:24:16.999Z</time></trkpt><trkpt lat="43.82496957602206" lon="11.607000042523739"><ele>960.1666666666666</ele><time>2026-05-02T07:24:18.999Z</time></trkpt><trkpt lat="43.8249545975986" lon="11.606905126800893"><ele>962.3333333333333</ele><time>2026-05-02T07:24:19.999Z</time></trkpt><trkpt lat="43.82493835051068" lon="11.606811471452694"><ele>964.5</ele><time>2026-05-02T07:24:20.999Z</time></trkpt><trkpt lat="43.82490183596676" lon="11.606734826225004"><ele>966.6666666666667</ele><time>2026-05-02T07:24:21.999Z</time></trkpt><trkpt lat="43.824786572682896" lon="11.60667661573954"><ele>968.8333333333334</ele><time>2026-05-02T07:24:23.999Z</time></trkpt><trkpt lat="43.8246901322064" lon="11.606729581189127"><ele>971.0</ele><time>2026-05-02T07:24:24.999Z</time></trkpt><trkpt lat="43.82460538810958" lon="11.606789359453144"><ele>971.0000000000001</ele><time>2026-05-02T07:24:25.999Z</time></trkpt><trkpt lat="43.8245133950072" lon="11.606810283095701"><ele>971.0</ele><time>2026-05-02T07:24:26.999Z</time></trkpt><trkpt lat="43.82444476561346" lon="11.606807292782712"><ele>971.0</ele><time>2026-05-02T07:24:27.999Z</time></trkpt><trkpt lat="43.824379380857756" lon="11.606803585003236"><ele>971.0</ele><time>2026-05-02T07:24:28.999Z</time></trkpt><trkpt lat="43.82439100766677" lon="11.60670074005778"><ele>971.0000000000001</ele><time>2026-05-02T07:24:49.999Z</time></trkpt><trkpt lat="43.82440986165891" lon="11.606613039957436"><ele>971.0</ele><time>2026-05-02T07:24:55.999Z</time></trkpt><trkpt lat="43.82438277735276" lon="11.606500247116555"><ele>971.0</ele><time>2026-05-02T07:24:57.999Z</time></trkpt><trkpt lat="43.824359589447525" lon="11.606414516876693"><ele>970.9999999999999</ele><time>2026-05-02T07:24:58.999Z</time></trkpt><trkpt lat="43.82430406024196" lon="11.606331010937325"><ele>970.9999999999999</ele><time>2026-05-02T07:24:59.999Z</time></trkpt><trkpt lat="43.824275547650586" lon="11.606236630191447"><ele>971.0</ele><time>2026-05-02T07:25:00.999Z</time></trkpt><trkpt lat="43.824207013068914" lon="11.6060721172615"><ele>971.0</ele><time>2026-05-02T07:25:02.999Z</time></trkpt><trkpt lat="43.82413328648178" lon="11.605979922935255"><ele>971.3333333333334</ele><time>2026-05-02T07:25:03.999Z</time></trkpt><trkpt lat="43.82406202683748" lon="11.60589931592079"><ele>971.6666666666667</ele><time>2026-05-02T07:25:04.999Z</time></trkpt><trkpt lat="43.82399757761084" lon="11.605886626049232"><ele>972.0</ele><time>2026-05-02T07:25:05.999Z</time></trkpt><trkpt lat="43.823892726913684" lon="11.605915363516173"><ele>972.3333333333333</ele><time>2026-05-02T07:25:08Z</time></trkpt><trkpt lat="43.823844738875884" lon="11.605989089878047"><ele>972.6666666666666</ele><time>2026-05-02T07:25:09Z</time></trkpt><trkpt lat="43.82379180518116" lon="11.606036722365419"><ele>973.0</ele><time>2026-05-02T07:25:09.999Z</time></trkpt><trkpt lat="43.823732719691215" lon="11.606084431343419"><ele>972.9999999999999</ele><time>2026-05-02T07:25:10.999Z</time></trkpt><trkpt lat="43.82364800871106" lon="11.606138047747544"><ele>973.0</ele><time>2026-05-02T07:25:11.999Z</time></trkpt><trkpt lat="43.823565253033614" lon="11.606173123953573"><ele>973.0</ele><time>2026-05-02T07:25:12.999Z</time></trkpt><trkpt lat="43.82349755299038" lon="11.606186393555692"><ele>973.0</ele><time>2026-05-02T07:25:14Z</time></trkpt><trkpt lat="43.82342468582205" lon="11.606190101330053"><ele>972.9999999999999</ele><time>2026-05-02T07:25:14.999Z</time></trkpt><trkpt lat="43.82334345518435" lon="11.606199080674575"><ele>973.0</ele><time>2026-05-02T07:25:15.999Z</time></trkpt><trkpt lat="43.82327249107476" lon="11.606200602151494"><ele>971.3333333333333</ele><time>2026-05-02T07:25:17Z</time></trkpt><trkpt lat="43.823197478670565" lon="11.606168388043246"><ele>969.6666666666666</ele><time>2026-05-02T07:25:17.999Z</time></trkpt><trkpt lat="43.82312067944141" lon="11.606126051805948"><ele>968.0</ele><time>2026-05-02T07:25:19Z</time></trkpt><trkpt lat="43.823049883346485" lon="11.606063369076947"><ele>966.3333333333333</ele><time>2026-05-02T07:25:20Z</time></trkpt><trkpt lat="43.82298036850394" lon="11.606043332540393"><ele>964.6666666666666</ele><time>2026-05-02T07:25:20.999Z</time></trkpt><trkpt lat="43.822881184280256" lon="11.606067637322976"><ele>963.0</ele><time>2026-05-02T07:25:21.999Z</time></trkpt><trkpt lat="43.82278085220868" lon="11.606061179770153"><ele>963.0</ele><time>2026-05-02T07:25:22.999Z</time></trkpt><trkpt lat="43.82271088320954" lon="11.606021447969153"><ele>963.0</ele><time>2026-05-02T07:25:23.999Z</time></trkpt><trkpt lat="43.82267526717947" lon="11.605941063430237"><ele>963.0</ele><time>2026-05-02T07:25:24.999Z</time></trkpt><trkpt lat="43.82264290353014" lon="11.605812495720288"><ele>963.0</ele><time>2026-05-02T07:25:25.999Z</time></trkpt><trkpt lat="43.82260695352104" lon="11.605728653060819"><ele>963.0</ele><time>2026-05-02T07:25:27Z</time></trkpt><trkpt lat="43.822481209545195" lon="11.605731607247188"><ele>963.0</ele><time>2026-05-02T07:25:29Z</time></trkpt><trkpt lat="43.82244379910188" lon="11.605940682280801"><ele>963.0</ele><time>2026-05-02T07:25:31Z</time></trkpt><trkpt lat="43.82248001285634" lon="11.606105802667098"><ele>963.0</ele><time>2026-05-02T07:25:32Z</time></trkpt><trkpt lat="43.82250627298352" lon="11.606225024178627"><ele>963.0</ele><time>2026-05-02T07:25:33Z</time></trkpt><trkpt lat="43.82247060960493" lon="11.606363005719633"><ele>963.0</ele><time>2026-05-02T07:25:34Z</time></trkpt><trkpt lat="43.822419605399986" lon="11.606509029879692"><ele>963.0</ele><time>2026-05-02T07:25:35Z</time></trkpt><trkpt lat="43.82238674889448" lon="11.606662417031043"><ele>963.0</ele><time>2026-05-02T07:25:36Z</time></trkpt><trkpt lat="43.82237758594253" lon="11.60683224976387"><ele>963.0</ele><time>2026-05-02T07:25:37Z</time></trkpt><trkpt lat="43.822377083396034" lon="11.60695401081734"><ele>963.0</ele><time>2026-05-02T07:25:38Z</time></trkpt><trkpt lat="43.8223614995032" lon="11.60706493986182"><ele>963.0</ele><time>2026-05-02T07:25:39Z</time></trkpt><trkpt lat="43.82233948083691" lon="11.607185568895924"><ele>963.0</ele><time>2026-05-02T07:25:40Z</time></trkpt><trkpt lat="43.82231541763749" lon="11.607289134213419"><ele>960.8333333333334</ele><time>2026-05-02T07:25:41Z</time></trkpt><trkpt lat="43.82234161545607" lon="11.60741157187124"><ele>958.6666666666667</ele><time>2026-05-02T07:25:42Z</time></trkpt><trkpt lat="43.82239449252442" lon="11.607545032806108"><ele>956.5</ele><time>2026-05-02T07:25:43Z</time></trkpt><trkpt lat="43.82241577288078" lon="11.607654580048248"><ele>954.3333333333334</ele><time>2026-05-02T07:25:44Z</time></trkpt><trkpt lat="43.82245312787512" lon="11.607757818575706"><ele>952.1666666666667</ele><time>2026-05-02T07:25:45Z</time></trkpt><trkpt lat="43.82248775563427" lon="11.607847284429731"><ele>950.0</ele><time>2026-05-02T07:25:46Z</time></trkpt><trkpt lat="43.82247634068581" lon="11.607949958123974"><ele>947.5000000000001</ele><time>2026-05-02T07:25:47Z</time></trkpt><trkpt lat="43.822417303185546" lon="11.608072382952347"><ele>945.0</ele><time>2026-05-02T07:25:48Z</time></trkpt><trkpt lat="43.8223636276826" lon="11.608173861895777"><ele>942.5</ele><time>2026-05-02T07:25:49Z</time></trkpt><trkpt lat="43.822314173285946" lon="11.608259533473786"><ele>940.0</ele><time>2026-05-02T07:25:50Z</time></trkpt><trkpt lat="43.82229193611177" lon="11.608359469476849"><ele>937.5000000000001</ele><time>2026-05-02T07:25:51Z</time></trkpt><trkpt lat="43.82226597018694" lon="11.608451504289171"><ele>935.0</ele><time>2026-05-02T07:25:52Z</time></trkpt><trkpt lat="43.822212095053494" lon="11.608518966666987"><ele>935.0</ele><time>2026-05-02T07:25:53Z</time></trkpt><trkpt lat="43.82212889443453" lon="11.608517156976923"><ele>935.0</ele><time>2026-05-02T07:25:54Z</time></trkpt><trkpt lat="43.822032982674266" lon="11.608474627512491"><ele>935.0</ele><time>2026-05-02T07:25:55Z</time></trkpt><trkpt lat="43.82195475400456" lon="11.608440255532146"><ele>935.0</ele><time>2026-05-02T07:25:56Z</time></trkpt><trkpt lat="43.821830754264305" lon="11.60840599551574"><ele>935.0</ele><time>2026-05-02T07:25:58Z</time></trkpt><trkpt lat="43.821733686087654" lon="11.608370987740468"><ele>934.0000000000001</ele><time>2026-05-02T07:25:59Z</time></trkpt><trkpt lat="43.821612588880406" lon="11.608292099120508"><ele>933.0</ele><time>2026-05-02T07:26:01Z</time></trkpt><trkpt lat="43.82154875630505" lon="11.608243959530956"><ele>932.0</ele><time>2026-05-02T07:26:02Z</time></trkpt><trkpt lat="43.82148523235386" lon="11.608186562816334"><ele>931.0</ele><time>2026-05-02T07:26:03Z</time></trkpt><trkpt lat="43.82138480686607" lon="11.608181260138162"><ele>930.0000000000001</ele><time>2026-05-02T07:26:05Z</time></trkpt><trkpt lat="43.82131947270035" lon="11.608174483617567"><ele>929.0</ele><time>2026-05-02T07:26:06Z</time></trkpt><trkpt lat="43.821238410521154" lon="11.60813049755763"><ele>929.0</ele><time>2026-05-02T07:26:08Z</time></trkpt><trkpt lat="43.82109498959485" lon="11.608039354669927"><ele>929.0000000000001</ele><time>2026-05-02T07:26:10Z</time></trkpt><trkpt lat="43.821036272523635" lon="11.607990535443804"><ele>929.0000000000001</ele><time>2026-05-02T07:26:11Z</time></trkpt><trkpt lat="43.820918199294034" lon="11.607916065881799"><ele>929.0</ele><time>2026-05-02T07:26:13Z</time></trkpt><trkpt lat="43.82085975805832" lon="11.607854302834271"><ele>929.0</ele><time>2026-05-02T07:26:14Z</time></trkpt><trkpt lat="43.8207495974351" lon="11.607764981626932"><ele>928.8333333333334</ele><time>2026-05-02T07:26:16Z</time></trkpt><trkpt lat="43.82067399609659" lon="11.607672326350492"><ele>928.6666666666667</ele><time>2026-05-02T07:26:17Z</time></trkpt><trkpt lat="43.82060924205259" lon="11.60758507652145"><ele>928.5</ele><time>2026-05-02T07:26:18Z</time></trkpt><trkpt lat="43.82056595038879" lon="11.607519687955323"><ele>928.3333333333333</ele><time>2026-05-02T07:26:19Z</time></trkpt><trkpt lat="43.82047334233555" lon="11.607518706496647"><ele>928.1666666666666</ele><time>2026-05-02T07:26:21Z</time></trkpt><trkpt lat="43.820380784833105" lon="11.60749191134961"><ele>928.0</ele><time>2026-05-02T07:26:23Z</time></trkpt><trkpt lat="43.820311176772435" lon="11.607480331371312"><ele>928.0</ele><time>2026-05-02T07:26:24Z</time></trkpt><trkpt lat="43.82021412145609" lon="11.607460237081103"><ele>928.0</ele><time>2026-05-02T07:26:26Z</time></trkpt><trkpt lat="43.8200869863047" lon="11.607479969835873"><ele>928.0</ele><time>2026-05-02T07:26:28Z</time></trkpt><trkpt lat="43.82000351103662" lon="11.607483112209849"><ele>928.0</ele><time>2026-05-02T07:26:29Z</time></trkpt><trkpt lat="43.819892801317444" lon="11.607495063077378"><ele>928.0</ele><time>2026-05-02T07:26:31Z</time></trkpt><trkpt lat="43.81983065904798" lon="11.607526329581479"><ele>925.1666666666666</ele><time>2026-05-02T07:26:32Z</time></trkpt><trkpt lat="43.81976033337062" lon="11.607522382042148"><ele>922.3333333333333</ele><time>2026-05-02T07:26:34Z</time></trkpt><trkpt lat="43.81967998836249" lon="11.607518790380738"><ele>919.5</ele><time>2026-05-02T07:26:36Z</time></trkpt><trkpt lat="43.81956323865267" lon="11.607594249625048"><ele>916.6666666666667</ele><time>2026-05-02T07:26:38Z</time></trkpt><trkpt lat="43.819494651818225" lon="11.607625547772892"><ele>913.8333333333334</ele><time>2026-05-02T07:26:39Z</time></trkpt><trkpt lat="43.81942684417513" lon="11.607637455983271"><ele>911.0</ele><time>2026-05-02T07:26:40Z</time></trkpt><trkpt lat="43.819340819220486" lon="11.6076156694129"><ele>911.8333333333334</ele><time>2026-05-02T07:26:42Z</time></trkpt><trkpt lat="43.819304598890504" lon="11.607697854020333"><ele>912.6666666666667</ele><time>2026-05-02T07:26:43Z</time></trkpt><trkpt lat="43.81925366863926" lon="11.607819992217511"><ele>913.5</ele><time>2026-05-02T07:26:45Z</time></trkpt><trkpt lat="43.81920400695278" lon="11.607934534122068"><ele>914.3333333333333</ele><time>2026-05-02T07:26:47Z</time></trkpt><trkpt lat="43.81918101090523" lon="11.608032236342416"><ele>915.1666666666666</ele><time>2026-05-02T07:26:48Z</time></trkpt><trkpt lat="43.81909653825375" lon="11.608052282376867"><ele>916.0</ele><time>2026-05-02T07:26:50Z</time></trkpt><trkpt lat="43.81901427217381" lon="11.608043756537308"><ele>916.0</ele><time>2026-05-02T07:26:54Z</time></trkpt><trkpt lat="43.8190281379864" lon="11.608171341722331"><ele>916.0</ele><time>2026-05-02T07:26:58Z</time></trkpt><trkpt lat="43.8190762380909" lon="11.608230611954017"><ele>916.0</ele><time>2026-05-02T07:27:38Z</time></trkpt><trkpt lat="43.81911499439457" lon="11.608304861616492"><ele>916.0</ele><time>2026-05-02T07:27:45Z</time></trkpt><trkpt lat="43.819167115466335" lon="11.608355376721025"><ele>916.0</ele><time>2026-05-02T07:27:47Z</time></trkpt><trkpt lat="43.819226126633225" lon="11.608397360830452"><ele>916.0</ele><time>2026-05-02T07:27:48Z</time></trkpt><trkpt lat="43.819286131674026" lon="11.608447710068376"><ele>916.0</ele><time>2026-05-02T07:27:49Z</time></trkpt><trkpt lat="43.819344773932" lon="11.608496231828868"><ele>914.9999999999999</ele><time>2026-05-02T07:27:50Z</time></trkpt><trkpt lat="43.81942569876106" lon="11.60855955136223"><ele>914.0</ele><time>2026-05-02T07:27:52Z</time></trkpt><trkpt lat="43.81948204717752" lon="11.60861045100181"><ele>913.0</ele><time>2026-05-02T07:27:54Z</time></trkpt><trkpt lat="43.819498748433766" lon="11.608727824614395"><ele>912.0</ele><time>2026-05-02T07:27:56Z</time></trkpt><trkpt lat="43.81942037223308" lon="11.608812870047654"><ele>910.9999999999999</ele><time>2026-05-02T07:27:58Z</time></trkpt><trkpt lat="43.81938563302533" lon="11.60892163010447"><ele>910.0</ele><time>2026-05-02T07:27:59Z</time></trkpt><trkpt lat="43.81938382484987" lon="11.609012893876404"><ele>912.4999999999999</ele><time>2026-05-02T07:28:00Z</time></trkpt><trkpt lat="43.8193875598993" lon="11.609127966828218"><ele>915.0</ele><time>2026-05-02T07:28:01Z</time></trkpt><trkpt lat="43.81940972020684" lon="11.609223979651034"><ele>917.5</ele><time>2026-05-02T07:28:03Z</time></trkpt><trkpt lat="43.819468431067136" lon="11.609259336080838"><ele>920.0</ele><time>2026-05-02T07:31:31Z</time></trkpt><trkpt lat="43.819481191300376" lon="11.609352873108358"><ele>922.4999999999999</ele><time>2026-05-02T07:31:33Z</time></trkpt><trkpt lat="43.81955243757266" lon="11.609483621538685"><ele>925.0</ele><time>2026-05-02T07:31:35Z</time></trkpt><trkpt lat="43.81959821931918" lon="11.609599083150245"><ele>927.4</ele><time>2026-05-02T07:31:36Z</time></trkpt><trkpt lat="43.81963985491346" lon="11.60970327152098"><ele>929.8</ele><time>2026-05-02T07:31:37Z</time></trkpt><trkpt lat="43.81972168653336" lon="11.609776217616096"><ele>932.2</ele><time>2026-05-02T07:31:38Z</time></trkpt><trkpt lat="43.819822344315824" lon="11.609766364998354"><ele>934.6</ele><time>2026-05-02T07:31:40Z</time></trkpt><trkpt lat="43.81989474755301" lon="11.609804719578149"><ele>937.0</ele><time>2026-05-02T07:31:41Z</time></trkpt><trkpt lat="43.82000692829875" lon="11.609801902044497"><ele>937.0</ele><time>2026-05-02T07:31:42Z</time></trkpt><trkpt lat="43.820117738068504" lon="11.609841385166355"><ele>937.0</ele><time>2026-05-02T07:31:43Z</time></trkpt><trkpt lat="43.820225818426565" lon="11.609953509495524"><ele>937.0</ele><time>2026-05-02T07:31:44Z</time></trkpt><trkpt lat="43.820337912816214" lon="11.610041497372613"><ele>937.0</ele><time>2026-05-02T07:31:45Z</time></trkpt><trkpt lat="43.820357860104735" lon="11.610159765918599"><ele>936.4000000000001</ele><time>2026-05-02T07:31:47Z</time></trkpt><trkpt lat="43.82039922901912" lon="11.610268240105208"><ele>935.8000000000001</ele><time>2026-05-02T07:31:48Z</time></trkpt><trkpt lat="43.82044899830708" lon="11.610362632821186"><ele>935.2</ele><time>2026-05-02T07:31:49Z</time></trkpt><trkpt lat="43.8205458090301" lon="11.610423257410456"><ele>934.6</ele><time>2026-05-02T07:31:50Z</time></trkpt><trkpt lat="43.82065996459954" lon="11.610475457557953"><ele>934.0</ele><time>2026-05-02T07:31:51Z</time></trkpt><trkpt lat="43.82079709186381" lon="11.610583127068416"><ele>934.0</ele><time>2026-05-02T07:31:52Z</time></trkpt><trkpt lat="43.82089516978171" lon="11.610644504790148"><ele>934.0000000000001</ele><time>2026-05-02T07:31:53Z</time></trkpt><trkpt lat="43.82096626642021" lon="11.610714514636081"><ele>934.0000000000001</ele><time>2026-05-02T07:31:54Z</time></trkpt><trkpt lat="43.82101920622451" lon="11.610789461777756"><ele>934.0</ele><time>2026-05-02T07:31:55Z</time></trkpt><trkpt lat="43.82107222124929" lon="11.610884513223194"><ele>934.0</ele><time>2026-05-02T07:31:56Z</time></trkpt><trkpt lat="43.82111185679172" lon="11.611000880331378"><ele>929.8000000000001</ele><time>2026-05-02T07:31:57Z</time></trkpt><trkpt lat="43.82112488559081" lon="11.611125625699788"><ele>925.6000000000001</ele><time>2026-05-02T07:31:58Z</time></trkpt><trkpt lat="43.8211185031187" lon="11.6112613622727"><ele>921.4</ele><time>2026-05-02T07:31:59Z</time></trkpt><trkpt lat="43.82110954817685" lon="11.611441162729012"><ele>917.2</ele><time>2026-05-02T07:32:00Z</time></trkpt><trkpt lat="43.82110176927949" lon="11.611587137052368"><ele>913.0</ele><time>2026-05-02T07:32:01Z</time></trkpt><trkpt lat="43.82106253403746" lon="11.611700468831152"><ele>917.2</ele><time>2026-05-02T07:32:03Z</time></trkpt><trkpt lat="43.82098118570188" lon="11.611826616024617"><ele>921.4</ele><time>2026-05-02T07:32:06Z</time></trkpt><trkpt lat="43.82096075866568" lon="11.611922202523537"><ele>925.6000000000001</ele><time>2026-05-02T07:32:07Z</time></trkpt><trkpt lat="43.82102808004754" lon="11.612007531801162"><ele>929.8000000000001</ele><time>2026-05-02T07:32:09Z</time></trkpt><trkpt lat="43.8211002278942" lon="11.612010390894799"><ele>934.0</ele><time>2026-05-02T07:32:10Z</time></trkpt><trkpt lat="43.82120057346105" lon="11.612047563531409"><ele>934.0</ele><time>2026-05-02T07:32:11Z</time></trkpt><trkpt lat="43.82128482117292" lon="11.61207460192385"><ele>934.0000000000001</ele><time>2026-05-02T07:32:12Z</time></trkpt><trkpt lat="43.82136930591809" lon="11.61208404899862"><ele>934.0000000000001</ele><time>2026-05-02T07:32:13Z</time></trkpt><trkpt lat="43.821472547072574" lon="11.612089900758077"><ele>934.0</ele><time>2026-05-02T07:32:14Z</time></trkpt><trkpt lat="43.82157620792537" lon="11.612096544873623"><ele>934.0</ele><time>2026-05-02T07:32:15Z</time></trkpt><trkpt lat="43.82165356863838" lon="11.612096496651866"><ele>934.0</ele><time>2026-05-02T07:32:16Z</time></trkpt><trkpt lat="43.82177858212871" lon="11.612116822346904"><ele>934.0000000000001</ele><time>2026-05-02T07:32:18Z</time></trkpt><trkpt lat="43.821852792252" lon="11.612126143168673"><ele>934.0000000000001</ele><time>2026-05-02T07:32:19Z</time></trkpt><trkpt lat="43.82193435888094" lon="11.612130808393918"><ele>934.0</ele><time>2026-05-02T07:32:20Z</time></trkpt><trkpt lat="43.82206639244211" lon="11.612093584233348"><ele>934.0</ele><time>2026-05-02T07:32:22Z</time></trkpt><trkpt lat="43.82213472686922" lon="11.612058204537432"><ele>930.3333333333333</ele><time>2026-05-02T07:32:23Z</time></trkpt><trkpt lat="43.82222737838008" lon="11.612013476259447"><ele>926.6666666666666</ele><time>2026-05-02T07:32:24Z</time></trkpt><trkpt lat="43.822323517474445" lon="11.611980783851322"><ele>923.0</ele><time>2026-05-02T07:32:25Z</time></trkpt><trkpt lat="43.82239005591095" lon="11.61195997122338"><ele>919.3333333333333</ele><time>2026-05-02T07:32:26Z</time></trkpt><trkpt lat="43.82245538855144" lon="11.611955802573132"><ele>915.6666666666666</ele><time>2026-05-02T07:32:27Z</time></trkpt><trkpt lat="43.822522155231205" lon="11.612005411260903"><ele>912.0</ele><time>2026-05-02T07:32:28Z</time></trkpt><trkpt lat="43.82260339577336" lon="11.612034510448574"><ele>906.3333333333334</ele><time>2026-05-02T07:32:29Z</time></trkpt><trkpt lat="43.82269008689103" lon="11.612062331102074"><ele>900.6666666666667</ele><time>2026-05-02T07:32:30Z</time></trkpt><trkpt lat="43.822763265230506" lon="11.612082983624877"><ele>895.0</ele><time>2026-05-02T07:32:31Z</time></trkpt><trkpt lat="43.822838650123735" lon="11.612103014888582"><ele>889.3333333333334</ele><time>2026-05-02T07:32:32Z</time></trkpt><trkpt lat="43.82291494090717" lon="11.612139820914168"><ele>883.6666666666667</ele><time>2026-05-02T07:32:33Z</time></trkpt><trkpt lat="43.82297808795911" lon="11.612191894547218"><ele>878.0</ele><time>2026-05-02T07:32:34Z</time></trkpt><trkpt lat="43.82303000528329" lon="11.612292249002302"><ele>878.0</ele><time>2026-05-02T07:32:36Z</time></trkpt><trkpt lat="43.82308937914146" lon="11.612436667985094"><ele>878.0</ele><time>2026-05-02T07:32:38Z</time></trkpt><trkpt lat="43.82313470791928" lon="11.61254307134285"><ele>878.0</ele><time>2026-05-02T07:32:39Z</time></trkpt><trkpt lat="43.823178561244134" lon="11.612662254052646"><ele>878.0</ele><time>2026-05-02T07:32:40Z</time></trkpt><trkpt lat="43.82321029496618" lon="11.612771077038406"><ele>878.0</ele><time>2026-05-02T07:32:41Z</time></trkpt><trkpt lat="43.82322379367063" lon="11.612866096587341"><ele>880.0</ele><time>2026-05-02T07:32:42Z</time></trkpt><trkpt lat="43.823198031272135" lon="11.613031961688348"><ele>882.0</ele><time>2026-05-02T07:32:44Z</time></trkpt><trkpt lat="43.823182673146015" lon="11.613136677828345"><ele>884.0</ele><time>2026-05-02T07:32:45Z</time></trkpt><trkpt lat="43.82306807548952" lon="11.613157330614305"><ele>886.0</ele><time>2026-05-02T07:32:46Z</time></trkpt><trkpt lat="43.82301890781562" lon="11.613280218359941"><ele>888.0</ele><time>2026-05-02T07:32:47Z</time></trkpt><trkpt lat="43.82296463511143" lon="11.613394099838432"><ele>888.0</ele><time>2026-05-02T07:32:48Z</time></trkpt><trkpt lat="43.822900110474855" lon="11.613417358838475"><ele>888.0</ele><time>2026-05-02T07:32:50Z</time></trkpt><trkpt lat="43.82288317180239" lon="11.613529391487463"><ele>888.0</ele><time>2026-05-02T07:32:53Z</time></trkpt><trkpt lat="43.82281009347527" lon="11.613593346534376"><ele>888.0</ele><time>2026-05-02T07:32:56Z</time></trkpt><trkpt lat="43.82280499682404" lon="11.613807737497494"><ele>888.0</ele><time>2026-05-02T07:33:00Z</time></trkpt><trkpt lat="43.82275580639443" lon="11.613878330912284"><ele>888.0</ele><time>2026-05-02T07:33:02Z</time></trkpt><trkpt lat="43.82285852626826" lon="11.61383063395946"><ele>888.0</ele><time>2026-05-02T07:33:08Z</time></trkpt><trkpt lat="43.82297669477718" lon="11.613764370678968"><ele>888.0</ele><time>2026-05-02T07:33:10Z</time></trkpt><trkpt lat="43.823075531910064" lon="11.61366732892915"><ele>888.0</ele><time>2026-05-02T07:33:12Z</time></trkpt><trkpt lat="43.823171981080876" lon="11.613575863048"><ele>888.0</ele><time>2026-05-02T07:33:13.999Z</time></trkpt><trkpt lat="43.82321174351711" lon="11.61348560167874"><ele>888.0</ele><time>2026-05-02T07:33:14.999Z</time></trkpt><trkpt lat="43.82324428676964" lon="11.613404557391311"><ele>888.0</ele><time>2026-05-02T07:33:15.999Z</time></trkpt><trkpt lat="43.82333779347656" lon="11.613332121135759"><ele>888.0</ele><time>2026-05-02T07:33:17.999Z</time></trkpt><trkpt lat="43.82346002413136" lon="11.613252568727097"><ele>888.0</ele><time>2026-05-02T07:33:19.999Z</time></trkpt><trkpt lat="43.823572264958216" lon="11.613193781642831"><ele>888.4</ele><time>2026-05-02T07:33:21.999Z</time></trkpt><trkpt lat="43.823570366871" lon="11.613089389602743"><ele>888.8</ele><time>2026-05-02T07:33:22.999Z</time></trkpt><trkpt lat="43.82364616424763" lon="11.612965083319292"><ele>889.2</ele><time>2026-05-02T07:33:24.999Z</time></trkpt><trkpt lat="43.82372071035247" lon="11.613001695321271"><ele>889.6</ele><time>2026-05-02T07:33:26.999Z</time></trkpt><trkpt lat="43.82369941898779" lon="11.613090222154048"><ele>890.0</ele><time>2026-05-02T07:33:28.999Z</time></trkpt><trkpt lat="43.82366744544777" lon="11.613403687209583"><ele>890.0</ele><time>2026-05-02T07:33:32Z</time></trkpt><trkpt lat="43.82368206614493" lon="11.613513407043145"><ele>890.0</ele><time>2026-05-02T07:33:33Z</time></trkpt><trkpt lat="43.82373312733078" lon="11.613620577501525"><ele>890.0</ele><time>2026-05-02T07:33:34Z</time></trkpt><trkpt lat="43.82380207225084" lon="11.613728252829938"><ele>890.0</ele><time>2026-05-02T07:33:35Z</time></trkpt><trkpt lat="43.82386808501037" lon="11.6138259209036"><ele>890.0</ele><time>2026-05-02T07:33:36Z</time></trkpt><trkpt lat="43.82392980561095" lon="11.61391031671293"><ele>893.8</ele><time>2026-05-02T07:33:37Z</time></trkpt><trkpt lat="43.82396766530083" lon="11.613983712536221"><ele>897.6</ele><time>2026-05-02T07:33:38Z</time></trkpt><trkpt lat="43.82395246065121" lon="11.61407766908696"><ele>901.4000000000001</ele><time>2026-05-02T07:33:40Z</time></trkpt><trkpt lat="43.823925297869295" lon="11.61427743144223"><ele>905.2</ele><time>2026-05-02T07:33:42Z</time></trkpt><trkpt lat="43.82392060278543" lon="11.614421965471946"><ele>909.0</ele><time>2026-05-02T07:33:43Z</time></trkpt><trkpt lat="43.82391923734413" lon="11.614527802964794"><ele>912.0</ele><time>2026-05-02T07:33:44Z</time></trkpt><trkpt lat="43.823907754310554" lon="11.614648393481376"><ele>915.0000000000001</ele><time>2026-05-02T07:33:45Z</time></trkpt><trkpt lat="43.823894475063504" lon="11.614757172797633"><ele>918.0000000000001</ele><time>2026-05-02T07:33:46Z</time></trkpt><trkpt lat="43.82397169618712" lon="11.614829657976646"><ele>921.0</ele><time>2026-05-02T07:33:50Z</time></trkpt><trkpt lat="43.82405190132852" lon="11.61481297783966"><ele>924.0</ele><time>2026-05-02T07:33:51Z</time></trkpt><trkpt lat="43.82417076518601" lon="11.614733276446305"><ele>924.0</ele><time>2026-05-02T07:33:52Z</time></trkpt><trkpt lat="43.82425174665126" lon="11.614725457321757"><ele>924.0</ele><time>2026-05-02T07:33:54Z</time></trkpt><trkpt lat="43.82425302916424" lon="11.614817345587031"><ele>924.0</ele><time>2026-05-02T07:33:56Z</time></trkpt><trkpt lat="43.82421705198599" lon="11.614889206512993"><ele>924.0</ele><time>2026-05-02T07:33:57Z</time></trkpt><trkpt lat="43.82421732069565" lon="11.615040069356201"><ele>924.0</ele><time>2026-05-02T07:33:59Z</time></trkpt><trkpt lat="43.82421033959621" lon="11.61518664090634"><ele>924.0</ele><time>2026-05-02T07:34:01Z</time></trkpt><trkpt lat="43.8242005356488" lon="11.615324634805784"><ele>926.2</ele><time>2026-05-02T07:34:03Z</time></trkpt><trkpt lat="43.824158554716945" lon="11.61545837312503"><ele>928.4000000000001</ele><time>2026-05-02T07:34:05Z</time></trkpt><trkpt lat="43.82408044828016" lon="11.615558718522736"><ele>930.6</ele><time>2026-05-02T07:34:07Z</time></trkpt><trkpt lat="43.82401153049207" lon="11.615643921503478"><ele>932.8</ele><time>2026-05-02T07:34:09Z</time></trkpt><trkpt lat="43.82393571417176" lon="11.615746291251998"><ele>935.0</ele><time>2026-05-02T07:34:11Z</time></trkpt><trkpt lat="43.82387324871998" lon="11.61587420913705"><ele>935.0</ele><time>2026-05-02T07:34:13Z</time></trkpt><trkpt lat="43.82384765162681" lon="11.615996390934802"><ele>935.0</ele><time>2026-05-02T07:34:15Z</time></trkpt><trkpt lat="43.82383041548414" lon="11.616144183019257"><ele>935.0</ele><time>2026-05-02T07:34:17Z</time></trkpt><trkpt lat="43.82380663705813" lon="11.616310928742243"><ele>935.0</ele><time>2026-05-02T07:34:19Z</time></trkpt><trkpt lat="43.82378716969798" lon="11.616436442603387"><ele>935.0</ele><time>2026-05-02T07:34:21Z</time></trkpt><trkpt lat="43.82374944619873" lon="11.616609753954481"><ele>935.6</ele><time>2026-05-02T07:34:23Z</time></trkpt><trkpt lat="43.823709736398854" lon="11.616760604106608"><ele>936.2</ele><time>2026-05-02T07:34:25Z</time></trkpt><trkpt lat="43.823668129023254" lon="11.616827863849853"><ele>936.8</ele><time>2026-05-02T07:34:26Z</time></trkpt><trkpt lat="43.82355478801537" lon="11.616894936469153"><ele>937.4</ele><time>2026-05-02T07:34:28Z</time></trkpt><trkpt lat="43.82348780131045" lon="11.616925782789838"><ele>938.0</ele><time>2026-05-02T07:34:29Z</time></trkpt><trkpt lat="43.82338354646007" lon="11.617029959366532"><ele>941.4</ele><time>2026-05-02T07:34:31Z</time></trkpt><trkpt lat="43.823341700500094" lon="11.617099365662215"><ele>944.8</ele><time>2026-05-02T07:34:32Z</time></trkpt><trkpt lat="43.82328479614553" lon="11.617257383710122"><ele>948.2</ele><time>2026-05-02T07:34:34Z</time></trkpt><trkpt lat="43.823206551914055" lon="11.61733931118793"><ele>951.6</ele><time>2026-05-02T07:34:36Z</time></trkpt><trkpt lat="43.8231183980799" lon="11.617375648504007"><ele>955.0</ele><time>2026-05-02T07:34:38Z</time></trkpt><trkpt lat="43.82301167717232" lon="11.61740818269559"><ele>954.9999999999999</ele><time>2026-05-02T07:34:40Z</time></trkpt><trkpt lat="43.82292039529065" lon="11.617415448801442"><ele>955.0</ele><time>2026-05-02T07:34:42Z</time></trkpt><trkpt lat="43.82282424763908" lon="11.617399510262766"><ele>955.0</ele><time>2026-05-02T07:34:44Z</time></trkpt><trkpt lat="43.82276046149719" lon="11.617386584713744"><ele>955.0</ele><time>2026-05-02T07:34:45Z</time></trkpt><trkpt lat="43.8226870944331" lon="11.617395401228174"><ele>954.9999999999999</ele><time>2026-05-02T07:34:46Z</time></trkpt><trkpt lat="43.822622696140854" lon="11.617404437239987"><ele>955.0</ele><time>2026-05-02T07:34:47Z</time></trkpt><trkpt lat="43.822497796972556" lon="11.617385797300368"><ele>956.1666666666666</ele><time>2026-05-02T07:34:49Z</time></trkpt><trkpt lat="43.82243034188953" lon="11.617356669148014"><ele>957.3333333333333</ele><time>2026-05-02T07:34:50Z</time></trkpt><trkpt lat="43.82231890166531" lon="11.617267375615267"><ele>958.5</ele><time>2026-05-02T07:34:52Z</time></trkpt><trkpt lat="43.8222694502601" lon="11.617211161992165"><ele>959.6666666666667</ele><time>2026-05-02T07:34:53Z</time></trkpt><trkpt lat="43.82219598101256" lon="11.617135442888534"><ele>960.8333333333334</ele><time>2026-05-02T07:34:55Z</time></trkpt><trkpt lat="43.82212661352445" lon="11.617156767637757"><ele>962.0</ele><time>2026-05-02T07:34:57Z</time></trkpt><trkpt lat="43.82203539431764" lon="11.61717848061835"><ele>962.0000000000001</ele><time>2026-05-02T07:34:59Z</time></trkpt><trkpt lat="43.8219739203275" lon="11.617224648247914"><ele>962.0</ele><time>2026-05-02T07:35:00Z</time></trkpt><trkpt lat="43.821918326315675" lon="11.617288171380649"><ele>962.0</ele><time>2026-05-02T07:35:01Z</time></trkpt><trkpt lat="43.82184340255924" lon="11.617341744751265"><ele>962.0</ele><time>2026-05-02T07:35:02Z</time></trkpt><trkpt lat="43.821768362721805" lon="11.617357765918099"><ele>962.0000000000001</ele><time>2026-05-02T07:35:03Z</time></trkpt><trkpt lat="43.82168301682498" lon="11.617365608088072"><ele>962.0</ele><time>2026-05-02T07:35:04Z</time></trkpt><trkpt lat="43.821610578583396" lon="11.617347692057452"><ele>964.4000000000001</ele><time>2026-05-02T07:35:05Z</time></trkpt><trkpt lat="43.82153208095578" lon="11.617345594539668"><ele>966.8000000000001</ele><time>2026-05-02T07:35:06Z</time></trkpt><trkpt lat="43.821456602475486" lon="11.617376656896647"><ele>969.2</ele><time>2026-05-02T07:35:07Z</time></trkpt><trkpt lat="43.821346703451184" lon="11.617437810064638"><ele>971.6</ele><time>2026-05-02T07:35:09Z</time></trkpt><trkpt lat="43.82122727731567" lon="11.617499858295986"><ele>974.0</ele><time>2026-05-02T07:35:11Z</time></trkpt><trkpt lat="43.82115350597714" lon="11.617593831364148"><ele>974.0000000000001</ele><time>2026-05-02T07:35:13Z</time></trkpt><trkpt lat="43.82110155201819" lon="11.617543038992025"><ele>974.0</ele><time>2026-05-02T07:35:15Z</time></trkpt><trkpt lat="43.82103326964281" lon="11.617527924612217"><ele>974.0</ele><time>2026-05-02T07:35:18Z</time></trkpt><trkpt lat="43.82100403543109" lon="11.617615977077257"><ele>974.0</ele><time>2026-05-02T07:35:20.999Z</time></trkpt><trkpt lat="43.820971400561454" lon="11.617709940779783"><ele>974.0000000000001</ele><time>2026-05-02T07:35:22.999Z</time></trkpt><trkpt lat="43.82090848468029" lon="11.617787418628026"><ele>974.0</ele><time>2026-05-02T07:35:24.999Z</time></trkpt><trkpt lat="43.82085887771487" lon="11.617934142251373"><ele>977.1666666666667</ele><time>2026-05-02T07:35:25.999Z</time></trkpt><trkpt lat="43.82081246982178" lon="11.618011433209228"><ele>980.3333333333334</ele><time>2026-05-02T07:35:26.999Z</time></trkpt><trkpt lat="43.820739934029326" lon="11.618092079786392"><ele>983.5</ele><time>2026-05-02T07:35:27.999Z</time></trkpt><trkpt lat="43.82066332517378" lon="11.618163643731629"><ele>986.6666666666667</ele><time>2026-05-02T07:35:28.999Z</time></trkpt><trkpt lat="43.820603121431375" lon="11.618218682478515"><ele>989.8333333333334</ele><time>2026-05-02T07:35:29.999Z</time></trkpt><trkpt lat="43.82053665964683" lon="11.61826514462744"><ele>993.0</ele><time>2026-05-02T07:35:30.999Z</time></trkpt><trkpt lat="43.82047035575277" lon="11.61831278687947"><ele>993.0</ele><time>2026-05-02T07:35:31.999Z</time></trkpt><trkpt lat="43.82039020945167" lon="11.61835802825608"><ele>993.0</ele><time>2026-05-02T07:35:32.999Z</time></trkpt><trkpt lat="43.82030941303856" lon="11.61837479000853"><ele>993.0</ele><time>2026-05-02T07:35:33.999Z</time></trkpt><trkpt lat="43.82024643513673" lon="11.618398131051048"><ele>993.0</ele><time>2026-05-02T07:35:34.999Z</time></trkpt><trkpt lat="43.82013609511758" lon="11.618458834557035"><ele>993.0</ele><time>2026-05-02T07:35:37Z</time></trkpt><trkpt lat="43.82007736542015" lon="11.6185186881396"><ele>993.0</ele><time>2026-05-02T07:35:38Z</time></trkpt><trkpt lat="43.82004183849734" lon="11.618617810663379"><ele>995.2</ele><time>2026-05-02T07:35:39Z</time></trkpt><trkpt lat="43.820010973958794" lon="11.618696554478728"><ele>997.4</ele><time>2026-05-02T07:35:40Z</time></trkpt><trkpt lat="43.819921757253226" lon="11.618756832111169"><ele>999.6000000000001</ele><time>2026-05-02T07:35:42Z</time></trkpt><trkpt lat="43.81982263896236" lon="11.6187914289869"><ele>1001.8000000000001</ele><time>2026-05-02T07:35:43Z</time></trkpt><trkpt lat="43.81972581576895" lon="11.618804158457975"><ele>1004.0</ele><time>2026-05-02T07:35:44Z</time></trkpt><trkpt lat="43.81963012605797" lon="11.618800244664065"><ele>1004.0</ele><time>2026-05-02T07:35:46Z</time></trkpt><trkpt lat="43.819512143695654" lon="11.618864770609806"><ele>1004.0000000000001</ele><time>2026-05-02T07:35:48Z</time></trkpt><trkpt lat="43.81945837720751" lon="11.618915991988425"><ele>1004.0000000000001</ele><time>2026-05-02T07:35:49Z</time></trkpt><trkpt lat="43.8194091920091" lon="11.619054660281675"><ele>1004.0</ele><time>2026-05-02T07:35:51Z</time></trkpt><trkpt lat="43.81940382957848" lon="11.619142226032508"><ele>1004.0</ele><time>2026-05-02T07:35:52Z</time></trkpt><trkpt lat="43.81941897706263" lon="11.61925665707025"><ele>1004.0000000000001</ele><time>2026-05-02T07:36:29Z</time></trkpt><trkpt lat="43.81937970212791" lon="11.619159929983024"><ele>1004.0</ele><time>2026-05-02T07:37:38.999Z</time></trkpt><trkpt lat="43.81939760271918" lon="11.619264341993569"><ele>1004.0</ele><time>2026-05-02T07:48:51Z</time></trkpt><trkpt lat="43.819381806537685" lon="11.619372578081524"><ele>1004.0</ele><time>2026-05-02T07:48:53Z</time></trkpt><trkpt lat="43.819356841693306" lon="11.619529212510757"><ele>1004.0000000000001</ele><time>2026-05-02T07:48:55Z</time></trkpt><trkpt lat="43.81932685979424" lon="11.61962939391145"><ele>1004.0</ele><time>2026-05-02T07:48:56Z</time></trkpt><trkpt lat="43.81929556982667" lon="11.619747757891217"><ele>1005.0</ele><time>2026-05-02T07:48:57Z</time></trkpt><trkpt lat="43.81928044903375" lon="11.619840563718066"><ele>1006.0000000000001</ele><time>2026-05-02T07:48:58Z</time></trkpt><trkpt lat="43.8192175139025" lon="11.619974778308697"><ele>1007.0000000000001</ele><time>2026-05-02T07:49:00Z</time></trkpt><trkpt lat="43.819174782131135" lon="11.620127428644377"><ele>1008.0</ele><time>2026-05-02T07:49:01.999Z</time></trkpt><trkpt lat="43.81916781236759" lon="11.62023895087034"><ele>1009.0</ele><time>2026-05-02T07:49:02.999Z</time></trkpt><trkpt lat="43.81915744205299" lon="11.620351210154368"><ele>1009.0</ele><time>2026-05-02T07:49:03.999Z</time></trkpt><trkpt lat="43.8190835414358" lon="11.62039481855164"><ele>1009.0000000000001</ele><time>2026-05-02T07:49:04.999Z</time></trkpt><trkpt lat="43.81901613504861" lon="11.620422063460984"><ele>1009.0000000000001</ele><time>2026-05-02T07:49:05.999Z</time></trkpt><trkpt lat="43.81890157754434" lon="11.62046074905657"><ele>1009.0</ele><time>2026-05-02T07:49:06.999Z</time></trkpt><trkpt lat="43.81880484988649" lon="11.620489819282264"><ele>1009.0</ele><time>2026-05-02T07:49:07.999Z</time></trkpt><trkpt lat="43.81871606875891" lon="11.620517029426553"><ele>1008.9999999999999</ele><time>2026-05-02T07:49:08.999Z</time></trkpt><trkpt lat="43.8186234607994" lon="11.620544891787407"><ele>1009.0</ele><time>2026-05-02T07:49:09.999Z</time></trkpt><trkpt lat="43.818684623691844" lon="11.62061961693915"><ele>1009.0</ele><time>2026-05-02T07:49:10.999Z</time></trkpt><trkpt lat="43.818700953603575" lon="11.620717048575214"><ele>1009.0</ele><time>2026-05-02T07:49:14.999Z</time></trkpt><trkpt lat="43.818799850529054" lon="11.620739521155691"><ele>1008.9999999999999</ele><time>2026-05-02T07:49:16.999Z</time></trkpt><trkpt lat="43.81888688830715" lon="11.620785300362881"><ele>1009.0</ele><time>2026-05-02T07:49:17.999Z</time></trkpt><trkpt lat="43.818953862680715" lon="11.620841958945878"><ele>1008.9999999999999</ele><time>2026-05-02T07:49:18.999Z</time></trkpt><trkpt lat="43.81899551928871" lon="11.620915331088531"><ele>1009.0</ele><time>2026-05-02T07:49:19.999Z</time></trkpt><trkpt lat="43.81906827775203" lon="11.621062794228768"><ele>1009.0</ele><time>2026-05-02T07:49:21.999Z</time></trkpt><trkpt lat="43.81903696733969" lon="11.62117671798821"><ele>1009.0</ele><time>2026-05-02T07:49:23.999Z</time></trkpt><trkpt lat="43.818972752250005" lon="11.621178072447224"><ele>1008.9999999999999</ele><time>2026-05-02T07:49:24.999Z</time></trkpt><trkpt lat="43.81888128999783" lon="11.621219047387415"><ele>1009.0</ele><time>2026-05-02T07:49:26.999Z</time></trkpt><trkpt lat="43.8188058872711" lon="11.62130419983634"><ele>1012.0</ele><time>2026-05-02T07:49:27.999Z</time></trkpt><trkpt lat="43.818872190458066" lon="11.62145057973289"><ele>1015.0000000000001</ele><time>2026-05-02T07:49:31.999Z</time></trkpt><trkpt lat="43.818947179281274" lon="11.621542535606697"><ele>1018.0000000000001</ele><time>2026-05-02T07:49:32.999Z</time></trkpt><trkpt lat="43.81901044132449" lon="11.621598467767523"><ele>1021.0</ele><time>2026-05-02T07:49:33.999Z</time></trkpt><trkpt lat="43.8191135646717" lon="11.6216822823194"><ele>1024.0</ele><time>2026-05-02T07:49:35.999Z</time></trkpt><trkpt lat="43.81919163243899" lon="11.621726040243612"><ele>1024.0</ele><time>2026-05-02T07:49:37.999Z</time></trkpt><trkpt lat="43.81928055918369" lon="11.621774240504692"><ele>1024.0</ele><time>2026-05-02T07:49:39.999Z</time></trkpt><trkpt lat="43.81934674985817" lon="11.621805343237684"><ele>1024.0</ele><time>2026-05-02T07:49:40.999Z</time></trkpt><trkpt lat="43.81942298294122" lon="11.621779377870244"><ele>1024.0</ele><time>2026-05-02T07:49:41.999Z</time></trkpt><trkpt lat="43.81954092372215" lon="11.621844317158446"><ele>1024.0</ele><time>2026-05-02T07:49:43.999Z</time></trkpt><trkpt lat="43.81961801246917" lon="11.621964605215776"><ele>1024.3333333333333</ele><time>2026-05-02T07:49:45.999Z</time></trkpt><trkpt lat="43.819659739596844" lon="11.62203032980596"><ele>1024.6666666666665</ele><time>2026-05-02T07:49:46.999Z</time></trkpt><trkpt lat="43.81970544661033" lon="11.622103943840884"><ele>1025.0</ele><time>2026-05-02T07:49:47.999Z</time></trkpt><trkpt lat="43.81976773671444" lon="11.622242634675231"><ele>1025.3333333333333</ele><time>2026-05-02T07:49:49.999Z</time></trkpt><trkpt lat="43.81977886491963" lon="11.622345724187669"><ele>1025.6666666666667</ele><time>2026-05-02T07:49:50.999Z</time></trkpt><trkpt lat="43.81980604482559" lon="11.622461205706406"><ele>1026.0</ele><time>2026-05-02T07:49:51.999Z</time></trkpt><trkpt lat="43.81983090014252" lon="11.622542689222906"><ele>1026.0</ele><time>2026-05-02T07:49:52.999Z</time></trkpt><trkpt lat="43.819876872200936" lon="11.62260708982623"><ele>1026.0</ele><time>2026-05-02T07:49:53.999Z</time></trkpt><trkpt lat="43.819959925337436" lon="11.62271486349689"><ele>1026.0</ele><time>2026-05-02T07:49:55.999Z</time></trkpt><trkpt lat="43.81999442751242" lon="11.622794404763535"><ele>1026.0</ele><time>2026-05-02T07:49:56.999Z</time></trkpt><trkpt lat="43.82002269447179" lon="11.622935688395488"><ele>1026.0</ele><time>2026-05-02T07:49:58.999Z</time></trkpt><trkpt lat="43.82012767839214" lon="11.623030173797247"><ele>1025.6</ele><time>2026-05-02T07:50:00.999Z</time></trkpt><trkpt lat="43.82023206174103" lon="11.623054450062757"><ele>1025.1999999999998</ele><time>2026-05-02T07:50:02.999Z</time></trkpt><trkpt lat="43.82030617012602" lon="11.623055574192572"><ele>1024.8000000000002</ele><time>2026-05-02T07:50:06.999Z</time></trkpt><trkpt lat="43.82038402551745" lon="11.62293019912051"><ele>1024.4</ele><time>2026-05-02T07:50:09.999Z</time></trkpt><trkpt lat="43.82041013662251" lon="11.622850570330494"><ele>1024.0</ele><time>2026-05-02T07:50:10.999Z</time></trkpt><trkpt lat="43.82048323960483" lon="11.62278011116328"><ele>1024.0</ele><time>2026-05-02T07:50:12.999Z</time></trkpt><trkpt lat="43.82059265514025" lon="11.622738019577646"><ele>1024.0</ele><time>2026-05-02T07:50:15.999Z</time></trkpt><trkpt lat="43.82067685380982" lon="11.62273732743139"><ele>1024.0</ele><time>2026-05-02T07:50:16.999Z</time></trkpt><trkpt lat="43.820754382296265" lon="11.622739663872391"><ele>1024.0</ele><time>2026-05-02T07:50:19Z</time></trkpt><trkpt lat="43.82079335057802" lon="11.622551320307522"><ele>1024.0</ele><time>2026-05-02T07:50:21Z</time></trkpt><trkpt lat="43.82081923511665" lon="11.622404913433607"><ele>1023.9999999999999</ele><time>2026-05-02T07:50:22Z</time></trkpt><trkpt lat="43.82085622762211" lon="11.622294700868043"><ele>1024.0</ele><time>2026-05-02T07:50:23Z</time></trkpt><trkpt lat="43.820924072402164" lon="11.622232389636332"><ele>1024.0</ele><time>2026-05-02T07:50:24Z</time></trkpt><trkpt lat="43.82100291414999" lon="11.622163838552364"><ele>1024.0</ele><time>2026-05-02T07:50:25Z</time></trkpt><trkpt lat="43.82108368694547" lon="11.622078166344172"><ele>1023.9999999999999</ele><time>2026-05-02T07:50:26Z</time></trkpt><trkpt lat="43.82115122291318" lon="11.622054060182078"><ele>1024.0</ele><time>2026-05-02T07:50:27Z</time></trkpt><trkpt lat="43.82120872750471" lon="11.622115808371264"><ele>1027.0</ele><time>2026-05-02T07:50:27.999Z</time></trkpt><trkpt lat="43.82129172200707" lon="11.622211684662762"><ele>1030.0</ele><time>2026-05-02T07:50:28.999Z</time></trkpt><trkpt lat="43.82140792666929" lon="11.622279376814372"><ele>1033.0</ele><time>2026-05-02T07:50:29.999Z</time></trkpt><trkpt lat="43.82151281340797" lon="11.622314684984369"><ele>1036.0</ele><time>2026-05-02T07:50:30.999Z</time></trkpt><trkpt lat="43.821584047431145" lon="11.622200446931929"><ele>1036.0</ele><time>2026-05-02T07:50:32.999Z</time></trkpt><trkpt lat="43.82163831780349" lon="11.622149696500715"><ele>1036.0</ele><time>2026-05-02T07:50:33.999Z</time></trkpt><trkpt lat="43.821752951926975" lon="11.622147292990203"><ele>1036.0</ele><time>2026-05-02T07:50:35.999Z</time></trkpt><trkpt lat="43.821820297062274" lon="11.622142272012118"><ele>1036.0</ele><time>2026-05-02T07:50:36.999Z</time></trkpt><trkpt lat="43.821908021842376" lon="11.622145682025822"><ele>1036.0</ele><time>2026-05-02T07:50:38.999Z</time></trkpt><trkpt lat="43.822031409384216" lon="11.622142412108708"><ele>1036.6666666666665</ele><time>2026-05-02T07:50:40.999Z</time></trkpt><trkpt lat="43.82209287008946" lon="11.622107551091672"><ele>1037.3333333333333</ele><time>2026-05-02T07:50:41.999Z</time></trkpt><trkpt lat="43.82215245466662" lon="11.621968063353998"><ele>1038.0</ele><time>2026-05-02T07:50:43.999Z</time></trkpt><trkpt lat="43.822189280047596" lon="11.621878929730544"><ele>1038.6666666666667</ele><time>2026-05-02T07:50:44.999Z</time></trkpt><trkpt lat="43.822238140839474" lon="11.62178349663968"><ele>1039.3333333333335</ele><time>2026-05-02T07:50:45.999Z</time></trkpt><trkpt lat="43.82230454513848" lon="11.621713885556147"><ele>1040.0</ele><time>2026-05-02T07:50:46.999Z</time></trkpt><trkpt lat="43.8224025001672" lon="11.621668598893903"><ele>1037.8333333333335</ele><time>2026-05-02T07:50:47.999Z</time></trkpt><trkpt lat="43.82248946271603" lon="11.6216500213653"><ele>1035.6666666666667</ele><time>2026-05-02T07:50:48.999Z</time></trkpt><trkpt lat="43.82255210126619" lon="11.621624261087513"><ele>1033.5</ele><time>2026-05-02T07:50:49.999Z</time></trkpt><trkpt lat="43.822634813636725" lon="11.621636902607277"><ele>1031.3333333333333</ele><time>2026-05-02T07:50:51.999Z</time></trkpt><trkpt lat="43.82271202297298" lon="11.621758978353656"><ele>1029.1666666666665</ele><time>2026-05-02T07:50:53.999Z</time></trkpt><trkpt lat="43.82268055476495" lon="11.621865687777571"><ele>1027.0</ele><time>2026-05-02T07:50:55.999Z</time></trkpt><trkpt lat="43.822678565516014" lon="11.621969553415733"><ele>1026.8</ele><time>2026-05-02T07:50:57.999Z</time></trkpt><trkpt lat="43.82267714354018" lon="11.622098898736663"><ele>1026.6</ele><time>2026-05-02T07:50:59.999Z</time></trkpt><trkpt lat="43.822644768252886" lon="11.622250361685802"><ele>1026.3999999999999</ele><time>2026-05-02T07:51:01.999Z</time></trkpt><trkpt lat="43.822631013741706" lon="11.622376063848831"><ele>1026.2</ele><time>2026-05-02T07:51:03.999Z</time></trkpt><trkpt lat="43.82252468193696" lon="11.622427068653158"><ele>1026.0</ele><time>2026-05-02T07:51:05.999Z</time></trkpt><trkpt lat="43.822434551301846" lon="11.622502684329536"><ele>1028.3333333333333</ele><time>2026-05-02T07:51:07.999Z</time></trkpt><trkpt lat="43.82238041265342" lon="11.622592942777997"><ele>1030.6666666666667</ele><time>2026-05-02T07:51:08.999Z</time></trkpt><trkpt lat="43.82231830764385" lon="11.622665638858182"><ele>1033.0</ele><time>2026-05-02T07:51:09.999Z</time></trkpt><trkpt lat="43.82224285050721" lon="11.622727542118835"><ele>1035.3333333333335</ele><time>2026-05-02T07:51:10.999Z</time></trkpt><trkpt lat="43.8221676217286" lon="11.622784831685008"><ele>1037.6666666666667</ele><time>2026-05-02T07:51:11.999Z</time></trkpt><trkpt lat="43.82209675561589" lon="11.622845900453717"><ele>1040.0</ele><time>2026-05-02T07:51:12.999Z</time></trkpt><trkpt lat="43.82201091936626" lon="11.622892691924648"><ele>1041.3333333333335</ele><time>2026-05-02T07:51:13.999Z</time></trkpt><trkpt lat="43.82193907276066" lon="11.622941168306378"><ele>1042.6666666666667</ele><time>2026-05-02T07:51:14.999Z</time></trkpt><trkpt lat="43.82186219343517" lon="11.622970987246504"><ele>1044.0</ele><time>2026-05-02T07:51:15.999Z</time></trkpt><trkpt lat="43.821769530905144" lon="11.622995526096505"><ele>1045.3333333333333</ele><time>2026-05-02T07:51:16.999Z</time></trkpt><trkpt lat="43.82168551090177" lon="11.623027091483987"><ele>1046.6666666666665</ele><time>2026-05-02T07:51:17.999Z</time></trkpt><trkpt lat="43.8216064439135" lon="11.62307366928389"><ele>1048.0</ele><time>2026-05-02T07:51:18.999Z</time></trkpt><trkpt lat="43.82152894562168" lon="11.623117681799258"><ele>1049.0</ele><time>2026-05-02T07:51:19.999Z</time></trkpt><trkpt lat="43.821461364047174" lon="11.623190333368097"><ele>1050.0</ele><time>2026-05-02T07:51:20.999Z</time></trkpt><trkpt lat="43.82140391288319" lon="11.623277590314357"><ele>1051.0</ele><time>2026-05-02T07:51:21.999Z</time></trkpt><trkpt lat="43.82139277570961" lon="11.623377007230225"><ele>1052.0</ele><time>2026-05-02T07:51:22.999Z</time></trkpt><trkpt lat="43.821369350931825" lon="11.623467708373317"><ele>1053.0</ele><time>2026-05-02T07:51:23.999Z</time></trkpt><trkpt lat="43.82136591963028" lon="11.623568952091485"><ele>1054.0</ele><time>2026-05-02T07:51:24.999Z</time></trkpt><trkpt lat="43.82135535457479" lon="11.623681277941461"><ele>1054.1666666666665</ele><time>2026-05-02T07:51:25.999Z</time></trkpt><trkpt lat="43.82131802876814" lon="11.623761470660522"><ele>1054.3333333333333</ele><time>2026-05-02T07:51:26.999Z</time></trkpt><trkpt lat="43.82123278903222" lon="11.62383624258739"><ele>1054.5</ele><time>2026-05-02T07:51:29.999Z</time></trkpt><trkpt lat="43.821171101621104" lon="11.623866833670407"><ele>1054.6666666666667</ele><time>2026-05-02T07:51:35.999Z</time></trkpt><trkpt lat="43.821082136662376" lon="11.62391162314338"><ele>1054.8333333333335</ele><time>2026-05-02T07:51:59.999Z</time></trkpt><trkpt lat="43.82102023313482" lon="11.62396592431328"><ele>1055.0</ele><time>2026-05-02T07:52:00.999Z</time></trkpt><trkpt lat="43.82097224665072" lon="11.624061426166087"><ele>1055.0</ele><time>2026-05-02T07:52:01.999Z</time></trkpt><trkpt lat="43.820931101395225" lon="11.624166228224478"><ele>1055.0</ele><time>2026-05-02T07:52:02.999Z</time></trkpt><trkpt lat="43.8208796759012" lon="11.62423263594766"><ele>1055.0</ele><time>2026-05-02T07:52:03.999Z</time></trkpt><trkpt lat="43.82080236304251" lon="11.624253101315642"><ele>1055.0</ele><time>2026-05-02T07:52:04.999Z</time></trkpt><trkpt lat="43.82074860613176" lon="11.624308036447326"><ele>1055.0</ele><time>2026-05-02T07:52:05.999Z</time></trkpt><trkpt lat="43.820725407736035" lon="11.624404303681253"><ele>1055.0</ele><time>2026-05-02T07:52:06.999Z</time></trkpt><trkpt lat="43.8207135606753" lon="11.62452994812445"><ele>1058.6</ele><time>2026-05-02T07:52:07.999Z</time></trkpt><trkpt lat="43.820696782434425" lon="11.624684707473206"><ele>1062.2</ele><time>2026-05-02T07:52:08.999Z</time></trkpt><trkpt lat="43.82068175823166" lon="11.624831624679754"><ele>1065.8</ele><time>2026-05-02T07:52:09.999Z</time></trkpt><trkpt lat="43.82063836442664" lon="11.624952797616928"><ele>1069.4</ele><time>2026-05-02T07:52:10.999Z</time></trkpt><trkpt lat="43.82058655034761" lon="11.625039958683338"><ele>1073.0</ele><time>2026-05-02T07:52:11.999Z</time></trkpt><trkpt lat="43.82049044378596" lon="11.625096156254175"><ele>1073.0</ele><time>2026-05-02T07:52:12.999Z</time></trkpt><trkpt lat="43.820389373463115" lon="11.625131784879633"><ele>1073.0</ele><time>2026-05-02T07:52:13.999Z</time></trkpt><trkpt lat="43.82023123330428" lon="11.625155943926595"><ele>1073.0</ele><time>2026-05-02T07:52:14.999Z</time></trkpt><trkpt lat="43.820122122178724" lon="11.625169476488637"><ele>1073.0</ele><time>2026-05-02T07:52:15.999Z</time></trkpt><trkpt lat="43.81997594803426" lon="11.62519953032214"><ele>1073.0</ele><time>2026-05-02T07:52:16.999Z</time></trkpt><trkpt lat="43.819883264060124" lon="11.625193641547005"><ele>1073.0</ele><time>2026-05-02T07:52:17.999Z</time></trkpt><trkpt lat="43.81980399761405" lon="11.62518329359946"><ele>1073.0</ele><time>2026-05-02T07:52:18.999Z</time></trkpt><trkpt lat="43.81971535552616" lon="11.625202852531299"><ele>1073.0</ele><time>2026-05-02T07:52:19.999Z</time></trkpt><trkpt lat="43.81963851939272" lon="11.625234128556196"><ele>1073.0</ele><time>2026-05-02T07:52:20.999Z</time></trkpt><trkpt lat="43.81957464545722" lon="11.625267922709936"><ele>1073.0</ele><time>2026-05-02T07:52:22.999Z</time></trkpt><trkpt lat="43.81945570658991" lon="11.625373516716328"><ele>1073.0</ele><time>2026-05-02T07:52:25Z</time></trkpt><trkpt lat="43.819374028475906" lon="11.625386101399302"><ele>1073.0</ele><time>2026-05-02T07:52:26Z</time></trkpt><trkpt lat="43.819291970208624" lon="11.625380713363137"><ele>1073.0</ele><time>2026-05-02T07:52:27Z</time></trkpt><trkpt lat="43.81922756458899" lon="11.625330180864239"><ele>1073.0</ele><time>2026-05-02T07:52:28Z</time></trkpt><trkpt lat="43.81916903766784" lon="11.625241450052195"><ele>1073.0</ele><time>2026-05-02T07:52:30Z</time></trkpt><trkpt lat="43.819108983222776" lon="11.625138511611524"><ele>1073.0</ele><time>2026-05-02T07:52:32Z</time></trkpt><trkpt lat="43.81904884857481" lon="11.625057049977848"><ele>1074.0</ele><time>2026-05-02T07:52:34Z</time></trkpt><trkpt lat="43.818993792900876" lon="11.624995961370587"><ele>1075.0</ele><time>2026-05-02T07:52:35Z</time></trkpt><trkpt lat="43.81892679905566" lon="11.624982009407319"><ele>1076.0</ele><time>2026-05-02T07:52:36Z</time></trkpt><trkpt lat="43.81884795162545" lon="11.625000935289222"><ele>1077.0</ele><time>2026-05-02T07:52:37Z</time></trkpt><trkpt lat="43.81869094173883" lon="11.625104653150652"><ele>1078.0</ele><time>2026-05-02T07:52:38Z</time></trkpt><trkpt lat="43.818556306392445" lon="11.625193611756844"><ele>1080.2</ele><time>2026-05-02T07:52:39Z</time></trkpt><trkpt lat="43.81845833170852" lon="11.625246367579471"><ele>1082.4</ele><time>2026-05-02T07:52:40Z</time></trkpt><trkpt lat="43.8183866463982" lon="11.625224544367704"><ele>1084.6000000000001</ele><time>2026-05-02T07:52:41Z</time></trkpt><trkpt lat="43.81827631439133" lon="11.625197529450556"><ele>1086.8</ele><time>2026-05-02T07:52:42Z</time></trkpt><trkpt lat="43.818148404764884" lon="11.625184762116149"><ele>1089.0</ele><time>2026-05-02T07:52:43Z</time></trkpt><trkpt lat="43.8180164372192" lon="11.625202863519322"><ele>1089.0</ele><time>2026-05-02T07:52:44Z</time></trkpt><trkpt lat="43.81787165369774" lon="11.625196586113937"><ele>1089.0</ele><time>2026-05-02T07:52:45Z</time></trkpt><trkpt lat="43.81774757794039" lon="11.625183606958174"><ele>1089.0</ele><time>2026-05-02T07:52:46Z</time></trkpt><trkpt lat="43.817600083863674" lon="11.625168054648881"><ele>1089.0</ele><time>2026-05-02T07:52:47Z</time></trkpt><trkpt lat="43.81748247644067" lon="11.625164787586483"><ele>1091.0000000000002</ele><time>2026-05-02T07:52:48Z</time></trkpt><trkpt lat="43.81741711317748" lon="11.625165215189185"><ele>1093.0</ele><time>2026-05-02T07:52:49Z</time></trkpt><trkpt lat="43.81736510064461" lon="11.625215074784814"><ele>1095.0</ele><time>2026-05-02T07:53:52.999Z</time></trkpt><trkpt lat="43.81731261832585" lon="11.625146495675503"><ele>1097.0</ele><time>2026-05-02T07:54:00.999Z</time></trkpt><trkpt lat="43.81724229887368" lon="11.62509405539673"><ele>1099.0</ele><time>2026-05-02T07:54:08.999Z</time></trkpt><trkpt lat="43.81718346094443" lon="11.625043033426833"><ele>1101.0000000000002</ele><time>2026-05-02T07:54:14.999Z</time></trkpt><trkpt lat="43.817120712728205" lon="11.625001069412413"><ele>1103.0</ele><time>2026-05-02T07:54:25.999Z</time></trkpt><trkpt lat="43.81719933520345" lon="11.625034534161967"><ele>1103.0</ele><time>2026-05-02T08:00:27Z</time></trkpt><trkpt lat="43.817262862795786" lon="11.625101361818247"><ele>1103.0</ele><time>2026-05-02T08:00:34Z</time></trkpt><trkpt lat="43.817324036480194" lon="11.625156184442583"><ele>1103.0</ele><time>2026-05-02T08:00:39Z</time></trkpt><trkpt lat="43.817405769198324" lon="11.625134523363434"><ele>1103.0</ele><time>2026-05-02T08:00:44Z</time></trkpt><trkpt lat="43.81747425342809" lon="11.625124662576141"><ele>1103.0</ele><time>2026-05-02T08:01:10Z</time></trkpt><trkpt lat="43.81738407236763" lon="11.625168692163797"><ele>1103.0</ele><time>2026-05-02T08:01:45Z</time></trkpt><trkpt lat="43.817297467539284" lon="11.62513228779028"><ele>1103.0</ele><time>2026-05-02T08:01:47Z</time></trkpt><trkpt lat="43.81721574483555" lon="11.625042158789153"><ele>1103.0</ele><time>2026-05-02T08:01:49Z</time></trkpt><trkpt lat="43.81714314331998" lon="11.624982622412105"><ele>1103.0</ele><time>2026-05-02T08:01:51Z</time></trkpt><trkpt lat="43.81706884843032" lon="11.625049412669782"><ele>1103.0</ele><time>2026-05-02T08:01:53Z</time></trkpt><trkpt lat="43.816958072698775" lon="11.62503668934186"><ele>1103.0</ele><time>2026-05-02T08:01:55Z</time></trkpt><trkpt lat="43.81690146716935" lon="11.624966510595105"><ele>1103.0</ele><time>2026-05-02T08:01:56Z</time></trkpt><trkpt lat="43.81685641372583" lon="11.624903051287474"><ele>1103.0</ele><time>2026-05-02T08:01:57Z</time></trkpt><trkpt lat="43.8167912878165" lon="11.624812121640103"><ele>1103.0</ele><time>2026-05-02T08:01:59Z</time></trkpt><trkpt lat="43.81686235372751" lon="11.624873359943102"><ele>1103.0</ele><time>2026-05-02T08:02:06Z</time></trkpt><trkpt lat="43.81692084898263" lon="11.624938659603396"><ele>1103.0</ele><time>2026-05-02T08:02:08Z</time></trkpt><trkpt lat="43.81698865173209" lon="11.624985822289926"><ele>1103.0</ele><time>2026-05-02T08:02:10Z</time></trkpt><trkpt lat="43.817055107620334" lon="11.625001798035845"><ele>1103.0</ele><time>2026-05-02T08:02:14Z</time></trkpt><trkpt lat="43.817122742301514" lon="11.624958426484625"><ele>1103.0</ele><time>2026-05-02T08:02:21Z</time></trkpt><trkpt lat="43.817186473732065" lon="11.625011250145352"><ele>1103.0</ele><time>2026-05-02T08:02:25Z</time></trkpt><trkpt lat="43.81723873254848" lon="11.625061071977703"><ele>1103.0</ele><time>2026-05-02T08:02:27Z</time></trkpt><trkpt lat="43.81734193139784" lon="11.625128693081692"><ele>1103.0</ele><time>2026-05-02T08:02:29Z</time></trkpt><trkpt lat="43.81741715048634" lon="11.625162345305107"><ele>1103.0</ele><time>2026-05-02T08:03:12Z</time></trkpt><trkpt lat="43.817484391018596" lon="11.625171356076327"><ele>1103.0</ele><time>2026-05-02T08:06:45.999Z</time></trkpt><trkpt lat="43.817547963194684" lon="11.625175795926767"><ele>1103.0</ele><time>2026-05-02T08:06:51.999Z</time></trkpt><trkpt lat="43.817460392355905" lon="11.625204336914615"><ele>1103.0</ele><time>2026-05-02T08:07:55Z</time></trkpt><trkpt lat="43.817396401148514" lon="11.62518408751544"><ele>1103.0</ele><time>2026-05-02T08:07:57Z</time></trkpt><trkpt lat="43.81733074945101" lon="11.62516787898227"><ele>1103.0</ele><time>2026-05-02T08:07:58Z</time></trkpt><trkpt lat="43.81723906290192" lon="11.625063313349218"><ele>1103.0</ele><time>2026-05-02T08:08:00Z</time></trkpt><trkpt lat="43.8171311660487" lon="11.625008888773399"><ele>1103.0</ele><time>2026-05-02T08:08:02Z</time></trkpt><trkpt lat="43.817061844148526" lon="11.62501592235449"><ele>1103.0</ele><time>2026-05-02T08:08:05Z</time></trkpt><trkpt lat="43.81699388417868" lon="11.625023025918235"><ele>1103.0</ele><time>2026-05-02T08:08:19Z</time></trkpt><trkpt lat="43.816931560782045" lon="11.624970361215633"><ele>1103.0</ele><time>2026-05-02T08:08:24Z</time></trkpt><trkpt lat="43.81685819476361" lon="11.624863890639961"><ele>1103.0</ele><time>2026-05-02T08:08:26Z</time></trkpt><trkpt lat="43.816753034770244" lon="11.624783521404941"><ele>1103.0</ele><time>2026-05-02T08:08:28Z</time></trkpt><trkpt lat="43.81668471555771" lon="11.624739003398915"><ele>1104.3333333333335</ele><time>2026-05-02T08:08:29Z</time></trkpt><trkpt lat="43.81659957778655" lon="11.624652295944722"><ele>1105.6666666666667</ele><time>2026-05-02T08:08:55Z</time></trkpt><trkpt lat="43.81652697755329" lon="11.62459008229111"><ele>1107.0</ele><time>2026-05-02T08:08:58Z</time></trkpt><trkpt lat="43.81644217087012" lon="11.624537939491734"><ele>1108.3333333333333</ele><time>2026-05-02T08:09:00Z</time></trkpt><trkpt lat="43.81638235589795" lon="11.624497712984303"><ele>1109.6666666666665</ele><time>2026-05-02T08:09:01Z</time></trkpt><trkpt lat="43.81629460820165" lon="11.624458244881302"><ele>1111.0</ele><time>2026-05-02T08:09:03Z</time></trkpt><trkpt lat="43.8161520678434" lon="11.624380431068039"><ele>1111.0</ele><time>2026-05-02T08:09:05Z</time></trkpt><trkpt lat="43.81602802775501" lon="11.624324100863248"><ele>1111.0</ele><time>2026-05-02T08:09:06Z</time></trkpt><trkpt lat="43.81593858968552" lon="11.624313183258689"><ele>1111.0</ele><time>2026-05-02T08:09:07Z</time></trkpt><trkpt lat="43.815834561292" lon="11.624263495052958"><ele>1111.0</ele><time>2026-05-02T08:09:09Z</time></trkpt><trkpt lat="43.81577005516474" lon="11.624230561677274"><ele>1111.0</ele><time>2026-05-02T08:09:10Z</time></trkpt><trkpt lat="43.815672710785456" lon="11.624214265561902"><ele>1113.3999999999999</ele><time>2026-05-02T08:09:11Z</time></trkpt><trkpt lat="43.81557755645455" lon="11.624202835632685"><ele>1115.8</ele><time>2026-05-02T08:09:12Z</time></trkpt><trkpt lat="43.81549507251707" lon="11.624142021897839"><ele>1118.1999999999998</ele><time>2026-05-02T08:09:13Z</time></trkpt><trkpt lat="43.815375018723266" lon="11.624086694536077"><ele>1120.6</ele><time>2026-05-02T08:09:14Z</time></trkpt><trkpt lat="43.81527045283949" lon="11.62402207288664"><ele>1123.0</ele><time>2026-05-02T08:09:15Z</time></trkpt><trkpt lat="43.81518085570475" lon="11.623925395190113"><ele>1122.6666666666665</ele><time>2026-05-02T08:09:16Z</time></trkpt><trkpt lat="43.81506938384957" lon="11.623856254353042"><ele>1122.3333333333333</ele><time>2026-05-02T08:09:17Z</time></trkpt><trkpt lat="43.81498606118175" lon="11.623780265579523"><ele>1122.0</ele><time>2026-05-02T08:09:18Z</time></trkpt><trkpt lat="43.81491661348992" lon="11.623717845382433"><ele>1121.6666666666667</ele><time>2026-05-02T08:09:19Z</time></trkpt><trkpt lat="43.81486754913193" lon="11.623659959526552"><ele>1121.3333333333335</ele><time>2026-05-02T08:09:20Z</time></trkpt><trkpt lat="43.814816626377095" lon="11.623592494947943"><ele>1121.0</ele><time>2026-05-02T08:09:21Z</time></trkpt><trkpt lat="43.81476099504876" lon="11.623541436175245"><ele>1123.8</ele><time>2026-05-02T08:09:22Z</time></trkpt><trkpt lat="43.81470429060261" lon="11.623447166223558"><ele>1126.6</ele><time>2026-05-02T08:09:24Z</time></trkpt><trkpt lat="43.81470423196967" lon="11.62335971450827"><ele>1129.4</ele><time>2026-05-02T08:09:25Z</time></trkpt><trkpt lat="43.81472449384248" lon="11.623244678169275"><ele>1132.2</ele><time>2026-05-02T08:09:26Z</time></trkpt><trkpt lat="43.814706780345674" lon="11.623066388089873"><ele>1135.0</ele><time>2026-05-02T08:09:27Z</time></trkpt><trkpt lat="43.81467547766799" lon="11.622889953114234"><ele>1134.8</ele><time>2026-05-02T08:09:28Z</time></trkpt><trkpt lat="43.81465353610804" lon="11.622746318249353"><ele>1134.6</ele><time>2026-05-02T08:09:29Z</time></trkpt><trkpt lat="43.814657823140884" lon="11.622610646239831"><ele>1134.4</ele><time>2026-05-02T08:09:30Z</time></trkpt><trkpt lat="43.81462459356734" lon="11.622449120916283"><ele>1134.2</ele><time>2026-05-02T08:09:31Z</time></trkpt><trkpt lat="43.81460606779412" lon="11.622321190520257"><ele>1134.0</ele><time>2026-05-02T08:09:32Z</time></trkpt><trkpt lat="43.81459427644198" lon="11.62218276509942"><ele>1134.0</ele><time>2026-05-02T08:09:33Z</time></trkpt><trkpt lat="43.81458461985647" lon="11.6220258341326"><ele>1134.0</ele><time>2026-05-02T08:09:34Z</time></trkpt><trkpt lat="43.814567837605786" lon="11.62188258915343"><ele>1134.0</ele><time>2026-05-02T08:09:35Z</time></trkpt><trkpt lat="43.81454902636665" lon="11.621723888064816"><ele>1134.0</ele><time>2026-05-02T08:09:36Z</time></trkpt><trkpt lat="43.814547900042434" lon="11.621595836293666"><ele>1134.0</ele><time>2026-05-02T08:09:37Z</time></trkpt><trkpt lat="43.81451554756002" lon="11.621469393018469"><ele>1133.4</ele><time>2026-05-02T08:09:38Z</time></trkpt><trkpt lat="43.814476158817286" lon="11.621363850558312"><ele>1132.8000000000002</ele><time>2026-05-02T08:09:39Z</time></trkpt><trkpt lat="43.81442570676541" lon="11.62124130828531"><ele>1132.1999999999998</ele><time>2026-05-02T08:09:40Z</time></trkpt><trkpt lat="43.81437900715887" lon="11.621112210895491"><ele>1131.6</ele><time>2026-05-02T08:09:41Z</time></trkpt><trkpt lat="43.81432221377835" lon="11.621002952460815"><ele>1131.0</ele><time>2026-05-02T08:09:42Z</time></trkpt><trkpt lat="43.81429115219485" lon="11.620885316043141"><ele>1132.2</ele><time>2026-05-02T08:09:44Z</time></trkpt><trkpt lat="43.81425415737151" lon="11.620756931965207"><ele>1133.3999999999999</ele><time>2026-05-02T08:09:46Z</time></trkpt><trkpt lat="43.81414875437604" lon="11.620676950712447"><ele>1134.6</ele><time>2026-05-02T08:09:48Z</time></trkpt><trkpt lat="43.81411615391351" lon="11.62055458321819"><ele>1135.8</ele><time>2026-05-02T08:09:49Z</time></trkpt><trkpt lat="43.8140882451887" lon="11.620408121631833"><ele>1137.0</ele><time>2026-05-02T08:09:50Z</time></trkpt><trkpt lat="43.814053110921236" lon="11.620250785412216"><ele>1137.5</ele><time>2026-05-02T08:09:51Z</time></trkpt><trkpt lat="43.814027801312236" lon="11.620079932822899"><ele>1138.0</ele><time>2026-05-02T08:09:52Z</time></trkpt><trkpt lat="43.81399270922892" lon="11.619912534803824"><ele>1138.5</ele><time>2026-05-02T08:09:53Z</time></trkpt><trkpt lat="43.81396039232644" lon="11.619749368648309"><ele>1139.0</ele><time>2026-05-02T08:09:54Z</time></trkpt><trkpt lat="43.81390726072722" lon="11.619542173143891"><ele>1137.75</ele><time>2026-05-02T08:09:55Z</time></trkpt><trkpt lat="43.8138599227395" lon="11.619356506068785"><ele>1136.5</ele><time>2026-05-02T08:09:56Z</time></trkpt><trkpt lat="43.81383143009161" lon="11.619214623663883"><ele>1135.25</ele><time>2026-05-02T08:09:57Z</time></trkpt><trkpt lat="43.81380733744888" lon="11.619029730803772"><ele>1134.0</ele><time>2026-05-02T08:09:58Z</time></trkpt><trkpt lat="43.813779585571254" lon="11.618798850973912"><ele>1135.0</ele><time>2026-05-02T08:09:59Z</time></trkpt><trkpt lat="43.81378054110471" lon="11.61852437266891"><ele>1136.0</ele><time>2026-05-02T08:10:00Z</time></trkpt><trkpt lat="43.813769364634524" lon="11.618260038808009"><ele>1137.0</ele><time>2026-05-02T08:10:01Z</time></trkpt><trkpt lat="43.81374421489884" lon="11.61809608968452"><ele>1137.0</ele><time>2026-05-02T08:10:02Z</time></trkpt><trkpt lat="43.81371646373361" lon="11.617957968375732"><ele>1137.0</ele><time>2026-05-02T08:10:03Z</time></trkpt><trkpt lat="43.8137864232579" lon="11.617947575472792"><ele>1137.0</ele><time>2026-05-02T08:10:08Z</time></trkpt><trkpt lat="43.81382475518384" lon="11.61785045004811"><ele>1137.0</ele><time>2026-05-02T08:10:17Z</time></trkpt><trkpt lat="43.813925106260264" lon="11.617762715179536"><ele>1137.0</ele><time>2026-05-02T08:10:19Z</time></trkpt><trkpt lat="43.814012913512954" lon="11.617694813721148"><ele>1137.5</ele><time>2026-05-02T08:10:20Z</time></trkpt><trkpt lat="43.8140927190964" lon="11.617645874162383"><ele>1138.0</ele><time>2026-05-02T08:10:21Z</time></trkpt><trkpt lat="43.81416540367312" lon="11.61759640710637"><ele>1138.5</ele><time>2026-05-02T08:10:22Z</time></trkpt><trkpt lat="43.81423351037655" lon="11.617528981538136"><ele>1139.0</ele><time>2026-05-02T08:10:23Z</time></trkpt><trkpt lat="43.81431113668091" lon="11.617480283548701"><ele>1139.5</ele><time>2026-05-02T08:10:24Z</time></trkpt><trkpt lat="43.81436916436359" lon="11.617437661371984"><ele>1140.0</ele><time>2026-05-02T08:10:25Z</time></trkpt><trkpt lat="43.814438538495004" lon="11.617417883341671"><ele>1133.75</ele><time>2026-05-02T08:10:26Z</time></trkpt><trkpt lat="43.81456523064937" lon="11.617332212618347"><ele>1127.5</ele><time>2026-05-02T08:10:28Z</time></trkpt><trkpt lat="43.81460072608977" lon="11.617192871095126"><ele>1121.25</ele><time>2026-05-02T08:10:30Z</time></trkpt><trkpt lat="43.8146525377282" lon="11.617015745825944"><ele>1115.0</ele><time>2026-05-02T08:10:32Z</time></trkpt><trkpt lat="43.8147025970119" lon="11.616903679139545"><ele>1114.3333333333335</ele><time>2026-05-02T08:10:34Z</time></trkpt><trkpt lat="43.81473051840046" lon="11.616818418004558"><ele>1113.6666666666667</ele><time>2026-05-02T08:10:35Z</time></trkpt><trkpt lat="43.81475909478168" lon="11.616725218979768"><ele>1113.0</ele><time>2026-05-02T08:10:36Z</time></trkpt><trkpt lat="43.81478798807528" lon="11.616607906024571"><ele>1112.3333333333333</ele><time>2026-05-02T08:10:37Z</time></trkpt><trkpt lat="43.814835452560295" lon="11.616470088811273"><ele>1111.6666666666665</ele><time>2026-05-02T08:10:39Z</time></trkpt><trkpt lat="43.81486182554403" lon="11.61638115825993"><ele>1111.0</ele><time>2026-05-02T08:10:40Z</time></trkpt><trkpt lat="43.8148632553899" lon="11.616269569209164"><ele>1111.0</ele><time>2026-05-02T08:10:41Z</time></trkpt><trkpt lat="43.8148253347378" lon="11.616176892234956"><ele>1111.0</ele><time>2026-05-02T08:10:42Z</time></trkpt><trkpt lat="43.8147585619535" lon="11.616088090746004"><ele>1111.0</ele><time>2026-05-02T08:10:43Z</time></trkpt><trkpt lat="43.81466541434983" lon="11.616000142712847"><ele>1111.0</ele><time>2026-05-02T08:10:44Z</time></trkpt><trkpt lat="43.81458535762896" lon="11.615941109384092"><ele>1111.0</ele><time>2026-05-02T08:10:45Z</time></trkpt><trkpt lat="43.8144947267308" lon="11.615924184218832"><ele>1110.2</ele><time>2026-05-02T08:10:46Z</time></trkpt><trkpt lat="43.814409711449976" lon="11.615930234760699"><ele>1109.3999999999999</ele><time>2026-05-02T08:10:47Z</time></trkpt><trkpt lat="43.814328649358366" lon="11.615951483580789"><ele>1108.6</ele><time>2026-05-02T08:10:48Z</time></trkpt><trkpt lat="43.81426303039453" lon="11.61596233682684"><ele>1107.8</ele><time>2026-05-02T08:10:49Z</time></trkpt><trkpt lat="43.814209998682614" lon="11.615811383609781"><ele>1107.0</ele><time>2026-05-02T08:10:51Z</time></trkpt><trkpt lat="43.81423985377898" lon="11.615678964587019"><ele>1107.0</ele><time>2026-05-02T08:10:52Z</time></trkpt><trkpt lat="43.81425940735499" lon="11.615531393966865"><ele>1107.0</ele><time>2026-05-02T08:10:53Z</time></trkpt><trkpt lat="43.81413901723978" lon="11.615413628029064"><ele>1107.0</ele><time>2026-05-02T08:10:55Z</time></trkpt><trkpt lat="43.814060768549" lon="11.615383519594692"><ele>1107.0</ele><time>2026-05-02T08:10:56Z</time></trkpt><trkpt lat="43.813935280826776" lon="11.615488397410765"><ele>1107.0</ele><time>2026-05-02T08:10:58Z</time></trkpt><trkpt lat="43.813865616024174" lon="11.615551495675621"><ele>1107.0</ele><time>2026-05-02T08:10:59Z</time></trkpt><trkpt lat="43.81374256234136" lon="11.615528707380271"><ele>1107.0</ele><time>2026-05-02T08:11:01Z</time></trkpt><trkpt lat="43.8136647369113" lon="11.615568727506414"><ele>1107.0</ele><time>2026-05-02T08:11:02Z</time></trkpt><trkpt lat="43.813600467769135" lon="11.615657977820252"><ele>1107.0</ele><time>2026-05-02T08:11:03Z</time></trkpt><trkpt lat="43.81354626581028" lon="11.61574700314698"><ele>1105.1666666666667</ele><time>2026-05-02T08:11:04Z</time></trkpt><trkpt lat="43.81346617465158" lon="11.6158162662024"><ele>1103.3333333333333</ele><time>2026-05-02T08:11:05Z</time></trkpt><trkpt lat="43.81338251694614" lon="11.615838554692475"><ele>1101.5</ele><time>2026-05-02T08:11:06Z</time></trkpt><trkpt lat="43.81330664259816" lon="11.615832881754109"><ele>1099.6666666666665</ele><time>2026-05-02T08:11:07Z</time></trkpt><trkpt lat="43.81323765028631" lon="11.615795547671528"><ele>1097.8333333333333</ele><time>2026-05-02T08:11:08Z</time></trkpt><trkpt lat="43.813205807245055" lon="11.615686209050128"><ele>1096.0</ele><time>2026-05-02T08:11:09Z</time></trkpt><trkpt lat="43.8131527705607" lon="11.615612143031006"><ele>1096.0</ele><time>2026-05-02T08:11:10Z</time></trkpt><trkpt lat="43.813081956150526" lon="11.615597801220776"><ele>1096.0</ele><time>2026-05-02T08:11:11Z</time></trkpt><trkpt lat="43.812994168022996" lon="11.615559312567557"><ele>1096.0</ele><time>2026-05-02T08:11:12Z</time></trkpt><trkpt lat="43.81291435035732" lon="11.615566954742281"><ele>1096.0</ele><time>2026-05-02T08:11:13Z</time></trkpt><trkpt lat="43.81280918614201" lon="11.615614495997168"><ele>1096.0</ele><time>2026-05-02T08:11:15Z</time></trkpt><trkpt lat="43.81274206812504" lon="11.615678245932582"><ele>1096.0</ele><time>2026-05-02T08:11:16Z</time></trkpt><trkpt lat="43.81267097067604" lon="11.615698961772226"><ele>1092.2</ele><time>2026-05-02T08:11:17Z</time></trkpt><trkpt lat="43.81261058606072" lon="11.615670900470882"><ele>1088.3999999999999</ele><time>2026-05-02T08:11:18Z</time></trkpt><trkpt lat="43.81256504063165" lon="11.615589431130857"><ele>1084.6</ele><time>2026-05-02T08:11:20Z</time></trkpt><trkpt lat="43.8124637701773" lon="11.61543157014912"><ele>1080.8</ele><time>2026-05-02T08:11:22Z</time></trkpt><trkpt lat="43.81238301609566" lon="11.615284003809176"><ele>1077.0</ele><time>2026-05-02T08:11:23Z</time></trkpt><trkpt lat="43.81233078372236" lon="11.615171147841096"><ele>1074.8</ele><time>2026-05-02T08:11:24Z</time></trkpt><trkpt lat="43.81227187005257" lon="11.61509830795764"><ele>1072.6</ele><time>2026-05-02T08:11:25Z</time></trkpt><trkpt lat="43.812226074504494" lon="11.615006487059695"><ele>1070.3999999999999</ele><time>2026-05-02T08:11:26Z</time></trkpt><trkpt lat="43.81214983158283" lon="11.614887903774502"><ele>1068.2</ele><time>2026-05-02T08:11:27Z</time></trkpt><trkpt lat="43.812068654635425" lon="11.614794986778529"><ele>1066.0</ele><time>2026-05-02T08:11:28Z</time></trkpt><trkpt lat="43.81203292889304" lon="11.614700001950288"><ele>1066.0</ele><time>2026-05-02T08:11:29Z</time></trkpt><trkpt lat="43.812002852992904" lon="11.614608367344779"><ele>1066.0</ele><time>2026-05-02T08:11:30Z</time></trkpt><trkpt lat="43.811931201732605" lon="11.614524038587893"><ele>1066.0</ele><time>2026-05-02T08:11:32Z</time></trkpt><trkpt lat="43.8119180308305" lon="11.614336805644548"><ele>1066.0</ele><time>2026-05-02T08:11:34Z</time></trkpt><trkpt lat="43.81189671974862" lon="11.614164708886832"><ele>1066.0</ele><time>2026-05-02T08:11:36Z</time></trkpt><trkpt lat="43.81184773449531" lon="11.61401961618523"><ele>1063.6666666666665</ele><time>2026-05-02T08:11:41Z</time></trkpt><trkpt lat="43.81178710766536" lon="11.61393859932913"><ele>1061.3333333333333</ele><time>2026-05-02T08:11:42Z</time></trkpt><trkpt lat="43.81173193747266" lon="11.613881588118595"><ele>1059.0</ele><time>2026-05-02T08:11:43Z</time></trkpt><trkpt lat="43.81165961731441" lon="11.613788140919015"><ele>1056.6666666666667</ele><time>2026-05-02T08:11:45Z</time></trkpt><trkpt lat="43.8115593437831" lon="11.613726186166733"><ele>1054.3333333333335</ele><time>2026-05-02T08:11:47Z</time></trkpt><trkpt lat="43.81149756936387" lon="11.613701152348808"><ele>1052.0</ele><time>2026-05-02T08:11:48Z</time></trkpt><trkpt lat="43.81143546923061" lon="11.613649507192338"><ele>1051.2</ele><time>2026-05-02T08:11:49Z</time></trkpt><trkpt lat="43.81138253654383" lon="11.613550216748978"><ele>1050.4</ele><time>2026-05-02T08:11:50Z</time></trkpt><trkpt lat="43.81127935916587" lon="11.61343444654558"><ele>1049.6</ele><time>2026-05-02T08:11:51Z</time></trkpt><trkpt lat="43.811174237401666" lon="11.613350168135105"><ele>1048.8</ele><time>2026-05-02T08:11:52Z</time></trkpt><trkpt lat="43.81110994786675" lon="11.613321038342905"><ele>1048.0</ele><time>2026-05-02T08:11:53Z</time></trkpt><trkpt lat="43.811040679140596" lon="11.613240334814096"><ele>1048.0</ele><time>2026-05-02T08:11:55Z</time></trkpt><trkpt lat="43.81099822130143" lon="11.613157856756974"><ele>1048.0</ele><time>2026-05-02T08:11:56Z</time></trkpt><trkpt lat="43.81094723913201" lon="11.613062612432598"><ele>1048.0</ele><time>2026-05-02T08:11:57Z</time></trkpt><trkpt lat="43.810901270249" lon="11.612965648434239"><ele>1048.0</ele><time>2026-05-02T08:11:58Z</time></trkpt><trkpt lat="43.810847729137315" lon="11.612858667177722"><ele>1048.0</ele><time>2026-05-02T08:11:59Z</time></trkpt><trkpt lat="43.810818438531186" lon="11.61273708160908"><ele>1048.0</ele><time>2026-05-02T08:12:00Z</time></trkpt><trkpt lat="43.81079620368623" lon="11.612607479646577"><ele>1045.0</ele><time>2026-05-02T08:12:01Z</time></trkpt><trkpt lat="43.810755461726494" lon="11.612444958359559"><ele>1042.0</ele><time>2026-05-02T08:12:02Z</time></trkpt><trkpt lat="43.810715551761774" lon="11.612250833740548"><ele>1039.0</ele><time>2026-05-02T08:12:03Z</time></trkpt><trkpt lat="43.81069841358231" lon="11.612063741519735"><ele>1036.0</ele><time>2026-05-02T08:12:04Z</time></trkpt><trkpt lat="43.8107000108782" lon="11.611915020824206"><ele>1035.6666666666665</ele><time>2026-05-02T08:12:05Z</time></trkpt><trkpt lat="43.81066630623762" lon="11.611813064152953"><ele>1035.3333333333333</ele><time>2026-05-02T08:12:07Z</time></trkpt><trkpt lat="43.81065530468199" lon="11.611720102807736"><ele>1035.0</ele><time>2026-05-02T08:12:08Z</time></trkpt><trkpt lat="43.810630992966736" lon="11.611599007798779"><ele>1034.6666666666667</ele><time>2026-05-02T08:12:10Z</time></trkpt><trkpt lat="43.81055181219949" lon="11.611512464782459"><ele>1034.3333333333335</ele><time>2026-05-02T08:12:12Z</time></trkpt><trkpt lat="43.810482275678" lon="11.611484724255488"><ele>1034.0</ele><time>2026-05-02T08:12:13Z</time></trkpt><trkpt lat="43.810409133645535" lon="11.611481986589984"><ele>1034.0</ele><time>2026-05-02T08:12:15Z</time></trkpt><trkpt lat="43.81032986358369" lon="11.611464746760715"><ele>1034.0</ele><time>2026-05-02T08:12:17Z</time></trkpt><trkpt lat="43.81022810766524" lon="11.611418243554159"><ele>1034.0</ele><time>2026-05-02T08:12:19Z</time></trkpt><trkpt lat="43.81016417202364" lon="11.611381441187822"><ele>1034.0</ele><time>2026-05-02T08:12:21Z</time></trkpt><trkpt lat="43.81009382222773" lon="11.61142968064216"><ele>1034.0</ele><time>2026-05-02T08:12:24Z</time></trkpt><trkpt lat="43.81002834567575" lon="11.611432832850756"><ele>1034.0</ele><time>2026-05-02T08:12:26Z</time></trkpt><trkpt lat="43.80992979992126" lon="11.611461873165297"><ele>1030.3333333333335</ele><time>2026-05-02T08:12:28Z</time></trkpt><trkpt lat="43.80982404365714" lon="11.611484938400599"><ele>1026.6666666666667</ele><time>2026-05-02T08:12:30Z</time></trkpt><trkpt lat="43.80976007555449" lon="11.611491983262647"><ele>1023.0</ele><time>2026-05-02T08:12:31Z</time></trkpt><trkpt lat="43.80968585022889" lon="11.611528685237857"><ele>1019.3333333333333</ele><time>2026-05-02T08:12:33Z</time></trkpt><trkpt lat="43.809620602651464" lon="11.611518862523534"><ele>1015.6666666666666</ele><time>2026-05-02T08:12:36Z</time></trkpt><trkpt lat="43.80964178130968" lon="11.611406906240216"><ele>1012.0</ele><time>2026-05-02T08:13:43Z</time></trkpt><trkpt lat="43.809701287892445" lon="11.611249472544493"><ele>1011.9999999999999</ele><time>2026-05-02T08:14:03Z</time></trkpt><trkpt lat="43.80972239932939" lon="11.611114270967319"><ele>1012.0</ele><time>2026-05-02T08:14:04Z</time></trkpt><trkpt lat="43.80971599885372" lon="11.610980379130888"><ele>1012.0</ele><time>2026-05-02T08:14:05Z</time></trkpt><trkpt lat="43.80975532354961" lon="11.610904194223231"><ele>1012.0</ele><time>2026-05-02T08:14:06Z</time></trkpt><trkpt lat="43.80976121013693" lon="11.61080845178382"><ele>1011.9999999999999</ele><time>2026-05-02T08:14:07Z</time></trkpt><trkpt lat="43.80975295404346" lon="11.610660419116181"><ele>1012.0</ele><time>2026-05-02T08:14:08Z</time></trkpt><trkpt lat="43.80975244065172" lon="11.61054628048543"><ele>1011.9999999999999</ele><time>2026-05-02T08:14:09Z</time></trkpt><trkpt lat="43.809717967970286" lon="11.610446728618754"><ele>1012.0</ele><time>2026-05-02T08:14:10Z</time></trkpt><trkpt lat="43.80969750494127" lon="11.61030591631735"><ele>1012.0</ele><time>2026-05-02T08:14:11Z</time></trkpt><trkpt lat="43.80968235808098" lon="11.610182653618013"><ele>1012.0</ele><time>2026-05-02T08:14:12Z</time></trkpt><trkpt lat="43.809680755851076" lon="11.610044881162763"><ele>1011.9999999999999</ele><time>2026-05-02T08:14:13Z</time></trkpt><trkpt lat="43.80969633811581" lon="11.609951917562434"><ele>1012.0</ele><time>2026-05-02T08:14:14Z</time></trkpt><trkpt lat="43.809691012803285" lon="11.609854796483802"><ele>1010.5</ele><time>2026-05-02T08:14:15Z</time></trkpt><trkpt lat="43.80962451705731" lon="11.60974089131734"><ele>1009.0</ele><time>2026-05-02T08:14:16Z</time></trkpt><trkpt lat="43.80951971960783" lon="11.609633497444168"><ele>1007.5</ele><time>2026-05-02T08:14:17Z</time></trkpt><trkpt lat="43.80939938605168" lon="11.6095298588217"><ele>1006.0</ele><time>2026-05-02T08:14:18Z</time></trkpt><trkpt lat="43.80929690741789" lon="11.609436791033069"><ele>999.75</ele><time>2026-05-02T08:14:19Z</time></trkpt><trkpt lat="43.809199682947856" lon="11.60935528282146"><ele>993.5</ele><time>2026-05-02T08:14:20Z</time></trkpt><trkpt lat="43.809093969109604" lon="11.609275031168897"><ele>987.25</ele><time>2026-05-02T08:14:21Z</time></trkpt><trkpt lat="43.80895612875565" lon="11.609227771655291"><ele>981.0</ele><time>2026-05-02T08:14:22Z</time></trkpt><trkpt lat="43.8088338327513" lon="11.609187280989024"><ele>981.0</ele><time>2026-05-02T08:14:23Z</time></trkpt><trkpt lat="43.80872350539348" lon="11.609138355257395"><ele>981.0</ele><time>2026-05-02T08:14:24Z</time></trkpt><trkpt lat="43.80864194375477" lon="11.60902379416507"><ele>981.0</ele><time>2026-05-02T08:14:25Z</time></trkpt><trkpt lat="43.808558764549176" lon="11.60889805663969"><ele>981.0</ele><time>2026-05-02T08:14:26Z</time></trkpt><trkpt lat="43.80850161405574" lon="11.608750605889325"><ele>980.4</ele><time>2026-05-02T08:14:27Z</time></trkpt><trkpt lat="43.80841519683721" lon="11.60864036262241"><ele>979.8</ele><time>2026-05-02T08:14:28Z</time></trkpt><trkpt lat="43.80836735064991" lon="11.608573797282522"><ele>979.1999999999999</ele><time>2026-05-02T08:14:29Z</time></trkpt><trkpt lat="43.808292268768966" lon="11.60849883294852"><ele>978.5999999999999</ele><time>2026-05-02T08:14:30Z</time></trkpt><trkpt lat="43.808195377600796" lon="11.608402667176366"><ele>978.0</ele><time>2026-05-02T08:14:31Z</time></trkpt><trkpt lat="43.80816399293083" lon="11.60832204446696"><ele>978.0</ele><time>2026-05-02T08:14:32Z</time></trkpt><trkpt lat="43.80813352056508" lon="11.608207789049098"><ele>978.0</ele><time>2026-05-02T08:14:33Z</time></trkpt><trkpt lat="43.80811491315695" lon="11.608084398459372"><ele>978.0</ele><time>2026-05-02T08:14:34Z</time></trkpt><trkpt lat="43.80808708096027" lon="11.607988588435441"><ele>978.0</ele><time>2026-05-02T08:14:35Z</time></trkpt><trkpt lat="43.80800591652354" lon="11.607911564060421"><ele>978.0</ele><time>2026-05-02T08:14:36Z</time></trkpt><trkpt lat="43.8079257799767" lon="11.607936262106099"><ele>978.0</ele><time>2026-05-02T08:14:39Z</time></trkpt><trkpt lat="43.807962365827144" lon="11.608121411925435"><ele>978.0</ele><time>2026-05-02T08:14:41Z</time></trkpt><trkpt lat="43.808025473510156" lon="11.608188187432633"><ele>978.0</ele><time>2026-05-02T08:14:43Z</time></trkpt><trkpt lat="43.80807930395171" lon="11.60829605240118"><ele>978.0</ele><time>2026-05-02T08:14:45Z</time></trkpt><trkpt lat="43.80803926669552" lon="11.608391340684808"><ele>978.0</ele><time>2026-05-02T08:15:30.001Z</time></trkpt><trkpt lat="43.807975867948294" lon="11.608437381778689"><ele>978.0</ele><time>2026-05-02T08:15:31.001Z</time></trkpt><trkpt lat="43.80791258688555" lon="11.608525789781051"><ele>978.0</ele><time>2026-05-02T08:15:32.001Z</time></trkpt><trkpt lat="43.80784709733106" lon="11.608668699869618"><ele>978.0</ele><time>2026-05-02T08:15:33.001Z</time></trkpt><trkpt lat="43.8078109143194" lon="11.608769439186142"><ele>978.0</ele><time>2026-05-02T08:15:34.001Z</time></trkpt><trkpt lat="43.80769540719198" lon="11.608801782176945"><ele>978.0</ele><time>2026-05-02T08:15:36.001Z</time></trkpt><trkpt lat="43.80762070040684" lon="11.608773069507933"><ele>978.0</ele><time>2026-05-02T08:15:37.001Z</time></trkpt><trkpt lat="43.80752776453263" lon="11.608697007386592"><ele>978.0</ele><time>2026-05-02T08:15:38.001Z</time></trkpt><trkpt lat="43.80742439024823" lon="11.60862108882978"><ele>977.2</ele><time>2026-05-02T08:15:39Z</time></trkpt><trkpt lat="43.807321437616785" lon="11.60858019022175"><ele>976.4</ele><time>2026-05-02T08:15:40Z</time></trkpt><trkpt lat="43.80721978321699" lon="11.608555332537698"><ele>975.6000000000001</ele><time>2026-05-02T08:15:41Z</time></trkpt><trkpt lat="43.80711519032133" lon="11.60852511184068"><ele>974.8000000000001</ele><time>2026-05-02T08:15:42Z</time></trkpt><trkpt lat="43.80701397463873" lon="11.608475116300406"><ele>974.0</ele><time>2026-05-02T08:15:43Z</time></trkpt><trkpt lat="43.806909969435466" lon="11.608459643173857"><ele>971.5</ele><time>2026-05-02T08:15:44Z</time></trkpt><trkpt lat="43.806794328210884" lon="11.608476331264383"><ele>969.0</ele><time>2026-05-02T08:15:45Z</time></trkpt><trkpt lat="43.80667682029907" lon="11.608512862281188"><ele>966.5</ele><time>2026-05-02T08:15:46Z</time></trkpt><trkpt lat="43.806539954478254" lon="11.608555241216278"><ele>964.0</ele><time>2026-05-02T08:15:47Z</time></trkpt><trkpt lat="43.806402395792894" lon="11.608571242606512"><ele>964.0</ele><time>2026-05-02T08:15:48Z</time></trkpt><trkpt lat="43.806310024982515" lon="11.608575236988907"><ele>964.0000000000001</ele><time>2026-05-02T08:15:49Z</time></trkpt><trkpt lat="43.80623465025912" lon="11.608598930175003"><ele>964.0000000000001</ele><time>2026-05-02T08:15:50Z</time></trkpt><trkpt lat="43.80616519876874" lon="11.60870570833566"><ele>964.0</ele><time>2026-05-02T08:15:51Z</time></trkpt><trkpt lat="43.80609925193511" lon="11.608851382261916"><ele>964.0</ele><time>2026-05-02T08:15:52Z</time></trkpt><trkpt lat="43.806004363951025" lon="11.609005537380597"><ele>962.6</ele><time>2026-05-02T08:15:53Z</time></trkpt><trkpt lat="43.8059003742701" lon="11.609071723342252"><ele>961.2</ele><time>2026-05-02T08:15:54Z</time></trkpt><trkpt lat="43.80583057638397" lon="11.609178337516461"><ele>959.8000000000001</ele><time>2026-05-02T08:15:55Z</time></trkpt><trkpt lat="43.805732562675956" lon="11.60922691534055"><ele>958.4000000000001</ele><time>2026-05-02T08:15:56Z</time></trkpt><trkpt lat="43.80565502582172" lon="11.609250367399431"><ele>957.0</ele><time>2026-05-02T08:15:57Z</time></trkpt><trkpt lat="43.805556442681606" lon="11.609261915030368"><ele>957.0</ele><time>2026-05-02T08:15:58Z</time></trkpt><trkpt lat="43.805450456691695" lon="11.609270148837567"><ele>957.0</ele><time>2026-05-02T08:15:59Z</time></trkpt><trkpt lat="43.80536092410417" lon="11.609267425015993"><ele>957.0</ele><time>2026-05-02T08:16:00Z</time></trkpt><trkpt lat="43.80529023475572" lon="11.609299949705704"><ele>957.0</ele><time>2026-05-02T08:16:01Z</time></trkpt><trkpt lat="43.80518929888721" lon="11.609331619700294"><ele>957.0</ele><time>2026-05-02T08:16:02Z</time></trkpt><trkpt lat="43.80509650752203" lon="11.609391461208011"><ele>957.8</ele><time>2026-05-02T08:16:03Z</time></trkpt><trkpt lat="43.80503785459142" lon="11.609479424239211"><ele>958.6</ele><time>2026-05-02T08:16:04Z</time></trkpt><trkpt lat="43.804972444801784" lon="11.609572530918513"><ele>959.3999999999999</ele><time>2026-05-02T08:16:05Z</time></trkpt><trkpt lat="43.80490747676401" lon="11.609677054088973"><ele>960.1999999999999</ele><time>2026-05-02T08:16:06Z</time></trkpt><trkpt lat="43.80483702187249" lon="11.60980508987212"><ele>961.0</ele><time>2026-05-02T08:16:07Z</time></trkpt><trkpt lat="43.80475807335152" lon="11.609911271302472"><ele>954.75</ele><time>2026-05-02T08:16:08Z</time></trkpt><trkpt lat="43.804669233222164" lon="11.610033036390398"><ele>948.5</ele><time>2026-05-02T08:16:09Z</time></trkpt><trkpt lat="43.80459089573315" lon="11.610159114587967"><ele>942.25</ele><time>2026-05-02T08:16:10Z</time></trkpt><trkpt lat="43.804522880068454" lon="11.610280929801846"><ele>936.0</ele><time>2026-05-02T08:16:11Z</time></trkpt><trkpt lat="43.80444958251505" lon="11.610381283471018"><ele>932.0</ele><time>2026-05-02T08:16:12Z</time></trkpt><trkpt lat="43.80436082653286" lon="11.610511042663983"><ele>928.0</ele><time>2026-05-02T08:16:13Z</time></trkpt><trkpt lat="43.80428232569411" lon="11.610633059389336"><ele>924.0</ele><time>2026-05-02T08:16:14Z</time></trkpt><trkpt lat="43.80420056440488" lon="11.610743439805008"><ele>920.0</ele><time>2026-05-02T08:16:15Z</time></trkpt><trkpt lat="43.80411562700748" lon="11.610883524614382"><ele>920.0</ele><time>2026-05-02T08:16:16Z</time></trkpt><trkpt lat="43.80403114162929" lon="11.611022497869063"><ele>920.0</ele><time>2026-05-02T08:16:17Z</time></trkpt><trkpt lat="43.80395273055272" lon="11.611121179361442"><ele>920.0</ele><time>2026-05-02T08:16:18Z</time></trkpt><trkpt lat="43.80387052710684" lon="11.611216297266427"><ele>920.0</ele><time>2026-05-02T08:16:19Z</time></trkpt><trkpt lat="43.803789337948025" lon="11.611279620066949"><ele>920.0</ele><time>2026-05-02T08:16:20Z</time></trkpt><trkpt lat="43.80369611792182" lon="11.611328332841126"><ele>917.5</ele><time>2026-05-02T08:16:21Z</time></trkpt><trkpt lat="43.80359465035377" lon="11.611363503952857"><ele>915.0</ele><time>2026-05-02T08:16:22Z</time></trkpt><trkpt lat="43.8034601724154" lon="11.611416254525697"><ele>912.5</ele><time>2026-05-02T08:16:23Z</time></trkpt><trkpt lat="43.803314200555135" lon="11.61151166817255"><ele>910.0</ele><time>2026-05-02T08:16:24Z</time></trkpt><trkpt lat="43.803188341097844" lon="11.611597902006046"><ele>909.2</ele><time>2026-05-02T08:16:25Z</time></trkpt><trkpt lat="43.8030911835455" lon="11.611663595025878"><ele>908.4</ele><time>2026-05-02T08:16:26Z</time></trkpt><trkpt lat="43.803007877511185" lon="11.611723621387045"><ele>907.5999999999999</ele><time>2026-05-02T08:16:27Z</time></trkpt><trkpt lat="43.80295204102439" lon="11.61178017259802"><ele>906.8</ele><time>2026-05-02T08:16:28Z</time></trkpt><trkpt lat="43.802835590555986" lon="11.611881626672343"><ele>906.0</ele><time>2026-05-02T08:16:30Z</time></trkpt><trkpt lat="43.80274521135001" lon="11.611914884763229"><ele>903.4</ele><time>2026-05-02T08:16:31Z</time></trkpt><trkpt lat="43.802639372778295" lon="11.61191514611241"><ele>900.8</ele><time>2026-05-02T08:16:32Z</time></trkpt><trkpt lat="43.80254592646221" lon="11.611892300277463"><ele>898.1999999999999</ele><time>2026-05-02T08:16:33Z</time></trkpt><trkpt lat="43.802452973152334" lon="11.611832634664626"><ele>895.5999999999999</ele><time>2026-05-02T08:16:34Z</time></trkpt><trkpt lat="43.80237020596353" lon="11.611763263089516"><ele>893.0</ele><time>2026-05-02T08:16:35Z</time></trkpt><trkpt lat="43.802290071853115" lon="11.61169320543294"><ele>893.0</ele><time>2026-05-02T08:16:36Z</time></trkpt><trkpt lat="43.80223256119811" lon="11.611635159317482"><ele>893.0</ele><time>2026-05-02T08:16:37Z</time></trkpt><trkpt lat="43.802198645268525" lon="11.611517918513792"><ele>893.0</ele><time>2026-05-02T08:16:39Z</time></trkpt><trkpt lat="43.80220754003587" lon="11.61142364466011"><ele>893.0</ele><time>2026-05-02T08:16:40Z</time></trkpt><trkpt lat="43.802156947313335" lon="11.611245832952251"><ele>893.0</ele><time>2026-05-02T08:16:42Z</time></trkpt><trkpt lat="43.80211623097938" lon="11.611125396591659"><ele>893.6666666666667</ele><time>2026-05-02T08:16:43Z</time></trkpt><trkpt lat="43.80208855877331" lon="11.611017276217867"><ele>894.3333333333334</ele><time>2026-05-02T08:16:44Z</time></trkpt><trkpt lat="43.80202379973912" lon="11.610972497218167"><ele>895.0</ele><time>2026-05-02T08:16:46Z</time></trkpt><trkpt lat="43.80196643808121" lon="11.61092591206285"><ele>895.6666666666667</ele><time>2026-05-02T08:16:48Z</time></trkpt><trkpt lat="43.80189885032449" lon="11.610877983572598"><ele>896.3333333333334</ele><time>2026-05-02T08:16:50Z</time></trkpt><trkpt lat="43.801828924934" lon="11.610821910255137"><ele>897.0</ele><time>2026-05-02T08:16:52Z</time></trkpt><trkpt lat="43.8017361315343" lon="11.610778137662209"><ele>897.0</ele><time>2026-05-02T08:16:54Z</time></trkpt><trkpt lat="43.801669773995435" lon="11.610746678410711"><ele>897.0</ele><time>2026-05-02T08:16:55Z</time></trkpt><trkpt lat="43.801586478421854" lon="11.610702456012431"><ele>897.0</ele><time>2026-05-02T08:16:56Z</time></trkpt><trkpt lat="43.80149333992341" lon="11.610657387696106"><ele>897.0</ele><time>2026-05-02T08:16:57Z</time></trkpt><trkpt lat="43.801395744644054" lon="11.610615051199543"><ele>897.0</ele><time>2026-05-02T08:16:58Z</time></trkpt><trkpt lat="43.80133838868862" lon="11.610528473932835"><ele>897.0</ele><time>2026-05-02T08:16:59Z</time></trkpt><trkpt lat="43.801246520268414" lon="11.610405349737235"><ele>896.2</ele><time>2026-05-02T08:17:00Z</time></trkpt><trkpt lat="43.80114556140095" lon="11.610276244919072"><ele>895.4000000000001</ele><time>2026-05-02T08:17:01Z</time></trkpt><trkpt lat="43.80107729461115" lon="11.61015751520415"><ele>894.5999999999999</ele><time>2026-05-02T08:17:02Z</time></trkpt><trkpt lat="43.80103237079576" lon="11.610034796459635"><ele>893.8</ele><time>2026-05-02T08:17:03Z</time></trkpt><trkpt lat="43.80098383764129" lon="11.609945419920766"><ele>893.0</ele><time>2026-05-02T08:17:04Z</time></trkpt><trkpt lat="43.800933775783086" lon="11.609875092335269"><ele>893.0</ele><time>2026-05-02T08:17:05Z</time></trkpt><trkpt lat="43.80093038643759" lon="11.609764761175745"><ele>893.0</ele><time>2026-05-02T08:17:06Z</time></trkpt><trkpt lat="43.80084434726876" lon="11.609629618485652"><ele>893.0</ele><time>2026-05-02T08:17:08Z</time></trkpt><trkpt lat="43.8007941930215" lon="11.609556047779725"><ele>893.0</ele><time>2026-05-02T08:17:09Z</time></trkpt><trkpt lat="43.80073504856204" lon="11.609477268425927"><ele>893.0</ele><time>2026-05-02T08:17:10Z</time></trkpt><trkpt lat="43.80065504629484" lon="11.609393415620652"><ele>894.75</ele><time>2026-05-02T08:17:11Z</time></trkpt><trkpt lat="43.80054733367275" lon="11.609311898359806"><ele>896.5</ele><time>2026-05-02T08:17:12Z</time></trkpt><trkpt lat="43.80041069446363" lon="11.60924179381526"><ele>898.25</ele><time>2026-05-02T08:17:13Z</time></trkpt><trkpt lat="43.80025623516748" lon="11.609189520471269"><ele>900.0</ele><time>2026-05-02T08:17:14Z</time></trkpt><trkpt lat="43.80011639589266" lon="11.60914558416594"><ele>900.0</ele><time>2026-05-02T08:17:15Z</time></trkpt><trkpt lat="43.799991212969374" lon="11.609106034671276"><ele>900.0</ele><time>2026-05-02T08:17:16Z</time></trkpt><trkpt lat="43.79982004652683" lon="11.609047839748019"><ele>900.0</ele><time>2026-05-02T08:17:17Z</time></trkpt><trkpt lat="43.79964148497962" lon="11.609003945513754"><ele>900.0</ele><time>2026-05-02T08:17:18Z</time></trkpt><trkpt lat="43.799521955265654" lon="11.608991406924615"><ele>900.0</ele><time>2026-05-02T08:17:19Z</time></trkpt><trkpt lat="43.799439095343196" lon="11.609000559164345"><ele>900.0</ele><time>2026-05-02T08:17:20Z</time></trkpt><trkpt lat="43.79936402879938" lon="11.60901488196526"><ele>900.0</ele><time>2026-05-02T08:17:21Z</time></trkpt><trkpt lat="43.79928332440232" lon="11.609029699625287"><ele>900.0</ele><time>2026-05-02T08:17:22Z</time></trkpt><trkpt lat="43.79921077371777" lon="11.60904423843762"><ele>900.0</ele><time>2026-05-02T08:17:23Z</time></trkpt><trkpt lat="43.79915063512369" lon="11.609109631901893"><ele>900.1666666666666</ele><time>2026-05-02T08:17:24Z</time></trkpt><trkpt lat="43.79908806108736" lon="11.609123496015092"><ele>900.3333333333333</ele><time>2026-05-02T08:17:25Z</time></trkpt><trkpt lat="43.79897191601517" lon="11.609155208630265"><ele>900.5</ele><time>2026-05-02T08:17:27Z</time></trkpt><trkpt lat="43.79886365911057" lon="11.60917405216105"><ele>900.6666666666666</ele><time>2026-05-02T08:17:29Z</time></trkpt><trkpt lat="43.798794703161136" lon="11.609174665488007"><ele>900.8333333333333</ele><time>2026-05-02T08:17:31Z</time></trkpt><trkpt lat="43.79873165713883" lon="11.609202888195783"><ele>901.0</ele><time>2026-05-02T08:18:30Z</time></trkpt><trkpt lat="43.798649346538426" lon="11.6092298173891"><ele>901.0</ele><time>2026-05-02T08:18:31Z</time></trkpt><trkpt lat="43.79855204364271" lon="11.609257108350002"><ele>901.0</ele><time>2026-05-02T08:18:32Z</time></trkpt><trkpt lat="43.798429807577946" lon="11.60919080482257"><ele>901.0</ele><time>2026-05-02T08:18:33Z</time></trkpt><trkpt lat="43.798315347261344" lon="11.609212489346497"><ele>901.0</ele><time>2026-05-02T08:18:34Z</time></trkpt><trkpt lat="43.798185979464385" lon="11.609243066441612"><ele>901.5999999999999</ele><time>2026-05-02T08:18:35Z</time></trkpt><trkpt lat="43.79810504905517" lon="11.609262332490719"><ele>902.1999999999999</ele><time>2026-05-02T08:18:36Z</time></trkpt><trkpt lat="43.79802901336903" lon="11.609280511886638"><ele>902.8000000000001</ele><time>2026-05-02T08:18:37Z</time></trkpt><trkpt lat="43.79795386079458" lon="11.609298564639502"><ele>903.4000000000001</ele><time>2026-05-02T08:18:39Z</time></trkpt><trkpt lat="43.79789130574218" lon="11.609130814751802"><ele>904.0</ele><time>2026-05-02T08:18:42Z</time></trkpt><trkpt lat="43.79783629530482" lon="11.609010776106107"><ele>904.0</ele><time>2026-05-02T08:18:43Z</time></trkpt><trkpt lat="43.797759373218675" lon="11.608888008851393"><ele>904.0000000000001</ele><time>2026-05-02T08:18:44Z</time></trkpt><trkpt lat="43.79770413903736" lon="11.608809644144072"><ele>904.0000000000001</ele><time>2026-05-02T08:18:45Z</time></trkpt><trkpt lat="43.797695284774974" lon="11.608717184472887"><ele>904.0</ele><time>2026-05-02T08:18:46Z</time></trkpt><trkpt lat="43.797612945621" lon="11.608693038196208"><ele>904.0</ele><time>2026-05-02T08:18:47Z</time></trkpt><trkpt lat="43.79777891109147" lon="11.60853350595889"><ele>905.8333333333333</ele><time>2026-05-02T08:18:48Z</time></trkpt><trkpt lat="43.797849117521395" lon="11.6084787501862"><ele>907.6666666666666</ele><time>2026-05-02T08:18:49Z</time></trkpt><trkpt lat="43.797918233485134" lon="11.608395097385607"><ele>909.5</ele><time>2026-05-02T08:18:50Z</time></trkpt><trkpt lat="43.797959900752424" lon="11.608304382375577"><ele>911.3333333333333</ele><time>2026-05-02T08:18:51Z</time></trkpt><trkpt lat="43.79802134417572" lon="11.608234994007738"><ele>913.1666666666666</ele><time>2026-05-02T08:18:52Z</time></trkpt><trkpt lat="43.798078786540295" lon="11.608189045289436"><ele>915.0</ele><time>2026-05-02T08:18:53Z</time></trkpt><trkpt lat="43.79814071424814" lon="11.608033449971108"><ele>915.0</ele><time>2026-05-02T08:18:55Z</time></trkpt><trkpt lat="43.798189609680584" lon="11.607966662584085"><ele>915.0</ele><time>2026-05-02T08:18:56Z</time></trkpt><trkpt lat="43.798236292057574" lon="11.607890265429258"><ele>915.0</ele><time>2026-05-02T08:18:57Z</time></trkpt><trkpt lat="43.798280253963966" lon="11.607815024506063"><ele>915.0</ele><time>2026-05-02T08:18:58Z</time></trkpt><trkpt lat="43.798338214704565" lon="11.607739330942156"><ele>915.0</ele><time>2026-05-02T08:18:59Z</time></trkpt><trkpt lat="43.79839784883253" lon="11.607645820172701"><ele>915.0</ele><time>2026-05-02T08:19:00Z</time></trkpt><trkpt lat="43.79844849902194" lon="11.607565491951398"><ele>916.6666666666666</ele><time>2026-05-02T08:19:01Z</time></trkpt><trkpt lat="43.79847952838657" lon="11.607486495803778"><ele>918.3333333333333</ele><time>2026-05-02T08:19:02Z</time></trkpt><trkpt lat="43.79854206869334" lon="11.607424194902762"><ele>920.0</ele><time>2026-05-02T08:19:04Z</time></trkpt><trkpt lat="43.79861512909849" lon="11.607419469084496"><ele>921.6666666666666</ele><time>2026-05-02T08:19:06Z</time></trkpt><trkpt lat="43.798684631979405" lon="11.607375266968166"><ele>923.3333333333333</ele><time>2026-05-02T08:19:07Z</time></trkpt><trkpt lat="43.79871925378213" lon="11.607211903099843"><ele>925.0</ele><time>2026-05-02T08:19:09Z</time></trkpt><trkpt lat="43.798748781262056" lon="11.60713482805443"><ele>925.0</ele><time>2026-05-02T08:19:10Z</time></trkpt><trkpt lat="43.79879918595429" lon="11.607048352610722"><ele>925.0</ele><time>2026-05-02T08:19:11Z</time></trkpt><trkpt lat="43.798834302908595" lon="11.606966827982795"><ele>925.0</ele><time>2026-05-02T08:19:12Z</time></trkpt><trkpt lat="43.798871394973105" lon="11.606847505311615"><ele>925.0</ele><time>2026-05-02T08:19:14Z</time></trkpt><trkpt lat="43.79883073553324" lon="11.606681669657078"><ele>925.0</ele><time>2026-05-02T08:19:16Z</time></trkpt><trkpt lat="43.79880028793479" lon="11.606568402429795"><ele>928.4999999999999</ele><time>2026-05-02T08:19:17Z</time></trkpt><trkpt lat="43.79875811082365" lon="11.606503110194115"><ele>932.0</ele><time>2026-05-02T08:19:18Z</time></trkpt><trkpt lat="43.79869174497188" lon="11.606435681560187"><ele>935.5</ele><time>2026-05-02T08:19:19Z</time></trkpt><trkpt lat="43.79866352317552" lon="11.606337478122631"><ele>939.0</ele><time>2026-05-02T08:19:20Z</time></trkpt><trkpt lat="43.79864068823412" lon="11.60621460316116"><ele>942.4999999999999</ele><time>2026-05-02T08:19:21Z</time></trkpt><trkpt lat="43.79861279569389" lon="11.606111887816247"><ele>946.0</ele><time>2026-05-02T08:19:22Z</time></trkpt><trkpt lat="43.798574602866296" lon="11.606028687666697"><ele>947.1666666666666</ele><time>2026-05-02T08:19:23Z</time></trkpt><trkpt lat="43.79855751569076" lon="11.605938378243678"><ele>948.3333333333333</ele><time>2026-05-02T08:19:24Z</time></trkpt><trkpt lat="43.798530159805864" lon="11.605840432999441"><ele>949.5</ele><time>2026-05-02T08:19:25Z</time></trkpt><trkpt lat="43.7984586616237" lon="11.605752623340118"><ele>950.6666666666667</ele><time>2026-05-02T08:19:26Z</time></trkpt><trkpt lat="43.798396763472454" lon="11.605682235036518"><ele>951.8333333333334</ele><time>2026-05-02T08:19:27Z</time></trkpt><trkpt lat="43.79832884375907" lon="11.60564604703372"><ele>953.0</ele><time>2026-05-02T08:19:28Z</time></trkpt><trkpt lat="43.79823270152828" lon="11.605654377761525"><ele>953.0</ele><time>2026-05-02T08:19:30Z</time></trkpt><trkpt lat="43.798128293214944" lon="11.605605925130265"><ele>953.0</ele><time>2026-05-02T08:19:32Z</time></trkpt><trkpt lat="43.79805766822836" lon="11.605532516177455"><ele>953.0</ele><time>2026-05-02T08:19:35Z</time></trkpt><trkpt lat="43.79799347132683" lon="11.605477088000754"><ele>953.0</ele><time>2026-05-02T08:19:37Z</time></trkpt><trkpt lat="43.79793779681507" lon="11.60542365894872"><ele>953.0</ele><time>2026-05-02T08:19:39Z</time></trkpt><trkpt lat="43.79797166548423" lon="11.605260261809807"><ele>956.2</ele><time>2026-05-02T08:19:41Z</time></trkpt><trkpt lat="43.79791992682134" lon="11.60514505930882"><ele>959.4</ele><time>2026-05-02T08:19:43Z</time></trkpt><trkpt lat="43.797866226087464" lon="11.605040883584378"><ele>962.6000000000001</ele><time>2026-05-02T08:19:45Z</time></trkpt><trkpt lat="43.79783976133226" lon="11.60493555261935"><ele>965.8000000000001</ele><time>2026-05-02T08:19:46Z</time></trkpt><trkpt lat="43.797805076721644" lon="11.604848352557408"><ele>969.0</ele><time>2026-05-02T08:19:47Z</time></trkpt><trkpt lat="43.79779685932037" lon="11.604674980842697"><ele>969.0</ele><time>2026-05-02T08:19:49Z</time></trkpt><trkpt lat="43.79781429349995" lon="11.604564080303929"><ele>969.0000000000001</ele><time>2026-05-02T08:19:50Z</time></trkpt><trkpt lat="43.79783103923323" lon="11.604468336492744"><ele>969.0000000000001</ele><time>2026-05-02T08:19:51Z</time></trkpt><trkpt lat="43.79785129694034" lon="11.604321426292188"><ele>969.0</ele><time>2026-05-02T08:19:53Z</time></trkpt><trkpt lat="43.79782266381528" lon="11.604211806586271"><ele>969.0</ele><time>2026-05-02T08:19:55Z</time></trkpt><trkpt lat="43.79774655560711" lon="11.604023477073891"><ele>971.4000000000001</ele><time>2026-05-02T08:19:57Z</time></trkpt><trkpt lat="43.79769480518617" lon="11.60389748663205"><ele>973.8000000000001</ele><time>2026-05-02T08:19:58Z</time></trkpt><trkpt lat="43.797654744165406" lon="11.60381064154553"><ele>976.1999999999999</ele><time>2026-05-02T08:19:59Z</time></trkpt><trkpt lat="43.7976157680612" lon="11.603699813422368"><ele>978.5999999999999</ele><time>2026-05-02T08:20:00Z</time></trkpt><trkpt lat="43.79759555167085" lon="11.60357531157571"><ele>981.0</ele><time>2026-05-02T08:20:01Z</time></trkpt><trkpt lat="43.79751837532961" lon="11.603476867010254"><ele>981.4</ele><time>2026-05-02T08:20:03Z</time></trkpt><trkpt lat="43.79743139397783" lon="11.603391392336745"><ele>981.8</ele><time>2026-05-02T08:20:05Z</time></trkpt><trkpt lat="43.797364669001674" lon="11.603389221391705"><ele>982.1999999999999</ele><time>2026-05-02T08:20:35Z</time></trkpt><trkpt lat="43.79726338994225" lon="11.603433876577085"><ele>982.5999999999999</ele><time>2026-05-02T08:21:13Z</time></trkpt><trkpt lat="43.79716504989158" lon="11.6034803171884"><ele>983.0</ele><time>2026-05-02T08:21:14Z</time></trkpt><trkpt lat="43.797083350174496" lon="11.60350196235264"><ele>983.0</ele><time>2026-05-02T08:21:15Z</time></trkpt><trkpt lat="43.796978572054954" lon="11.603573916442995"><ele>983.0</ele><time>2026-05-02T08:21:16.999Z</time></trkpt><trkpt lat="43.79689159384506" lon="11.603627582113424"><ele>983.0</ele><time>2026-05-02T08:21:19Z</time></trkpt><trkpt lat="43.79681106646501" lon="11.603664871481765"><ele>983.0</ele><time>2026-05-02T08:21:20.999Z</time></trkpt><trkpt lat="43.79670982414121" lon="11.603747881097842"><ele>983.0</ele><time>2026-05-02T08:21:22.999Z</time></trkpt><trkpt lat="43.796659603112865" lon="11.603815348617088"><ele>984.3333333333334</ele><time>2026-05-02T08:21:23.999Z</time></trkpt><trkpt lat="43.79661552404529" lon="11.603889337381228"><ele>985.6666666666667</ele><time>2026-05-02T08:21:24.999Z</time></trkpt><trkpt lat="43.796521308175386" lon="11.603989483232587"><ele>987.0</ele><time>2026-05-02T08:21:26.999Z</time></trkpt><trkpt lat="43.79645754800721" lon="11.604046196934446"><ele>988.3333333333333</ele><time>2026-05-02T08:21:27.999Z</time></trkpt><trkpt lat="43.796393659641495" lon="11.60413076341105"><ele>989.6666666666666</ele><time>2026-05-02T08:21:28.999Z</time></trkpt><trkpt lat="43.796330833436706" lon="11.60419773444471"><ele>991.0</ele><time>2026-05-02T08:21:29.999Z</time></trkpt><trkpt lat="43.79626039641917" lon="11.604242471761527"><ele>991.0000000000001</ele><time>2026-05-02T08:21:30.999Z</time></trkpt><trkpt lat="43.7961915954661" lon="11.604266372534978"><ele>991.0</ele><time>2026-05-02T08:21:31.999Z</time></trkpt><trkpt lat="43.796127262921416" lon="11.604255454331728"><ele>991.0000000000001</ele><time>2026-05-02T08:21:32.999Z</time></trkpt><trkpt lat="43.79605799244846" lon="11.604197829591335"><ele>991.0000000000001</ele><time>2026-05-02T08:21:33.999Z</time></trkpt><trkpt lat="43.796000789609515" lon="11.604114519667162"><ele>991.0</ele><time>2026-05-02T08:21:34.999Z</time></trkpt><trkpt lat="43.79595508341079" lon="11.604051837274893"><ele>991.0000000000001</ele><time>2026-05-02T08:21:35.999Z</time></trkpt><trkpt lat="43.79590006958635" lon="11.604007593115824"><ele>991.0000000000001</ele><time>2026-05-02T08:21:36.999Z</time></trkpt><trkpt lat="43.79582525779213" lon="11.603903335169454"><ele>991.3333333333333</ele><time>2026-05-02T08:21:38.999Z</time></trkpt><trkpt lat="43.7957765655855" lon="11.603835826125712"><ele>991.6666666666666</ele><time>2026-05-02T08:21:39.999Z</time></trkpt><trkpt lat="43.795707455685466" lon="11.603759329155126"><ele>992.0</ele><time>2026-05-02T08:21:40.999Z</time></trkpt><trkpt lat="43.79563396380479" lon="11.60370492719972"><ele>992.3333333333333</ele><time>2026-05-02T08:21:41.999Z</time></trkpt><trkpt lat="43.79556490236879" lon="11.603628480073754"><ele>992.6666666666666</ele><time>2026-05-02T08:21:42.999Z</time></trkpt><trkpt lat="43.795494479718464" lon="11.603545367124974"><ele>993.0</ele><time>2026-05-02T08:21:43.999Z</time></trkpt><trkpt lat="43.79542514105427" lon="11.603460844988689"><ele>993.0</ele><time>2026-05-02T08:21:44.999Z</time></trkpt><trkpt lat="43.79535689067224" lon="11.603400521834802"><ele>993.0</ele><time>2026-05-02T08:21:45.999Z</time></trkpt><trkpt lat="43.79529929093137" lon="11.603361749450876"><ele>993.0</ele><time>2026-05-02T08:21:47Z</time></trkpt><trkpt lat="43.79524493475356" lon="11.6033132341325"><ele>993.0</ele><time>2026-05-02T08:21:48Z</time></trkpt><trkpt lat="43.79517566819736" lon="11.603267655513934"><ele>993.0</ele><time>2026-05-02T08:21:49Z</time></trkpt><trkpt lat="43.79508360318173" lon="11.60325815464985"><ele>993.0</ele><time>2026-05-02T08:21:50Z</time></trkpt><trkpt lat="43.794998059814446" lon="11.603263461557583"><ele>994.3333333333334</ele><time>2026-05-02T08:21:51Z</time></trkpt><trkpt lat="43.79492029117707" lon="11.603255300946708"><ele>995.6666666666667</ele><time>2026-05-02T08:21:52Z</time></trkpt><trkpt lat="43.79484616209784" lon="11.603213747505443"><ele>997.0</ele><time>2026-05-02T08:21:53Z</time></trkpt><trkpt lat="43.79477373361484" lon="11.603144278768688"><ele>998.3333333333334</ele><time>2026-05-02T08:21:54Z</time></trkpt><trkpt lat="43.79469424225929" lon="11.60306275831043"><ele>999.6666666666667</ele><time>2026-05-02T08:21:55Z</time></trkpt><trkpt lat="43.79461803450208" lon="11.602995890229524"><ele>1001.0</ele><time>2026-05-02T08:21:56Z</time></trkpt><trkpt lat="43.79454010384792" lon="11.602946344359614"><ele>1001.0000000000001</ele><time>2026-05-02T08:21:57Z</time></trkpt><trkpt lat="43.79446318298744" lon="11.602889530978054"><ele>1001.0</ele><time>2026-05-02T08:21:58Z</time></trkpt><trkpt lat="43.7943993048654" lon="11.602843882861997"><ele>1001.0</ele><time>2026-05-02T08:21:59Z</time></trkpt><trkpt lat="43.794329318453734" lon="11.60280578238728"><ele>1001.0</ele><time>2026-05-02T08:22:00Z</time></trkpt><trkpt lat="43.79424147589821" lon="11.602765597239896"><ele>1001.0000000000001</ele><time>2026-05-02T08:22:01Z</time></trkpt><trkpt lat="43.79415805089674" lon="11.602704570826914"><ele>1001.0</ele><time>2026-05-02T08:22:02Z</time></trkpt><trkpt lat="43.79409675267093" lon="11.602643885560104"><ele>1004.5000000000001</ele><time>2026-05-02T08:22:03Z</time></trkpt><trkpt lat="43.79403367882474" lon="11.60260339362973"><ele>1008.0</ele><time>2026-05-02T08:22:04Z</time></trkpt><trkpt lat="43.7939517871459" lon="11.602547206102603"><ele>1011.5</ele><time>2026-05-02T08:22:05Z</time></trkpt><trkpt lat="43.79385490834294" lon="11.602523750646872"><ele>1015.0</ele><time>2026-05-02T08:22:06Z</time></trkpt><trkpt lat="43.793786625641786" lon="11.602469913702835"><ele>1018.5000000000001</ele><time>2026-05-02T08:22:07Z</time></trkpt><trkpt lat="43.793719871598945" lon="11.602422394315685"><ele>1022.0</ele><time>2026-05-02T08:22:08Z</time></trkpt><trkpt lat="43.79360886784875" lon="11.602383245769632"><ele>1026.6666666666667</ele><time>2026-05-02T08:22:10Z</time></trkpt><trkpt lat="43.793495710696696" lon="11.602383425404994"><ele>1031.3333333333335</ele><time>2026-05-02T08:22:12Z</time></trkpt><trkpt lat="43.79342517021518" lon="11.60238786041964"><ele>1036.0</ele><time>2026-05-02T08:22:13Z</time></trkpt><trkpt lat="43.793320426526115" lon="11.602346830123897"><ele>1040.6666666666667</ele><time>2026-05-02T08:22:15Z</time></trkpt><trkpt lat="43.79325407284056" lon="11.602342175364356"><ele>1045.3333333333333</ele><time>2026-05-02T08:22:16Z</time></trkpt><trkpt lat="43.79319005017532" lon="11.602326804826932"><ele>1050.0</ele><time>2026-05-02T08:22:17Z</time></trkpt><trkpt lat="43.79312148486939" lon="11.602327764796382"><ele>1050.0</ele><time>2026-05-02T08:22:18Z</time></trkpt><trkpt lat="43.79304699514707" lon="11.602355511834569"><ele>1050.0</ele><time>2026-05-02T08:22:19Z</time></trkpt><trkpt lat="43.792915934082934" lon="11.60236212624612"><ele>1050.0</ele><time>2026-05-02T08:22:21Z</time></trkpt><trkpt lat="43.792840928500866" lon="11.602374103562513"><ele>1050.0</ele><time>2026-05-02T08:22:23Z</time></trkpt><trkpt lat="43.792746720236146" lon="11.602346035476277"><ele>1050.0</ele><time>2026-05-02T08:22:25Z</time></trkpt><trkpt lat="43.79262845008386" lon="11.602343334173744"><ele>1053.5</ele><time>2026-05-02T08:22:27Z</time></trkpt><trkpt lat="43.79253313924717" lon="11.602339190803944"><ele>1057.0</ele><time>2026-05-02T08:22:29Z</time></trkpt><trkpt lat="43.792428449565485" lon="11.602334183360696"><ele>1060.5</ele><time>2026-05-02T08:22:42Z</time></trkpt><trkpt lat="43.79231861565629" lon="11.602328239158332"><ele>1064.0</ele><time>2026-05-02T08:22:43Z</time></trkpt><trkpt lat="43.79217099699989" lon="11.60232934957854"><ele>1064.0</ele><time>2026-05-02T08:22:44Z</time></trkpt><trkpt lat="43.792024856477575" lon="11.60230256392641"><ele>1064.0</ele><time>2026-05-02T08:22:45Z</time></trkpt><trkpt lat="43.79190323947194" lon="11.602293290709664"><ele>1064.0</ele><time>2026-05-02T08:22:46Z</time></trkpt><trkpt lat="43.791799113220506" lon="11.60229017816433"><ele>1064.0</ele><time>2026-05-02T08:22:47Z</time></trkpt><trkpt lat="43.791675599385464" lon="11.60227532584393"><ele>1066.25</ele><time>2026-05-02T08:22:48Z</time></trkpt><trkpt lat="43.791575198731906" lon="11.602264847880553"><ele>1068.5</ele><time>2026-05-02T08:22:49Z</time></trkpt><trkpt lat="43.79148186909015" lon="11.602240517072325"><ele>1070.75</ele><time>2026-05-02T08:22:50Z</time></trkpt><trkpt lat="43.791355300472176" lon="11.602224145766836"><ele>1073.0</ele><time>2026-05-02T08:22:51Z</time></trkpt><trkpt lat="43.79120730254621" lon="11.602218105776345"><ele>1073.0</ele><time>2026-05-02T08:22:52Z</time></trkpt><trkpt lat="43.79107277577251" lon="11.602224426029876"><ele>1073.0</ele><time>2026-05-02T08:22:53Z</time></trkpt><trkpt lat="43.79094282132281" lon="11.602266811504395"><ele>1073.0</ele><time>2026-05-02T08:22:54Z</time></trkpt><trkpt lat="43.79080478847863" lon="11.602350795101726"><ele>1073.0</ele><time>2026-05-02T08:22:55Z</time></trkpt><trkpt lat="43.79067061982166" lon="11.602455955222245"><ele>1072.6</ele><time>2026-05-02T08:22:56Z</time></trkpt><trkpt lat="43.790565069507544" lon="11.602548869482215"><ele>1072.1999999999998</ele><time>2026-05-02T08:22:57Z</time></trkpt><trkpt lat="43.790489714351295" lon="11.60265950238165"><ele>1071.8</ele><time>2026-05-02T08:22:58Z</time></trkpt><trkpt lat="43.790444400129985" lon="11.602724113735635"><ele>1071.3999999999999</ele><time>2026-05-02T08:22:59Z</time></trkpt><trkpt lat="43.79037007665987" lon="11.602778432767227"><ele>1071.0</ele><time>2026-05-02T08:23:02Z</time></trkpt><trkpt lat="43.790268254985186" lon="11.602912861373845"><ele>1071.0</ele><time>2026-05-02T08:23:04Z</time></trkpt><trkpt lat="43.790222055116054" lon="11.603035220333526"><ele>1071.0</ele><time>2026-05-02T08:23:05Z</time></trkpt><trkpt lat="43.790127073016954" lon="11.60318843437365"><ele>1071.0</ele><time>2026-05-02T08:23:06Z</time></trkpt><trkpt lat="43.78999837785162" lon="11.603316871314265"><ele>1071.0</ele><time>2026-05-02T08:23:07Z</time></trkpt><trkpt lat="43.78986150518892" lon="11.603420863459212"><ele>1072.3999999999999</ele><time>2026-05-02T08:23:08Z</time></trkpt><trkpt lat="43.789749033000135" lon="11.603486700456498"><ele>1073.8</ele><time>2026-05-02T08:23:08.999Z</time></trkpt><trkpt lat="43.78967830589891" lon="11.603535139328514"><ele>1075.1999999999998</ele><time>2026-05-02T08:23:09.999Z</time></trkpt><trkpt lat="43.789599955829814" lon="11.603558878252445"><ele>1076.6</ele><time>2026-05-02T08:23:11.999Z</time></trkpt><trkpt lat="43.78948646303213" lon="11.603640319651893"><ele>1078.0</ele><time>2026-05-02T08:23:13.999Z</time></trkpt><trkpt lat="43.78936777805497" lon="11.603703776038193"><ele>1078.4</ele><time>2026-05-02T08:23:15.999Z</time></trkpt><trkpt lat="43.78926454573793" lon="11.603779460242611"><ele>1078.8</ele><time>2026-05-02T08:23:16.999Z</time></trkpt><trkpt lat="43.78916603278689" lon="11.60386993592494"><ele>1079.2</ele><time>2026-05-02T08:23:17.999Z</time></trkpt><trkpt lat="43.78906792216549" lon="11.603923662516008"><ele>1079.6</ele><time>2026-05-02T08:23:18.999Z</time></trkpt><trkpt lat="43.78897739960801" lon="11.603960616520416"><ele>1080.0</ele><time>2026-05-02T08:23:19.999Z</time></trkpt><trkpt lat="43.78887770434965" lon="11.603963201017192"><ele>1080.0</ele><time>2026-05-02T08:23:20.999Z</time></trkpt><trkpt lat="43.788743256241375" lon="11.603923524998216"><ele>1080.0</ele><time>2026-05-02T08:23:21.999Z</time></trkpt><trkpt lat="43.78859393298789" lon="11.603873721195509"><ele>1080.0</ele><time>2026-05-02T08:23:22.999Z</time></trkpt><trkpt lat="43.78844452483264" lon="11.603859354665072"><ele>1080.0</ele><time>2026-05-02T08:23:23.999Z</time></trkpt><trkpt lat="43.7882917390609" lon="11.60383700829575"><ele>1079.75</ele><time>2026-05-02T08:23:24.999Z</time></trkpt><trkpt lat="43.788176962831685" lon="11.603808506248079"><ele>1079.5</ele><time>2026-05-02T08:23:25.999Z</time></trkpt><trkpt lat="43.788033208405345" lon="11.60376691076094"><ele>1079.25</ele><time>2026-05-02T08:23:26.999Z</time></trkpt><trkpt lat="43.78786531580523" lon="11.603730958221048"><ele>1079.0</ele><time>2026-05-02T08:23:27.999Z</time></trkpt><trkpt lat="43.78772705896488" lon="11.603650273981668"><ele>1081.0</ele><time>2026-05-02T08:23:28.999Z</time></trkpt><trkpt lat="43.787551548940655" lon="11.60360688246854"><ele>1083.0</ele><time>2026-05-02T08:23:29.999Z</time></trkpt><trkpt lat="43.78735583058048" lon="11.603580218813102"><ele>1085.0</ele><time>2026-05-02T08:23:30.999Z</time></trkpt><trkpt lat="43.787208160217695" lon="11.603536379085776"><ele>1085.0</ele><time>2026-05-02T08:23:31.999Z</time></trkpt><trkpt lat="43.787108425472134" lon="11.603512860478277"><ele>1085.0</ele><time>2026-05-02T08:23:32.999Z</time></trkpt><trkpt lat="43.7869937568334" lon="11.60348773545035"><ele>1085.0</ele><time>2026-05-02T08:23:33.999Z</time></trkpt><trkpt lat="43.78688506219188" lon="11.603462597180407"><ele>1085.0</ele><time>2026-05-02T08:23:34.999Z</time></trkpt><trkpt lat="43.78677543189693" lon="11.6034449437718"><ele>1085.0</ele><time>2026-05-02T08:23:35.999Z</time></trkpt><trkpt lat="43.78665908338487" lon="11.603418509696828"><ele>1083.5</ele><time>2026-05-02T08:23:36.999Z</time></trkpt><trkpt lat="43.78655405063675" lon="11.603395080443208"><ele>1082.0</ele><time>2026-05-02T08:23:37.999Z</time></trkpt><trkpt lat="43.786481594617555" lon="11.60337769418243"><ele>1080.5</ele><time>2026-05-02T08:23:38.999Z</time></trkpt><trkpt lat="43.786404126926904" lon="11.603370244491241"><ele>1079.0</ele><time>2026-05-02T08:23:40.999Z</time></trkpt><trkpt lat="43.78634410548666" lon="11.603399385180172"><ele>1077.5</ele><time>2026-05-02T08:23:42.999Z</time></trkpt><trkpt lat="43.78627180955929" lon="11.60339420514929"><ele>1076.0</ele><time>2026-05-02T08:24:29Z</time></trkpt><trkpt lat="43.78634319372206" lon="11.603333798656173"><ele>1076.0</ele><time>2026-05-02T08:24:34Z</time></trkpt><trkpt lat="43.7864328447658" lon="11.603358219646614"><ele>1076.0</ele><time>2026-05-02T08:24:35Z</time></trkpt><trkpt lat="43.78650715262055" lon="11.603393752126737"><ele>1076.0</ele><time>2026-05-02T08:24:36Z</time></trkpt><trkpt lat="43.78659504562694" lon="11.603419746754987"><ele>1076.0</ele><time>2026-05-02T08:24:37Z</time></trkpt><trkpt lat="43.786685637311436" lon="11.603443364146722"><ele>1076.0</ele><time>2026-05-02T08:24:38Z</time></trkpt><trkpt lat="43.7867894899697" lon="11.603470894324301"><ele>1077.8</ele><time>2026-05-02T08:24:39Z</time></trkpt><trkpt lat="43.78690407197976" lon="11.603502191890183"><ele>1079.6</ele><time>2026-05-02T08:24:40Z</time></trkpt><trkpt lat="43.787026034845155" lon="11.603522913310838"><ele>1081.4</ele><time>2026-05-02T08:24:41Z</time></trkpt><trkpt lat="43.78713685828531" lon="11.60353373710049"><ele>1083.2</ele><time>2026-05-02T08:24:42Z</time></trkpt><trkpt lat="43.78721632688564" lon="11.603540920152037"><ele>1085.0</ele><time>2026-05-02T08:24:43Z</time></trkpt><trkpt lat="43.78730679161397" lon="11.603568588451497"><ele>1085.0</ele><time>2026-05-02T08:24:45Z</time></trkpt><trkpt lat="43.787237674950696" lon="11.603546925952621"><ele>1085.0</ele><time>2026-05-02T08:25:45.999Z</time></trkpt><trkpt lat="43.787094543642795" lon="11.60358482103645"><ele>1085.0</ele><time>2026-05-02T08:25:47.999Z</time></trkpt><trkpt lat="43.78699418735294" lon="11.603553338876774"><ele>1085.0</ele><time>2026-05-02T08:25:48.999Z</time></trkpt><trkpt lat="43.78687769485494" lon="11.603520641090075"><ele>1085.0</ele><time>2026-05-02T08:25:49.999Z</time></trkpt><trkpt lat="43.78671656876049" lon="11.60347757740879"><ele>1082.75</ele><time>2026-05-02T08:25:50.999Z</time></trkpt><trkpt lat="43.78658582116042" lon="11.603443271856369"><ele>1080.5</ele><time>2026-05-02T08:25:51.999Z</time></trkpt><trkpt lat="43.786482665582724" lon="11.603415745745219"><ele>1078.25</ele><time>2026-05-02T08:25:52.999Z</time></trkpt><trkpt lat="43.78637897015775" lon="11.603397580859625"><ele>1076.0</ele><time>2026-05-02T08:25:53.999Z</time></trkpt><trkpt lat="43.78627344266702" lon="11.603364999844201"><ele>1076.0</ele><time>2026-05-02T08:25:54.999Z</time></trkpt><trkpt lat="43.78616804867841" lon="11.603309984498058"><ele>1076.0</ele><time>2026-05-02T08:25:55.999Z</time></trkpt><trkpt lat="43.78606132259147" lon="11.603254594395342"><ele>1076.0</ele><time>2026-05-02T08:25:56.999Z</time></trkpt><trkpt lat="43.78596562674842" lon="11.603212732297832"><ele>1076.0</ele><time>2026-05-02T08:25:57.999Z</time></trkpt><trkpt lat="43.78586720804034" lon="11.603178617607746"><ele>1076.0</ele><time>2026-05-02T08:25:59Z</time></trkpt><trkpt lat="43.785764999883085" lon="11.603141676230434"><ele>1074.6666666666667</ele><time>2026-05-02T08:26:00Z</time></trkpt><trkpt lat="43.78564202925408" lon="11.603101248373628"><ele>1073.3333333333333</ele><time>2026-05-02T08:26:01Z</time></trkpt><trkpt lat="43.78546199293882" lon="11.603017058160047"><ele>1072.0</ele><time>2026-05-02T08:26:02Z</time></trkpt><trkpt lat="43.785327697410324" lon="11.602954844395368"><ele>1072.0</ele><time>2026-05-02T08:26:03Z</time></trkpt><trkpt lat="43.78520954765572" lon="11.602895319152529"><ele>1072.0</ele><time>2026-05-02T08:26:04Z</time></trkpt><trkpt lat="43.78508540643451" lon="11.60285088815121"><ele>1072.0</ele><time>2026-05-02T08:26:05Z</time></trkpt><trkpt lat="43.784979017556076" lon="11.602793980994097"><ele>1072.0</ele><time>2026-05-02T08:26:06Z</time></trkpt><trkpt lat="43.784881060995765" lon="11.602735375663592"><ele>1072.75</ele><time>2026-05-02T08:26:07Z</time></trkpt><trkpt lat="43.78480077364486" lon="11.60264607516493"><ele>1073.5</ele><time>2026-05-02T08:26:08Z</time></trkpt><trkpt lat="43.78471397303335" lon="11.602523936606216"><ele>1074.25</ele><time>2026-05-02T08:26:09Z</time></trkpt><trkpt lat="43.78462752224997" lon="11.602362810453302"><ele>1075.0</ele><time>2026-05-02T08:26:10Z</time></trkpt><trkpt lat="43.78454981074193" lon="11.60216163980589"><ele>1074.3333333333333</ele><time>2026-05-02T08:26:11Z</time></trkpt><trkpt lat="43.78447249449566" lon="11.60197740888601"><ele>1073.6666666666667</ele><time>2026-05-02T08:26:12Z</time></trkpt><trkpt lat="43.78437590627398" lon="11.601804296362314"><ele>1073.0</ele><time>2026-05-02T08:26:13Z</time></trkpt><trkpt lat="43.784306089613935" lon="11.60163733214017"><ele>1074.0</ele><time>2026-05-02T08:26:14Z</time></trkpt><trkpt lat="43.784250180234665" lon="11.601545104039024"><ele>1075.0</ele><time>2026-05-02T08:26:15Z</time></trkpt><trkpt lat="43.784156162641864" lon="11.601400712290861"><ele>1076.0</ele><time>2026-05-02T08:26:16Z</time></trkpt><trkpt lat="43.784055015972044" lon="11.601314402462807"><ele>1077.0</ele><time>2026-05-02T08:26:17Z</time></trkpt><trkpt lat="43.783982081885" lon="11.601286209533423"><ele>1078.0</ele><time>2026-05-02T08:26:18Z</time></trkpt><trkpt lat="43.7838893945555" lon="11.60125032674436"><ele>1078.0</ele><time>2026-05-02T08:26:19Z</time></trkpt><trkpt lat="43.78381209726185" lon="11.601217880344187"><ele>1078.0</ele><time>2026-05-02T08:26:20Z</time></trkpt><trkpt lat="43.783749041147075" lon="11.60116614307054"><ele>1078.0</ele><time>2026-05-02T08:26:21Z</time></trkpt><trkpt lat="43.78367857187435" lon="11.601117941048903"><ele>1078.0</ele><time>2026-05-02T08:26:22Z</time></trkpt><trkpt lat="43.78356740667008" lon="11.601125221749804"><ele>1078.0</ele><time>2026-05-02T08:26:24Z</time></trkpt><trkpt lat="43.783464757727344" lon="11.60113778543912"><ele>1078.0</ele><time>2026-05-02T08:26:26Z</time></trkpt><trkpt lat="43.783391863537204" lon="11.601092746481335"><ele>1076.0</ele><time>2026-05-02T08:26:28Z</time></trkpt><trkpt lat="43.78336421968199" lon="11.600972273705148"><ele>1074.0</ele><time>2026-05-02T08:26:30Z</time></trkpt><trkpt lat="43.78326776740811" lon="11.60097795795754"><ele>1072.0</ele><time>2026-05-02T08:26:32Z</time></trkpt><trkpt lat="43.78319984913453" lon="11.600958578788427"><ele>1070.0</ele><time>2026-05-02T08:26:33Z</time></trkpt><trkpt lat="43.78309845051992" lon="11.600989059273823"><ele>1068.0</ele><time>2026-05-02T08:26:35Z</time></trkpt><trkpt lat="43.78304037923409" lon="11.601043623642527"><ele>1066.0</ele><time>2026-05-02T08:26:37Z</time></trkpt><trkpt lat="43.7829953969919" lon="11.601108500874062"><ele>1066.0</ele><time>2026-05-02T08:26:41Z</time></trkpt><trkpt lat="43.782898980195036" lon="11.601101947256668"><ele>1066.0</ele><time>2026-05-02T08:26:47.999Z</time></trkpt><trkpt lat="43.7828142811712" lon="11.601127153171252"><ele>1066.0</ele><time>2026-05-02T08:26:48.999Z</time></trkpt><trkpt lat="43.78273878543239" lon="11.601137550227298"><ele>1066.0</ele><time>2026-05-02T08:26:49.999Z</time></trkpt><trkpt lat="43.782660816094534" lon="11.601152145851263"><ele>1066.0</ele><time>2026-05-02T08:26:50.999Z</time></trkpt><trkpt lat="43.78261842096177" lon="11.601066064600614"><ele>1066.0</ele><time>2026-05-02T08:27:00.999Z</time></trkpt><trkpt lat="43.78266920974981" lon="11.601013968846152"><ele>1066.0</ele><time>2026-05-02T08:27:03.999Z</time></trkpt><trkpt lat="43.78273333499914" lon="11.601016375249019"><ele>1066.0</ele><time>2026-05-02T08:27:21.999Z</time></trkpt><trkpt lat="43.782689204201446" lon="11.601100196871558"><ele>1066.0</ele><time>2026-05-02T08:28:11Z</time></trkpt><trkpt lat="43.7826927148421" lon="11.601203701463858"><ele>1066.0</ele><time>2026-05-02T08:29:23.999Z</time></trkpt><trkpt lat="43.782708512984534" lon="11.60131080749267"><ele>1066.0</ele><time>2026-05-02T08:29:28.999Z</time></trkpt><trkpt lat="43.78272649211478" lon="11.601395343437348"><ele>1066.0</ele><time>2026-05-02T08:29:34.999Z</time></trkpt><trkpt lat="43.78264506566382" lon="11.601374776926678"><ele>1066.0</ele><time>2026-05-02T08:30:22.999Z</time></trkpt><trkpt lat="43.78270577175865" lon="11.601349383887674"><ele>1066.0</ele><time>2026-05-02T08:32:34.999Z</time></trkpt><trkpt lat="43.78271066911366" lon="11.60125297037286"><ele>1066.0</ele><time>2026-05-02T08:32:44.999Z</time></trkpt><trkpt lat="43.78271645618755" lon="11.601155753935886"><ele>1066.0</ele><time>2026-05-02T08:32:51.999Z</time></trkpt><trkpt lat="43.78267867887157" lon="11.601083897498158"><ele>1066.0</ele><time>2026-05-02T08:35:11Z</time></trkpt><trkpt lat="43.782737638739825" lon="11.601033870314097"><ele>1066.0</ele><time>2026-05-02T08:35:42Z</time></trkpt><trkpt lat="43.78268386623565" lon="11.601097785130229"><ele>1066.0</ele><time>2026-05-02T08:38:03Z</time></trkpt><trkpt lat="43.78267017735218" lon="11.601007871401103"><ele>1066.0</ele><time>2026-05-02T08:40:52Z</time></trkpt><trkpt lat="43.7827079690153" lon="11.601079896477678"><ele>1066.0</ele><time>2026-05-02T08:46:41Z</time></trkpt><trkpt lat="43.78275384928158" lon="11.601002278301012"><ele>1066.0</ele><time>2026-05-02T08:49:56Z</time></trkpt><trkpt lat="43.78281794081489" lon="11.601036735694006"><ele>1066.0</ele><time>2026-05-02T08:49:59Z</time></trkpt><trkpt lat="43.78287501413145" lon="11.601085649674824"><ele>1066.0</ele><time>2026-05-02T08:50:10Z</time></trkpt><trkpt lat="43.78296675785998" lon="11.601087233542152"><ele>1066.0</ele><time>2026-05-02T08:50:13Z</time></trkpt><trkpt lat="43.78305898013991" lon="11.601073264069553"><ele>1066.0</ele><time>2026-05-02T08:50:15Z</time></trkpt><trkpt lat="43.78314889574977" lon="11.601000693736093"><ele>1066.0</ele><time>2026-05-02T08:50:17Z</time></trkpt><trkpt lat="43.783233240384334" lon="11.600931142717766"><ele>1066.0</ele><time>2026-05-02T08:50:19Z</time></trkpt><trkpt lat="43.78335810748487" lon="11.60094687600927"><ele>1066.0</ele><time>2026-05-02T08:50:21Z</time></trkpt><trkpt lat="43.78345759058888" lon="11.600974858620614"><ele>1066.0</ele><time>2026-05-02T08:50:23Z</time></trkpt><trkpt lat="43.783513556404756" lon="11.601025395589867"><ele>1066.0</ele><time>2026-05-02T08:50:24Z</time></trkpt><trkpt lat="43.7835702160271" lon="11.601069855356625"><ele>1066.8333333333333</ele><time>2026-05-02T08:50:25Z</time></trkpt><trkpt lat="43.78365438950472" lon="11.601082479490566"><ele>1067.6666666666665</ele><time>2026-05-02T08:50:27Z</time></trkpt><trkpt lat="43.78374166737625" lon="11.601138261872716"><ele>1068.5</ele><time>2026-05-02T08:50:28Z</time></trkpt><trkpt lat="43.7838278227514" lon="11.6011789559623"><ele>1069.3333333333333</ele><time>2026-05-02T08:50:29Z</time></trkpt><trkpt lat="43.78387767179326" lon="11.601249976398423"><ele>1070.1666666666667</ele><time>2026-05-02T08:50:30Z</time></trkpt><trkpt lat="43.78395948991248" lon="11.6013388480916"><ele>1071.0</ele><time>2026-05-02T08:50:32Z</time></trkpt><trkpt lat="43.78403883783422" lon="11.601388358702794"><ele>1072.3999999999999</ele><time>2026-05-02T08:50:33Z</time></trkpt><trkpt lat="43.78410522803596" lon="11.601416333137342"><ele>1073.8</ele><time>2026-05-02T08:50:34Z</time></trkpt><trkpt lat="43.78420330263456" lon="11.601496280901081"><ele>1075.1999999999998</ele><time>2026-05-02T08:50:35Z</time></trkpt><trkpt lat="43.78426096060446" lon="11.601578777033435"><ele>1076.6</ele><time>2026-05-02T08:50:36Z</time></trkpt><trkpt lat="43.78432621065014" lon="11.601721074942024"><ele>1078.0</ele><time>2026-05-02T08:50:38Z</time></trkpt><trkpt lat="43.784342298122915" lon="11.601825320085515"><ele>1077.5</ele><time>2026-05-02T08:50:39Z</time></trkpt><trkpt lat="43.78441977266755" lon="11.601906209826273"><ele>1077.0</ele><time>2026-05-02T08:50:40.001Z</time></trkpt><trkpt lat="43.784469226660725" lon="11.601991288761864"><ele>1076.5</ele><time>2026-05-02T08:50:42.001Z</time></trkpt><trkpt lat="43.784518489647354" lon="11.602073304500383"><ele>1076.0</ele><time>2026-05-02T08:50:44.001Z</time></trkpt><trkpt lat="43.78458604547692" lon="11.602172342364073"><ele>1075.5</ele><time>2026-05-02T08:50:46.001Z</time></trkpt><trkpt lat="43.78463015598638" lon="11.602235571260865"><ele>1075.0</ele><time>2026-05-02T08:50:47.001Z</time></trkpt><trkpt lat="43.784700677185974" lon="11.602380010590984"><ele>1075.0</ele><time>2026-05-02T08:50:49.001Z</time></trkpt><trkpt lat="43.784756844849056" lon="11.602483394668464"><ele>1075.0</ele><time>2026-05-02T08:50:50.001Z</time></trkpt><trkpt lat="43.78481114709594" lon="11.602594385394864"><ele>1075.0</ele><time>2026-05-02T08:50:53.001Z</time></trkpt><trkpt lat="43.78486677335457" lon="11.602671595370918"><ele>1075.0</ele><time>2026-05-02T08:50:54.001Z</time></trkpt><trkpt lat="43.78495609039127" lon="11.602747819529526"><ele>1075.0</ele><time>2026-05-02T08:50:55.001Z</time></trkpt><trkpt lat="43.785055472062076" lon="11.602828277688227"><ele>1074.0</ele><time>2026-05-02T08:50:56.001Z</time></trkpt><trkpt lat="43.78519583865774" lon="11.602895964641199"><ele>1073.0</ele><time>2026-05-02T08:50:57.001Z</time></trkpt><trkpt lat="43.78535612821512" lon="11.602969530677068"><ele>1072.0</ele><time>2026-05-02T08:50:58.001Z</time></trkpt><trkpt lat="43.78552740649104" lon="11.603036622749613"><ele>1072.0</ele><time>2026-05-02T08:50:59.001Z</time></trkpt><trkpt lat="43.785662547863126" lon="11.603094699481279"><ele>1072.0</ele><time>2026-05-02T08:51:00.001Z</time></trkpt><trkpt lat="43.785761110485915" lon="11.603136747540649"><ele>1072.0</ele><time>2026-05-02T08:51:01.001Z</time></trkpt><trkpt lat="43.78586319068559" lon="11.603191835020757"><ele>1072.0</ele><time>2026-05-02T08:51:02.001Z</time></trkpt><trkpt lat="43.78597107044043" lon="11.603242797941704"><ele>1073.0</ele><time>2026-05-02T08:51:03.001Z</time></trkpt><trkpt lat="43.786088732071576" lon="11.603305621794652"><ele>1074.0</ele><time>2026-05-02T08:51:04.001Z</time></trkpt><trkpt lat="43.786208343733925" lon="11.603325655783673"><ele>1075.0</ele><time>2026-05-02T08:51:05.001Z</time></trkpt><trkpt lat="43.78636776842111" lon="11.60334475487979"><ele>1076.0</ele><time>2026-05-02T08:51:06.001Z</time></trkpt><trkpt lat="43.78652473359658" lon="11.603391212267631"><ele>1076.0</ele><time>2026-05-02T08:51:07.001Z</time></trkpt><trkpt lat="43.78668295372323" lon="11.603462989688092"><ele>1076.0</ele><time>2026-05-02T08:51:08.001Z</time></trkpt><trkpt lat="43.786855636360684" lon="11.603498042083897"><ele>1076.0</ele><time>2026-05-02T08:51:09.001Z</time></trkpt><trkpt lat="43.787006939734404" lon="11.603540047411613"><ele>1078.25</ele><time>2026-05-02T08:51:10.001Z</time></trkpt><trkpt lat="43.78712031829646" lon="11.603570251954668"><ele>1080.5</ele><time>2026-05-02T08:51:11.001Z</time></trkpt><trkpt lat="43.787260299523446" lon="11.60357239901573"><ele>1082.75</ele><time>2026-05-02T08:51:12.001Z</time></trkpt><trkpt lat="43.787409252515765" lon="11.603589459062361"><ele>1085.0</ele><time>2026-05-02T08:51:13.001Z</time></trkpt><trkpt lat="43.78756936272234" lon="11.603633238291913"><ele>1084.25</ele><time>2026-05-02T08:51:14.001Z</time></trkpt><trkpt lat="43.78772120684818" lon="11.603664656959577"><ele>1083.5</ele><time>2026-05-02T08:51:15.001Z</time></trkpt><trkpt lat="43.78785142133805" lon="11.603689501985137"><ele>1082.75</ele><time>2026-05-02T08:51:16.001Z</time></trkpt><trkpt lat="43.787980266548665" lon="11.603720599072648"><ele>1082.0</ele><time>2026-05-02T08:51:17.001Z</time></trkpt><trkpt lat="43.78810665284814" lon="11.603754687013515"><ele>1082.0</ele><time>2026-05-02T08:51:18.001Z</time></trkpt><trkpt lat="43.78821913501108" lon="11.60379292361733"><ele>1082.0</ele><time>2026-05-02T08:51:19.001Z</time></trkpt><trkpt lat="43.78831540847156" lon="11.603806836300055"><ele>1082.0</ele><time>2026-05-02T08:51:20.001Z</time></trkpt><trkpt lat="43.788415567736" lon="11.6038176022558"><ele>1082.0</ele><time>2026-05-02T08:51:21.001Z</time></trkpt><trkpt lat="43.78849574389012" lon="11.603838946409653"><ele>1082.0</ele><time>2026-05-02T08:51:22.001Z</time></trkpt><trkpt lat="43.78858552081978" lon="11.603855536844968"><ele>1081.6</ele><time>2026-05-02T08:51:23.001Z</time></trkpt><trkpt lat="43.788690604837576" lon="11.603862065290137"><ele>1081.2</ele><time>2026-05-02T08:51:24.001Z</time></trkpt><trkpt lat="43.7887548418023" lon="11.603886698429948"><ele>1080.8</ele><time>2026-05-02T08:51:25.001Z</time></trkpt><trkpt lat="43.7888190095881" lon="11.603923126588128"><ele>1080.4</ele><time>2026-05-02T08:51:27.001Z</time></trkpt><trkpt lat="43.788915871607095" lon="11.603944335904702"><ele>1080.0</ele><time>2026-05-02T08:51:30.001Z</time></trkpt><trkpt lat="43.78903709842023" lon="11.603905413157992"><ele>1080.0</ele><time>2026-05-02T08:51:32Z</time></trkpt><trkpt lat="43.78913701587376" lon="11.603845137011973"><ele>1080.0</ele><time>2026-05-02T08:51:33Z</time></trkpt><trkpt lat="43.78927748418926" lon="11.603757413483562"><ele>1080.0</ele><time>2026-05-02T08:51:34Z</time></trkpt><trkpt lat="43.789438751082514" lon="11.603639916134577"><ele>1080.0</ele><time>2026-05-02T08:51:35Z</time></trkpt><trkpt lat="43.789584603759735" lon="11.603548361900039"><ele>1081.25</ele><time>2026-05-02T08:51:36Z</time></trkpt><trkpt lat="43.789695917927375" lon="11.603515461926197"><ele>1082.5</ele><time>2026-05-02T08:51:37Z</time></trkpt><trkpt lat="43.789796533145044" lon="11.603449783079006"><ele>1083.75</ele><time>2026-05-02T08:51:38Z</time></trkpt><trkpt lat="43.789911661541225" lon="11.603381587648615"><ele>1085.0</ele><time>2026-05-02T08:51:39Z</time></trkpt><trkpt lat="43.790018988142734" lon="11.60327020967778"><ele>1085.0</ele><time>2026-05-02T08:51:40Z</time></trkpt><trkpt lat="43.790132563652215" lon="11.603198480057886"><ele>1085.0</ele><time>2026-05-02T08:51:41Z</time></trkpt><trkpt lat="43.790225028185745" lon="11.603178401446362"><ele>1085.0</ele><time>2026-05-02T08:51:42Z</time></trkpt><trkpt lat="43.79029411782196" lon="11.603160350107075"><ele>1085.0</ele><time>2026-05-02T08:51:43Z</time></trkpt><trkpt lat="43.790339494011505" lon="11.603080601213817"><ele>1085.0</ele><time>2026-05-02T08:51:45Z</time></trkpt><trkpt lat="43.79034566726976" lon="11.602981745801873"><ele>1085.0</ele><time>2026-05-02T08:51:46Z</time></trkpt><trkpt lat="43.790384476145626" lon="11.602863030769237"><ele>1084.2</ele><time>2026-05-02T08:51:47Z</time></trkpt><trkpt lat="43.79049905768024" lon="11.60281385785914"><ele>1083.4</ele><time>2026-05-02T08:51:48Z</time></trkpt><trkpt lat="43.7905425224852" lon="11.602731745834404"><ele>1082.6</ele><time>2026-05-02T08:51:49Z</time></trkpt><trkpt lat="43.79060644828347" lon="11.602668151770892"><ele>1081.8</ele><time>2026-05-02T08:51:50Z</time></trkpt><trkpt lat="43.790709407642815" lon="11.602571580233455"><ele>1081.0</ele><time>2026-05-02T08:51:51Z</time></trkpt><trkpt lat="43.79080080688032" lon="11.602479357070798"><ele>1081.0</ele><time>2026-05-02T08:51:52Z</time></trkpt><trkpt lat="43.790886774771295" lon="11.602391046679843"><ele>1081.0</ele><time>2026-05-02T08:51:53Z</time></trkpt><trkpt lat="43.79097302795379" lon="11.602315185680691"><ele>1081.0</ele><time>2026-05-02T08:51:54Z</time></trkpt><trkpt lat="43.791044639999285" lon="11.602246626192633"><ele>1081.0</ele><time>2026-05-02T08:51:55Z</time></trkpt><trkpt lat="43.79113422223438" lon="11.602191508850026"><ele>1081.0</ele><time>2026-05-02T08:51:56Z</time></trkpt><trkpt lat="43.79123947224697" lon="11.602171201385465"><ele>1078.3333333333333</ele><time>2026-05-02T08:51:57Z</time></trkpt><trkpt lat="43.791366241033515" lon="11.602166650308499"><ele>1075.6666666666667</ele><time>2026-05-02T08:51:58Z</time></trkpt><trkpt lat="43.79152012379258" lon="11.602178235514035"><ele>1073.0</ele><time>2026-05-02T08:51:59Z</time></trkpt><trkpt lat="43.79168889175792" lon="11.602205584253614"><ele>1073.0</ele><time>2026-05-02T08:52:00Z</time></trkpt><trkpt lat="43.791797639989774" lon="11.602227613159128"><ele>1073.0</ele><time>2026-05-02T08:52:01Z</time></trkpt><trkpt lat="43.79188956972611" lon="11.60224108306988"><ele>1073.0</ele><time>2026-05-02T08:52:02Z</time></trkpt><trkpt lat="43.79197421541125" lon="11.60226089340422"><ele>1073.0</ele><time>2026-05-02T08:52:03Z</time></trkpt><trkpt lat="43.79206519802623" lon="11.602285921747523"><ele>1073.0</ele><time>2026-05-02T08:52:04Z</time></trkpt><trkpt lat="43.79218161551412" lon="11.602297890505364"><ele>1070.75</ele><time>2026-05-02T08:52:05Z</time></trkpt><trkpt lat="43.7923058531491" lon="11.602297830623924"><ele>1068.5</ele><time>2026-05-02T08:52:06Z</time></trkpt><trkpt lat="43.79243747677744" lon="11.602324711659522"><ele>1066.25</ele><time>2026-05-02T08:52:07Z</time></trkpt><trkpt lat="43.79256373217612" lon="11.602331444742825"><ele>1064.0</ele><time>2026-05-02T08:52:08Z</time></trkpt><trkpt lat="43.79265895078282" lon="11.602342365879455"><ele>1061.2</ele><time>2026-05-02T08:52:09Z</time></trkpt><trkpt lat="43.792755114899016" lon="11.602345619886146"><ele>1058.4</ele><time>2026-05-02T08:52:10Z</time></trkpt><trkpt lat="43.792849175729856" lon="11.602340912649034"><ele>1055.6</ele><time>2026-05-02T08:52:11Z</time></trkpt><trkpt lat="43.792949127995506" lon="11.602344151371861"><ele>1052.8</ele><time>2026-05-02T08:52:12Z</time></trkpt><trkpt lat="43.79304260971032" lon="11.60234352921056"><ele>1050.0</ele><time>2026-05-02T08:52:13Z</time></trkpt><trkpt lat="43.79313130779274" lon="11.602339981395113"><ele>1050.0</ele><time>2026-05-02T08:52:14Z</time></trkpt><trkpt lat="43.7931985706368" lon="11.60233176352703"><ele>1050.0</ele><time>2026-05-02T08:52:15Z</time></trkpt><trkpt lat="43.793269877893074" lon="11.602322850964873"><ele>1050.0</ele><time>2026-05-02T08:52:17Z</time></trkpt><trkpt lat="43.79336272335333" lon="11.602318186997394"><ele>1050.0</ele><time>2026-05-02T08:52:19Z</time></trkpt><trkpt lat="43.79346698305145" lon="11.602329858898308"><ele>1050.0</ele><time>2026-05-02T08:52:21Z</time></trkpt><trkpt lat="43.79358032652075" lon="11.602331612357585"><ele>1045.3333333333333</ele><time>2026-05-02T08:52:23Z</time></trkpt><trkpt lat="43.79364816103812" lon="11.602331343483527"><ele>1040.6666666666667</ele><time>2026-05-02T08:52:24Z</time></trkpt><trkpt lat="43.79372861514977" lon="11.602364167944568"><ele>1036.0</ele><time>2026-05-02T08:52:26Z</time></trkpt><trkpt lat="43.793785775788926" lon="11.602401475192416"><ele>1031.3333333333335</ele><time>2026-05-02T08:52:27Z</time></trkpt><trkpt lat="43.79390172682963" lon="11.602474626226371"><ele>1026.6666666666667</ele><time>2026-05-02T08:52:29Z</time></trkpt><trkpt lat="43.793966084145325" lon="11.60251523150369"><ele>1022.0</ele><time>2026-05-02T08:52:30Z</time></trkpt><trkpt lat="43.79403138199289" lon="11.602546342725269"><ele>1022.0000000000001</ele><time>2026-05-02T08:52:31Z</time></trkpt><trkpt lat="43.79409837440258" lon="11.602577932208948"><ele>1022.0</ele><time>2026-05-02T08:52:32Z</time></trkpt><trkpt lat="43.794166534372025" lon="11.602629602638395"><ele>1022.0</ele><time>2026-05-02T08:52:33Z</time></trkpt><trkpt lat="43.79423792471061" lon="11.602689949535334"><ele>1022.0</ele><time>2026-05-02T08:52:34Z</time></trkpt><trkpt lat="43.7943159237665" lon="11.602745533042263"><ele>1022.0000000000001</ele><time>2026-05-02T08:52:35Z</time></trkpt><trkpt lat="43.79439109049313" lon="11.602804848069633"><ele>1022.0</ele><time>2026-05-02T08:52:36Z</time></trkpt><trkpt lat="43.794473397904476" lon="11.602863450725714"><ele>1017.8</ele><time>2026-05-02T08:52:37Z</time></trkpt><trkpt lat="43.79454757021899" lon="11.602929858754143"><ele>1013.6</ele><time>2026-05-02T08:52:38Z</time></trkpt><trkpt lat="43.79463014115294" lon="11.602993174308192"><ele>1009.3999999999999</ele><time>2026-05-02T08:52:39Z</time></trkpt><trkpt lat="43.79473416391817" lon="11.603063618598702"><ele>1005.1999999999999</ele><time>2026-05-02T08:52:40Z</time></trkpt><trkpt lat="43.794840134375775" lon="11.603136852247575"><ele>1001.0</ele><time>2026-05-02T08:52:41Z</time></trkpt><trkpt lat="43.794922748315635" lon="11.60321109653946"><ele>1001.0</ele><time>2026-05-02T08:52:42Z</time></trkpt><trkpt lat="43.79498369482009" lon="11.603257471168424"><ele>1000.9999999999999</ele><time>2026-05-02T08:52:43Z</time></trkpt><trkpt lat="43.79507055417604" lon="11.6032773504207"><ele>1000.9999999999999</ele><time>2026-05-02T08:52:44Z</time></trkpt><trkpt lat="43.795200351918595" lon="11.603282030020283"><ele>1001.0</ele><time>2026-05-02T08:52:45Z</time></trkpt><trkpt lat="43.79530020937054" lon="11.603298987881338"><ele>1001.0</ele><time>2026-05-02T08:52:46Z</time></trkpt><trkpt lat="43.7953691371269" lon="11.603348392011489"><ele>999.8</ele><time>2026-05-02T08:52:47Z</time></trkpt><trkpt lat="43.795431068631245" lon="11.603414634423222"><ele>998.5999999999999</ele><time>2026-05-02T08:52:48Z</time></trkpt><trkpt lat="43.795501770854514" lon="11.603478145516986"><ele>997.4</ele><time>2026-05-02T08:52:49Z</time></trkpt><trkpt lat="43.79559155627479" lon="11.603575342726575"><ele>996.2</ele><time>2026-05-02T08:52:50Z</time></trkpt><trkpt lat="43.795676409746235" lon="11.603675696103524"><ele>995.0</ele><time>2026-05-02T08:52:51Z</time></trkpt><trkpt lat="43.79576937345195" lon="11.603770302949123"><ele>995.0</ele><time>2026-05-02T08:52:52Z</time></trkpt><trkpt lat="43.79584643914231" lon="11.60384289116292"><ele>995.0</ele><time>2026-05-02T08:52:53Z</time></trkpt><trkpt lat="43.7959603034499" lon="11.603999003870843"><ele>995.0</ele><time>2026-05-02T08:52:55Z</time></trkpt><trkpt lat="43.796037435077324" lon="11.604097958807774"><ele>995.0</ele><time>2026-05-02T08:52:56Z</time></trkpt><trkpt lat="43.796133462252236" lon="11.604179587159697"><ele>994.2</ele><time>2026-05-02T08:52:57Z</time></trkpt><trkpt lat="43.79620023877792" lon="11.604216662612576"><ele>993.4</ele><time>2026-05-02T08:52:58Z</time></trkpt><trkpt lat="43.796321337546665" lon="11.604171160428592"><ele>992.5999999999999</ele><time>2026-05-02T08:53:00Z</time></trkpt><trkpt lat="43.79640311458546" lon="11.60408430991987"><ele>991.8</ele><time>2026-05-02T08:53:01Z</time></trkpt><trkpt lat="43.79649002714004" lon="11.603983319104291"><ele>991.0</ele><time>2026-05-02T08:53:02Z</time></trkpt><trkpt lat="43.79656469960086" lon="11.60389260289188"><ele>991.0</ele><time>2026-05-02T08:53:03Z</time></trkpt><trkpt lat="43.796634626244334" lon="11.60381772051461"><ele>990.9999999999999</ele><time>2026-05-02T08:53:04Z</time></trkpt><trkpt lat="43.796703982398306" lon="11.603750173086693"><ele>990.9999999999999</ele><time>2026-05-02T08:53:05Z</time></trkpt><trkpt lat="43.796762846369646" lon="11.603685897234659"><ele>991.0</ele><time>2026-05-02T08:53:06Z</time></trkpt><trkpt lat="43.7968500137194" lon="11.603587508509367"><ele>991.0</ele><time>2026-05-02T08:53:08.001Z</time></trkpt><trkpt lat="43.79696509242773" lon="11.603539150963508"><ele>989.6666666666666</ele><time>2026-05-02T08:53:10.001Z</time></trkpt><trkpt lat="43.79702870811913" lon="11.603519390580002"><ele>988.3333333333333</ele><time>2026-05-02T08:53:11.001Z</time></trkpt><trkpt lat="43.79708240716181" lon="11.60347227795037"><ele>987.0</ele><time>2026-05-02T08:53:12.001Z</time></trkpt><trkpt lat="43.79714413811336" lon="11.603436704951356"><ele>985.6666666666667</ele><time>2026-05-02T08:53:13.001Z</time></trkpt><trkpt lat="43.797226392525694" lon="11.603406342840904"><ele>984.3333333333334</ele><time>2026-05-02T08:53:14.001Z</time></trkpt><trkpt lat="43.797322872370444" lon="11.603363148554038"><ele>983.0</ele><time>2026-05-02T08:53:15.001Z</time></trkpt><trkpt lat="43.79740739570716" lon="11.603331882192693"><ele>983.0</ele><time>2026-05-02T08:53:16.001Z</time></trkpt><trkpt lat="43.79747942532396" lon="11.603281249276908"><ele>983.0</ele><time>2026-05-02T08:53:18.001Z</time></trkpt><trkpt lat="43.797584746555096" lon="11.603269790414672"><ele>983.0</ele><time>2026-05-02T08:54:48Z</time></trkpt><trkpt lat="43.79770536462332" lon="11.60323547729508"><ele>983.0</ele><time>2026-05-02T08:54:49Z</time></trkpt><trkpt lat="43.79780004291767" lon="11.603229383825262"><ele>983.0</ele><time>2026-05-02T08:54:50Z</time></trkpt><trkpt lat="43.797885248323894" lon="11.603254123612627"><ele>983.25</ele><time>2026-05-02T08:54:51Z</time></trkpt><trkpt lat="43.79797049416726" lon="11.603298301895032"><ele>983.5</ele><time>2026-05-02T08:54:52Z</time></trkpt><trkpt lat="43.798068182416486" lon="11.603413886187292"><ele>983.75</ele><time>2026-05-02T08:54:53Z</time></trkpt><trkpt lat="43.79821825123349" lon="11.603629477079853"><ele>984.0</ele><time>2026-05-02T08:54:54Z</time></trkpt><trkpt lat="43.79833561055926" lon="11.603801698081018"><ele>984.0</ele><time>2026-05-02T08:54:55Z</time></trkpt><trkpt lat="43.798418285208726" lon="11.603898958802933"><ele>984.0</ele><time>2026-05-02T08:54:56Z</time></trkpt><trkpt lat="43.79853088222295" lon="11.603974528387807"><ele>984.0</ele><time>2026-05-02T08:54:57Z</time></trkpt><trkpt lat="43.79869588684186" lon="11.604055617212756"><ele>984.0</ele><time>2026-05-02T08:54:58Z</time></trkpt><trkpt lat="43.798870495973304" lon="11.604118711137069"><ele>985.6666666666667</ele><time>2026-05-02T08:54:59Z</time></trkpt><trkpt lat="43.799030545086104" lon="11.60418129756609"><ele>987.3333333333334</ele><time>2026-05-02T08:55:00Z</time></trkpt><trkpt lat="43.79918819169653" lon="11.604218782102215"><ele>989.0</ele><time>2026-05-02T08:55:01Z</time></trkpt><trkpt lat="43.79934236660811" lon="11.604254210072462"><ele>989.0</ele><time>2026-05-02T08:55:02Z</time></trkpt><trkpt lat="43.799495213419696" lon="11.604247867776742"><ele>989.0</ele><time>2026-05-02T08:55:03Z</time></trkpt><trkpt lat="43.799634451978484" lon="11.604217043073438"><ele>989.0</ele><time>2026-05-02T08:55:04Z</time></trkpt><trkpt lat="43.7997443206145" lon="11.604176279133249"><ele>989.0</ele><time>2026-05-02T08:55:05Z</time></trkpt><trkpt lat="43.799860887079056" lon="11.604160495962219"><ele>989.0</ele><time>2026-05-02T08:55:06Z</time></trkpt><trkpt lat="43.799975843966735" lon="11.604211538825835"><ele>989.0</ele><time>2026-05-02T08:55:07Z</time></trkpt><trkpt lat="43.800088314533625" lon="11.60428889925951"><ele>989.0</ele><time>2026-05-02T08:55:08Z</time></trkpt><trkpt lat="43.800182833381776" lon="11.604415496718635"><ele>989.0</ele><time>2026-05-02T08:55:09Z</time></trkpt><trkpt lat="43.80028870930533" lon="11.604521842220983"><ele>989.25</ele><time>2026-05-02T08:55:10Z</time></trkpt><trkpt lat="43.800402762788394" lon="11.60459878374388"><ele>989.5</ele><time>2026-05-02T08:55:11Z</time></trkpt><trkpt lat="43.800500846228765" lon="11.60467887085187"><ele>989.75</ele><time>2026-05-02T08:55:12Z</time></trkpt><trkpt lat="43.80061948113681" lon="11.604727653763767"><ele>990.0</ele><time>2026-05-02T08:55:13Z</time></trkpt><trkpt lat="43.80070873689771" lon="11.604798235061443"><ele>990.0</ele><time>2026-05-02T08:55:14Z</time></trkpt><trkpt lat="43.800799411944745" lon="11.604812723030342"><ele>990.0</ele><time>2026-05-02T08:55:15Z</time></trkpt><trkpt lat="43.800868471837816" lon="11.604780345504105"><ele>990.0</ele><time>2026-05-02T08:55:16Z</time></trkpt><trkpt lat="43.80097964423179" lon="11.60469305515937"><ele>990.0</ele><time>2026-05-02T08:55:17Z</time></trkpt><trkpt lat="43.8010966872449" lon="11.604510735106741"><ele>996.3333333333333</ele><time>2026-05-02T08:55:18Z</time></trkpt><trkpt lat="43.801202744721756" lon="11.604384181748825"><ele>1002.6666666666666</ele><time>2026-05-02T08:55:19Z</time></trkpt><trkpt lat="43.801355408683435" lon="11.60430258646659"><ele>1009.0</ele><time>2026-05-02T08:55:20Z</time></trkpt><trkpt lat="43.80148075148795" lon="11.604177505667439"><ele>1009.0</ele><time>2026-05-02T08:55:21Z</time></trkpt><trkpt lat="43.80161247941446" lon="11.604000919846367"><ele>1009.0</ele><time>2026-05-02T08:55:22Z</time></trkpt><trkpt lat="43.801723318052865" lon="11.603801211358368"><ele>1009.0</ele><time>2026-05-02T08:55:23.001Z</time></trkpt><trkpt lat="43.801780720580034" lon="11.603612673027543"><ele>1006.8000000000001</ele><time>2026-05-02T08:55:24.001Z</time></trkpt><trkpt lat="43.80180602148404" lon="11.603480186127268"><ele>1004.6000000000001</ele><time>2026-05-02T08:55:25.001Z</time></trkpt><trkpt lat="43.80183592217691" lon="11.60335175663316"><ele>1002.4</ele><time>2026-05-02T08:55:26.001Z</time></trkpt><trkpt lat="43.80188814595587" lon="11.603215660607548"><ele>1000.2</ele><time>2026-05-02T08:55:27.001Z</time></trkpt><trkpt lat="43.80195985940114" lon="11.603070524935674"><ele>998.0</ele><time>2026-05-02T08:55:28.001Z</time></trkpt><trkpt lat="43.802058490033254" lon="11.602941158995533"><ele>1001.6666666666667</ele><time>2026-05-02T08:55:29.001Z</time></trkpt><trkpt lat="43.8021785897783" lon="11.602812714491847"><ele>1005.3333333333333</ele><time>2026-05-02T08:55:30.001Z</time></trkpt><trkpt lat="43.80230301032287" lon="11.602672684451147"><ele>1009.0</ele><time>2026-05-02T08:55:31.001Z</time></trkpt><trkpt lat="43.80240317537967" lon="11.602501541233064"><ele>1009.0</ele><time>2026-05-02T08:55:32.001Z</time></trkpt><trkpt lat="43.80250687039777" lon="11.6023792490313"><ele>1009.0000000000001</ele><time>2026-05-02T08:55:33.001Z</time></trkpt><trkpt lat="43.80259798482485" lon="11.602280704971877"><ele>1009.0000000000001</ele><time>2026-05-02T08:55:34.001Z</time></trkpt><trkpt lat="43.80266983056019" lon="11.60221313100252"><ele>1009.0</ele><time>2026-05-02T08:55:35.001Z</time></trkpt><trkpt lat="43.80273406263556" lon="11.602139025618712"><ele>1009.0</ele><time>2026-05-02T08:55:36.001Z</time></trkpt><trkpt lat="43.802805930901" lon="11.602074004394941"><ele>1009.8333333333333</ele><time>2026-05-02T08:55:37.001Z</time></trkpt><trkpt lat="43.802894118462405" lon="11.602066433590904"><ele>1010.6666666666666</ele><time>2026-05-02T08:55:38.001Z</time></trkpt><trkpt lat="43.802971219472795" lon="11.60205480823882"><ele>1011.5</ele><time>2026-05-02T08:55:39.001Z</time></trkpt><trkpt lat="43.803035963551636" lon="11.60204631149804"><ele>1012.3333333333333</ele><time>2026-05-02T08:55:40.001Z</time></trkpt><trkpt lat="43.80310213979524" lon="11.602053991108095"><ele>1013.1666666666666</ele><time>2026-05-02T08:55:42.001Z</time></trkpt><trkpt lat="43.80318384449645" lon="11.602043015432189"><ele>1014.0</ele><time>2026-05-02T08:55:44.001Z</time></trkpt><trkpt lat="43.803264198320335" lon="11.602096862230137"><ele>1014.0</ele><time>2026-05-02T08:55:46.001Z</time></trkpt><trkpt lat="43.80334433792754" lon="11.602222838581453"><ele>1014.0000000000001</ele><time>2026-05-02T08:55:48.001Z</time></trkpt><trkpt lat="43.803390970239285" lon="11.602320523226027"><ele>1014.0000000000001</ele><time>2026-05-02T08:55:49.001Z</time></trkpt><trkpt lat="43.80346693301851" lon="11.60242195274313"><ele>1014.0</ele><time>2026-05-02T08:55:50.001Z</time></trkpt><trkpt lat="43.80356975837913" lon="11.60254702025187"><ele>1014.0</ele><time>2026-05-02T08:55:51.001Z</time></trkpt><trkpt lat="43.803666884147006" lon="11.602630233964184"><ele>1012.8333333333334</ele><time>2026-05-02T08:55:52.001Z</time></trkpt><trkpt lat="43.80373893639665" lon="11.602665033426712"><ele>1011.6666666666667</ele><time>2026-05-02T08:55:53.001Z</time></trkpt><trkpt lat="43.80380390377937" lon="11.602700626377848"><ele>1010.5</ele><time>2026-05-02T08:55:54.001Z</time></trkpt><trkpt lat="43.80391175787992" lon="11.6027305839317"><ele>1009.3333333333334</ele><time>2026-05-02T08:55:56.001Z</time></trkpt><trkpt lat="43.80399868039542" lon="11.602732789650736"><ele>1008.1666666666667</ele><time>2026-05-02T08:55:57.001Z</time></trkpt><trkpt lat="43.80408142258985" lon="11.602719362026928"><ele>1007.0</ele><time>2026-05-02T08:55:58.001Z</time></trkpt><trkpt lat="43.80416822001046" lon="11.60270795716655"><ele>1007.0</ele><time>2026-05-02T08:55:59.001Z</time></trkpt><trkpt lat="43.80425712111945" lon="11.602693315703643"><ele>1007.0</ele><time>2026-05-02T08:56:00.001Z</time></trkpt><trkpt lat="43.804353397609745" lon="11.60262247297897"><ele>1007.0</ele><time>2026-05-02T08:56:01.001Z</time></trkpt><trkpt lat="43.80450048909844" lon="11.602672696798374"><ele>1007.0</ele><time>2026-05-02T08:56:02.001Z</time></trkpt><trkpt lat="43.804624051586984" lon="11.602681364001914"><ele>1006.5</ele><time>2026-05-02T08:56:03.001Z</time></trkpt><trkpt lat="43.80473833000097" lon="11.602748576083128"><ele>1006.0</ele><time>2026-05-02T08:56:04.001Z</time></trkpt><trkpt lat="43.804849349335754" lon="11.602838762812375"><ele>1005.5</ele><time>2026-05-02T08:56:05.001Z</time></trkpt><trkpt lat="43.804948320669226" lon="11.602929971358359"><ele>1005.0</ele><time>2026-05-02T08:56:06.001Z</time></trkpt><trkpt lat="43.805018839089236" lon="11.603076712964727"><ele>1005.0</ele><time>2026-05-02T08:56:07.001Z</time></trkpt><trkpt lat="43.805110156299556" lon="11.603244086146539"><ele>1005.0</ele><time>2026-05-02T08:56:08.001Z</time></trkpt><trkpt lat="43.80513528587132" lon="11.603433709055965"><ele>1005.0</ele><time>2026-05-02T08:56:09.001Z</time></trkpt><trkpt lat="43.80513951508699" lon="11.60358614583927"><ele>1005.0</ele><time>2026-05-02T08:56:10.001Z</time></trkpt><trkpt lat="43.805205307888514" lon="11.603794696350555"><ele>998.6666666666667</ele><time>2026-05-02T08:56:11.001Z</time></trkpt><trkpt lat="43.80520772858743" lon="11.604031422722024"><ele>992.3333333333334</ele><time>2026-05-02T08:56:12.001Z</time></trkpt><trkpt lat="43.80521990734432" lon="11.60423845129617"><ele>986.0</ele><time>2026-05-02T08:56:13.001Z</time></trkpt><trkpt lat="43.80525763670551" lon="11.604441028155163"><ele>989.0</ele><time>2026-05-02T08:56:14.001Z</time></trkpt><trkpt lat="43.80531770562815" lon="11.604584697743634"><ele>992.0</ele><time>2026-05-02T08:56:15.001Z</time></trkpt><trkpt lat="43.805399761868735" lon="11.604697058370062"><ele>995.0</ele><time>2026-05-02T08:56:16Z</time></trkpt><trkpt lat="43.80552544400572" lon="11.604814591611403"><ele>998.0</ele><time>2026-05-02T08:56:17Z</time></trkpt><trkpt lat="43.805639474861984" lon="11.60493338913229"><ele>998.0</ele><time>2026-05-02T08:56:18Z</time></trkpt><trkpt lat="43.805738175258114" lon="11.605023756886226"><ele>998.0</ele><time>2026-05-02T08:56:19Z</time></trkpt><trkpt lat="43.80583369975293" lon="11.605119328849561"><ele>998.0</ele><time>2026-05-02T08:56:20Z</time></trkpt><trkpt lat="43.80592338124018" lon="11.60521414850353"><ele>998.0</ele><time>2026-05-02T08:56:21Z</time></trkpt><trkpt lat="43.80601112336716" lon="11.605268251182649"><ele>998.0</ele><time>2026-05-02T08:56:22Z</time></trkpt><trkpt lat="43.80612707203811" lon="11.605309616741215"><ele>996.5</ele><time>2026-05-02T08:56:23Z</time></trkpt><trkpt lat="43.80628048315744" lon="11.605354324333566"><ele>995.0</ele><time>2026-05-02T08:56:24Z</time></trkpt><trkpt lat="43.80641070312817" lon="11.605408421843315"><ele>993.5</ele><time>2026-05-02T08:56:25Z</time></trkpt><trkpt lat="43.806519322657806" lon="11.60545690723497"><ele>992.0</ele><time>2026-05-02T08:56:26Z</time></trkpt><trkpt lat="43.806600217266435" lon="11.605495728777768"><ele>992.0000000000001</ele><time>2026-05-02T08:56:27Z</time></trkpt><trkpt lat="43.80666772072315" lon="11.605511141870133"><ele>992.0</ele><time>2026-05-02T08:56:28Z</time></trkpt><trkpt lat="43.80676607434664" lon="11.605518165927444"><ele>992.0</ele><time>2026-05-02T08:56:30Z</time></trkpt><trkpt lat="43.80683471013544" lon="11.605519363123825"><ele>992.0</ele><time>2026-05-02T08:56:31Z</time></trkpt><trkpt lat="43.80690941189706" lon="11.605522335544201"><ele>992.0000000000001</ele><time>2026-05-02T08:56:32Z</time></trkpt><trkpt lat="43.8069904366677" lon="11.605510314308628"><ele>992.0</ele><time>2026-05-02T08:56:33Z</time></trkpt><trkpt lat="43.80706332347579" lon="11.605489207093207"><ele>993.0</ele><time>2026-05-02T08:56:34Z</time></trkpt><trkpt lat="43.807148637428966" lon="11.605426777080577"><ele>994.0</ele><time>2026-05-02T08:56:35Z</time></trkpt><trkpt lat="43.80724585291906" lon="11.605371769667327"><ele>995.0</ele><time>2026-05-02T08:56:36Z</time></trkpt><trkpt lat="43.80736981906082" lon="11.60531337568331"><ele>996.0</ele><time>2026-05-02T08:56:37Z</time></trkpt><trkpt lat="43.80749163504811" lon="11.605254092768664"><ele>996.0</ele><time>2026-05-02T08:56:38Z</time></trkpt><trkpt lat="43.807589452251605" lon="11.605223105275915"><ele>995.9999999999999</ele><time>2026-05-02T08:56:39Z</time></trkpt><trkpt lat="43.807687831743216" lon="11.605186944847592"><ele>995.9999999999999</ele><time>2026-05-02T08:56:40Z</time></trkpt><trkpt lat="43.80778795891925" lon="11.605165033557155"><ele>996.0</ele><time>2026-05-02T08:56:41Z</time></trkpt><trkpt lat="43.80787598195119" lon="11.605160852969064"><ele>996.0</ele><time>2026-05-02T08:56:42Z</time></trkpt><trkpt lat="43.80794891178711" lon="11.605181422784797"><ele>998.5</ele><time>2026-05-02T08:56:43Z</time></trkpt><trkpt lat="43.80802059800897" lon="11.60525615334365"><ele>1001.0</ele><time>2026-05-02T08:56:44Z</time></trkpt><trkpt lat="43.80810823533401" lon="11.605385338018111"><ele>1003.5</ele><time>2026-05-02T08:56:45Z</time></trkpt><trkpt lat="43.808150729933246" lon="11.605562542781538"><ele>1006.0</ele><time>2026-05-02T08:56:46Z</time></trkpt><trkpt lat="43.80820335750531" lon="11.6057830493429"><ele>1006.0</ele><time>2026-05-02T08:56:47Z</time></trkpt><trkpt lat="43.80828590712676" lon="11.60606777275595"><ele>1006.0</ele><time>2026-05-02T08:56:48Z</time></trkpt><trkpt lat="43.80836767805531" lon="11.606368782512302"><ele>1003.8</ele><time>2026-05-02T08:56:49Z</time></trkpt><trkpt lat="43.80842066336158" lon="11.606567395981033"><ele>1001.5999999999999</ele><time>2026-05-02T08:56:50Z</time></trkpt><trkpt lat="43.80845406629409" lon="11.606721277783697"><ele>999.4</ele><time>2026-05-02T08:56:51Z</time></trkpt><trkpt lat="43.80848325423232" lon="11.606820204373777"><ele>997.2</ele><time>2026-05-02T08:56:52Z</time></trkpt><trkpt lat="43.80851946503221" lon="11.606903094533473"><ele>995.0</ele><time>2026-05-02T08:56:54Z</time></trkpt><trkpt lat="43.80858225183632" lon="11.606915329715033"><ele>995.0000000000001</ele><time>2026-05-02T08:56:57Z</time></trkpt><trkpt lat="43.80853132086235" lon="11.606840892873656"><ele>995.0</ele><time>2026-05-02T08:57:01Z</time></trkpt><trkpt lat="43.80848721347594" lon="11.606912802135959"><ele>995.0</ele><time>2026-05-02T08:57:07Z</time></trkpt><trkpt lat="43.808537322744925" lon="11.606986615772742"><ele>995.0</ele><time>2026-05-02T08:57:10Z</time></trkpt><trkpt lat="43.808638254949614" lon="11.606934308907837"><ele>995.0000000000001</ele><time>2026-05-02T08:57:12Z</time></trkpt><trkpt lat="43.80873853267566" lon="11.606868308386865"><ele>995.0</ele><time>2026-05-02T08:57:21Z</time></trkpt><trkpt lat="43.80885466738775" lon="11.606834056087365"><ele>995.0</ele><time>2026-05-02T08:57:22Z</time></trkpt><trkpt lat="43.80900547990466" lon="11.606789738861993"><ele>995.0</ele><time>2026-05-02T08:57:23Z</time></trkpt><trkpt lat="43.80918348737916" lon="11.60674406402832"><ele>995.0</ele><time>2026-05-02T08:57:24Z</time></trkpt><trkpt lat="43.809371334162684" lon="11.606715051489363"><ele>991.6666666666667</ele><time>2026-05-02T08:57:25Z</time></trkpt><trkpt lat="43.80956145473573" lon="11.606705628580524"><ele>988.3333333333333</ele><time>2026-05-02T08:57:26Z</time></trkpt><trkpt lat="43.80968404164469" lon="11.606721566233658"><ele>985.0</ele><time>2026-05-02T08:57:27Z</time></trkpt><trkpt lat="43.809841532141576" lon="11.606632175681348"><ele>985.0</ele><time>2026-05-02T08:57:28Z</time></trkpt><trkpt lat="43.80992569830698" lon="11.606584827009529"><ele>985.0</ele><time>2026-05-02T08:57:29.001Z</time></trkpt><trkpt lat="43.81000000771767" lon="11.606503194390687"><ele>985.0</ele><time>2026-05-02T08:57:30.001Z</time></trkpt><trkpt lat="43.8101203127887" lon="11.606374644478572"><ele>985.0</ele><time>2026-05-02T08:57:31.001Z</time></trkpt><trkpt lat="43.81022140236822" lon="11.606232124679089"><ele>984.6666666666666</ele><time>2026-05-02T08:57:32.001Z</time></trkpt><trkpt lat="43.81033750157289" lon="11.606133674864894"><ele>984.3333333333333</ele><time>2026-05-02T08:57:33.001Z</time></trkpt><trkpt lat="43.81048167953716" lon="11.605933644468855"><ele>984.0</ele><time>2026-05-02T08:57:34.001Z</time></trkpt><trkpt lat="43.81057782933728" lon="11.605695777715992"><ele>984.0</ele><time>2026-05-02T08:57:35.001Z</time></trkpt><trkpt lat="43.810692397955314" lon="11.605470885668012"><ele>984.0</ele><time>2026-05-02T08:57:36.001Z</time></trkpt><trkpt lat="43.81078752484002" lon="11.605269883854412"><ele>984.0</ele><time>2026-05-02T08:57:37.001Z</time></trkpt><trkpt lat="43.810862996878555" lon="11.605119222786744"><ele>985.75</ele><time>2026-05-02T08:57:38.001Z</time></trkpt><trkpt lat="43.8109178690733" lon="11.60496242316338"><ele>987.5</ele><time>2026-05-02T08:57:39.001Z</time></trkpt><trkpt lat="43.811001422875194" lon="11.604794837301986"><ele>989.25</ele><time>2026-05-02T08:57:40.001Z</time></trkpt><trkpt lat="43.81109459335755" lon="11.604602884226905"><ele>991.0</ele><time>2026-05-02T08:57:41.001Z</time></trkpt><trkpt lat="43.81121676075715" lon="11.604333110559603"><ele>995.0</ele><time>2026-05-02T08:57:42.001Z</time></trkpt><trkpt lat="43.81136315367621" lon="11.6041309159291"><ele>999.0</ele><time>2026-05-02T08:57:43.001Z</time></trkpt><trkpt lat="43.81147599739332" lon="11.603980086326509"><ele>1003.0</ele><time>2026-05-02T08:57:44.001Z</time></trkpt><trkpt lat="43.811595239688806" lon="11.603839033293232"><ele>1003.0</ele><time>2026-05-02T08:57:45.001Z</time></trkpt><trkpt lat="43.81170906785959" lon="11.603686100473691"><ele>1003.0</ele><time>2026-05-02T08:57:46.001Z</time></trkpt><trkpt lat="43.8118008979983" lon="11.603550668041622"><ele>1003.0</ele><time>2026-05-02T08:57:47.001Z</time></trkpt><trkpt lat="43.81187870793608" lon="11.603424981621064"><ele>1003.0</ele><time>2026-05-02T08:57:48.001Z</time></trkpt><trkpt lat="43.811970481840056" lon="11.603354962652642"><ele>1003.5</ele><time>2026-05-02T08:57:49.001Z</time></trkpt><trkpt lat="43.81206068464723" lon="11.603327591445206"><ele>1004.0</ele><time>2026-05-02T08:57:50.001Z</time></trkpt><trkpt lat="43.81214204036263" lon="11.603363429273948"><ele>1004.5</ele><time>2026-05-02T08:57:51.001Z</time></trkpt><trkpt lat="43.812274362331046" lon="11.60345578779233"><ele>1005.0</ele><time>2026-05-02T08:57:52.001Z</time></trkpt><trkpt lat="43.812388591662874" lon="11.603571776393405"><ele>1005.0</ele><time>2026-05-02T08:57:53.001Z</time></trkpt><trkpt lat="43.81247475527412" lon="11.603618575523404"><ele>1005.0</ele><time>2026-05-02T08:57:55.001Z</time></trkpt><trkpt lat="43.8125351787919" lon="11.60355041487606"><ele>1005.0</ele><time>2026-05-02T08:57:56.001Z</time></trkpt><trkpt lat="43.81261140663309" lon="11.603544403971478"><ele>1005.0</ele><time>2026-05-02T08:57:57.001Z</time></trkpt><trkpt lat="43.812679883247895" lon="11.603486991980079"><ele>1005.0</ele><time>2026-05-02T08:57:58.001Z</time></trkpt><trkpt lat="43.812756664807964" lon="11.603416966270789"><ele>1005.0</ele><time>2026-05-02T08:57:59.001Z</time></trkpt><trkpt lat="43.81283393595893" lon="11.603326576820516"><ele>1005.8333333333334</ele><time>2026-05-02T08:58:00.001Z</time></trkpt><trkpt lat="43.81284720224415" lon="11.60318301825263"><ele>1006.6666666666667</ele><time>2026-05-02T08:58:01Z</time></trkpt><trkpt lat="43.81286030531242" lon="11.603056770537783"><ele>1007.5</ele><time>2026-05-02T08:58:02Z</time></trkpt><trkpt lat="43.8128872118075" lon="11.602945463924943"><ele>1008.3333333333334</ele><time>2026-05-02T08:58:03Z</time></trkpt><trkpt lat="43.81291110745013" lon="11.602820230444653"><ele>1009.1666666666667</ele><time>2026-05-02T08:58:05Z</time></trkpt><trkpt lat="43.812922414780644" lon="11.602729488855562"><ele>1010.0</ele><time>2026-05-02T08:58:07Z</time></trkpt><trkpt lat="43.81297738547948" lon="11.602627812067812"><ele>1010.0000000000001</ele><time>2026-05-02T08:58:09Z</time></trkpt><trkpt lat="43.8130281221773" lon="11.60255786665876"><ele>1010.0</ele><time>2026-05-02T08:58:11Z</time></trkpt><trkpt lat="43.81309827484044" lon="11.60244190685147"><ele>1010.0</ele><time>2026-05-02T08:58:13Z</time></trkpt><trkpt lat="43.81316061790648" lon="11.602303504130829"><ele>1010.0</ele><time>2026-05-02T08:58:15Z</time></trkpt><trkpt lat="43.813201075532305" lon="11.6022304411422"><ele>1010.0000000000001</ele><time>2026-05-02T08:58:16Z</time></trkpt><trkpt lat="43.81325173719449" lon="11.6021581818015"><ele>1010.0</ele><time>2026-05-02T08:58:17Z</time></trkpt><trkpt lat="43.81330593052539" lon="11.602102371110666"><ele>1010.0</ele><time>2026-05-02T08:58:18Z</time></trkpt><trkpt lat="43.81340111986992" lon="11.602011609041622"><ele>1010.0</ele><time>2026-05-02T08:58:20Z</time></trkpt><trkpt lat="43.81350259514728" lon="11.601944933555242"><ele>1010.0</ele><time>2026-05-02T08:58:23Z</time></trkpt><trkpt lat="43.813569495207744" lon="11.601897126578374"><ele>1010.0</ele><time>2026-05-02T08:58:24Z</time></trkpt><trkpt lat="43.81364062000224" lon="11.601840312556329"><ele>1010.0</ele><time>2026-05-02T08:58:25Z</time></trkpt><trkpt lat="43.81369681351804" lon="11.60178824701387"><ele>1008.1666666666667</ele><time>2026-05-02T08:58:26Z</time></trkpt><trkpt lat="43.813801398362344" lon="11.60174698665584"><ele>1006.3333333333334</ele><time>2026-05-02T08:58:28Z</time></trkpt><trkpt lat="43.81390989522441" lon="11.601665374554742"><ele>1004.5</ele><time>2026-05-02T08:58:30Z</time></trkpt><trkpt lat="43.81397086607528" lon="11.601623584962756"><ele>1002.6666666666667</ele><time>2026-05-02T08:58:31Z</time></trkpt><trkpt lat="43.814028659100394" lon="11.601584525811031"><ele>1000.8333333333334</ele><time>2026-05-02T08:58:32Z</time></trkpt><trkpt lat="43.81408951331672" lon="11.601534672172555"><ele>999.0</ele><time>2026-05-02T08:58:33Z</time></trkpt><trkpt lat="43.81415595468376" lon="11.601426762747227"><ele>999.0</ele><time>2026-05-02T08:58:34Z</time></trkpt><trkpt lat="43.81419678500817" lon="11.601319784621774"><ele>999.0000000000001</ele><time>2026-05-02T08:58:35Z</time></trkpt><trkpt lat="43.814225101998545" lon="11.60120191693329"><ele>999.0000000000001</ele><time>2026-05-02T08:58:36Z</time></trkpt><trkpt lat="43.81426981149449" lon="11.601046721663636"><ele>999.0</ele><time>2026-05-02T08:58:37Z</time></trkpt><trkpt lat="43.81431290839278" lon="11.600886905992315"><ele>999.0</ele><time>2026-05-02T08:58:38Z</time></trkpt><trkpt lat="43.8143461118334" lon="11.600734644912345"><ele>998.5</ele><time>2026-05-02T08:58:39Z</time></trkpt><trkpt lat="43.814388466553204" lon="11.600578121937446"><ele>998.0</ele><time>2026-05-02T08:58:40Z</time></trkpt><trkpt lat="43.81443653332017" lon="11.600431437739358"><ele>997.5</ele><time>2026-05-02T08:58:41Z</time></trkpt><trkpt lat="43.81448838189935" lon="11.600242609945102"><ele>997.0</ele><time>2026-05-02T08:58:42Z</time></trkpt><trkpt lat="43.814513176844294" lon="11.599908032723881"><ele>1000.5</ele><time>2026-05-02T08:58:43Z</time></trkpt><trkpt lat="43.81456915632411" lon="11.599758001810777"><ele>1004.0</ele><time>2026-05-02T08:58:44Z</time></trkpt><trkpt lat="43.81461235189172" lon="11.59960797016494"><ele>1007.5</ele><time>2026-05-02T08:58:45Z</time></trkpt><trkpt lat="43.81464535875711" lon="11.599381112875742"><ele>1011.0</ele><time>2026-05-02T08:58:46Z</time></trkpt><trkpt lat="43.814663154261886" lon="11.59912416740427"><ele>1011.25</ele><time>2026-05-02T08:58:47Z</time></trkpt><trkpt lat="43.814674110662615" lon="11.598925076211207"><ele>1011.5</ele><time>2026-05-02T08:58:48Z</time></trkpt><trkpt lat="43.814688534356776" lon="11.598730953698366"><ele>1011.75</ele><time>2026-05-02T08:58:49Z</time></trkpt><trkpt lat="43.81471085179328" lon="11.598517496129949"><ele>1012.0</ele><time>2026-05-02T08:58:50Z</time></trkpt><trkpt lat="43.81474150016382" lon="11.598368822572102"><ele>1012.0</ele><time>2026-05-02T08:58:51Z</time></trkpt><trkpt lat="43.8147918909551" lon="11.598243579601002"><ele>1012.0</ele><time>2026-05-02T08:58:52Z</time></trkpt><trkpt lat="43.814844973876994" lon="11.59815196036677"><ele>1012.0</ele><time>2026-05-02T08:58:53Z</time></trkpt><trkpt lat="43.81492552746556" lon="11.598092176077841"><ele>1012.0</ele><time>2026-05-02T08:58:54Z</time></trkpt><trkpt lat="43.81503774686558" lon="11.59804837018615"><ele>1012.0</ele><time>2026-05-02T08:58:55Z</time></trkpt><trkpt lat="43.8151611468703" lon="11.598036418681193"><ele>1014.0</ele><time>2026-05-02T08:58:56Z</time></trkpt><trkpt lat="43.81527422319515" lon="11.598010214493755"><ele>1016.0</ele><time>2026-05-02T08:58:57Z</time></trkpt><trkpt lat="43.815362055316484" lon="11.597985724080388"><ele>1018.0</ele><time>2026-05-02T08:58:58Z</time></trkpt><trkpt lat="43.81547682330148" lon="11.598001429753262"><ele>1020.0</ele><time>2026-05-02T08:58:59Z</time></trkpt><trkpt lat="43.81561807594862" lon="11.597993516874617"><ele>1020.0</ele><time>2026-05-02T08:59:00Z</time></trkpt><trkpt lat="43.81579019078055" lon="11.597966030181418"><ele>1020.0</ele><time>2026-05-02T08:59:01Z</time></trkpt><trkpt lat="43.81594355688041" lon="11.59794850541015"><ele>1020.0</ele><time>2026-05-02T08:59:02Z</time></trkpt><trkpt lat="43.81604366575108" lon="11.597949131473309"><ele>1020.0</ele><time>2026-05-02T08:59:03Z</time></trkpt><trkpt lat="43.81613440374103" lon="11.597991075381215"><ele>1021.25</ele><time>2026-05-02T08:59:04Z</time></trkpt><trkpt lat="43.81625068068993" lon="11.598047238105178"><ele>1022.5</ele><time>2026-05-02T08:59:05Z</time></trkpt><trkpt lat="43.81638055647235" lon="11.598132363284815"><ele>1023.75</ele><time>2026-05-02T08:59:06Z</time></trkpt><trkpt lat="43.81651437663284" lon="11.598181079677083"><ele>1025.0</ele><time>2026-05-02T08:59:07Z</time></trkpt><trkpt lat="43.8166718751113" lon="11.598215619343724"><ele>1025.3333333333335</ele><time>2026-05-02T08:59:08Z</time></trkpt><trkpt lat="43.81683487763733" lon="11.598271188489303"><ele>1025.6666666666667</ele><time>2026-05-02T08:59:09Z</time></trkpt><trkpt lat="43.81700862597252" lon="11.59834466697732"><ele>1026.0</ele><time>2026-05-02T08:59:10Z</time></trkpt><trkpt lat="43.81712629420527" lon="11.598386600860026"><ele>1026.0</ele><time>2026-05-02T08:59:11Z</time></trkpt><trkpt lat="43.81726913524546" lon="11.5984491729343"><ele>1026.0</ele><time>2026-05-02T08:59:12Z</time></trkpt><trkpt lat="43.817356565476395" lon="11.598450579930411"><ele>1026.0</ele><time>2026-05-02T08:59:13Z</time></trkpt><trkpt lat="43.81732789661289" lon="11.598637013726234"><ele>1026.0</ele><time>2026-05-02T08:59:17Z</time></trkpt><trkpt lat="43.81724961711237" lon="11.59865215201691"><ele>1026.0</ele><time>2026-05-02T08:59:19Z</time></trkpt><trkpt lat="43.81721220931694" lon="11.598537023549428"><ele>1026.0</ele><time>2026-05-02T08:59:21Z</time></trkpt><trkpt lat="43.8172753999533" lon="11.5984074164876"><ele>1026.0</ele><time>2026-05-02T09:00:50Z</time></trkpt><trkpt lat="43.817443285951995" lon="11.598442839243763"><ele>1026.0</ele><time>2026-05-02T09:00:52Z</time></trkpt><trkpt lat="43.817581820302166" lon="11.598443204058162"><ele>1028.3333333333333</ele><time>2026-05-02T09:00:53Z</time></trkpt><trkpt lat="43.81775509075106" lon="11.598415953072761"><ele>1030.6666666666665</ele><time>2026-05-02T09:00:54Z</time></trkpt><trkpt lat="43.81793425350314" lon="11.598415691756585"><ele>1033.0</ele><time>2026-05-02T09:00:55Z</time></trkpt><trkpt lat="43.8180836458933" lon="11.598417832251696"><ele>1033.0</ele><time>2026-05-02T09:00:56Z</time></trkpt><trkpt lat="43.8181974387517" lon="11.598393452166643"><ele>1033.0</ele><time>2026-05-02T09:00:57Z</time></trkpt><trkpt lat="43.81833182118527" lon="11.598284847278586"><ele>1033.0</ele><time>2026-05-02T09:00:58Z</time></trkpt><trkpt lat="43.81849302236582" lon="11.598139082430453"><ele>1038.3333333333333</ele><time>2026-05-02T09:00:59Z</time></trkpt><trkpt lat="43.8186482501001" lon="11.598037914867627"><ele>1043.6666666666667</ele><time>2026-05-02T09:01:00Z</time></trkpt><trkpt lat="43.818782432950755" lon="11.5979580753109"><ele>1049.0</ele><time>2026-05-02T09:01:01Z</time></trkpt><trkpt lat="43.81891017027166" lon="11.597856748937028"><ele>1047.4</ele><time>2026-05-02T09:01:02Z</time></trkpt><trkpt lat="43.81901381987182" lon="11.597762040258306"><ele>1045.8000000000002</ele><time>2026-05-02T09:01:03Z</time></trkpt><trkpt lat="43.819095587591164" lon="11.597704618922391"><ele>1044.1999999999998</ele><time>2026-05-02T09:01:04Z</time></trkpt><trkpt lat="43.81916513213263" lon="11.597691885494221"><ele>1042.6</ele><time>2026-05-02T09:01:05Z</time></trkpt><trkpt lat="43.81925602482905" lon="11.597720082122828"><ele>1041.0</ele><time>2026-05-02T09:01:06Z</time></trkpt><trkpt lat="43.81932309729128" lon="11.597768178595025"><ele>1041.1666666666667</ele><time>2026-05-02T09:01:07Z</time></trkpt><trkpt lat="43.81939828940414" lon="11.597806960543604"><ele>1041.3333333333333</ele><time>2026-05-02T09:01:08Z</time></trkpt><trkpt lat="43.8194657707485" lon="11.597851581494181"><ele>1041.5</ele><time>2026-05-02T09:01:09Z</time></trkpt><trkpt lat="43.81953675514901" lon="11.597950708287483"><ele>1041.6666666666665</ele><time>2026-05-02T09:01:10Z</time></trkpt><trkpt lat="43.81957727752139" lon="11.598026507860062"><ele>1041.8333333333333</ele><time>2026-05-02T09:01:11Z</time></trkpt><trkpt lat="43.81962633855946" lon="11.598107804613216"><ele>1042.0</ele><time>2026-05-02T09:01:12Z</time></trkpt><trkpt lat="43.81967418713148" lon="11.598228238879518"><ele>1042.0</ele><time>2026-05-02T09:01:13Z</time></trkpt><trkpt lat="43.819719347819024" lon="11.598361440719327"><ele>1042.0</ele><time>2026-05-02T09:01:14Z</time></trkpt><trkpt lat="43.81976298911077" lon="11.598487678277703"><ele>1042.0</ele><time>2026-05-02T09:01:15Z</time></trkpt><trkpt lat="43.8198086857118" lon="11.598634984412715"><ele>1042.0</ele><time>2026-05-02T09:01:16Z</time></trkpt><trkpt lat="43.81984971618871" lon="11.598764446648879"><ele>1042.0</ele><time>2026-05-02T09:01:17Z</time></trkpt><trkpt lat="43.81988471158917" lon="11.598862102866278"><ele>1043.3333333333333</ele><time>2026-05-02T09:01:18Z</time></trkpt><trkpt lat="43.819912787940915" lon="11.59897012405959"><ele>1044.6666666666665</ele><time>2026-05-02T09:01:19Z</time></trkpt><trkpt lat="43.81995404415118" lon="11.599081164968588"><ele>1046.0</ele><time>2026-05-02T09:01:20Z</time></trkpt><trkpt lat="43.820003618360694" lon="11.59918120641293"><ele>1047.3333333333333</ele><time>2026-05-02T09:01:21Z</time></trkpt><trkpt lat="43.8200526761279" lon="11.599268046380914"><ele>1048.6666666666667</ele><time>2026-05-02T09:01:22Z</time></trkpt><trkpt lat="43.820105895038466" lon="11.599337748091862"><ele>1050.0</ele><time>2026-05-02T09:01:23Z</time></trkpt><trkpt lat="43.82018463882454" lon="11.599475818333303"><ele>1052.0</ele><time>2026-05-02T09:01:25Z</time></trkpt><trkpt lat="43.82022755150564" lon="11.599554131946446"><ele>1054.0</ele><time>2026-05-02T09:01:26Z</time></trkpt><trkpt lat="43.82031482664137" lon="11.599579791576474"><ele>1056.0</ele><time>2026-05-02T09:01:28Z</time></trkpt><trkpt lat="43.82038645473928" lon="11.599570762286522"><ele>1058.0</ele><time>2026-05-02T09:01:29Z</time></trkpt><trkpt lat="43.820456974868065" lon="11.599560900303521"><ele>1060.0</ele><time>2026-05-02T09:01:30Z</time></trkpt><trkpt lat="43.82054188922466" lon="11.599549412271607"><ele>1062.0</ele><time>2026-05-02T09:01:31Z</time></trkpt><trkpt lat="43.82065428573332" lon="11.599561230696589"><ele>1060.0</ele><time>2026-05-02T09:01:32Z</time></trkpt><trkpt lat="43.820730132876136" lon="11.599494245786483"><ele>1058.0</ele><time>2026-05-02T09:01:35Z</time></trkpt><trkpt lat="43.820837566814106" lon="11.599453768274053"><ele>1056.0</ele><time>2026-05-02T09:01:37Z</time></trkpt><trkpt lat="43.82090101853036" lon="11.599406203083445"><ele>1054.0</ele><time>2026-05-02T09:01:38Z</time></trkpt><trkpt lat="43.82099528452605" lon="11.599365759125934"><ele>1052.0</ele><time>2026-05-02T09:01:39Z</time></trkpt><trkpt lat="43.82112001864587" lon="11.599331850533066"><ele>1052.0</ele><time>2026-05-02T09:01:40Z</time></trkpt><trkpt lat="43.821236788330566" lon="11.599327987189557"><ele>1052.0</ele><time>2026-05-02T09:01:41.001Z</time></trkpt><trkpt lat="43.82133211484962" lon="11.59928505750452"><ele>1052.0</ele><time>2026-05-02T09:01:42.001Z</time></trkpt><trkpt lat="43.82142087785379" lon="11.599243110916563"><ele>1052.0</ele><time>2026-05-02T09:01:43.001Z</time></trkpt><trkpt lat="43.82151091259535" lon="11.59918226612215"><ele>1052.0</ele><time>2026-05-02T09:01:44.001Z</time></trkpt><trkpt lat="43.821612574233455" lon="11.599139354447278"><ele>1052.0</ele><time>2026-05-02T09:01:45.001Z</time></trkpt><trkpt lat="43.821690313062035" lon="11.599130687083086"><ele>1052.0</ele><time>2026-05-02T09:01:46.001Z</time></trkpt><trkpt lat="43.82176194815056" lon="11.599206504315122"><ele>1052.0</ele><time>2026-05-02T09:01:47.001Z</time></trkpt><trkpt lat="43.82182308506083" lon="11.599285836468963"><ele>1052.0</ele><time>2026-05-02T09:01:48.001Z</time></trkpt><trkpt lat="43.82188868158593" lon="11.599373562200727"><ele>1052.0</ele><time>2026-05-02T09:01:49.001Z</time></trkpt><trkpt lat="43.821955172525215" lon="11.599459716126727"><ele>1052.0</ele><time>2026-05-02T09:01:50.001Z</time></trkpt><trkpt lat="43.82195231186746" lon="11.599698338753715"><ele>1050.0</ele><time>2026-05-02T09:01:52.001Z</time></trkpt><trkpt lat="43.822010533317226" lon="11.599784671646697"><ele>1048.0</ele><time>2026-05-02T09:01:53.001Z</time></trkpt><trkpt lat="43.822115434318555" lon="11.599916314217335"><ele>1046.0</ele><time>2026-05-02T09:01:55.001Z</time></trkpt><trkpt lat="43.82220406190931" lon="11.599910288922986"><ele>1044.0</ele><time>2026-05-02T09:01:56Z</time></trkpt><trkpt lat="43.8223755104867" lon="11.600010505196774"><ele>1044.0</ele><time>2026-05-02T09:01:58Z</time></trkpt><trkpt lat="43.82244835859226" lon="11.600058532904669"><ele>1044.0</ele><time>2026-05-02T09:01:59Z</time></trkpt><trkpt lat="43.82251542735961" lon="11.600107678768588"><ele>1044.0</ele><time>2026-05-02T09:02:00Z</time></trkpt><trkpt lat="43.822574546682915" lon="11.600156138544095"><ele>1044.0</ele><time>2026-05-02T09:02:01Z</time></trkpt><trkpt lat="43.822638854851675" lon="11.600190169407144"><ele>1044.0</ele><time>2026-05-02T09:02:04Z</time></trkpt><trkpt lat="43.822733726519594" lon="11.600300242251828"><ele>1044.0</ele><time>2026-05-02T09:02:07Z</time></trkpt><trkpt lat="43.82281331454676" lon="11.600350324832181"><ele>1042.6666666666667</ele><time>2026-05-02T09:02:09Z</time></trkpt><trkpt lat="43.82292787658993" lon="11.600428606009833"><ele>1041.3333333333335</ele><time>2026-05-02T09:02:11Z</time></trkpt><trkpt lat="43.8230912705828" lon="11.600525226707017"><ele>1040.0</ele><time>2026-05-02T09:02:12Z</time></trkpt><trkpt lat="43.82324811517961" lon="11.60063994367018"><ele>1040.0</ele><time>2026-05-02T09:02:13Z</time></trkpt><trkpt lat="43.82340667837135" lon="11.600762919712238"><ele>1040.0</ele><time>2026-05-02T09:02:14Z</time></trkpt><trkpt lat="43.82350520529295" lon="11.600832166309148"><ele>1040.0</ele><time>2026-05-02T09:02:15Z</time></trkpt><trkpt lat="43.823572836176965" lon="11.600897017819454"><ele>1040.0</ele><time>2026-05-02T09:02:16Z</time></trkpt><trkpt lat="43.82366644925431" lon="11.600953896753543"><ele>1040.4</ele><time>2026-05-02T09:02:17Z</time></trkpt><trkpt lat="43.82375342057735" lon="11.601012432220829"><ele>1040.8</ele><time>2026-05-02T09:02:18Z</time></trkpt><trkpt lat="43.823857938767816" lon="11.6010745874752"><ele>1041.2</ele><time>2026-05-02T09:02:19Z</time></trkpt><trkpt lat="43.823953809588765" lon="11.601134133285507"><ele>1041.6</ele><time>2026-05-02T09:02:20Z</time></trkpt><trkpt lat="43.82403001672288" lon="11.601220258519087"><ele>1042.0</ele><time>2026-05-02T09:02:21Z</time></trkpt><trkpt lat="43.824143968060234" lon="11.601262619429882"><ele>1042.2</ele><time>2026-05-02T09:02:23Z</time></trkpt><trkpt lat="43.82421582379084" lon="11.601318242654761"><ele>1042.4</ele><time>2026-05-02T09:02:24Z</time></trkpt><trkpt lat="43.82433052107044" lon="11.601389623733947"><ele>1042.6</ele><time>2026-05-02T09:02:25Z</time></trkpt><trkpt lat="43.824416979051605" lon="11.601425408577832"><ele>1042.8</ele><time>2026-05-02T09:02:26Z</time></trkpt><trkpt lat="43.82448596033071" lon="11.601457159378182"><ele>1043.0</ele><time>2026-05-02T09:02:27Z</time></trkpt><trkpt lat="43.82456641411398" lon="11.601530644428594"><ele>1042.25</ele><time>2026-05-02T09:02:28Z</time></trkpt><trkpt lat="43.824662991301125" lon="11.60160493007159"><ele>1041.5</ele><time>2026-05-02T09:02:29Z</time></trkpt><trkpt lat="43.82476609946797" lon="11.601660566570004"><ele>1040.75</ele><time>2026-05-02T09:02:30Z</time></trkpt><trkpt lat="43.82488953550009" lon="11.60168744389687"><ele>1040.0</ele><time>2026-05-02T09:02:31Z</time></trkpt><trkpt lat="43.82500627105989" lon="11.601731756079033"><ele>1040.0</ele><time>2026-05-02T09:02:32Z</time></trkpt><trkpt lat="43.825083587124" lon="11.601765341543961"><ele>1040.0</ele><time>2026-05-02T09:02:33Z</time></trkpt><trkpt lat="43.82514844703371" lon="11.601815873947084"><ele>1040.0</ele><time>2026-05-02T09:02:34Z</time></trkpt><trkpt lat="43.825228061880686" lon="11.601896815974307"><ele>1040.0</ele><time>2026-05-02T09:02:35Z</time></trkpt><trkpt lat="43.82532367162308" lon="11.602026151580068"><ele>1040.0</ele><time>2026-05-02T09:02:36Z</time></trkpt><trkpt lat="43.82541355520891" lon="11.602158578622088"><ele>1039.0</ele><time>2026-05-02T09:02:37Z</time></trkpt><trkpt lat="43.82549911603722" lon="11.602273198705143"><ele>1038.0</ele><time>2026-05-02T09:02:38Z</time></trkpt><trkpt lat="43.825579733734614" lon="11.602378696287373"><ele>1037.0</ele><time>2026-05-02T09:02:39Z</time></trkpt><trkpt lat="43.8256625040393" lon="11.602466064843211"><ele>1036.0</ele><time>2026-05-02T09:02:40Z</time></trkpt><trkpt lat="43.82574209460339" lon="11.602523522430468"><ele>1035.0</ele><time>2026-05-02T09:02:41Z</time></trkpt><trkpt lat="43.82582385821643" lon="11.602522460030718"><ele>1035.0</ele><time>2026-05-02T09:02:42Z</time></trkpt><trkpt lat="43.82591050210204" lon="11.60247065917188"><ele>1035.0</ele><time>2026-05-02T09:02:43Z</time></trkpt><trkpt lat="43.82602212281475" lon="11.602332877353634"><ele>1035.0</ele><time>2026-05-02T09:02:44Z</time></trkpt><trkpt lat="43.82617631704545" lon="11.602126079124906"><ele>1034.4</ele><time>2026-05-02T09:02:45Z</time></trkpt><trkpt lat="43.826268412973036" lon="11.602007869336042"><ele>1033.8</ele><time>2026-05-02T09:02:46Z</time></trkpt><trkpt lat="43.82632435354724" lon="11.60192382320209"><ele>1033.2</ele><time>2026-05-02T09:02:47Z</time></trkpt><trkpt lat="43.8263943127895" lon="11.601868092373465"><ele>1032.6</ele><time>2026-05-02T09:02:48Z</time></trkpt><trkpt lat="43.826492994412135" lon="11.601818324128605"><ele>1032.0</ele><time>2026-05-02T09:02:49Z</time></trkpt><trkpt lat="43.826576305289514" lon="11.601831278309477"><ele>1032.0</ele><time>2026-05-02T09:02:50Z</time></trkpt><trkpt lat="43.826654235652335" lon="11.601880936129316"><ele>1032.0</ele><time>2026-05-02T09:02:51Z</time></trkpt><trkpt lat="43.82673036568496" lon="11.601921589099147"><ele>1032.0</ele><time>2026-05-02T09:02:52Z</time></trkpt><trkpt lat="43.82681000802575" lon="11.60194508692944"><ele>1032.0</ele><time>2026-05-02T09:02:53Z</time></trkpt><trkpt lat="43.82690470744947" lon="11.60194642797337"><ele>1032.0</ele><time>2026-05-02T09:02:54Z</time></trkpt><trkpt lat="43.827001559351196" lon="11.60194086871041"><ele>1032.0</ele><time>2026-05-02T09:02:55Z</time></trkpt><trkpt lat="43.82708194368813" lon="11.601927255393546"><ele>1032.5</ele><time>2026-05-02T09:02:56Z</time></trkpt><trkpt lat="43.827167806395906" lon="11.601857901778068"><ele>1033.0</ele><time>2026-05-02T09:02:57Z</time></trkpt><trkpt lat="43.827258931280376" lon="11.601726032487226"><ele>1033.5</ele><time>2026-05-02T09:02:58Z</time></trkpt><trkpt lat="43.8273484943334" lon="11.601571834947876"><ele>1034.0</ele><time>2026-05-02T09:02:59Z</time></trkpt><trkpt lat="43.827451837810656" lon="11.60140195938422"><ele>1034.0</ele><time>2026-05-02T09:03:00Z</time></trkpt><trkpt lat="43.827541818413145" lon="11.601257268373507"><ele>1034.0</ele><time>2026-05-02T09:03:01Z</time></trkpt><trkpt lat="43.827654945523996" lon="11.601152948766941"><ele>1034.0</ele><time>2026-05-02T09:03:02Z</time></trkpt><trkpt lat="43.82779968122327" lon="11.601095693783304"><ele>1034.0</ele><time>2026-05-02T09:03:03Z</time></trkpt><trkpt lat="43.82794230235041" lon="11.601064099441432"><ele>1032.75</ele><time>2026-05-02T09:03:04Z</time></trkpt><trkpt lat="43.82807834944448" lon="11.601076458176944"><ele>1031.5</ele><time>2026-05-02T09:03:05Z</time></trkpt><trkpt lat="43.82821018724399" lon="11.601103261895906"><ele>1030.25</ele><time>2026-05-02T09:03:06Z</time></trkpt><trkpt lat="43.828325613627094" lon="11.601160671266694"><ele>1029.0</ele><time>2026-05-02T09:03:07Z</time></trkpt><trkpt lat="43.828399090756506" lon="11.60120542645163"><ele>1029.0</ele><time>2026-05-02T09:03:08Z</time></trkpt><trkpt lat="43.828470721227916" lon="11.601220570012853"><ele>1029.0</ele><time>2026-05-02T09:03:10Z</time></trkpt><trkpt lat="43.82844048709954" lon="11.601338917845887"><ele>1029.0</ele><time>2026-05-02T09:03:19Z</time></trkpt><trkpt lat="43.82850537275423" lon="11.601483416767943"><ele>1029.0</ele><time>2026-05-02T09:03:21Z</time></trkpt><trkpt lat="43.82856265380961" lon="11.601632517981798"><ele>1029.0</ele><time>2026-05-02T09:03:22Z</time></trkpt><trkpt lat="43.82862416450606" lon="11.601796054296916"><ele>1026.0</ele><time>2026-05-02T09:03:23Z</time></trkpt><trkpt lat="43.82868379426894" lon="11.601934585929042"><ele>1023.0000000000001</ele><time>2026-05-02T09:03:24Z</time></trkpt><trkpt lat="43.82873608845608" lon="11.60207433976247"><ele>1020.0000000000001</ele><time>2026-05-02T09:03:25Z</time></trkpt><trkpt lat="43.8287826305409" lon="11.602215085386371"><ele>1017.0</ele><time>2026-05-02T09:03:26Z</time></trkpt><trkpt lat="43.82883418002345" lon="11.602322870458405"><ele>1014.0</ele><time>2026-05-02T09:03:27Z</time></trkpt><trkpt lat="43.82888974951223" lon="11.60242629439054"><ele>1014.0</ele><time>2026-05-02T09:03:28Z</time></trkpt><trkpt lat="43.828952834736896" lon="11.60252230534536"><ele>1014.0000000000001</ele><time>2026-05-02T09:03:29Z</time></trkpt><trkpt lat="43.82903955857186" lon="11.602618085497163"><ele>1014.0000000000001</ele><time>2026-05-02T09:03:30Z</time></trkpt><trkpt lat="43.82908968736174" lon="11.602738923269687"><ele>1014.0</ele><time>2026-05-02T09:03:31Z</time></trkpt><trkpt lat="43.82915822409906" lon="11.602854218579155"><ele>1014.0</ele><time>2026-05-02T09:03:32Z</time></trkpt><trkpt lat="43.82923502538718" lon="11.603011078267906"><ele>1009.75</ele><time>2026-05-02T09:03:33Z</time></trkpt><trkpt lat="43.82931226016951" lon="11.603158568902156"><ele>1005.5</ele><time>2026-05-02T09:03:34Z</time></trkpt><trkpt lat="43.82937329270152" lon="11.603286956883915"><ele>1001.25</ele><time>2026-05-02T09:03:35Z</time></trkpt><trkpt lat="43.82944137108174" lon="11.603387700327653"><ele>997.0</ele><time>2026-05-02T09:03:36Z</time></trkpt><trkpt lat="43.82959849650963" lon="11.60341398797502"><ele>997.0</ele><time>2026-05-02T09:03:38Z</time></trkpt><trkpt lat="43.829766695763674" lon="11.603274116017836"><ele>997.0</ele><time>2026-05-02T09:03:39Z</time></trkpt><trkpt lat="43.829823395183425" lon="11.60319158450873"><ele>997.0</ele><time>2026-05-02T09:03:40Z</time></trkpt><trkpt lat="43.8298426911054" lon="11.603041019902987"><ele>997.0</ele><time>2026-05-02T09:03:41Z</time></trkpt><trkpt lat="43.82978280762886" lon="11.602869509507844"><ele>997.0</ele><time>2026-05-02T09:03:42Z</time></trkpt><trkpt lat="43.82975384774359" lon="11.602716521882334"><ele>997.0</ele><time>2026-05-02T09:03:44Z</time></trkpt><trkpt lat="43.82969918573137" lon="11.602596519449468"><ele>997.0</ele><time>2026-05-02T09:03:45Z</time></trkpt><trkpt lat="43.82966402671903" lon="11.60249067910291"><ele>997.0</ele><time>2026-05-02T09:03:46Z</time></trkpt><trkpt lat="43.829791591815926" lon="11.60261116196805"><ele>997.0</ele><time>2026-05-02T09:03:47Z</time></trkpt><trkpt lat="43.8298275063277" lon="11.602489481771181"><ele>997.0</ele><time>2026-05-02T09:03:49Z</time></trkpt><trkpt lat="43.82991379417551" lon="11.602505979688914"><ele>997.0</ele><time>2026-05-02T09:03:52Z</time></trkpt><trkpt lat="43.8299810681074" lon="11.602573723561637"><ele>997.0</ele><time>2026-05-02T09:03:53Z</time></trkpt><trkpt lat="43.830020285466716" lon="11.602669469082466"><ele>997.0</ele><time>2026-05-02T09:03:54Z</time></trkpt><trkpt lat="43.83009169962186" lon="11.602813575686312"><ele>995.3333333333333</ele><time>2026-05-02T09:03:55Z</time></trkpt><trkpt lat="43.83017132183076" lon="11.602951913938218"><ele>993.6666666666667</ele><time>2026-05-02T09:03:56Z</time></trkpt><trkpt lat="43.83027225221262" lon="11.60311689177889"><ele>992.0</ele><time>2026-05-02T09:03:57Z</time></trkpt><trkpt lat="43.83039183646751" lon="11.603333405327827"><ele>992.0</ele><time>2026-05-02T09:03:58Z</time></trkpt><trkpt lat="43.8304938867438" lon="11.603496033777066"><ele>992.0</ele><time>2026-05-02T09:03:59Z</time></trkpt><trkpt lat="43.83057021573645" lon="11.60367769170971"><ele>992.0</ele><time>2026-05-02T09:04:00Z</time></trkpt><trkpt lat="43.83062432027611" lon="11.603759687151486"><ele>992.0</ele><time>2026-05-02T09:04:01Z</time></trkpt><trkpt lat="43.83067083517565" lon="11.603843242770731"><ele>992.8333333333334</ele><time>2026-05-02T09:04:02Z</time></trkpt><trkpt lat="43.830733497870405" lon="11.603896285714166"><ele>993.6666666666667</ele><time>2026-05-02T09:04:03Z</time></trkpt><trkpt lat="43.83078982264743" lon="11.603937457468872"><ele>994.5</ele><time>2026-05-02T09:04:04Z</time></trkpt><trkpt lat="43.830862637722625" lon="11.60390457192945"><ele>995.3333333333333</ele><time>2026-05-02T09:04:06Z</time></trkpt><trkpt lat="43.83094299995955" lon="11.603865581526453"><ele>996.1666666666666</ele><time>2026-05-02T09:04:08Z</time></trkpt><trkpt lat="43.831027769568124" lon="11.603818799151407"><ele>997.0</ele><time>2026-05-02T09:04:10Z</time></trkpt><trkpt lat="43.83112763527735" lon="11.603805560153585"><ele>996.9999999999999</ele><time>2026-05-02T09:04:12Z</time></trkpt><trkpt lat="43.83117850616437" lon="11.603751478656466"><ele>997.0</ele><time>2026-05-02T09:04:14Z</time></trkpt><trkpt lat="43.83108481470027" lon="11.603725172439626"><ele>997.0</ele><time>2026-05-02T09:04:17Z</time></trkpt><trkpt lat="43.83101693647112" lon="11.603777881083621"><ele>997.0</ele><time>2026-05-02T09:04:19Z</time></trkpt><trkpt lat="43.83095178915926" lon="11.603894983174678"><ele>996.9999999999999</ele><time>2026-05-02T09:05:47.999Z</time></trkpt><trkpt lat="43.83095341453392" lon="11.60400243557253"><ele>997.0</ele><time>2026-05-02T09:05:49.999Z</time></trkpt><trkpt lat="43.83110503376085" lon="11.604082294794509"><ele>997.0</ele><time>2026-05-02T09:05:52Z</time></trkpt><trkpt lat="43.83122120057184" lon="11.604147403624456"><ele>997.0</ele><time>2026-05-02T09:05:53Z</time></trkpt><trkpt lat="43.83129346703367" lon="11.604205841385035"><ele>997.0</ele><time>2026-05-02T09:05:54Z</time></trkpt><trkpt lat="43.83125713549538" lon="11.604128277441148"><ele>997.0</ele><time>2026-05-02T09:06:12Z</time></trkpt><trkpt lat="43.831300397201645" lon="11.603932454640143"><ele>997.0</ele><time>2026-05-02T09:06:16Z</time></trkpt><trkpt lat="43.831310391083996" lon="11.60383749912009"><ele>997.0</ele><time>2026-05-02T09:06:17Z</time></trkpt><trkpt lat="43.831319244249926" lon="11.603740052440758"><ele>997.0</ele><time>2026-05-02T09:06:18Z</time></trkpt><trkpt lat="43.831382992007825" lon="11.603669738294197"><ele>997.0</ele><time>2026-05-02T09:06:22Z</time></trkpt><trkpt lat="43.83152970363346" lon="11.603665617331302"><ele>997.0</ele><time>2026-05-02T09:06:24Z</time></trkpt><trkpt lat="43.831646366723994" lon="11.603670964781974"><ele>997.0</ele><time>2026-05-02T09:06:25Z</time></trkpt><trkpt lat="43.83173517196427" lon="11.603676759864562"><ele>997.0</ele><time>2026-05-02T09:06:26Z</time></trkpt><trkpt lat="43.83181121153358" lon="11.603667997315746"><ele>997.0</ele><time>2026-05-02T09:06:27Z</time></trkpt><trkpt lat="43.83187442441331" lon="11.603629228741742"><ele>997.0</ele><time>2026-05-02T09:06:28Z</time></trkpt><trkpt lat="43.83197252399303" lon="11.603531886911956"><ele>997.0</ele><time>2026-05-02T09:06:30Z</time></trkpt><trkpt lat="43.83204927927686" lon="11.603464754714567"><ele>997.0</ele><time>2026-05-02T09:06:31Z</time></trkpt><trkpt lat="43.83213100629104" lon="11.603391307240505"><ele>997.0</ele><time>2026-05-02T09:06:32Z</time></trkpt><trkpt lat="43.832200451849594" lon="11.603335100554098"><ele>997.0</ele><time>2026-05-02T09:06:33Z</time></trkpt><trkpt lat="43.8322638275257" lon="11.603312463026048"><ele>997.0</ele><time>2026-05-02T09:06:34Z</time></trkpt><trkpt lat="43.832341970145" lon="11.60329346171222"><ele>997.0</ele><time>2026-05-02T09:06:36Z</time></trkpt><trkpt lat="43.83245202041728" lon="11.60332277598916"><ele>997.0</ele><time>2026-05-02T09:06:39Z</time></trkpt><trkpt lat="43.832575883860976" lon="11.603390130637825"><ele>997.6</ele><time>2026-05-02T09:06:41Z</time></trkpt><trkpt lat="43.832643360963466" lon="11.603426626877921"><ele>998.2</ele><time>2026-05-02T09:06:42Z</time></trkpt><trkpt lat="43.83272568130103" lon="11.603452089822888"><ele>998.8</ele><time>2026-05-02T09:06:43Z</time></trkpt><trkpt lat="43.83283384176716" lon="11.603462994603467"><ele>999.4</ele><time>2026-05-02T09:06:44Z</time></trkpt><trkpt lat="43.83292109060292" lon="11.60347204682458"><ele>1000.0</ele><time>2026-05-02T09:06:45Z</time></trkpt><trkpt lat="43.833019851687965" lon="11.60349373296233"><ele>1000.0</ele><time>2026-05-02T09:06:46Z</time></trkpt><trkpt lat="43.83312135422138" lon="11.603514446860652"><ele>1000.0</ele><time>2026-05-02T09:06:47Z</time></trkpt><trkpt lat="43.833238758260514" lon="11.603525774168114"><ele>1000.0</ele><time>2026-05-02T09:06:48Z</time></trkpt><trkpt lat="43.833331021872304" lon="11.603505312840541"><ele>1000.0</ele><time>2026-05-02T09:06:49Z</time></trkpt><trkpt lat="43.83341061351939" lon="11.603475671765207"><ele>1000.0</ele><time>2026-05-02T09:06:50Z</time></trkpt><trkpt lat="43.833502661742926" lon="11.603419719584773"><ele>1000.6</ele><time>2026-05-02T09:06:51Z</time></trkpt><trkpt lat="43.833533180948145" lon="11.60327337950788"><ele>1001.2</ele><time>2026-05-02T09:06:52Z</time></trkpt><trkpt lat="43.83359562593967" lon="11.603192459898095"><ele>1001.8</ele><time>2026-05-02T09:06:53Z</time></trkpt><trkpt lat="43.83368440939127" lon="11.60315359004137"><ele>1002.4</ele><time>2026-05-02T09:06:54Z</time></trkpt><trkpt lat="43.833749503395175" lon="11.603104057953775"><ele>1003.0</ele><time>2026-05-02T09:06:55Z</time></trkpt><trkpt lat="43.83384323692932" lon="11.603082051761708"><ele>1003.0</ele><time>2026-05-02T09:06:56Z</time></trkpt><trkpt lat="43.833942638830514" lon="11.60307290399418"><ele>1003.0</ele><time>2026-05-02T09:06:57Z</time></trkpt><trkpt lat="43.8340448858098" lon="11.603121650285074"><ele>1003.0</ele><time>2026-05-02T09:06:58Z</time></trkpt><trkpt lat="43.8341282783668" lon="11.603191211944669"><ele>1003.0</ele><time>2026-05-02T09:06:58.999Z</time></trkpt><trkpt lat="43.83420172347083" lon="11.603240202297991"><ele>1003.0</ele><time>2026-05-02T09:06:59.999Z</time></trkpt><trkpt lat="43.83426256122153" lon="11.603295605322794"><ele>1002.0</ele><time>2026-05-02T09:07:00.999Z</time></trkpt><trkpt lat="43.8343142195828" lon="11.603386249454754"><ele>1001.0</ele><time>2026-05-02T09:07:01.999Z</time></trkpt><trkpt lat="43.83435975798997" lon="11.603480205249566"><ele>1000.0</ele><time>2026-05-02T09:07:02.999Z</time></trkpt><trkpt lat="43.83442460563948" lon="11.603618195107208"><ele>999.0</ele><time>2026-05-02T09:07:04.999Z</time></trkpt><trkpt lat="43.83448499980553" lon="11.603771348743248"><ele>998.0</ele><time>2026-05-02T09:07:06.999Z</time></trkpt><trkpt lat="43.83450692396897" lon="11.603875457427174"><ele>1000.2</ele><time>2026-05-02T09:07:07.999Z</time></trkpt><trkpt lat="43.834517337759884" lon="11.603989885907842"><ele>1002.4</ele><time>2026-05-02T09:07:08.999Z</time></trkpt><trkpt lat="43.83453228517141" lon="11.604130857192796"><ele>1004.6000000000001</ele><time>2026-05-02T09:07:10.999Z</time></trkpt><trkpt lat="43.834611593204414" lon="11.604139979098685"><ele>1006.8000000000001</ele><time>2026-05-02T09:07:15.999Z</time></trkpt><trkpt lat="43.834693647995124" lon="11.604097559264241"><ele>1009.0</ele><time>2026-05-02T09:07:16.999Z</time></trkpt><trkpt lat="43.83481470424759" lon="11.604085922231027"><ele>1009.0</ele><time>2026-05-02T09:07:17.999Z</time></trkpt><trkpt lat="43.83495405346814" lon="11.604116586723903"><ele>1009.0</ele><time>2026-05-02T09:07:18.999Z</time></trkpt><trkpt lat="43.835073443439654" lon="11.6041657132479"><ele>1009.0</ele><time>2026-05-02T09:07:19.999Z</time></trkpt><trkpt lat="43.835160096823124" lon="11.604203857454952"><ele>1009.0</ele><time>2026-05-02T09:07:20.999Z</time></trkpt><trkpt lat="43.835265923253" lon="11.604264703005356"><ele>1009.2</ele><time>2026-05-02T09:07:21.999Z</time></trkpt><trkpt lat="43.83540176043497" lon="11.604363689828846"><ele>1009.4000000000001</ele><time>2026-05-02T09:07:22.999Z</time></trkpt><trkpt lat="43.835508714138996" lon="11.604457793365954"><ele>1009.6</ele><time>2026-05-02T09:07:23.999Z</time></trkpt><trkpt lat="43.83557594759009" lon="11.604522469191771"><ele>1009.8</ele><time>2026-05-02T09:07:24.999Z</time></trkpt><trkpt lat="43.83564546522657" lon="11.604572288585327"><ele>1010.0</ele><time>2026-05-02T09:07:25.999Z</time></trkpt><trkpt lat="43.835713470168976" lon="11.60461172218181"><ele>1010.0000000000001</ele><time>2026-05-02T09:07:26.999Z</time></trkpt><trkpt lat="43.835784558766996" lon="11.604638326336527"><ele>1010.0</ele><time>2026-05-02T09:07:27.999Z</time></trkpt><trkpt lat="43.83586087790495" lon="11.604748512597455"><ele>1010.0</ele><time>2026-05-02T09:07:29.999Z</time></trkpt><trkpt lat="43.835899617475654" lon="11.604854919565046"><ele>1010.0</ele><time>2026-05-02T09:07:30.999Z</time></trkpt><trkpt lat="43.8359408228529" lon="11.60495226729997"><ele>1010.0000000000001</ele><time>2026-05-02T09:07:31.999Z</time></trkpt><trkpt lat="43.835992813111964" lon="11.605004870408187"><ele>1010.0</ele><time>2026-05-02T09:07:32.999Z</time></trkpt><trkpt lat="43.836103642735964" lon="11.605022409671141"><ele>1007.1666666666667</ele><time>2026-05-02T09:07:41.999Z</time></trkpt><trkpt lat="43.83616765222865" lon="11.605009784815197"><ele>1004.3333333333334</ele><time>2026-05-02T09:07:42.999Z</time></trkpt><trkpt lat="43.8362808001762" lon="11.605041380772533"><ele>1001.5</ele><time>2026-05-02T09:07:44.999Z</time></trkpt><trkpt lat="43.83635020103671" lon="11.60504462307666"><ele>998.6666666666667</ele><time>2026-05-02T09:07:45.999Z</time></trkpt><trkpt lat="43.836425045760265" lon="11.605050832677076"><ele>995.8333333333334</ele><time>2026-05-02T09:07:46.999Z</time></trkpt><trkpt lat="43.83650330854119" lon="11.6050540154387"><ele>993.0</ele><time>2026-05-02T09:07:47.999Z</time></trkpt><trkpt lat="43.83657117410154" lon="11.605027017601282"><ele>993.0</ele><time>2026-05-02T09:07:48.999Z</time></trkpt><trkpt lat="43.836642052675764" lon="11.604996993942128"><ele>993.0</ele><time>2026-05-02T09:07:49.999Z</time></trkpt><trkpt lat="43.836707219632586" lon="11.604914035309774"><ele>993.0</ele><time>2026-05-02T09:07:50.999Z</time></trkpt><trkpt lat="43.836777895760456" lon="11.60483245437452"><ele>993.0</ele><time>2026-05-02T09:07:51.999Z</time></trkpt><trkpt lat="43.83685328550252" lon="11.604777223122957"><ele>993.0</ele><time>2026-05-02T09:07:52.999Z</time></trkpt><trkpt lat="43.836987103352406" lon="11.604772594022778"><ele>991.3333333333334</ele><time>2026-05-02T09:07:54.999Z</time></trkpt><trkpt lat="43.83707571136767" lon="11.60476840088666"><ele>989.6666666666667</ele><time>2026-05-02T09:07:55.999Z</time></trkpt><trkpt lat="43.83716094526888" lon="11.604752975483489"><ele>988.0</ele><time>2026-05-02T09:07:56.999Z</time></trkpt><trkpt lat="43.83724011581065" lon="11.604754994280066"><ele>986.3333333333334</ele><time>2026-05-02T09:07:58Z</time></trkpt><trkpt lat="43.83732344182143" lon="11.604749044774607"><ele>984.6666666666667</ele><time>2026-05-02T09:07:59Z</time></trkpt><trkpt lat="43.83740133965126" lon="11.604714002054905"><ele>983.0</ele><time>2026-05-02T09:08:00Z</time></trkpt><trkpt lat="43.8374712031358" lon="11.604665901863793"><ele>983.0</ele><time>2026-05-02T09:08:01Z</time></trkpt><trkpt lat="43.83753070248864" lon="11.604592501787575"><ele>983.0</ele><time>2026-05-02T09:08:03Z</time></trkpt><trkpt lat="43.83759745580996" lon="11.604529186273542"><ele>983.0</ele><time>2026-05-02T09:08:16Z</time></trkpt><trkpt lat="43.837698412275856" lon="11.60441901681861"><ele>983.0</ele><time>2026-05-02T09:08:18Z</time></trkpt><trkpt lat="43.837777013034746" lon="11.604363614998634"><ele>983.0</ele><time>2026-05-02T09:08:19Z</time></trkpt><trkpt lat="43.83786783629664" lon="11.604272733493357"><ele>979.4</ele><time>2026-05-02T09:08:20Z</time></trkpt><trkpt lat="43.8379458540305" lon="11.604210466420607"><ele>975.8</ele><time>2026-05-02T09:08:21Z</time></trkpt><trkpt lat="43.838022005768686" lon="11.604117669016706"><ele>972.2</ele><time>2026-05-02T09:08:23Z</time></trkpt><trkpt lat="43.83809641405248" lon="11.604038720762954"><ele>968.6</ele><time>2026-05-02T09:08:24Z</time></trkpt><trkpt lat="43.83819200733711" lon="11.6039763374085"><ele>965.0</ele><time>2026-05-02T09:08:26Z</time></trkpt><trkpt lat="43.838296250398926" lon="11.603878816073479"><ele>965.0</ele><time>2026-05-02T09:08:27Z</time></trkpt><trkpt lat="43.83838100229879" lon="11.603821413295968"><ele>965.0</ele><time>2026-05-02T09:08:28Z</time></trkpt><trkpt lat="43.83846634351649" lon="11.60377082542343"><ele>965.0</ele><time>2026-05-02T09:08:29Z</time></trkpt><trkpt lat="43.83855790661652" lon="11.603757068649012"><ele>965.0</ele><time>2026-05-02T09:08:30Z</time></trkpt><trkpt lat="43.83865210856241" lon="11.60376696714532"><ele>965.0</ele><time>2026-05-02T09:08:31Z</time></trkpt><trkpt lat="43.838729852533305" lon="11.603804416511458"><ele>963.25</ele><time>2026-05-02T09:08:32Z</time></trkpt><trkpt lat="43.838828698534975" lon="11.603903284824272"><ele>961.5</ele><time>2026-05-02T09:08:33Z</time></trkpt><trkpt lat="43.838928466575645" lon="11.604062731221967"><ele>959.75</ele><time>2026-05-02T09:08:34Z</time></trkpt><trkpt lat="43.839006156919936" lon="11.604200122848118"><ele>958.0</ele><time>2026-05-02T09:08:35Z</time></trkpt><trkpt lat="43.8390860255146" lon="11.604284038286634"><ele>958.0</ele><time>2026-05-02T09:08:36Z</time></trkpt><trkpt lat="43.839172857667485" lon="11.60435340021062"><ele>958.0</ele><time>2026-05-02T09:08:37Z</time></trkpt><trkpt lat="43.839256931459886" lon="11.604415639021"><ele>958.0</ele><time>2026-05-02T09:08:38Z</time></trkpt><trkpt lat="43.839342052653244" lon="11.604472731114713"><ele>958.0</ele><time>2026-05-02T09:08:39Z</time></trkpt><trkpt lat="43.83940329561779" lon="11.604546788502343"><ele>958.0</ele><time>2026-05-02T09:08:40Z</time></trkpt><trkpt lat="43.83948214265574" lon="11.604622481986471"><ele>956.75</ele><time>2026-05-02T09:08:41Z</time></trkpt><trkpt lat="43.83958343945117" lon="11.604757056587479"><ele>955.5</ele><time>2026-05-02T09:08:42Z</time></trkpt><trkpt lat="43.839703395001806" lon="11.60490013778648"><ele>954.25</ele><time>2026-05-02T09:08:43Z</time></trkpt><trkpt lat="43.839787322449446" lon="11.6049967176039"><ele>953.0</ele><time>2026-05-02T09:08:44Z</time></trkpt><trkpt lat="43.83986688318724" lon="11.605082820339954"><ele>953.0</ele><time>2026-05-02T09:08:45Z</time></trkpt><trkpt lat="43.83992180569927" lon="11.605195266499637"><ele>953.0</ele><time>2026-05-02T09:08:46Z</time></trkpt><trkpt lat="43.83997353593412" lon="11.605308281651213"><ele>953.0</ele><time>2026-05-02T09:08:47Z</time></trkpt><trkpt lat="43.839975782830145" lon="11.60546173975641"><ele>953.0</ele><time>2026-05-02T09:08:48Z</time></trkpt><trkpt lat="43.83998954264082" lon="11.605593790448832"><ele>953.0</ele><time>2026-05-02T09:08:49Z</time></trkpt><trkpt lat="43.83999294618269" lon="11.605729290299193"><ele>952.5000000000001</ele><time>2026-05-02T09:08:50Z</time></trkpt><trkpt lat="43.83998780237177" lon="11.605871356161586"><ele>952.0</ele><time>2026-05-02T09:08:51Z</time></trkpt><trkpt lat="43.84000385961626" lon="11.605991678350362"><ele>951.5</ele><time>2026-05-02T09:08:51.999Z</time></trkpt><trkpt lat="43.84001119565401" lon="11.606090389560306"><ele>951.0</ele><time>2026-05-02T09:08:52.999Z</time></trkpt><trkpt lat="43.840024837431045" lon="11.606194206876696"><ele>950.5000000000001</ele><time>2026-05-02T09:08:53.999Z</time></trkpt><trkpt lat="43.84003348609133" lon="11.606320169962588"><ele>950.0</ele><time>2026-05-02T09:08:54.999Z</time></trkpt><trkpt lat="43.84006621486288" lon="11.606446867398713"><ele>949.0</ele><time>2026-05-02T09:08:55.999Z</time></trkpt><trkpt lat="43.84012158997338" lon="11.606575883706684"><ele>948.0</ele><time>2026-05-02T09:08:56.999Z</time></trkpt><trkpt lat="43.840212299052205" lon="11.606747960051026"><ele>947.0</ele><time>2026-05-02T09:08:57.999Z</time></trkpt><trkpt lat="43.840290521396604" lon="11.606894723064247"><ele>946.0</ele><time>2026-05-02T09:08:58.999Z</time></trkpt><trkpt lat="43.840365807310015" lon="11.607014816507126"><ele>943.8</ele><time>2026-05-02T09:08:59.999Z</time></trkpt><trkpt lat="43.84042323013486" lon="11.607130514297477"><ele>941.5999999999999</ele><time>2026-05-02T09:09:00.999Z</time></trkpt><trkpt lat="43.84046747081301" lon="11.607267559082379"><ele>939.4</ele><time>2026-05-02T09:09:01.999Z</time></trkpt><trkpt lat="43.840496421030224" lon="11.607402184598644"><ele>937.2</ele><time>2026-05-02T09:09:02.999Z</time></trkpt><trkpt lat="43.84050624456341" lon="11.607522639557246"><ele>935.0</ele><time>2026-05-02T09:09:03.999Z</time></trkpt><trkpt lat="43.84050377255848" lon="11.607636671684375"><ele>935.0000000000001</ele><time>2026-05-02T09:09:04.999Z</time></trkpt><trkpt lat="43.84052767149977" lon="11.607733182021065"><ele>935.0</ele><time>2026-05-02T09:09:05.999Z</time></trkpt><trkpt lat="43.84056826787423" lon="11.60781689115913"><ele>935.0</ele><time>2026-05-02T09:09:06.999Z</time></trkpt><trkpt lat="43.840608072201924" lon="11.607891112857493"><ele>935.0</ele><time>2026-05-02T09:09:07.999Z</time></trkpt><trkpt lat="43.84067086749534" lon="11.607999247900874"><ele>935.0000000000001</ele><time>2026-05-02T09:09:09.999Z</time></trkpt><trkpt lat="43.84073095205398" lon="11.608109123526786"><ele>935.0</ele><time>2026-05-02T09:09:12.999Z</time></trkpt><trkpt lat="43.840727872101226" lon="11.6082431397554"><ele>935.8</ele><time>2026-05-02T09:09:14.999Z</time></trkpt><trkpt lat="43.8406888707037" lon="11.6084186245453"><ele>936.6</ele><time>2026-05-02T09:09:16.999Z</time></trkpt><trkpt lat="43.8406943545398" lon="11.608514600928164"><ele>937.4000000000001</ele><time>2026-05-02T09:09:17.999Z</time></trkpt><trkpt lat="43.84070410361641" lon="11.60861936672243"><ele>938.2</ele><time>2026-05-02T09:09:18.999Z</time></trkpt><trkpt lat="43.840706457214935" lon="11.608779467708198"><ele>939.0</ele><time>2026-05-02T09:09:20.999Z</time></trkpt><trkpt lat="43.84072237293249" lon="11.608905240843715"><ele>940.2</ele><time>2026-05-02T09:09:21.999Z</time></trkpt><trkpt lat="43.840746370519675" lon="11.609052953923339"><ele>941.4000000000001</ele><time>2026-05-02T09:09:22.999Z</time></trkpt><trkpt lat="43.84077508563578" lon="11.609169964389913"><ele>942.6</ele><time>2026-05-02T09:09:23.999Z</time></trkpt><trkpt lat="43.84078305190284" lon="11.609283338025358"><ele>943.8</ele><time>2026-05-02T09:09:25.999Z</time></trkpt><trkpt lat="43.84080798614571" lon="11.609475606383652"><ele>945.0</ele><time>2026-05-02T09:09:27.999Z</time></trkpt><trkpt lat="43.84082138325495" lon="11.609625968073159"><ele>944.5</ele><time>2026-05-02T09:09:28.999Z</time></trkpt><trkpt lat="43.84085460603605" lon="11.609742184357525"><ele>944.0</ele><time>2026-05-02T09:09:29.999Z</time></trkpt><trkpt lat="43.840875921219265" lon="11.60983601734224"><ele>943.5</ele><time>2026-05-02T09:09:30.999Z</time></trkpt><trkpt lat="43.84088179198425" lon="11.609930748137554"><ele>943.0</ele><time>2026-05-02T09:09:31.999Z</time></trkpt><trkpt lat="43.84086887220446" lon="11.610067649446954"><ele>942.5</ele><time>2026-05-02T09:09:32.999Z</time></trkpt><trkpt lat="43.84086121821417" lon="11.61022442155565"><ele>942.0</ele><time>2026-05-02T09:09:33.999Z</time></trkpt><trkpt lat="43.84085144251069" lon="11.610358054907673"><ele>942.0</ele><time>2026-05-02T09:09:34.999Z</time></trkpt><trkpt lat="43.840840543250806" lon="11.610473092323677"><ele>942.0</ele><time>2026-05-02T09:09:35.999Z</time></trkpt><trkpt lat="43.84085445250078" lon="11.61058171768785"><ele>942.0</ele><time>2026-05-02T09:09:36.999Z</time></trkpt><trkpt lat="43.840898313130516" lon="11.610686504160121"><ele>942.0</ele><time>2026-05-02T09:09:37.999Z</time></trkpt><trkpt lat="43.84092489785314" lon="11.610801991122532"><ele>942.0</ele><time>2026-05-02T09:09:38.999Z</time></trkpt><trkpt lat="43.8409436512437" lon="11.61091895565521"><ele>942.0</ele><time>2026-05-02T09:09:39.999Z</time></trkpt><trkpt lat="43.84096519613299" lon="11.611040022197564"><ele>942.0</ele><time>2026-05-02T09:09:40.999Z</time></trkpt><trkpt lat="43.84101030215767" lon="11.611146435563487"><ele>942.0</ele><time>2026-05-02T09:09:41.999Z</time></trkpt><trkpt lat="43.841062252250076" lon="11.611266154510927"><ele>942.0</ele><time>2026-05-02T09:09:42.999Z</time></trkpt><trkpt lat="43.841134809795136" lon="11.611354208608788"><ele>942.0</ele><time>2026-05-02T09:09:43.999Z</time></trkpt><trkpt lat="43.841221117591616" lon="11.611309125013"><ele>942.0</ele><time>2026-05-02T09:09:45.999Z</time></trkpt><trkpt lat="43.8412997655936" lon="11.611239252124198"><ele>944.8</ele><time>2026-05-02T09:09:47.999Z</time></trkpt><trkpt lat="43.84142722468737" lon="11.611121776811409"><ele>947.6</ele><time>2026-05-02T09:09:49.999Z</time></trkpt><trkpt lat="43.84150660856354" lon="11.61105570310619"><ele>950.3999999999999</ele><time>2026-05-02T09:09:50.999Z</time></trkpt><trkpt lat="43.841589604439456" lon="11.61101888429707"><ele>953.1999999999999</ele><time>2026-05-02T09:09:51.999Z</time></trkpt><trkpt lat="43.841659131377256" lon="11.611036859694641"><ele>956.0</ele><time>2026-05-02T09:09:52.999Z</time></trkpt><trkpt lat="43.841753008671965" lon="11.611122788678738"><ele>955.1999999999999</ele><time>2026-05-02T09:09:54.999Z</time></trkpt><trkpt lat="43.84183269176949" lon="11.611222419166653"><ele>954.3999999999999</ele><time>2026-05-02T09:09:56.999Z</time></trkpt><trkpt lat="43.8418979320423" lon="11.611388318390242"><ele>953.6</ele><time>2026-05-02T09:09:58.999Z</time></trkpt><trkpt lat="43.84193388262683" lon="11.61146747701502"><ele>952.8</ele><time>2026-05-02T09:09:59.999Z</time></trkpt><trkpt lat="43.84194145978454" lon="11.611573152600599"><ele>952.0</ele><time>2026-05-02T09:10:00.999Z</time></trkpt><trkpt lat="43.84196204678603" lon="11.611712281028284"><ele>952.0</ele><time>2026-05-02T09:10:01.999Z</time></trkpt><trkpt lat="43.84197363319873" lon="11.611831961500004"><ele>952.0</ele><time>2026-05-02T09:10:02.999Z</time></trkpt><trkpt lat="43.84196252520376" lon="11.611982107755633"><ele>952.0</ele><time>2026-05-02T09:10:05Z</time></trkpt><trkpt lat="43.84198459029146" lon="11.612084809656023"><ele>952.0</ele><time>2026-05-02T09:10:06Z</time></trkpt><trkpt lat="43.84198959683385" lon="11.612208736358342"><ele>952.0</ele><time>2026-05-02T09:10:07Z</time></trkpt><trkpt lat="43.84196940172099" lon="11.612351474124596"><ele>949.2</ele><time>2026-05-02T09:10:09Z</time></trkpt><trkpt lat="43.84196541460669" lon="11.612503713851556"><ele>946.4000000000001</ele><time>2026-05-02T09:10:11Z</time></trkpt><trkpt lat="43.841987645587224" lon="11.612588618225011"><ele>943.5999999999999</ele><time>2026-05-02T09:10:12Z</time></trkpt><trkpt lat="43.84208964402807" lon="11.612639509271723"><ele>940.8</ele><time>2026-05-02T09:10:14Z</time></trkpt><trkpt lat="43.84215131757899" lon="11.612591682191622"><ele>938.0</ele><time>2026-05-02T09:10:18Z</time></trkpt><trkpt lat="43.84223601434845" lon="11.612475126683035"><ele>938.0</ele><time>2026-05-02T09:11:48.999Z</time></trkpt><trkpt lat="43.842323786658916" lon="11.6124491799267"><ele>938.0</ele><time>2026-05-02T09:11:49.999Z</time></trkpt><trkpt lat="43.84242396713509" lon="11.612406741982538"><ele>938.0</ele><time>2026-05-02T09:11:50.999Z</time></trkpt><trkpt lat="43.84252233001549" lon="11.612375609885868"><ele>938.0</ele><time>2026-05-02T09:11:51.999Z</time></trkpt><trkpt lat="43.842607280664254" lon="11.612343182088638"><ele>938.0</ele><time>2026-05-02T09:11:52.999Z</time></trkpt><trkpt lat="43.842687735972326" lon="11.612321236185565"><ele>932.25</ele><time>2026-05-02T09:11:53.999Z</time></trkpt><trkpt lat="43.842775042369496" lon="11.612307359085758"><ele>926.5</ele><time>2026-05-02T09:11:54.999Z</time></trkpt><trkpt lat="43.842872183409376" lon="11.61229420256012"><ele>920.75</ele><time>2026-05-02T09:11:55.999Z</time></trkpt><trkpt lat="43.84298198555452" lon="11.61224254518562"><ele>915.0</ele><time>2026-05-02T09:11:56.999Z</time></trkpt><trkpt lat="43.84312044886765" lon="11.61213095289438"><ele>915.0</ele><time>2026-05-02T09:11:57.999Z</time></trkpt><trkpt lat="43.84321377619117" lon="11.61205256847967"><ele>915.0</ele><time>2026-05-02T09:11:58.999Z</time></trkpt><trkpt lat="43.84328355774436" lon="11.611972483284479"><ele>915.0</ele><time>2026-05-02T09:11:59.999Z</time></trkpt><trkpt lat="43.84334796218289" lon="11.611904243327247"><ele>915.0</ele><time>2026-05-02T09:12:00.999Z</time></trkpt><trkpt lat="43.8434140238606" lon="11.61185522216864"><ele>915.0</ele><time>2026-05-02T09:12:01.999Z</time></trkpt><trkpt lat="43.843501589307465" lon="11.611736334879435"><ele>912.5</ele><time>2026-05-02T09:12:03.999Z</time></trkpt><trkpt lat="43.84353628363576" lon="11.611637814565785"><ele>910.0</ele><time>2026-05-02T09:12:04.999Z</time></trkpt><trkpt lat="43.84357775584753" lon="11.611541526924878"><ele>907.5</ele><time>2026-05-02T09:12:05.999Z</time></trkpt><trkpt lat="43.8436045288088" lon="11.611450906636072"><ele>905.0</ele><time>2026-05-02T09:12:06.999Z</time></trkpt><trkpt lat="43.843631760951226" lon="11.611371696130785"><ele>902.5</ele><time>2026-05-02T09:12:07.999Z</time></trkpt><trkpt lat="43.84363460312933" lon="11.611278051226448"><ele>900.0</ele><time>2026-05-02T09:12:08.999Z</time></trkpt><trkpt lat="43.843614256215126" lon="11.611109047334491"><ele>899.1428571428572</ele><time>2026-05-02T09:12:11Z</time></trkpt><trkpt lat="43.843597339954776" lon="11.61100651481221"><ele>898.2857142857143</ele><time>2026-05-02T09:12:12Z</time></trkpt><trkpt lat="43.843576708772666" lon="11.610902698836453"><ele>897.4285714285714</ele><time>2026-05-02T09:12:13Z</time></trkpt><trkpt lat="43.843586533902936" lon="11.610795179132852"><ele>896.5714285714287</ele><time>2026-05-02T09:12:14Z</time></trkpt><trkpt lat="43.843605509647745" lon="11.61070317788592"><ele>895.7142857142858</ele><time>2026-05-02T09:12:15Z</time></trkpt><trkpt lat="43.84362424696852" lon="11.61060023908054"><ele>894.8571428571428</ele><time>2026-05-02T09:12:16Z</time></trkpt><trkpt lat="43.8436650739603" lon="11.610517687922016"><ele>894.0</ele><time>2026-05-02T09:12:17Z</time></trkpt><trkpt lat="43.843705321375495" lon="11.610428417419808"><ele>893.6666666666666</ele><time>2026-05-02T09:12:18Z</time></trkpt><trkpt lat="43.84375176593492" lon="11.61029588003592"><ele>893.3333333333333</ele><time>2026-05-02T09:12:20Z</time></trkpt><trkpt lat="43.84377098557336" lon="11.610209127711313"><ele>893.0</ele><time>2026-05-02T09:12:21Z</time></trkpt><trkpt lat="43.843790475768635" lon="11.610038796568993"><ele>892.6666666666666</ele><time>2026-05-02T09:12:23Z</time></trkpt><trkpt lat="43.843795369609666" lon="11.60992809978774"><ele>892.3333333333333</ele><time>2026-05-02T09:12:24Z</time></trkpt><trkpt lat="43.84380100869238" lon="11.609840101133734"><ele>892.0</ele><time>2026-05-02T09:12:25Z</time></trkpt><trkpt lat="43.84382535090932" lon="11.609749471039818"><ele>891.9999999999999</ele><time>2026-05-02T09:12:26Z</time></trkpt><trkpt lat="43.84384989493415" lon="11.609655215606905"><ele>892.0</ele><time>2026-05-02T09:12:27Z</time></trkpt><trkpt lat="43.84386551453504" lon="11.609547652090484"><ele>892.0</ele><time>2026-05-02T09:12:28Z</time></trkpt><trkpt lat="43.84392149344112" lon="11.60940824530443"><ele>892.0</ele><time>2026-05-02T09:12:30Z</time></trkpt><trkpt lat="43.84395924017594" lon="11.609322881250204"><ele>891.9999999999999</ele><time>2026-05-02T09:12:31Z</time></trkpt><trkpt lat="43.84401970591738" lon="11.609244420360628"><ele>892.0</ele><time>2026-05-02T09:12:32Z</time></trkpt><trkpt lat="43.844086234466005" lon="11.609175903740006"><ele>892.4999999999999</ele><time>2026-05-02T09:12:33Z</time></trkpt><trkpt lat="43.84413744852756" lon="11.609079735755003"><ele>893.0</ele><time>2026-05-02T09:12:33.999Z</time></trkpt><trkpt lat="43.84418156781283" lon="11.608993122599626"><ele>893.5</ele><time>2026-05-02T09:12:34.999Z</time></trkpt><trkpt lat="43.844223132349974" lon="11.608913427779763"><ele>894.0</ele><time>2026-05-02T09:12:35.999Z</time></trkpt><trkpt lat="43.84427702337382" lon="11.608830086189688"><ele>894.4999999999999</ele><time>2026-05-02T09:12:36.999Z</time></trkpt><trkpt lat="43.844340954973504" lon="11.608755211220686"><ele>895.0</ele><time>2026-05-02T09:12:37.999Z</time></trkpt><trkpt lat="43.84439010696977" lon="11.608679908135121"><ele>890.1666666666666</ele><time>2026-05-02T09:12:38.999Z</time></trkpt><trkpt lat="43.84445016389171" lon="11.608587690903995"><ele>885.3333333333333</ele><time>2026-05-02T09:12:39.999Z</time></trkpt><trkpt lat="43.844504253218666" lon="11.608482307134638"><ele>880.5</ele><time>2026-05-02T09:12:40.999Z</time></trkpt><trkpt lat="43.84456836096103" lon="11.608379701432598"><ele>875.6666666666667</ele><time>2026-05-02T09:12:41.999Z</time></trkpt><trkpt lat="43.844636165282665" lon="11.608312953075545"><ele>870.8333333333334</ele><time>2026-05-02T09:12:42.999Z</time></trkpt><trkpt lat="43.84469703030661" lon="11.608242201483655"><ele>866.0</ele><time>2026-05-02T09:12:43.999Z</time></trkpt><trkpt lat="43.844757876551434" lon="11.608155491573083"><ele>866.0000000000001</ele><time>2026-05-02T09:12:44.999Z</time></trkpt><trkpt lat="43.84481802171768" lon="11.608085492857004"><ele>866.0</ele><time>2026-05-02T09:12:45.999Z</time></trkpt><trkpt lat="43.844875740192094" lon="11.608031110930556"><ele>866.0</ele><time>2026-05-02T09:12:46.999Z</time></trkpt><trkpt lat="43.844931497794576" lon="11.607969524029228"><ele>866.0</ele><time>2026-05-02T09:12:47.999Z</time></trkpt><trkpt lat="43.84495164800439" lon="11.607859881231072"><ele>866.0000000000001</ele><time>2026-05-02T09:12:48.999Z</time></trkpt><trkpt lat="43.84496509358628" lon="11.607759300723165"><ele>866.0</ele><time>2026-05-02T09:12:49.999Z</time></trkpt><trkpt lat="43.844945326634296" lon="11.607576764978003"><ele>866.5999999999999</ele><time>2026-05-02T09:12:51.999Z</time></trkpt><trkpt lat="43.84496601168162" lon="11.607462961977133"><ele>867.1999999999999</ele><time>2026-05-02T09:12:52.999Z</time></trkpt><trkpt lat="43.844996927646065" lon="11.607313053049246"><ele>867.8000000000001</ele><time>2026-05-02T09:12:54.999Z</time></trkpt><trkpt lat="43.84504424252897" lon="11.607164528777453"><ele>868.4000000000001</ele><time>2026-05-02T09:12:56.999Z</time></trkpt><trkpt lat="43.845087373446425" lon="11.607056594134853"><ele>869.0</ele><time>2026-05-02T09:12:58.999Z</time></trkpt><trkpt lat="43.845161225154484" lon="11.60693674443285"><ele>865.8333333333334</ele><time>2026-05-02T09:13:00.999Z</time></trkpt><trkpt lat="43.845215882074335" lon="11.606886054119329"><ele>862.6666666666667</ele><time>2026-05-02T09:13:01.999Z</time></trkpt><trkpt lat="43.845278820814144" lon="11.60686196459445"><ele>859.5</ele><time>2026-05-02T09:13:02.999Z</time></trkpt><trkpt lat="43.84540940641298" lon="11.606836302951796"><ele>856.3333333333333</ele><time>2026-05-02T09:13:04.999Z</time></trkpt><trkpt lat="43.84548145007244" lon="11.606838560226853"><ele>853.1666666666666</ele><time>2026-05-02T09:13:05.999Z</time></trkpt><trkpt lat="43.84554775097918" lon="11.606850607822954"><ele>850.0</ele><time>2026-05-02T09:13:06.999Z</time></trkpt><trkpt lat="43.84565334335452" lon="11.606854732345482"><ele>849.9999999999999</ele><time>2026-05-02T09:13:08.999Z</time></trkpt><trkpt lat="43.84571801901421" lon="11.606837961255938"><ele>850.0</ele><time>2026-05-02T09:13:09.999Z</time></trkpt><trkpt lat="43.84582045802667" lon="11.606748562646118"><ele>850.0</ele><time>2026-05-02T09:13:11.999Z</time></trkpt><trkpt lat="43.84585561432767" lon="11.606635541039637"><ele>850.0</ele><time>2026-05-02T09:13:12.999Z</time></trkpt><trkpt lat="43.84591084566925" lon="11.606565026675792"><ele>849.9999999999999</ele><time>2026-05-02T09:13:13.999Z</time></trkpt><trkpt lat="43.84596789699785" lon="11.60650809839362"><ele>850.0</ele><time>2026-05-02T09:13:14.999Z</time></trkpt><trkpt lat="43.846059722256086" lon="11.606495775439502"><ele>845.0</ele><time>2026-05-02T09:13:16.999Z</time></trkpt><trkpt lat="43.84612680776905" lon="11.606507480909485"><ele>840.0</ele><time>2026-05-02T09:13:18.999Z</time></trkpt><trkpt lat="43.84620623783897" lon="11.606536421002323"><ele>835.0</ele><time>2026-05-02T09:13:33.999Z</time></trkpt><trkpt lat="43.846287687589985" lon="11.606536727968143"><ele>830.0</ele><time>2026-05-02T09:13:35.999Z</time></trkpt><trkpt lat="43.846366910862585" lon="11.606410105357071"><ele>825.0</ele><time>2026-05-02T09:13:37.999Z</time></trkpt><trkpt lat="43.846324331509294" lon="11.606226047668326"><ele>825.0</ele><time>2026-05-02T09:13:39.999Z</time></trkpt><trkpt lat="43.84629905555543" lon="11.606126385308091"><ele>825.0</ele><time>2026-05-02T09:13:40.999Z</time></trkpt><trkpt lat="43.8462863122523" lon="11.606028869262738"><ele>825.0</ele><time>2026-05-02T09:13:41.999Z</time></trkpt><trkpt lat="43.84629167030677" lon="11.60592668659967"><ele>825.0</ele><time>2026-05-02T09:13:42.999Z</time></trkpt><trkpt lat="43.846336288692655" lon="11.605837374817082"><ele>825.0</ele><time>2026-05-02T09:13:43.999Z</time></trkpt><trkpt lat="43.846395292731664" lon="11.605770248466683"><ele>825.0</ele><time>2026-05-02T09:13:44.999Z</time></trkpt><trkpt lat="43.84646121315492" lon="11.605716610732875"><ele>825.0</ele><time>2026-05-02T09:13:45.999Z</time></trkpt><trkpt lat="43.846526423011106" lon="11.605664452185357"><ele>825.0</ele><time>2026-05-02T09:13:46.999Z</time></trkpt><trkpt lat="43.846590357840846" lon="11.605622776633178"><ele>825.0</ele><time>2026-05-02T09:13:47.999Z</time></trkpt><trkpt lat="43.84665179753933" lon="11.605602352562498"><ele>825.0</ele><time>2026-05-02T09:13:48.999Z</time></trkpt><trkpt lat="43.846714108071055" lon="11.605574485105263"><ele>825.0</ele><time>2026-05-02T09:13:49.999Z</time></trkpt><trkpt lat="43.84677064759538" lon="11.605529550730664"><ele>825.0</ele><time>2026-05-02T09:13:50.999Z</time></trkpt><trkpt lat="43.84685424549765" lon="11.605422694970294"><ele>821.8333333333334</ele><time>2026-05-02T09:13:51.999Z</time></trkpt><trkpt lat="43.84693259321202" lon="11.60536642417937"><ele>818.6666666666667</ele><time>2026-05-02T09:13:52.999Z</time></trkpt><trkpt lat="43.84701489678246" lon="11.605302553799334"><ele>815.5</ele><time>2026-05-02T09:13:53.999Z</time></trkpt><trkpt lat="43.8470870925411" lon="11.60522539021916"><ele>812.3333333333334</ele><time>2026-05-02T09:13:54.999Z</time></trkpt><trkpt lat="43.8471462655308" lon="11.605150528493564"><ele>809.1666666666667</ele><time>2026-05-02T09:13:55.999Z</time></trkpt><trkpt lat="43.84720333018015" lon="11.605092822986363"><ele>806.0</ele><time>2026-05-02T09:13:56.999Z</time></trkpt><trkpt lat="43.847326344587366" lon="11.60501140513275"><ele>806.0000000000001</ele><time>2026-05-02T09:13:58.999Z</time></trkpt><trkpt lat="43.84740790593192" lon="11.604976182122368"><ele>806.0</ele><time>2026-05-02T09:13:59.999Z</time></trkpt><trkpt lat="43.847471582296556" lon="11.604962087217475"><ele>806.0</ele><time>2026-05-02T09:14:00.999Z</time></trkpt><trkpt lat="43.84755253681115" lon="11.60494276978658"><ele>806.0</ele><time>2026-05-02T09:14:01.999Z</time></trkpt><trkpt lat="43.84762997115882" lon="11.60492433333265"><ele>806.0000000000001</ele><time>2026-05-02T09:14:02.999Z</time></trkpt><trkpt lat="43.84769814411669" lon="11.6049208977839"><ele>806.0</ele><time>2026-05-02T09:14:03.999Z</time></trkpt><trkpt lat="43.847803211943074" lon="11.604921273525967"><ele>801.4</ele><time>2026-05-02T09:14:05.999Z</time></trkpt><trkpt lat="43.84789549762968" lon="11.604888746240064"><ele>796.8</ele><time>2026-05-02T09:14:07.999Z</time></trkpt><trkpt lat="43.84801686769121" lon="11.604857336384436"><ele>792.1999999999999</ele><time>2026-05-02T09:14:09.999Z</time></trkpt><trkpt lat="43.8481255286546" lon="11.604861329256579"><ele>787.5999999999999</ele><time>2026-05-02T09:14:11.999Z</time></trkpt><trkpt lat="43.84823644513323" lon="11.604856826056404"><ele>783.0</ele><time>2026-05-02T09:14:13.999Z</time></trkpt><trkpt lat="43.84834256524531" lon="11.604883059147058"><ele>783.0</ele><time>2026-05-02T09:14:16Z</time></trkpt><trkpt lat="43.84845011767345" lon="11.604929579429985"><ele>783.0</ele><time>2026-05-02T09:14:17.999Z</time></trkpt><trkpt lat="43.84854816700509" lon="11.605019985190784"><ele>783.0</ele><time>2026-05-02T09:14:20Z</time></trkpt><trkpt lat="43.8486315241213" lon="11.605087018394363"><ele>783.0</ele><time>2026-05-02T09:14:22Z</time></trkpt><trkpt lat="43.84873511909899" lon="11.60506965891733"><ele>783.0</ele><time>2026-05-02T09:14:24Z</time></trkpt><trkpt lat="43.848781260065955" lon="11.60500015525605"><ele>777.0</ele><time>2026-05-02T09:14:25Z</time></trkpt><trkpt lat="43.84880636358375" lon="11.60491532819031"><ele>771.0</ele><time>2026-05-02T09:14:26.001Z</time></trkpt><trkpt lat="43.84881478019983" lon="11.604767688913777"><ele>765.0</ele><time>2026-05-02T09:14:28.001Z</time></trkpt><trkpt lat="43.84886170336543" lon="11.604644644267172"><ele>759.0</ele><time>2026-05-02T09:14:30.001Z</time></trkpt><trkpt lat="43.84890294841233" lon="11.604491038006914"><ele>753.0</ele><time>2026-05-02T09:14:32Z</time></trkpt><trkpt lat="43.84896340142064" lon="11.604359838105161"><ele>753.0</ele><time>2026-05-02T09:14:34Z</time></trkpt><trkpt lat="43.84902498145618" lon="11.6042366413836"><ele>753.0</ele><time>2026-05-02T09:14:36Z</time></trkpt><trkpt lat="43.84906911842792" lon="11.604089087623532"><ele>753.0</ele><time>2026-05-02T09:14:38Z</time></trkpt><trkpt lat="43.84908907513007" lon="11.604003828099744"><ele>753.0</ele><time>2026-05-02T09:14:39Z</time></trkpt><trkpt lat="43.849113161692685" lon="11.603846705893835"><ele>753.0</ele><time>2026-05-02T09:14:41Z</time></trkpt><trkpt lat="43.84916046402731" lon="11.603704769151133"><ele>751.8571428571429</ele><time>2026-05-02T09:14:43Z</time></trkpt><trkpt lat="43.84919148158103" lon="11.603618128592416"><ele>750.7142857142858</ele><time>2026-05-02T09:14:44Z</time></trkpt><trkpt lat="43.849215087948956" lon="11.60353691094466"><ele>749.5714285714286</ele><time>2026-05-02T09:14:45Z</time></trkpt><trkpt lat="43.84924579018696" lon="11.603435411107945"><ele>748.4285714285714</ele><time>2026-05-02T09:14:46Z</time></trkpt><trkpt lat="43.84927464910003" lon="11.60333487328838"><ele>747.2857142857142</ele><time>2026-05-02T09:14:47Z</time></trkpt><trkpt lat="43.84930077301771" lon="11.603255324434246"><ele>746.1428571428571</ele><time>2026-05-02T09:14:48Z</time></trkpt><trkpt lat="43.849340637117294" lon="11.603164782112252"><ele>745.0</ele><time>2026-05-02T09:14:49Z</time></trkpt><trkpt lat="43.84939170934475" lon="11.603081084313896"><ele>743.0</ele><time>2026-05-02T09:14:50Z</time></trkpt><trkpt lat="43.84946436770666" lon="11.602975779505059"><ele>741.0</ele><time>2026-05-02T09:14:51Z</time></trkpt><trkpt lat="43.84952940241243" lon="11.602853924519932"><ele>739.0</ele><time>2026-05-02T09:14:52Z</time></trkpt><trkpt lat="43.84956658066396" lon="11.602746831228853"><ele>737.0</ele><time>2026-05-02T09:14:53Z</time></trkpt><trkpt lat="43.84960486688696" lon="11.602651643465684"><ele>735.0</ele><time>2026-05-02T09:14:54Z</time></trkpt><trkpt lat="43.849641911245136" lon="11.602549861833328"><ele>735.0</ele><time>2026-05-02T09:14:55Z</time></trkpt><trkpt lat="43.849676346564024" lon="11.602458392032172"><ele>735.0</ele><time>2026-05-02T09:14:56Z</time></trkpt><trkpt lat="43.84970614366294" lon="11.602367665227463"><ele>735.0</ele><time>2026-05-02T09:14:57Z</time></trkpt><trkpt lat="43.84973415832553" lon="11.60228405271799"><ele>735.0</ele><time>2026-05-02T09:14:58Z</time></trkpt><trkpt lat="43.84975862855426" lon="11.602188206372999"><ele>735.0</ele><time>2026-05-02T09:14:59Z</time></trkpt><trkpt lat="43.84980380161722" lon="11.60210173305209"><ele>735.0</ele><time>2026-05-02T09:15:00Z</time></trkpt><trkpt lat="43.8498492945835" lon="11.602001029250843"><ele>735.0</ele><time>2026-05-02T09:15:01Z</time></trkpt><trkpt lat="43.84989194843664" lon="11.601893082293412"><ele>734.8</ele><time>2026-05-02T09:15:02Z</time></trkpt><trkpt lat="43.84993994013393" lon="11.60178909017961"><ele>734.6</ele><time>2026-05-02T09:15:03Z</time></trkpt><trkpt lat="43.85000383150328" lon="11.601693082402399"><ele>734.4000000000001</ele><time>2026-05-02T09:15:04Z</time></trkpt><trkpt lat="43.85008809685811" lon="11.60160168250103"><ele>734.2</ele><time>2026-05-02T09:15:05Z</time></trkpt><trkpt lat="43.85020560197012" lon="11.6015203377277"><ele>734.0</ele><time>2026-05-02T09:15:06Z</time></trkpt><trkpt lat="43.850309671798826" lon="11.601424320338003"><ele>734.0</ele><time>2026-05-02T09:15:07Z</time></trkpt><trkpt lat="43.85038886198111" lon="11.60132755621013"><ele>734.0</ele><time>2026-05-02T09:15:08Z</time></trkpt><trkpt lat="43.850466548135536" lon="11.60121994615725"><ele>734.0</ele><time>2026-05-02T09:15:09Z</time></trkpt><trkpt lat="43.850534628788026" lon="11.60111478458863"><ele>734.0</ele><time>2026-05-02T09:15:10Z</time></trkpt><trkpt lat="43.85058445376333" lon="11.601013472942336"><ele>734.0</ele><time>2026-05-02T09:15:11Z</time></trkpt><trkpt lat="43.85060525671798" lon="11.600896035058765"><ele>731.3333333333333</ele><time>2026-05-02T09:15:12Z</time></trkpt><trkpt lat="43.85060766792515" lon="11.600754357017165"><ele>728.6666666666666</ele><time>2026-05-02T09:15:13Z</time></trkpt><trkpt lat="43.85060475326249" lon="11.600630071570434"><ele>726.0</ele><time>2026-05-02T09:15:14Z</time></trkpt><trkpt lat="43.850621323530426" lon="11.600526799126442"><ele>723.3333333333334</ele><time>2026-05-02T09:15:15Z</time></trkpt><trkpt lat="43.85066352565968" lon="11.600449597702717"><ele>720.6666666666667</ele><time>2026-05-02T09:15:16Z</time></trkpt><trkpt lat="43.85071993729215" lon="11.600368733670738"><ele>718.0</ele><time>2026-05-02T09:15:17Z</time></trkpt><trkpt lat="43.850785226608934" lon="11.600282202196551"><ele>714.5999999999999</ele><time>2026-05-02T09:15:18Z</time></trkpt><trkpt lat="43.850851289121536" lon="11.600213407174392"><ele>711.1999999999999</ele><time>2026-05-02T09:15:19Z</time></trkpt><trkpt lat="43.85090970943035" lon="11.600154354071101"><ele>707.8</ele><time>2026-05-02T09:15:20Z</time></trkpt><trkpt lat="43.85097218542246" lon="11.600097196750777"><ele>704.4</ele><time>2026-05-02T09:15:21Z</time></trkpt><trkpt lat="43.851039459961726" lon="11.600026666084496"><ele>701.0</ele><time>2026-05-02T09:15:22Z</time></trkpt><trkpt lat="43.85117582719687" lon="11.600051094455013"><ele>699.4</ele><time>2026-05-02T09:15:24Z</time></trkpt><trkpt lat="43.85126732669725" lon="11.600108511170163"><ele>697.8</ele><time>2026-05-02T09:15:25Z</time></trkpt><trkpt lat="43.85136903647202" lon="11.600188098975513"><ele>696.1999999999999</ele><time>2026-05-02T09:15:26Z</time></trkpt><trkpt lat="43.851452949488056" lon="11.60028972080268"><ele>694.5999999999999</ele><time>2026-05-02T09:15:27Z</time></trkpt><trkpt lat="43.851509839834094" lon="11.600370820175147"><ele>693.0</ele><time>2026-05-02T09:15:28Z</time></trkpt><trkpt lat="43.851573569931354" lon="11.600436922742857"><ele>692.0</ele><time>2026-05-02T09:15:29Z</time></trkpt><trkpt lat="43.85162897401843" lon="11.600498682172006"><ele>691.0</ele><time>2026-05-02T09:15:30Z</time></trkpt><trkpt lat="43.85174851586614" lon="11.600447786932307"><ele>690.0</ele><time>2026-05-02T09:15:32Z</time></trkpt><trkpt lat="43.85181719229883" lon="11.600333123678686"><ele>689.0</ele><time>2026-05-02T09:15:33Z</time></trkpt><trkpt lat="43.85190362714039" lon="11.600230775414522"><ele>688.0</ele><time>2026-05-02T09:15:34Z</time></trkpt><trkpt lat="43.851970900793525" lon="11.600155401808232"><ele>688.0</ele><time>2026-05-02T09:15:35Z</time></trkpt><trkpt lat="43.85203208226084" lon="11.600083987698156"><ele>688.0</ele><time>2026-05-02T09:15:36Z</time></trkpt><trkpt lat="43.85212007916188" lon="11.600007115793728"><ele>688.0</ele><time>2026-05-02T09:15:37Z</time></trkpt><trkpt lat="43.85220410672263" lon="11.59994822382637"><ele>688.0</ele><time>2026-05-02T09:15:38Z</time></trkpt><trkpt lat="43.85229949002981" lon="11.599901167445354"><ele>688.0</ele><time>2026-05-02T09:15:39Z</time></trkpt><trkpt lat="43.85236549290511" lon="11.599823040318942"><ele>688.0</ele><time>2026-05-02T09:15:40Z</time></trkpt><trkpt lat="43.852454085624046" lon="11.599728435602264"><ele>688.0</ele><time>2026-05-02T09:15:41Z</time></trkpt><trkpt lat="43.85251095882611" lon="11.599628417412584"><ele>688.0</ele><time>2026-05-02T09:15:42Z</time></trkpt><trkpt lat="43.85258148844259" lon="11.59958497265137"><ele>688.0</ele><time>2026-05-02T09:15:43Z</time></trkpt><trkpt lat="43.852710700559186" lon="11.599556488175999"><ele>688.0</ele><time>2026-05-02T09:15:45Z</time></trkpt><trkpt lat="43.85279790081032" lon="11.599546684153138"><ele>689.2</ele><time>2026-05-02T09:15:46Z</time></trkpt><trkpt lat="43.852908566924285" lon="11.599526550611474"><ele>690.4</ele><time>2026-05-02T09:15:47Z</time></trkpt><trkpt lat="43.85300694804323" lon="11.599496860502114"><ele>691.6</ele><time>2026-05-02T09:15:48Z</time></trkpt><trkpt lat="43.853098202460195" lon="11.599481012492078"><ele>692.8000000000001</ele><time>2026-05-02T09:15:49Z</time></trkpt><trkpt lat="43.853171734278234" lon="11.59942189368649"><ele>694.0</ele><time>2026-05-02T09:15:50Z</time></trkpt><trkpt lat="43.85321419188504" lon="11.59933165087901"><ele>691.0</ele><time>2026-05-02T09:15:51Z</time></trkpt><trkpt lat="43.853222225176985" lon="11.599187473710849"><ele>688.0</ele><time>2026-05-02T09:15:52Z</time></trkpt><trkpt lat="43.85322512402283" lon="11.599013808559786"><ele>685.0</ele><time>2026-05-02T09:15:53Z</time></trkpt><trkpt lat="43.853191874530914" lon="11.598820927701027"><ele>682.0</ele><time>2026-05-02T09:15:54Z</time></trkpt><trkpt lat="43.853178145950714" lon="11.598694741884199"><ele>681.5</ele><time>2026-05-02T09:15:55Z</time></trkpt><trkpt lat="43.853234398288784" lon="11.598564841067219"><ele>681.0</ele><time>2026-05-02T09:15:56Z</time></trkpt><trkpt lat="43.85332050467197" lon="11.598405712500579"><ele>680.5</ele><time>2026-05-02T09:15:57Z</time></trkpt><trkpt lat="43.85340948377933" lon="11.598267934708892"><ele>680.0</ele><time>2026-05-02T09:15:58Z</time></trkpt><trkpt lat="43.85347496231861" lon="11.598135250282741"><ele>680.0</ele><time>2026-05-02T09:15:59Z</time></trkpt><trkpt lat="43.85353069224163" lon="11.598046595047602"><ele>680.0</ele><time>2026-05-02T09:16:00Z</time></trkpt><trkpt lat="43.85358441179271" lon="11.597943414078413"><ele>680.0</ele><time>2026-05-02T09:16:01Z</time></trkpt><trkpt lat="43.853618934188695" lon="11.597862510776247"><ele>680.0</ele><time>2026-05-02T09:16:02Z</time></trkpt><trkpt lat="43.85369670445092" lon="11.597745348318202"><ele>680.0</ele><time>2026-05-02T09:16:04Z</time></trkpt><trkpt lat="43.85385583526041" lon="11.597733493339152"><ele>679.3333333333333</ele><time>2026-05-02T09:16:06Z</time></trkpt><trkpt lat="43.853949085619085" lon="11.597726140342928"><ele>678.6666666666666</ele><time>2026-05-02T09:16:07Z</time></trkpt><trkpt lat="43.854037004498394" lon="11.597714817959762"><ele>678.0</ele><time>2026-05-02T09:16:08Z</time></trkpt><trkpt lat="43.8541051159097" lon="11.597733346932099"><ele>677.3333333333334</ele><time>2026-05-02T09:16:09Z</time></trkpt><trkpt lat="43.85417364223721" lon="11.59775511348998"><ele>676.6666666666667</ele><time>2026-05-02T09:16:10Z</time></trkpt><trkpt lat="43.85424832630948" lon="11.597775662109052"><ele>676.0</ele><time>2026-05-02T09:16:11Z</time></trkpt><trkpt lat="43.85429832499019" lon="11.59784675220513"><ele>676.0</ele><time>2026-05-02T09:16:12Z</time></trkpt><trkpt lat="43.854362116876075" lon="11.597893978882984"><ele>676.0</ele><time>2026-05-02T09:16:13Z</time></trkpt><trkpt lat="43.854437859298535" lon="11.59795371972846"><ele>676.0</ele><time>2026-05-02T09:16:14Z</time></trkpt><trkpt lat="43.85455432141041" lon="11.598036156612606"><ele>676.0</ele><time>2026-05-02T09:16:15Z</time></trkpt><trkpt lat="43.8546408994735" lon="11.598092706903692"><ele>676.0</ele><time>2026-05-02T09:16:16Z</time></trkpt><trkpt lat="43.854719776198614" lon="11.598112405746235"><ele>676.0</ele><time>2026-05-02T09:16:17Z</time></trkpt><trkpt lat="43.85479052987158" lon="11.598033113884265"><ele>676.0</ele><time>2026-05-02T09:16:18Z</time></trkpt><trkpt lat="43.854873140333055" lon="11.597947832737574"><ele>676.0</ele><time>2026-05-02T09:16:19Z</time></trkpt><trkpt lat="43.85495760884371" lon="11.59785824193249"><ele>676.0</ele><time>2026-05-02T09:16:20Z</time></trkpt><trkpt lat="43.85504040725647" lon="11.597790162246753"><ele>676.0</ele><time>2026-05-02T09:16:21Z</time></trkpt><trkpt lat="43.85509792256885" lon="11.597727870595676"><ele>671.8</ele><time>2026-05-02T09:16:22Z</time></trkpt><trkpt lat="43.85512703637267" lon="11.59764200521856"><ele>667.5999999999999</ele><time>2026-05-02T09:16:23Z</time></trkpt><trkpt lat="43.855152262634064" lon="11.59749327649024"><ele>663.4</ele><time>2026-05-02T09:16:24Z</time></trkpt><trkpt lat="43.85520402101236" lon="11.597378346904412"><ele>659.2</ele><time>2026-05-02T09:16:25Z</time></trkpt><trkpt lat="43.85527868132878" lon="11.597299695829697"><ele>655.0</ele><time>2026-05-02T09:16:26Z</time></trkpt><trkpt lat="43.855359807907874" lon="11.597235760116352"><ele>655.0</ele><time>2026-05-02T09:16:27Z</time></trkpt><trkpt lat="43.85547260750914" lon="11.597179407775675"><ele>655.0</ele><time>2026-05-02T09:16:29Z</time></trkpt><trkpt lat="43.855552068377925" lon="11.597134977374688"><ele>655.0</ele><time>2026-05-02T09:16:30Z</time></trkpt><trkpt lat="43.855652784682974" lon="11.59715067837393"><ele>655.0</ele><time>2026-05-02T09:16:31Z</time></trkpt><trkpt lat="43.85577948009529" lon="11.597158034773985"><ele>655.0</ele><time>2026-05-02T09:16:32Z</time></trkpt><trkpt lat="43.85586173948425" lon="11.59716742654"><ele>655.0</ele><time>2026-05-02T09:16:33Z</time></trkpt><trkpt lat="43.85595091558423" lon="11.597194226668538"><ele>655.0</ele><time>2026-05-02T09:16:34Z</time></trkpt><trkpt lat="43.85604500395838" lon="11.597227050527524"><ele>655.0</ele><time>2026-05-02T09:16:35Z</time></trkpt><trkpt lat="43.856164649269765" lon="11.597259070410823"><ele>655.0</ele><time>2026-05-02T09:16:36Z</time></trkpt><trkpt lat="43.85626924382384" lon="11.597287998732005"><ele>655.0</ele><time>2026-05-02T09:16:37Z</time></trkpt><trkpt lat="43.856367058674984" lon="11.597307920450207"><ele>653.1666666666667</ele><time>2026-05-02T09:16:38Z</time></trkpt><trkpt lat="43.85646397828993" lon="11.597326860904127"><ele>651.3333333333334</ele><time>2026-05-02T09:16:39Z</time></trkpt><trkpt lat="43.85654773062474" lon="11.597322676056043"><ele>649.5</ele><time>2026-05-02T09:16:40Z</time></trkpt><trkpt lat="43.85661384391346" lon="11.597271897396297"><ele>647.6666666666666</ele><time>2026-05-02T09:16:41Z</time></trkpt><trkpt lat="43.856668205217325" lon="11.597209054346438"><ele>645.8333333333333</ele><time>2026-05-02T09:16:42Z</time></trkpt><trkpt lat="43.85669687479742" lon="11.5970948383154"><ele>644.0</ele><time>2026-05-02T09:16:43Z</time></trkpt><trkpt lat="43.85671827498107" lon="11.596985207894338"><ele>642.0</ele><time>2026-05-02T09:16:44Z</time></trkpt><trkpt lat="43.856741094590326" lon="11.59687024131144"><ele>640.0</ele><time>2026-05-02T09:16:45Z</time></trkpt><trkpt lat="43.85677626167372" lon="11.59675744017557"><ele>638.0</ele><time>2026-05-02T09:16:46Z</time></trkpt><trkpt lat="43.85681977190115" lon="11.596639034646476"><ele>636.0</ele><time>2026-05-02T09:16:47Z</time></trkpt><trkpt lat="43.85685752966725" lon="11.596531434052554"><ele>634.0</ele><time>2026-05-02T09:16:48Z</time></trkpt><trkpt lat="43.85688988048044" lon="11.596421721454462"><ele>632.0</ele><time>2026-05-02T09:16:49Z</time></trkpt><trkpt lat="43.85692694518772" lon="11.596307167743289"><ele>629.6</ele><time>2026-05-02T09:16:50Z</time></trkpt><trkpt lat="43.85696969776878" lon="11.596178738259404"><ele>627.2</ele><time>2026-05-02T09:16:51Z</time></trkpt><trkpt lat="43.85699202657261" lon="11.596053671167386"><ele>624.8</ele><time>2026-05-02T09:16:52Z</time></trkpt><trkpt lat="43.85695911229317" lon="11.595892892643485"><ele>622.4</ele><time>2026-05-02T09:16:53Z</time></trkpt><trkpt lat="43.85696879339142" lon="11.595748815430929"><ele>620.0</ele><time>2026-05-02T09:16:54Z</time></trkpt><trkpt lat="43.856980179985946" lon="11.595622371931672"><ele>620.0</ele><time>2026-05-02T09:16:55Z</time></trkpt><trkpt lat="43.85699176121941" lon="11.59548492466933"><ele>620.0</ele><time>2026-05-02T09:16:56Z</time></trkpt><trkpt lat="43.85700310909013" lon="11.595349789369633"><ele>620.0</ele><time>2026-05-02T09:16:57Z</time></trkpt><trkpt lat="43.85701508725956" lon="11.595213163652424"><ele>620.0</ele><time>2026-05-02T09:16:58Z</time></trkpt><trkpt lat="43.85701308462394" lon="11.59507874537201"><ele>620.0</ele><time>2026-05-02T09:16:59Z</time></trkpt><trkpt lat="43.85699614110016" lon="11.594946234547818"><ele>618.8333333333333</ele><time>2026-05-02T09:17:00Z</time></trkpt><trkpt lat="43.85699402631126" lon="11.594833164572183"><ele>617.6666666666666</ele><time>2026-05-02T09:17:01Z</time></trkpt><trkpt lat="43.85701403604893" lon="11.59468964393207"><ele>616.5</ele><time>2026-05-02T09:17:02Z</time></trkpt><trkpt lat="43.85702317271024" lon="11.594567421299368"><ele>615.3333333333334</ele><time>2026-05-02T09:17:03Z</time></trkpt><trkpt lat="43.85703163748333" lon="11.594476757968456"><ele>614.1666666666667</ele><time>2026-05-02T09:17:04Z</time></trkpt><trkpt lat="43.85706879208933" lon="11.594371069793345"><ele>613.0</ele><time>2026-05-02T09:17:05Z</time></trkpt><trkpt lat="43.857140125172876" lon="11.594302648265453"><ele>611.0</ele><time>2026-05-02T09:17:06Z</time></trkpt><trkpt lat="43.857212587076276" lon="11.5942781514075"><ele>609.0</ele><time>2026-05-02T09:17:07Z</time></trkpt><trkpt lat="43.857296922456655" lon="11.59430618814078"><ele>607.0</ele><time>2026-05-02T09:17:08Z</time></trkpt><trkpt lat="43.857378085451955" lon="11.594309408086849"><ele>605.0</ele><time>2026-05-02T09:17:09Z</time></trkpt><trkpt lat="43.857472949222505" lon="11.594381597849146"><ele>603.0</ele><time>2026-05-02T09:17:10Z</time></trkpt><trkpt lat="43.857563214693656" lon="11.594421618699892"><ele>601.0</ele><time>2026-05-02T09:17:11Z</time></trkpt><trkpt lat="43.85770242996834" lon="11.594454518609057"><ele>597.8333333333334</ele><time>2026-05-02T09:17:12Z</time></trkpt><trkpt lat="43.85776504123384" lon="11.594434137211708"><ele>594.6666666666667</ele><time>2026-05-02T09:17:13Z</time></trkpt><trkpt lat="43.857828892379494" lon="11.594369927653453"><ele>591.5</ele><time>2026-05-02T09:17:14Z</time></trkpt><trkpt lat="43.85788042073799" lon="11.594280941896228"><ele>588.3333333333334</ele><time>2026-05-02T09:17:15Z</time></trkpt><trkpt lat="43.857894609311295" lon="11.59415872583995"><ele>585.1666666666666</ele><time>2026-05-02T09:17:16Z</time></trkpt><trkpt lat="43.8579058356635" lon="11.594049920999343"><ele>582.0</ele><time>2026-05-02T09:17:17Z</time></trkpt><trkpt lat="43.8578863218254" lon="11.593944628516363"><ele>582.0</ele><time>2026-05-02T09:17:18Z</time></trkpt><trkpt lat="43.85788987010133" lon="11.593834018594507"><ele>582.0</ele><time>2026-05-02T09:17:19Z</time></trkpt><trkpt lat="43.85782675499155" lon="11.593879806883963"><ele>582.0</ele><time>2026-05-02T09:17:23Z</time></trkpt><trkpt lat="43.8577610071402" lon="11.593867585397824"><ele>582.0</ele><time>2026-05-02T09:21:30Z</time></trkpt><trkpt lat="43.8577467863872" lon="11.593781584431442"><ele>582.0</ele><time>2026-05-02T09:21:33Z</time></trkpt><trkpt lat="43.85776245622199" lon="11.593690487016126"><ele>582.0</ele><time>2026-05-02T09:21:37Z</time></trkpt><trkpt lat="43.8577817143757" lon="11.593593082220062"><ele>582.0</ele><time>2026-05-02T09:21:38Z</time></trkpt><trkpt lat="43.85782034630497" lon="11.593496556771306"><ele>581.8333333333334</ele><time>2026-05-02T09:21:39Z</time></trkpt><trkpt lat="43.8578789960902" lon="11.593419764598472"><ele>581.6666666666666</ele><time>2026-05-02T09:21:40Z</time></trkpt><trkpt lat="43.85790778224094" lon="11.593318490952674"><ele>581.5</ele><time>2026-05-02T09:21:41Z</time></trkpt><trkpt lat="43.85795066513931" lon="11.593221949764612"><ele>581.3333333333333</ele><time>2026-05-02T09:21:42Z</time></trkpt><trkpt lat="43.85799634520062" lon="11.593116018318389"><ele>581.1666666666666</ele><time>2026-05-02T09:21:43Z</time></trkpt><trkpt lat="43.85803544580555" lon="11.59301003437639"><ele>581.0</ele><time>2026-05-02T09:21:44Z</time></trkpt><trkpt lat="43.85807564107732" lon="11.592878571316637"><ele>580.6</ele><time>2026-05-02T09:21:45Z</time></trkpt><trkpt lat="43.85810082387753" lon="11.592749237564854"><ele>580.2</ele><time>2026-05-02T09:21:46Z</time></trkpt><trkpt lat="43.85811977613454" lon="11.59262082629681"><ele>579.8</ele><time>2026-05-02T09:21:47Z</time></trkpt><trkpt lat="43.85813789496748" lon="11.592493341556642"><ele>579.4</ele><time>2026-05-02T09:21:48Z</time></trkpt><trkpt lat="43.858149602673606" lon="11.592379851967337"><ele>579.0</ele><time>2026-05-02T09:21:49Z</time></trkpt><trkpt lat="43.85817177277582" lon="11.592261050262115"><ele>579.0</ele><time>2026-05-02T09:21:50Z</time></trkpt><trkpt lat="43.858192641880564" lon="11.59214041063639"><ele>579.0</ele><time>2026-05-02T09:21:51Z</time></trkpt><trkpt lat="43.85820775468234" lon="11.592005404190012"><ele>579.0</ele><time>2026-05-02T09:21:52Z</time></trkpt><trkpt lat="43.85822604347036" lon="11.591872536929705"><ele>579.0</ele><time>2026-05-02T09:21:53Z</time></trkpt><trkpt lat="43.85824983245037" lon="11.591732552819654"><ele>579.0</ele><time>2026-05-02T09:21:54Z</time></trkpt><trkpt lat="43.858281084685494" lon="11.591599669525392"><ele>577.2</ele><time>2026-05-02T09:21:55Z</time></trkpt><trkpt lat="43.85831288711025" lon="11.591454455260683"><ele>575.4</ele><time>2026-05-02T09:21:56Z</time></trkpt><trkpt lat="43.85833906231156" lon="11.591351532068925"><ele>573.6</ele><time>2026-05-02T09:21:57Z</time></trkpt><trkpt lat="43.85834858177043" lon="11.591207905719402"><ele>571.8</ele><time>2026-05-02T09:21:59Z</time></trkpt><trkpt lat="43.85831554205931" lon="11.591118157247896"><ele>570.0</ele><time>2026-05-02T09:22:00Z</time></trkpt><trkpt lat="43.85831010406024" lon="11.590945456142855"><ele>568.5714285714286</ele><time>2026-05-02T09:22:02Z</time></trkpt><trkpt lat="43.85831745876174" lon="11.590848833529133"><ele>567.1428571428571</ele><time>2026-05-02T09:22:03Z</time></trkpt><trkpt lat="43.858318897517165" lon="11.590747011802936"><ele>565.7142857142858</ele><time>2026-05-02T09:22:04Z</time></trkpt><trkpt lat="43.85833464657287" lon="11.590658907460657"><ele>564.2857142857142</ele><time>2026-05-02T09:22:05Z</time></trkpt><trkpt lat="43.85835884689522" lon="11.590573008171619"><ele>562.8571428571429</ele><time>2026-05-02T09:22:06Z</time></trkpt><trkpt lat="43.85838629470264" lon="11.590485975625633"><ele>561.4285714285714</ele><time>2026-05-02T09:22:07Z</time></trkpt><trkpt lat="43.858420689308865" lon="11.590392878047266"><ele>560.0</ele><time>2026-05-02T09:22:08Z</time></trkpt><trkpt lat="43.858437910381525" lon="11.590299173031335"><ele>557.4</ele><time>2026-05-02T09:22:09Z</time></trkpt><trkpt lat="43.8585295034471" lon="11.590170903268122"><ele>554.8</ele><time>2026-05-02T09:22:11Z</time></trkpt><trkpt lat="43.858609960103465" lon="11.590078744342243"><ele>552.2</ele><time>2026-05-02T09:22:13Z</time></trkpt><trkpt lat="43.85861273166876" lon="11.58989675804634"><ele>549.6</ele><time>2026-05-02T09:22:15Z</time></trkpt><trkpt lat="43.85862716439463" lon="11.5897976132273"><ele>547.0</ele><time>2026-05-02T09:22:16Z</time></trkpt><trkpt lat="43.85865258954886" lon="11.589698272255484"><ele>547.0</ele><time>2026-05-02T09:22:17Z</time></trkpt><trkpt lat="43.85867952181158" lon="11.58959247743584"><ele>547.0</ele><time>2026-05-02T09:22:18Z</time></trkpt><trkpt lat="43.858690958259686" lon="11.589496616242975"><ele>547.0</ele><time>2026-05-02T09:22:19Z</time></trkpt><trkpt lat="43.8587061330824" lon="11.589410447689216"><ele>547.0</ele><time>2026-05-02T09:22:20Z</time></trkpt><trkpt lat="43.85872400215586" lon="11.58932111328525"><ele>547.0</ele><time>2026-05-02T09:22:21Z</time></trkpt><trkpt lat="43.85872167695482" lon="11.589223300603532"><ele>547.0</ele><time>2026-05-02T09:22:22Z</time></trkpt><trkpt lat="43.85871396537533" lon="11.589136440185479"><ele>547.0</ele><time>2026-05-02T09:22:23Z</time></trkpt><trkpt lat="43.85866735473406" lon="11.58898888474275"><ele>545.4</ele><time>2026-05-02T09:22:25Z</time></trkpt><trkpt lat="43.85863254294099" lon="11.588911537407443"><ele>543.8000000000001</ele><time>2026-05-02T09:22:26Z</time></trkpt><trkpt lat="43.858589883583164" lon="11.588778238171242"><ele>542.2</ele><time>2026-05-02T09:22:28Z</time></trkpt><trkpt lat="43.858671439965285" lon="11.588668370454545"><ele>540.6</ele><time>2026-05-02T09:22:30Z</time></trkpt><trkpt lat="43.85876029573819" lon="11.58855028714529"><ele>539.0</ele><time>2026-05-02T09:22:32Z</time></trkpt><trkpt lat="43.85883027580191" lon="11.588519371000553"><ele>536.0</ele><time>2026-05-02T09:22:33Z</time></trkpt><trkpt lat="43.85889841917088" lon="11.588486925513969"><ele>533.0</ele><time>2026-05-02T09:22:34Z</time></trkpt><trkpt lat="43.85896902267092" lon="11.58844944638767"><ele>530.0</ele><time>2026-05-02T09:22:34.999Z</time></trkpt><trkpt lat="43.85904821712423" lon="11.588423810020478"><ele>527.0</ele><time>2026-05-02T09:22:35.999Z</time></trkpt><trkpt lat="43.85916232248243" lon="11.5883961909724"><ele>524.0</ele><time>2026-05-02T09:22:36.999Z</time></trkpt><trkpt lat="43.859262031745835" lon="11.588374708063782"><ele>521.0</ele><time>2026-05-02T09:22:37.999Z</time></trkpt><trkpt lat="43.85934741052241" lon="11.588340565270553"><ele>519.5</ele><time>2026-05-02T09:22:38.999Z</time></trkpt><trkpt lat="43.85943223996878" lon="11.588324892172418"><ele>518.0</ele><time>2026-05-02T09:22:40Z</time></trkpt><trkpt lat="43.859494037124826" lon="11.588273503371312"><ele>516.5</ele><time>2026-05-02T09:22:41Z</time></trkpt><trkpt lat="43.859550299550804" lon="11.588231615461556"><ele>515.0</ele><time>2026-05-02T09:22:42Z</time></trkpt><trkpt lat="43.85965523403119" lon="11.588153592643215"><ele>513.5</ele><time>2026-05-02T09:22:44Z</time></trkpt><trkpt lat="43.85973342381957" lon="11.588133258387947"><ele>512.0</ele><time>2026-05-02T09:22:45Z</time></trkpt><trkpt lat="43.85979744005339" lon="11.588119930094301"><ele>512.0</ele><time>2026-05-02T09:22:46Z</time></trkpt><trkpt lat="43.85986691695298" lon="11.588116550562557"><ele>512.0</ele><time>2026-05-02T09:22:47Z</time></trkpt><trkpt lat="43.85993066729877" lon="11.588104000363328"><ele>512.0</ele><time>2026-05-02T09:22:48Z</time></trkpt><trkpt lat="43.860038903414114" lon="11.587992388731534"><ele>512.0</ele><time>2026-05-02T09:22:50Z</time></trkpt><trkpt lat="43.860091730883745" lon="11.587935026083663"><ele>512.0</ele><time>2026-05-02T09:22:51Z</time></trkpt><trkpt lat="43.860225684996976" lon="11.587940323756936"><ele>508.40000000000003</ele><time>2026-05-02T09:22:53Z</time></trkpt><trkpt lat="43.86030376789428" lon="11.587937903170111"><ele>504.80000000000007</ele><time>2026-05-02T09:22:54Z</time></trkpt><trkpt lat="43.860407052906105" lon="11.587915849475808"><ele>501.2</ele><time>2026-05-02T09:22:55Z</time></trkpt><trkpt lat="43.860506099509585" lon="11.587923845989138"><ele>497.6</ele><time>2026-05-02T09:22:56Z</time></trkpt><trkpt lat="43.860594229942926" lon="11.587869456843165"><ele>494.0</ele><time>2026-05-02T09:22:57Z</time></trkpt><trkpt lat="43.86067233542693" lon="11.587783597555052"><ele>491.6</ele><time>2026-05-02T09:22:58Z</time></trkpt><trkpt lat="43.86074870168749" lon="11.587701308775916"><ele>489.2</ele><time>2026-05-02T09:22:59Z</time></trkpt><trkpt lat="43.86081638444065" lon="11.58760178177034"><ele>486.80000000000007</ele><time>2026-05-02T09:23:00Z</time></trkpt><trkpt lat="43.860866063168395" lon="11.587487364631897"><ele>484.40000000000003</ele><time>2026-05-02T09:23:01Z</time></trkpt><trkpt lat="43.86092988498942" lon="11.587373635097439"><ele>482.0</ele><time>2026-05-02T09:23:02Z</time></trkpt><trkpt lat="43.86098370236478" lon="11.587282883222711"><ele>477.8333333333333</ele><time>2026-05-02T09:23:03Z</time></trkpt><trkpt lat="43.86102035717834" lon="11.587184327942436"><ele>473.66666666666663</ele><time>2026-05-02T09:23:04Z</time></trkpt><trkpt lat="43.86106999502209" lon="11.58709154253901"><ele>469.5</ele><time>2026-05-02T09:23:05Z</time></trkpt><trkpt lat="43.86112562660922" lon="11.586986624562767"><ele>465.33333333333337</ele><time>2026-05-02T09:23:06Z</time></trkpt><trkpt lat="43.8611873591986" lon="11.586896383558251"><ele>461.1666666666667</ele><time>2026-05-02T09:23:07Z</time></trkpt><trkpt lat="43.8612815605428" lon="11.5868442871065"><ele>457.0</ele><time>2026-05-02T09:23:09Z</time></trkpt><trkpt lat="43.86134819835428" lon="11.58687754254643"><ele>457.0</ele><time>2026-05-02T09:23:11Z</time></trkpt><trkpt lat="43.8614163077336" lon="11.586932728251314"><ele>457.0</ele><time>2026-05-02T09:23:13Z</time></trkpt><trkpt lat="43.86146160785297" lon="11.58682865195999"><ele>457.0</ele><time>2026-05-02T09:23:15Z</time></trkpt><trkpt lat="43.861495353330085" lon="11.586625377565024"><ele>457.0</ele><time>2026-05-02T09:23:17Z</time></trkpt><trkpt lat="43.86153634341855" lon="11.586445674383063"><ele>457.0</ele><time>2026-05-02T09:23:18Z</time></trkpt><trkpt lat="43.861592947993124" lon="11.586257477088422"><ele>457.00000000000006</ele><time>2026-05-02T09:23:19Z</time></trkpt><trkpt lat="43.86162212387182" lon="11.58606824393721"><ele>457.00000000000006</ele><time>2026-05-02T09:23:20Z</time></trkpt><trkpt lat="43.86164966838694" lon="11.585966920432712"><ele>457.0</ele><time>2026-05-02T09:23:21Z</time></trkpt><trkpt lat="43.86166850454358" lon="11.585882202068737"><ele>457.0</ele><time>2026-05-02T09:23:22Z</time></trkpt><trkpt lat="43.86169051964928" lon="11.585784162665858"><ele>456.6666666666667</ele><time>2026-05-02T09:23:25Z</time></trkpt><trkpt lat="43.86177649835275" lon="11.585734877854193"><ele>456.33333333333337</ele><time>2026-05-02T09:23:36Z</time></trkpt><trkpt lat="43.86180678177669" lon="11.585638236319928"><ele>456.0</ele><time>2026-05-02T09:23:37Z</time></trkpt><trkpt lat="43.861803888189556" lon="11.585501559091982"><ele>455.66666666666663</ele><time>2026-05-02T09:23:38Z</time></trkpt><trkpt lat="43.86178166860794" lon="11.585385605648714"><ele>455.3333333333333</ele><time>2026-05-02T09:23:39Z</time></trkpt><trkpt lat="43.86175855060811" lon="11.585278993115265"><ele>455.0</ele><time>2026-05-02T09:23:40Z</time></trkpt><trkpt lat="43.86174487060023" lon="11.585184133238068"><ele>453.8</ele><time>2026-05-02T09:23:41Z</time></trkpt><trkpt lat="43.86177783482126" lon="11.585085511114755"><ele>452.6</ele><time>2026-05-02T09:23:42Z</time></trkpt><trkpt lat="43.86180959542193" lon="11.584942197934527"><ele>451.4</ele><time>2026-05-02T09:23:43Z</time></trkpt><trkpt lat="43.861843519036896" lon="11.58481056748817"><ele>450.2</ele><time>2026-05-02T09:23:44Z</time></trkpt><trkpt lat="43.86187403387989" lon="11.584682931953148"><ele>449.0</ele><time>2026-05-02T09:23:45Z</time></trkpt><trkpt lat="43.86189447182819" lon="11.584569978651967"><ele>442.8333333333333</ele><time>2026-05-02T09:23:46Z</time></trkpt><trkpt lat="43.86192002251771" lon="11.58445251320639"><ele>436.66666666666663</ele><time>2026-05-02T09:23:47Z</time></trkpt><trkpt lat="43.86194856963244" lon="11.584341299863715"><ele>430.5</ele><time>2026-05-02T09:23:48Z</time></trkpt><trkpt lat="43.86197358162841" lon="11.58423637673417"><ele>424.33333333333337</ele><time>2026-05-02T09:23:49Z</time></trkpt><trkpt lat="43.86198575917427" lon="11.584145572338993"><ele>418.1666666666667</ele><time>2026-05-02T09:23:50Z</time></trkpt><trkpt lat="43.86199912025852" lon="11.584042917920291"><ele>412.0</ele><time>2026-05-02T09:23:51Z</time></trkpt><trkpt lat="43.862025797713414" lon="11.583946559115432"><ele>412.00000000000006</ele><time>2026-05-02T09:23:52Z</time></trkpt><trkpt lat="43.86204884992642" lon="11.58386105592752"><ele>412.0</ele><time>2026-05-02T09:23:53Z</time></trkpt><trkpt lat="43.86206262855493" lon="11.583759451719779"><ele>412.0</ele><time>2026-05-02T09:23:54Z</time></trkpt><trkpt lat="43.862091606723105" lon="11.583654598114489"><ele>412.0</ele><time>2026-05-02T09:23:55Z</time></trkpt><trkpt lat="43.862119305137256" lon="11.58354980627895"><ele>412.00000000000006</ele><time>2026-05-02T09:23:56Z</time></trkpt><trkpt lat="43.86214035886315" lon="11.583443728913963"><ele>412.0</ele><time>2026-05-02T09:23:57Z</time></trkpt><trkpt lat="43.86216013763759" lon="11.58333588496083"><ele>412.00000000000006</ele><time>2026-05-02T09:23:58Z</time></trkpt><trkpt lat="43.8621785493352" lon="11.5832452642664"><ele>412.0</ele><time>2026-05-02T09:23:59Z</time></trkpt><trkpt lat="43.862189549323006" lon="11.583143738235682"><ele>412.0</ele><time>2026-05-02T09:24:00Z</time></trkpt><trkpt lat="43.862224123708685" lon="11.582993760427081"><ele>412.0</ele><time>2026-05-02T09:24:02Z</time></trkpt><trkpt lat="43.862266290362584" lon="11.582926086740212"><ele>412.00000000000006</ele><time>2026-05-02T09:24:03Z</time></trkpt><trkpt lat="43.86232490274329" lon="11.582854409565048"><ele>412.0</ele><time>2026-05-02T09:24:04Z</time></trkpt><trkpt lat="43.862373233630514" lon="11.582752587803943"><ele>410.83333333333337</ele><time>2026-05-02T09:24:06Z</time></trkpt><trkpt lat="43.86237600733837" lon="11.58260250296968"><ele>409.6666666666667</ele><time>2026-05-02T09:24:08Z</time></trkpt><trkpt lat="43.86239260228138" lon="11.58249592157379"><ele>408.5</ele><time>2026-05-02T09:24:10Z</time></trkpt><trkpt lat="43.86233346530367" lon="11.582443663163607"><ele>407.33333333333337</ele><time>2026-05-02T09:24:12Z</time></trkpt><trkpt lat="43.862248702446706" lon="11.58247118351901"><ele>406.1666666666667</ele><time>2026-05-02T09:24:13Z</time></trkpt><trkpt lat="43.86214695290705" lon="11.582497084604357"><ele>405.0</ele><time>2026-05-02T09:24:14Z</time></trkpt><trkpt lat="43.86208087387608" lon="11.582501800397607"><ele>405.0</ele><time>2026-05-02T09:24:15Z</time></trkpt><trkpt lat="43.8620080888181" lon="11.582413896105248"><ele>405.0</ele><time>2026-05-02T09:24:18Z</time></trkpt><trkpt lat="43.86204764881678" lon="11.58229136293349"><ele>405.0</ele><time>2026-05-02T09:24:19Z</time></trkpt><trkpt lat="43.86211369246098" lon="11.582173327773413"><ele>405.0</ele><time>2026-05-02T09:24:21Z</time></trkpt><trkpt lat="43.862147630523104" lon="11.582010820500843"><ele>405.0</ele><time>2026-05-02T09:24:23Z</time></trkpt><trkpt lat="43.86212728940523" lon="11.58192551748731"><ele>402.8</ele><time>2026-05-02T09:24:26Z</time></trkpt><trkpt lat="43.862026746180256" lon="11.581952205787065"><ele>400.6</ele><time>2026-05-02T09:24:28Z</time></trkpt><trkpt lat="43.86196743873091" lon="11.581987340065865"><ele>398.4</ele><time>2026-05-02T09:24:29Z</time></trkpt><trkpt lat="43.861838900623425" lon="11.582001164819852"><ele>396.2</ele><time>2026-05-02T09:24:31Z</time></trkpt><trkpt lat="43.861725548027756" lon="11.582003109445"><ele>394.0</ele><time>2026-05-02T09:24:32.999Z</time></trkpt><trkpt lat="43.861606510049484" lon="11.581937231885108"><ele>391.33333333333337</ele><time>2026-05-02T09:24:34.999Z</time></trkpt><trkpt lat="43.86153369991167" lon="11.581899648234574"><ele>388.6666666666667</ele><time>2026-05-02T09:24:35.999Z</time></trkpt><trkpt lat="43.86145101910457" lon="11.581849966476648"><ele>386.0</ele><time>2026-05-02T09:24:36.999Z</time></trkpt><trkpt lat="43.8613698277966" lon="11.5818204701967"><ele>383.33333333333337</ele><time>2026-05-02T09:24:37.999Z</time></trkpt><trkpt lat="43.86129644826975" lon="11.581771874729062"><ele>380.6666666666667</ele><time>2026-05-02T09:24:39.999Z</time></trkpt><trkpt lat="43.86122793647486" lon="11.581758916189196"><ele>378.0</ele><time>2026-05-02T09:24:41.999Z</time></trkpt><trkpt lat="43.861174675532425" lon="11.581683293912096"><ele>378.0</ele><time>2026-05-02T09:24:43.999Z</time></trkpt><trkpt lat="43.86111845610241" lon="11.581602350894752"><ele>378.0</ele><time>2026-05-02T09:24:46Z</time></trkpt><trkpt lat="43.86108960006774" lon="11.581473275638634"><ele>378.0</ele><time>2026-05-02T09:24:49Z</time></trkpt><trkpt lat="43.86117273145158" lon="11.58140474742156"><ele>378.0</ele><time>2026-05-02T09:24:51Z</time></trkpt><trkpt lat="43.86123669922295" lon="11.581367964065928"><ele>378.0</ele><time>2026-05-02T09:24:52Z</time></trkpt><trkpt lat="43.86134374632198" lon="11.581282493452862"><ele>378.0</ele><time>2026-05-02T09:24:53Z</time></trkpt><trkpt lat="43.861444436985344" lon="11.58119841922856"><ele>378.0</ele><time>2026-05-02T09:24:54Z</time></trkpt><trkpt lat="43.86153049824483" lon="11.581138114358168"><ele>378.0</ele><time>2026-05-02T09:24:55Z</time></trkpt><trkpt lat="43.86160637067215" lon="11.581070407930293"><ele>378.0</ele><time>2026-05-02T09:24:56Z</time></trkpt><trkpt lat="43.86167437533928" lon="11.580991842369894"><ele>378.0</ele><time>2026-05-02T09:24:57Z</time></trkpt><trkpt lat="43.86172808029918" lon="11.580925761590763"><ele>377.6666666666667</ele><time>2026-05-02T09:24:58Z</time></trkpt><trkpt lat="43.86177192640063" lon="11.580858696125432"><ele>377.3333333333333</ele><time>2026-05-02T09:24:59Z</time></trkpt><trkpt lat="43.86180662782613" lon="11.580721388986982"><ele>377.0</ele><time>2026-05-02T09:25:01Z</time></trkpt><trkpt lat="43.86177257483618" lon="11.580580354955337"><ele>376.66666666666663</ele><time>2026-05-02T09:25:03Z</time></trkpt><trkpt lat="43.861696224464815" lon="11.580551547660452"><ele>376.3333333333333</ele><time>2026-05-02T09:25:05Z</time></trkpt><trkpt lat="43.86163204124084" lon="11.580560240309266"><ele>376.0</ele><time>2026-05-02T09:25:06Z</time></trkpt><trkpt lat="43.861567039624695" lon="11.580545654521588"><ele>373.4</ele><time>2026-05-02T09:25:07Z</time></trkpt><trkpt lat="43.861490399937296" lon="11.58044434543913"><ele>370.8</ele><time>2026-05-02T09:25:09Z</time></trkpt><trkpt lat="43.86145164859806" lon="11.58034881249815"><ele>368.2</ele><time>2026-05-02T09:25:10Z</time></trkpt><trkpt lat="43.86141268833338" lon="11.580272343371917"><ele>365.59999999999997</ele><time>2026-05-02T09:25:11Z</time></trkpt><trkpt lat="43.861385382658646" lon="11.580140299927153"><ele>363.0</ele><time>2026-05-02T09:25:13Z</time></trkpt><trkpt lat="43.86145843518903" lon="11.579988404020664"><ele>358.79999999999995</ele><time>2026-05-02T09:25:15Z</time></trkpt><trkpt lat="43.86153415307138" lon="11.579867753553932"><ele>354.6</ele><time>2026-05-02T09:25:16Z</time></trkpt><trkpt lat="43.86158949422694" lon="11.579742122339471"><ele>350.4</ele><time>2026-05-02T09:25:17Z</time></trkpt><trkpt lat="43.86163352924165" lon="11.579632121576994"><ele>346.20000000000005</ele><time>2026-05-02T09:25:18Z</time></trkpt><trkpt lat="43.86166885659332" lon="11.579526320356646"><ele>342.0</ele><time>2026-05-02T09:25:19Z</time></trkpt><trkpt lat="43.861697675743834" lon="11.579439771907023"><ele>338.0</ele><time>2026-05-02T09:25:20Z</time></trkpt><trkpt lat="43.86174232744066" lon="11.579299402642054"><ele>334.0</ele><time>2026-05-02T09:25:22Z</time></trkpt><trkpt lat="43.86170972422126" lon="11.579194467377373"><ele>330.0</ele><time>2026-05-02T09:25:24Z</time></trkpt><trkpt lat="43.861588169100784" lon="11.579193305836228"><ele>326.0</ele><time>2026-05-02T09:25:26Z</time></trkpt><trkpt lat="43.86150024364943" lon="11.579258700098858"><ele>322.0</ele><time>2026-05-02T09:25:27Z</time></trkpt><trkpt lat="43.86140539204787" lon="11.579333014401984"><ele>322.0</ele><time>2026-05-02T09:25:28Z</time></trkpt><trkpt lat="43.861299196536066" lon="11.579400905708866"><ele>322.0</ele><time>2026-05-02T09:25:29Z</time></trkpt><trkpt lat="43.86119288045803" lon="11.579469362347076"><ele>322.0</ele><time>2026-05-02T09:25:30Z</time></trkpt><trkpt lat="43.86110146130925" lon="11.579526600019445"><ele>322.0</ele><time>2026-05-02T09:25:31Z</time></trkpt><trkpt lat="43.861029568259454" lon="11.579594863674451"><ele>322.0</ele><time>2026-05-02T09:25:32Z</time></trkpt><trkpt lat="43.8609301112257" lon="11.57963894657304"><ele>322.0</ele><time>2026-05-02T09:25:34Z</time></trkpt><trkpt lat="43.86088569417751" lon="11.579567935692388"><ele>322.0</ele><time>2026-05-02T09:25:36Z</time></trkpt><trkpt lat="43.86094060487095" lon="11.579404685178133"><ele>322.0</ele><time>2026-05-02T09:25:38Z</time></trkpt><trkpt lat="43.86098214173787" lon="11.579307423680197"><ele>322.0</ele><time>2026-05-02T09:25:39Z</time></trkpt><trkpt lat="43.8610161017511" lon="11.579201512157802"><ele>322.0</ele><time>2026-05-02T09:25:40Z</time></trkpt><trkpt lat="43.86105672646978" lon="11.579096840718565"><ele>322.0</ele><time>2026-05-02T09:25:41Z</time></trkpt><trkpt lat="43.86109006747725" lon="11.578999280581877"><ele>322.0</ele><time>2026-05-02T09:25:42Z</time></trkpt><trkpt lat="43.861112606872254" lon="11.57890742923081"><ele>322.0</ele><time>2026-05-02T09:25:43Z</time></trkpt><trkpt lat="43.86107810325614" lon="11.578785512694163"><ele>322.0</ele><time>2026-05-02T09:25:45Z</time></trkpt><trkpt lat="43.86102385071359" lon="11.57872167292239"><ele>322.0</ele><time>2026-05-02T09:25:46Z</time></trkpt><trkpt lat="43.86096048824305" lon="11.578679360027705"><ele>322.0</ele><time>2026-05-02T09:25:47Z</time></trkpt><trkpt lat="43.8609136618675" lon="11.578552693627177"><ele>322.0</ele><time>2026-05-02T09:25:49Z</time></trkpt><trkpt lat="43.860880649325885" lon="11.57841659873168"><ele>318.40000000000003</ele><time>2026-05-02T09:25:50Z</time></trkpt><trkpt lat="43.86096780620663" lon="11.578263881596436"><ele>314.8</ele><time>2026-05-02T09:25:51Z</time></trkpt><trkpt lat="43.86102107791824" lon="11.578203724806862"><ele>311.2</ele><time>2026-05-02T09:25:52Z</time></trkpt><trkpt lat="43.8610956285107" lon="11.578176511290422"><ele>307.6</ele><time>2026-05-02T09:25:53Z</time></trkpt><trkpt lat="43.861175257549355" lon="11.578174469140976"><ele>304.0</ele><time>2026-05-02T09:25:54Z</time></trkpt><trkpt lat="43.861266391900344" lon="11.578187000813177"><ele>304.0</ele><time>2026-05-02T09:25:55Z</time></trkpt><trkpt lat="43.8613440845589" lon="11.578197435947736"><ele>304.0</ele><time>2026-05-02T09:25:56Z</time></trkpt><trkpt lat="43.86141798612359" lon="11.578183340162143"><ele>304.0</ele><time>2026-05-02T09:25:57Z</time></trkpt><trkpt lat="43.861511549069434" lon="11.578079566241636"><ele>304.0</ele><time>2026-05-02T09:25:59Z</time></trkpt><trkpt lat="43.86157862031357" lon="11.577970140627645"><ele>304.0</ele><time>2026-05-02T09:26:01Z</time></trkpt><trkpt lat="43.861609997395355" lon="11.577876919366565"><ele>304.0</ele><time>2026-05-02T09:26:03Z</time></trkpt><trkpt lat="43.86159737391478" lon="11.577776525410714"><ele>304.0</ele><time>2026-05-02T09:26:06Z</time></trkpt><trkpt lat="43.86163852967509" lon="11.577702780925385"><ele>304.0</ele><time>2026-05-02T09:27:51Z</time></trkpt><trkpt lat="43.861585347533484" lon="11.577799493064699"><ele>304.0</ele><time>2026-05-02T09:27:54Z</time></trkpt><trkpt lat="43.86158105614267" lon="11.57789811176305"><ele>304.0</ele><time>2026-05-02T09:27:55Z</time></trkpt><trkpt lat="43.86154490227022" lon="11.577985471852191"><ele>304.0</ele><time>2026-05-02T09:27:56Z</time></trkpt><trkpt lat="43.86148884826988" lon="11.578060513343749"><ele>304.0</ele><time>2026-05-02T09:27:57Z</time></trkpt><trkpt lat="43.8614451031436" lon="11.578128212718575"><ele>304.0</ele><time>2026-05-02T09:27:58Z</time></trkpt><trkpt lat="43.86135404705695" lon="11.578192108225123"><ele>304.0</ele><time>2026-05-02T09:28:00Z</time></trkpt><trkpt lat="43.86129052577453" lon="11.578218619173828"><ele>304.0</ele><time>2026-05-02T09:28:01Z</time></trkpt><trkpt lat="43.861222286015895" lon="11.578219949108044"><ele>304.0</ele><time>2026-05-02T09:28:02Z</time></trkpt><trkpt lat="43.86115873801431" lon="11.578214843755484"><ele>304.0</ele><time>2026-05-02T09:28:03Z</time></trkpt><trkpt lat="43.861086665135595" lon="11.578206556409688"><ele>304.0</ele><time>2026-05-02T09:28:05Z</time></trkpt><trkpt lat="43.86101585400968" lon="11.578233942785502"><ele>304.0</ele><time>2026-05-02T09:28:07Z</time></trkpt><trkpt lat="43.8609498799375" lon="11.578305549637355"><ele>304.0</ele><time>2026-05-02T09:28:09Z</time></trkpt><trkpt lat="43.86093608626667" lon="11.578401087358671"><ele>304.0</ele><time>2026-05-02T09:28:10Z</time></trkpt><trkpt lat="43.86092308623609" lon="11.578510703658383"><ele>304.0</ele><time>2026-05-02T09:28:11Z</time></trkpt><trkpt lat="43.86088970379172" lon="11.578585820182928"><ele>304.0</ele><time>2026-05-02T09:28:12Z</time></trkpt><trkpt lat="43.86082055316019" lon="11.578649318122878"><ele>304.0</ele><time>2026-05-02T09:28:13Z</time></trkpt><trkpt lat="43.860723979168945" lon="11.578737333506721"><ele>306.2</ele><time>2026-05-02T09:28:14Z</time></trkpt><trkpt lat="43.86063766222399" lon="11.578840481197185"><ele>308.4</ele><time>2026-05-02T09:28:15Z</time></trkpt><trkpt lat="43.86056898051212" lon="11.57889419082882"><ele>310.6</ele><time>2026-05-02T09:28:16Z</time></trkpt><trkpt lat="43.86047423166127" lon="11.578993442336524"><ele>312.8</ele><time>2026-05-02T09:28:18Z</time></trkpt><trkpt lat="43.86043893542201" lon="11.579087060868014"><ele>315.0</ele><time>2026-05-02T09:28:21Z</time></trkpt><trkpt lat="43.86036955519505" lon="11.579205061033006"><ele>315.0</ele><time>2026-05-02T09:28:41.999Z</time></trkpt><trkpt lat="43.86031670902799" lon="11.579345671429842"><ele>315.0</ele><time>2026-05-02T09:28:43.999Z</time></trkpt><trkpt lat="43.86030559471985" lon="11.579437612600543"><ele>315.0</ele><time>2026-05-02T09:28:45.999Z</time></trkpt><trkpt lat="43.860370518939675" lon="11.579481025432829"><ele>315.0</ele><time>2026-05-02T09:28:47.999Z</time></trkpt><trkpt lat="43.86044941396039" lon="11.579570167474532"><ele>315.0</ele><time>2026-05-02T09:28:49.999Z</time></trkpt><trkpt lat="43.86052604261534" lon="11.579666156863645"><ele>332.0</ele><time>2026-05-02T09:28:51.999Z</time></trkpt><trkpt lat="43.86060987903597" lon="11.57974167749148"><ele>332.0</ele><time>2026-05-02T09:28:53.999Z</time></trkpt><trkpt lat="43.86067683781454" lon="11.579744285498702"><ele>332.0</ele><time>2026-05-02T09:28:56.999Z</time></trkpt><trkpt lat="43.86072569348179" lon="11.57980114953831"><ele>332.0</ele><time>2026-05-02T09:29:32Z</time></trkpt><trkpt lat="43.86072866440956" lon="11.579694609386893"><ele>332.0</ele><time>2026-05-02T09:29:48Z</time></trkpt></trkseg></trk></gpx>